<?xml version="1.0" encoding="UTF-8" standalone="no" ?>
<gpx xmlns="http://www.topografix.com/GPX/1/1" xmlns:xsi="http://www.w3.org/2001/XMLSchema-instance" xsi:schemaLocation="http://www.topografix.com/GPX/1/1 http://www.topografix.com/GPX/1/1/gpx.xsd" version="1.1" creator="VisuGPX - https://www.visugpx.com">
  <metadata>
    <name>Champagnat Cyclisme sur route</name>
  </metadata>
  <trk>
    <name><![CDATA[Champagnat Cyclisme sur route_1]]></name>
    <trkseg>
      <trkpt lat="46.48265" lon="5.3683">
        <ele>273.6</ele>
        <time>2022-03-29T11:08:27Z</time>
      </trkpt>
      <trkpt lat="46.48256" lon="5.3682">
        <ele>273</ele>
        <time>2022-03-29T11:08:28Z</time>
      </trkpt>
      <trkpt lat="46.48247" lon="5.3681">
        <ele>271.6</ele>
        <time>2022-03-29T11:08:29Z</time>
      </trkpt>
      <trkpt lat="46.48237" lon="5.36802">
        <ele>270.4</ele>
        <time>2022-03-29T11:08:30Z</time>
      </trkpt>
      <trkpt lat="46.48217" lon="5.36785">
        <ele>269</ele>
        <time>2022-03-29T11:08:32Z</time>
      </trkpt>
      <trkpt lat="46.48207" lon="5.36777">
        <ele>268.2</ele>
        <time>2022-03-29T11:08:33Z</time>
      </trkpt>
      <trkpt lat="46.48197" lon="5.36769">
        <ele>267.4</ele>
        <time>2022-03-29T11:08:34Z</time>
      </trkpt>
      <trkpt lat="46.48176" lon="5.36752">
        <ele>266.2</ele>
        <time>2022-03-29T11:08:36Z</time>
      </trkpt>
      <trkpt lat="46.48158" lon="5.36736">
        <ele>265</ele>
        <time>2022-03-29T11:08:38Z</time>
      </trkpt>
      <trkpt lat="46.48133" lon="5.36717">
        <ele>263.8</ele>
        <time>2022-03-29T11:08:41Z</time>
      </trkpt>
      <trkpt lat="46.48125" lon="5.3671">
        <ele>263.4</ele>
        <time>2022-03-29T11:08:42Z</time>
      </trkpt>
      <trkpt lat="46.48113" lon="5.36698">
        <ele>261.8</ele>
        <time>2022-03-29T11:08:44Z</time>
      </trkpt>
      <trkpt lat="46.4811" lon="5.36692">
        <ele>261.4</ele>
        <time>2022-03-29T11:08:45Z</time>
      </trkpt>
      <trkpt lat="46.48109" lon="5.36685">
        <ele>260.6</ele>
        <time>2022-03-29T11:08:46Z</time>
      </trkpt>
      <trkpt lat="46.48111" lon="5.36678">
        <ele>260.4</ele>
        <time>2022-03-29T11:08:47Z</time>
      </trkpt>
      <trkpt lat="46.48114" lon="5.36672">
        <ele>259.2</ele>
        <time>2022-03-29T11:08:48Z</time>
      </trkpt>
      <trkpt lat="46.48125" lon="5.3666">
        <ele>258.2</ele>
        <time>2022-03-29T11:08:50Z</time>
      </trkpt>
      <trkpt lat="46.48131" lon="5.36654">
        <ele>257.8</ele>
        <time>2022-03-29T11:08:51Z</time>
      </trkpt>
      <trkpt lat="46.48138" lon="5.36647">
        <ele>257</ele>
        <time>2022-03-29T11:08:52Z</time>
      </trkpt>
      <trkpt lat="46.48151" lon="5.36633">
        <ele>256.2</ele>
        <time>2022-03-29T11:08:54Z</time>
      </trkpt>
      <trkpt lat="46.48157" lon="5.36626">
        <ele>255.8</ele>
        <time>2022-03-29T11:08:55Z</time>
      </trkpt>
      <trkpt lat="46.48175" lon="5.36613">
        <ele>255.6</ele>
        <time>2022-03-29T11:08:57Z</time>
      </trkpt>
      <trkpt lat="46.48191" lon="5.36607">
        <ele>255.4</ele>
        <time>2022-03-29T11:08:59Z</time>
      </trkpt>
      <trkpt lat="46.48206" lon="5.36601">
        <ele>255.4</ele>
        <time>2022-03-29T11:09:01Z</time>
      </trkpt>
      <trkpt lat="46.48218" lon="5.36585">
        <ele>255.4</ele>
        <time>2022-03-29T11:09:03Z</time>
      </trkpt>
      <trkpt lat="46.48224" lon="5.36568">
        <ele>255.4</ele>
        <time>2022-03-29T11:09:05Z</time>
      </trkpt>
      <trkpt lat="46.48227" lon="5.36559">
        <ele>255.2</ele>
        <time>2022-03-29T11:09:06Z</time>
      </trkpt>
      <trkpt lat="46.48234" lon="5.3655">
        <ele>255</ele>
        <time>2022-03-29T11:09:07Z</time>
      </trkpt>
      <trkpt lat="46.48247" lon="5.36537">
        <ele>254.8</ele>
        <time>2022-03-29T11:09:09Z</time>
      </trkpt>
      <trkpt lat="46.48252" lon="5.36531">
        <ele>254.6</ele>
        <time>2022-03-29T11:09:10Z</time>
      </trkpt>
      <trkpt lat="46.48278" lon="5.36503">
        <ele>253.8</ele>
        <time>2022-03-29T11:09:14Z</time>
      </trkpt>
      <trkpt lat="46.48313" lon="5.36465">
        <ele>252.8</ele>
        <time>2022-03-29T11:09:19Z</time>
      </trkpt>
      <trkpt lat="46.4832" lon="5.36458">
        <ele>252.6</ele>
        <time>2022-03-29T11:09:20Z</time>
      </trkpt>
      <trkpt lat="46.48357" lon="5.36417">
        <ele>251.6</ele>
        <time>2022-03-29T11:09:25Z</time>
      </trkpt>
      <trkpt lat="46.48364" lon="5.36409">
        <ele>251.2</ele>
        <time>2022-03-29T11:09:26Z</time>
      </trkpt>
      <trkpt lat="46.4838" lon="5.36391">
        <ele>250.4</ele>
        <time>2022-03-29T11:09:28Z</time>
      </trkpt>
      <trkpt lat="46.4841" lon="5.36364">
        <ele>249.6</ele>
        <time>2022-03-29T11:09:32Z</time>
      </trkpt>
      <trkpt lat="46.4842" lon="5.36358">
        <ele>249.4</ele>
        <time>2022-03-29T11:09:33Z</time>
      </trkpt>
      <trkpt lat="46.48445" lon="5.3635">
        <ele>248.4</ele>
        <time>2022-03-29T11:09:36Z</time>
      </trkpt>
      <trkpt lat="46.48453" lon="5.36348">
        <ele>248.2</ele>
        <time>2022-03-29T11:09:37Z</time>
      </trkpt>
      <trkpt lat="46.48496" lon="5.36341">
        <ele>247.8</ele>
        <time>2022-03-29T11:09:42Z</time>
      </trkpt>
      <trkpt lat="46.48552" lon="5.36332">
        <ele>247.6</ele>
        <time>2022-03-29T11:09:49Z</time>
      </trkpt>
      <trkpt lat="46.48578" lon="5.36328">
        <ele>247.4</ele>
        <time>2022-03-29T11:09:52Z</time>
      </trkpt>
      <trkpt lat="46.48605" lon="5.36324">
        <ele>247</ele>
        <time>2022-03-29T11:09:55Z</time>
      </trkpt>
      <trkpt lat="46.48622" lon="5.36312">
        <ele>246.6</ele>
        <time>2022-03-29T11:09:57Z</time>
      </trkpt>
      <trkpt lat="46.48629" lon="5.36302">
        <ele>246.6</ele>
        <time>2022-03-29T11:09:58Z</time>
      </trkpt>
      <trkpt lat="46.48633" lon="5.36289">
        <ele>246.2</ele>
        <time>2022-03-29T11:09:59Z</time>
      </trkpt>
      <trkpt lat="46.48636" lon="5.36273">
        <ele>246</ele>
        <time>2022-03-29T11:10:00Z</time>
      </trkpt>
      <trkpt lat="46.48639" lon="5.36245">
        <ele>244.6</ele>
        <time>2022-03-29T11:10:02Z</time>
      </trkpt>
      <trkpt lat="46.48642" lon="5.36216">
        <ele>243.2</ele>
        <time>2022-03-29T11:10:04Z</time>
      </trkpt>
      <trkpt lat="46.48644" lon="5.36188">
        <ele>242.6</ele>
        <time>2022-03-29T11:10:06Z</time>
      </trkpt>
      <trkpt lat="46.48647" lon="5.36147">
        <ele>242.4</ele>
        <time>2022-03-29T11:10:09Z</time>
      </trkpt>
      <trkpt lat="46.48652" lon="5.36122">
        <ele>242</ele>
        <time>2022-03-29T11:10:11Z</time>
      </trkpt>
      <trkpt lat="46.48667" lon="5.36051">
        <ele>241.6</ele>
        <time>2022-03-29T11:10:17Z</time>
      </trkpt>
      <trkpt lat="46.48675" lon="5.3601">
        <ele>241.6</ele>
        <time>2022-03-29T11:10:21Z</time>
      </trkpt>
      <trkpt lat="46.48676" lon="5.36">
        <ele>241.6</ele>
        <time>2022-03-29T11:10:22Z</time>
      </trkpt>
      <trkpt lat="46.48685" lon="5.35938">
        <ele>242.2</ele>
        <time>2022-03-29T11:10:28Z</time>
      </trkpt>
      <trkpt lat="46.48688" lon="5.35918">
        <ele>242.8</ele>
        <time>2022-03-29T11:10:30Z</time>
      </trkpt>
      <trkpt lat="46.48698" lon="5.35889">
        <ele>243</ele>
        <time>2022-03-29T11:10:33Z</time>
      </trkpt>
      <trkpt lat="46.48726" lon="5.35819">
        <ele>241.8</ele>
        <time>2022-03-29T11:10:40Z</time>
      </trkpt>
      <trkpt lat="46.48734" lon="5.358">
        <ele>241.6</ele>
        <time>2022-03-29T11:10:42Z</time>
      </trkpt>
      <trkpt lat="46.48746" lon="5.35772">
        <ele>241</ele>
        <time>2022-03-29T11:10:45Z</time>
      </trkpt>
      <trkpt lat="46.48759" lon="5.35743">
        <ele>240.2</ele>
        <time>2022-03-29T11:10:48Z</time>
      </trkpt>
      <trkpt lat="46.48779" lon="5.35698">
        <ele>240</ele>
        <time>2022-03-29T11:10:53Z</time>
      </trkpt>
      <trkpt lat="46.48795" lon="5.35663">
        <ele>239.8</ele>
        <time>2022-03-29T11:10:57Z</time>
      </trkpt>
      <trkpt lat="46.48825" lon="5.35597">
        <ele>239.8</ele>
        <time>2022-03-29T11:11:05Z</time>
      </trkpt>
      <trkpt lat="46.4885" lon="5.35541">
        <ele>239.8</ele>
        <time>2022-03-29T11:11:12Z</time>
      </trkpt>
      <trkpt lat="46.48879" lon="5.35473">
        <ele>239.8</ele>
        <time>2022-03-29T11:11:20Z</time>
      </trkpt>
      <trkpt lat="46.48887" lon="5.35457">
        <ele>239.8</ele>
        <time>2022-03-29T11:11:22Z</time>
      </trkpt>
      <trkpt lat="46.48916" lon="5.35388">
        <ele>239.2</ele>
        <time>2022-03-29T11:11:30Z</time>
      </trkpt>
      <trkpt lat="46.48925" lon="5.35371">
        <ele>239</ele>
        <time>2022-03-29T11:11:32Z</time>
      </trkpt>
      <trkpt lat="46.48933" lon="5.35353">
        <ele>238.8</ele>
        <time>2022-03-29T11:11:34Z</time>
      </trkpt>
      <trkpt lat="46.48955" lon="5.35302">
        <ele>238.4</ele>
        <time>2022-03-29T11:11:40Z</time>
      </trkpt>
      <trkpt lat="46.48961" lon="5.35286">
        <ele>238.4</ele>
        <time>2022-03-29T11:11:42Z</time>
      </trkpt>
      <trkpt lat="46.48982" lon="5.35239">
        <ele>238.4</ele>
        <time>2022-03-29T11:11:48Z</time>
      </trkpt>
      <trkpt lat="46.48996" lon="5.35209">
        <ele>238.8</ele>
        <time>2022-03-29T11:11:52Z</time>
      </trkpt>
      <trkpt lat="46.49006" lon="5.35186">
        <ele>239</ele>
        <time>2022-03-29T11:11:55Z</time>
      </trkpt>
      <trkpt lat="46.49029" lon="5.35133">
        <ele>239.8</ele>
        <time>2022-03-29T11:12:02Z</time>
      </trkpt>
      <trkpt lat="46.49033" lon="5.35125">
        <ele>239.8</ele>
        <time>2022-03-29T11:12:03Z</time>
      </trkpt>
      <trkpt lat="46.49037" lon="5.35118">
        <ele>240.2</ele>
        <time>2022-03-29T11:12:04Z</time>
      </trkpt>
      <trkpt lat="46.49048" lon="5.35106">
        <ele>240.4</ele>
        <time>2022-03-29T11:12:06Z</time>
      </trkpt>
      <trkpt lat="46.49099" lon="5.35061">
        <ele>240.6</ele>
        <time>2022-03-29T11:12:15Z</time>
      </trkpt>
      <trkpt lat="46.49138" lon="5.35026">
        <ele>239.4</ele>
        <time>2022-03-29T11:12:21Z</time>
      </trkpt>
      <trkpt lat="46.49164" lon="5.35004">
        <ele>239</ele>
        <time>2022-03-29T11:12:25Z</time>
      </trkpt>
      <trkpt lat="46.49182" lon="5.34986">
        <ele>238.8</ele>
        <time>2022-03-29T11:12:28Z</time>
      </trkpt>
      <trkpt lat="46.49187" lon="5.3498">
        <ele>239</ele>
        <time>2022-03-29T11:12:29Z</time>
      </trkpt>
      <trkpt lat="46.49203" lon="5.34958">
        <ele>239.4</ele>
        <time>2022-03-29T11:12:32Z</time>
      </trkpt>
      <trkpt lat="46.49242" lon="5.34901">
        <ele>239.4</ele>
        <time>2022-03-29T11:12:40Z</time>
      </trkpt>
      <trkpt lat="46.49256" lon="5.34879">
        <ele>239</ele>
        <time>2022-03-29T11:12:43Z</time>
      </trkpt>
      <trkpt lat="46.49266" lon="5.34866">
        <ele>239</ele>
        <time>2022-03-29T11:12:45Z</time>
      </trkpt>
      <trkpt lat="46.49277" lon="5.34853">
        <ele>238.8</ele>
        <time>2022-03-29T11:12:47Z</time>
      </trkpt>
      <trkpt lat="46.4929" lon="5.34843">
        <ele>238.8</ele>
        <time>2022-03-29T11:12:49Z</time>
      </trkpt>
      <trkpt lat="46.49301" lon="5.34837">
        <ele>238.8</ele>
        <time>2022-03-29T11:12:51Z</time>
      </trkpt>
      <trkpt lat="46.49319" lon="5.34832">
        <ele>238.6</ele>
        <time>2022-03-29T11:12:54Z</time>
      </trkpt>
      <trkpt lat="46.49362" lon="5.34824">
        <ele>238</ele>
        <time>2022-03-29T11:13:01Z</time>
      </trkpt>
      <trkpt lat="46.49397" lon="5.34814">
        <ele>238</ele>
        <time>2022-03-29T11:13:07Z</time>
      </trkpt>
      <trkpt lat="46.49409" lon="5.34807">
        <ele>238</ele>
        <time>2022-03-29T11:13:09Z</time>
      </trkpt>
      <trkpt lat="46.49426" lon="5.34793">
        <ele>238</ele>
        <time>2022-03-29T11:13:12Z</time>
      </trkpt>
      <trkpt lat="46.49446" lon="5.34773">
        <ele>237.8</ele>
        <time>2022-03-29T11:13:15Z</time>
      </trkpt>
      <trkpt lat="46.49461" lon="5.34758">
        <ele>237.4</ele>
        <time>2022-03-29T11:13:17Z</time>
      </trkpt>
      <trkpt lat="46.49477" lon="5.34742">
        <ele>237</ele>
        <time>2022-03-29T11:13:19Z</time>
      </trkpt>
      <trkpt lat="46.495" lon="5.34716">
        <ele>235.8</ele>
        <time>2022-03-29T11:13:22Z</time>
      </trkpt>
      <trkpt lat="46.49515" lon="5.34699">
        <ele>234.6</ele>
        <time>2022-03-29T11:13:24Z</time>
      </trkpt>
      <trkpt lat="46.4953" lon="5.3468">
        <ele>233.6</ele>
        <time>2022-03-29T11:13:26Z</time>
      </trkpt>
      <trkpt lat="46.49556" lon="5.3465">
        <ele>232</ele>
        <time>2022-03-29T11:13:29Z</time>
      </trkpt>
      <trkpt lat="46.49571" lon="5.3463">
        <ele>231</ele>
        <time>2022-03-29T11:13:31Z</time>
      </trkpt>
      <trkpt lat="46.49579" lon="5.3462">
        <ele>230</ele>
        <time>2022-03-29T11:13:32Z</time>
      </trkpt>
      <trkpt lat="46.496" lon="5.34589">
        <ele>229</ele>
        <time>2022-03-29T11:13:35Z</time>
      </trkpt>
      <trkpt lat="46.49612" lon="5.34569">
        <ele>228.4</ele>
        <time>2022-03-29T11:13:37Z</time>
      </trkpt>
      <trkpt lat="46.49624" lon="5.34551">
        <ele>227.6</ele>
        <time>2022-03-29T11:13:39Z</time>
      </trkpt>
      <trkpt lat="46.4963" lon="5.34544">
        <ele>227.4</ele>
        <time>2022-03-29T11:13:40Z</time>
      </trkpt>
      <trkpt lat="46.49635" lon="5.34539">
        <ele>227.2</ele>
        <time>2022-03-29T11:13:41Z</time>
      </trkpt>
      <trkpt lat="46.49645" lon="5.34532">
        <ele>226.8</ele>
        <time>2022-03-29T11:13:43Z</time>
      </trkpt>
      <trkpt lat="46.49648" lon="5.34527">
        <ele>226.6</ele>
        <time>2022-03-29T11:13:44Z</time>
      </trkpt>
      <trkpt lat="46.49651" lon="5.34521">
        <ele>226.4</ele>
        <time>2022-03-29T11:13:45Z</time>
      </trkpt>
      <trkpt lat="46.49658" lon="5.34501">
        <ele>226.2</ele>
        <time>2022-03-29T11:13:48Z</time>
      </trkpt>
      <trkpt lat="46.49674" lon="5.34448">
        <ele>226.8</ele>
        <time>2022-03-29T11:13:55Z</time>
      </trkpt>
      <trkpt lat="46.49682" lon="5.34419">
        <ele>227.6</ele>
        <time>2022-03-29T11:13:59Z</time>
      </trkpt>
      <trkpt lat="46.49685" lon="5.34405">
        <ele>227.8</ele>
        <time>2022-03-29T11:14:01Z</time>
      </trkpt>
      <trkpt lat="46.49694" lon="5.34375">
        <ele>228.8</ele>
        <time>2022-03-29T11:14:06Z</time>
      </trkpt>
      <trkpt lat="46.49696" lon="5.3437">
        <ele>229.2</ele>
        <time>2022-03-29T11:14:07Z</time>
      </trkpt>
      <trkpt lat="46.49702" lon="5.34354">
        <ele>229.8</ele>
        <time>2022-03-29T11:14:10Z</time>
      </trkpt>
      <trkpt lat="46.49705" lon="5.34348">
        <ele>230.2</ele>
        <time>2022-03-29T11:14:11Z</time>
      </trkpt>
      <trkpt lat="46.49708" lon="5.34341">
        <ele>230.4</ele>
        <time>2022-03-29T11:14:12Z</time>
      </trkpt>
      <trkpt lat="46.49712" lon="5.34329">
        <ele>231</ele>
        <time>2022-03-29T11:14:14Z</time>
      </trkpt>
      <trkpt lat="46.49722" lon="5.34308">
        <ele>231.6</ele>
        <time>2022-03-29T11:14:17Z</time>
      </trkpt>
      <trkpt lat="46.49749" lon="5.34254">
        <ele>231.8</ele>
        <time>2022-03-29T11:14:24Z</time>
      </trkpt>
      <trkpt lat="46.49783" lon="5.34196">
        <ele>231.6</ele>
        <time>2022-03-29T11:14:32Z</time>
      </trkpt>
      <trkpt lat="46.4981" lon="5.34151">
        <ele>231.8</ele>
        <time>2022-03-29T11:14:39Z</time>
      </trkpt>
      <trkpt lat="46.49839" lon="5.34103">
        <ele>232</ele>
        <time>2022-03-29T11:14:46Z</time>
      </trkpt>
      <trkpt lat="46.49868" lon="5.34062">
        <ele>231.8</ele>
        <time>2022-03-29T11:14:52Z</time>
      </trkpt>
      <trkpt lat="46.49912" lon="5.34009">
        <ele>231.6</ele>
        <time>2022-03-29T11:15:01Z</time>
      </trkpt>
      <trkpt lat="46.49944" lon="5.33975">
        <ele>232.8</ele>
        <time>2022-03-29T11:15:08Z</time>
      </trkpt>
      <trkpt lat="46.49958" lon="5.33962">
        <ele>233.2</ele>
        <time>2022-03-29T11:15:11Z</time>
      </trkpt>
      <trkpt lat="46.49975" lon="5.33943">
        <ele>233.6</ele>
        <time>2022-03-29T11:15:15Z</time>
      </trkpt>
      <trkpt lat="46.49995" lon="5.33924">
        <ele>234.2</ele>
        <time>2022-03-29T11:15:19Z</time>
      </trkpt>
      <trkpt lat="46.5001" lon="5.33907">
        <ele>234.6</ele>
        <time>2022-03-29T11:15:22Z</time>
      </trkpt>
      <trkpt lat="46.50043" lon="5.3387">
        <ele>234.6</ele>
        <time>2022-03-29T11:15:28Z</time>
      </trkpt>
      <trkpt lat="46.50082" lon="5.33827">
        <ele>233.6</ele>
        <time>2022-03-29T11:15:34Z</time>
      </trkpt>
      <trkpt lat="46.50114" lon="5.33792">
        <ele>233</ele>
        <time>2022-03-29T11:15:39Z</time>
      </trkpt>
      <trkpt lat="46.50133" lon="5.33771">
        <ele>233</ele>
        <time>2022-03-29T11:15:42Z</time>
      </trkpt>
      <trkpt lat="46.50145" lon="5.33758">
        <ele>232.8</ele>
        <time>2022-03-29T11:15:44Z</time>
      </trkpt>
      <trkpt lat="46.50173" lon="5.33727">
        <ele>232.6</ele>
        <time>2022-03-29T11:15:49Z</time>
      </trkpt>
      <trkpt lat="46.50212" lon="5.33686">
        <ele>232.8</ele>
        <time>2022-03-29T11:15:56Z</time>
      </trkpt>
      <trkpt lat="46.50257" lon="5.33637">
        <ele>233</ele>
        <time>2022-03-29T11:16:04Z</time>
      </trkpt>
      <trkpt lat="46.50263" lon="5.33631">
        <ele>232.8</ele>
        <time>2022-03-29T11:16:05Z</time>
      </trkpt>
      <trkpt lat="46.50308" lon="5.33581">
        <ele>232.2</ele>
        <time>2022-03-29T11:16:13Z</time>
      </trkpt>
      <trkpt lat="46.50314" lon="5.33575">
        <ele>232</ele>
        <time>2022-03-29T11:16:14Z</time>
      </trkpt>
      <trkpt lat="46.5036" lon="5.33524">
        <ele>231.4</ele>
        <time>2022-03-29T11:16:22Z</time>
      </trkpt>
      <trkpt lat="46.50366" lon="5.33518">
        <ele>231.4</ele>
        <time>2022-03-29T11:16:23Z</time>
      </trkpt>
      <trkpt lat="46.50401" lon="5.33481">
        <ele>231</ele>
        <time>2022-03-29T11:16:29Z</time>
      </trkpt>
      <trkpt lat="46.50425" lon="5.33455">
        <ele>230.6</ele>
        <time>2022-03-29T11:16:33Z</time>
      </trkpt>
      <trkpt lat="46.50447" lon="5.33429">
        <ele>230.2</ele>
        <time>2022-03-29T11:16:37Z</time>
      </trkpt>
      <trkpt lat="46.50451" lon="5.3342">
        <ele>230.2</ele>
        <time>2022-03-29T11:16:38Z</time>
      </trkpt>
      <trkpt lat="46.50455" lon="5.33411">
        <ele>230</ele>
        <time>2022-03-29T11:16:39Z</time>
      </trkpt>
      <trkpt lat="46.50458" lon="5.33402">
        <ele>230</ele>
        <time>2022-03-29T11:16:40Z</time>
      </trkpt>
      <trkpt lat="46.50463" lon="5.33382">
        <ele>229.6</ele>
        <time>2022-03-29T11:16:42Z</time>
      </trkpt>
      <trkpt lat="46.50467" lon="5.33328">
        <ele>229</ele>
        <time>2022-03-29T11:16:47Z</time>
      </trkpt>
      <trkpt lat="46.50467" lon="5.33318">
        <ele>229</ele>
        <time>2022-03-29T11:16:48Z</time>
      </trkpt>
      <trkpt lat="46.50467" lon="5.33257">
        <ele>228.8</ele>
        <time>2022-03-29T11:16:54Z</time>
      </trkpt>
      <trkpt lat="46.50467" lon="5.33237">
        <ele>229</ele>
        <time>2022-03-29T11:16:56Z</time>
      </trkpt>
      <trkpt lat="46.50467" lon="5.33208">
        <ele>229.2</ele>
        <time>2022-03-29T11:16:59Z</time>
      </trkpt>
      <trkpt lat="46.50469" lon="5.33149">
        <ele>229.2</ele>
        <time>2022-03-29T11:17:05Z</time>
      </trkpt>
      <trkpt lat="46.50469" lon="5.33099">
        <ele>228.8</ele>
        <time>2022-03-29T11:17:09Z</time>
      </trkpt>
      <trkpt lat="46.5047" lon="5.33065">
        <ele>227.8</ele>
        <time>2022-03-29T11:17:12Z</time>
      </trkpt>
      <trkpt lat="46.50471" lon="5.33017">
        <ele>226.6</ele>
        <time>2022-03-29T11:17:16Z</time>
      </trkpt>
      <trkpt lat="46.50472" lon="5.32978">
        <ele>225.4</ele>
        <time>2022-03-29T11:17:19Z</time>
      </trkpt>
      <trkpt lat="46.50472" lon="5.32939">
        <ele>224.2</ele>
        <time>2022-03-29T11:17:22Z</time>
      </trkpt>
      <trkpt lat="46.50473" lon="5.32912">
        <ele>223.2</ele>
        <time>2022-03-29T11:17:24Z</time>
      </trkpt>
      <trkpt lat="46.50473" lon="5.32899">
        <ele>222.2</ele>
        <time>2022-03-29T11:17:25Z</time>
      </trkpt>
      <trkpt lat="46.50473" lon="5.32885">
        <ele>221.6</ele>
        <time>2022-03-29T11:17:26Z</time>
      </trkpt>
      <trkpt lat="46.50474" lon="5.3283">
        <ele>220.6</ele>
        <time>2022-03-29T11:17:30Z</time>
      </trkpt>
      <trkpt lat="46.50475" lon="5.3279">
        <ele>219.6</ele>
        <time>2022-03-29T11:17:33Z</time>
      </trkpt>
      <trkpt lat="46.50475" lon="5.32752">
        <ele>218.4</ele>
        <time>2022-03-29T11:17:36Z</time>
      </trkpt>
      <trkpt lat="46.50477" lon="5.32702">
        <ele>217.4</ele>
        <time>2022-03-29T11:17:40Z</time>
      </trkpt>
      <trkpt lat="46.50477" lon="5.32666">
        <ele>216.6</ele>
        <time>2022-03-29T11:17:43Z</time>
      </trkpt>
      <trkpt lat="46.50477" lon="5.32632">
        <ele>216.4</ele>
        <time>2022-03-29T11:17:46Z</time>
      </trkpt>
      <trkpt lat="46.50475" lon="5.32564">
        <ele>215.6</ele>
        <time>2022-03-29T11:17:52Z</time>
      </trkpt>
      <trkpt lat="46.50474" lon="5.32542">
        <ele>215.2</ele>
        <time>2022-03-29T11:17:54Z</time>
      </trkpt>
      <trkpt lat="46.50471" lon="5.32487">
        <ele>214.4</ele>
        <time>2022-03-29T11:17:59Z</time>
      </trkpt>
      <trkpt lat="46.5047" lon="5.32476">
        <ele>214.2</ele>
        <time>2022-03-29T11:18:00Z</time>
      </trkpt>
      <trkpt lat="46.50458" lon="5.32399">
        <ele>213.6</ele>
        <time>2022-03-29T11:18:07Z</time>
      </trkpt>
      <trkpt lat="46.50456" lon="5.32389">
        <ele>213.6</ele>
        <time>2022-03-29T11:18:08Z</time>
      </trkpt>
      <trkpt lat="46.50451" lon="5.32368">
        <ele>213.2</ele>
        <time>2022-03-29T11:18:10Z</time>
      </trkpt>
      <trkpt lat="46.50439" lon="5.32308">
        <ele>213.2</ele>
        <time>2022-03-29T11:18:16Z</time>
      </trkpt>
      <trkpt lat="46.50432" lon="5.32238">
        <ele>213.2</ele>
        <time>2022-03-29T11:18:23Z</time>
      </trkpt>
      <trkpt lat="46.50433" lon="5.32154">
        <ele>212.4</ele>
        <time>2022-03-29T11:18:31Z</time>
      </trkpt>
      <trkpt lat="46.50433" lon="5.32143">
        <ele>212.2</ele>
        <time>2022-03-29T11:18:32Z</time>
      </trkpt>
      <trkpt lat="46.50434" lon="5.32121">
        <ele>212</ele>
        <time>2022-03-29T11:18:34Z</time>
      </trkpt>
      <trkpt lat="46.50435" lon="5.32066">
        <ele>211.2</ele>
        <time>2022-03-29T11:18:39Z</time>
      </trkpt>
      <trkpt lat="46.50436" lon="5.32044">
        <ele>211</ele>
        <time>2022-03-29T11:18:41Z</time>
      </trkpt>
      <trkpt lat="46.50437" lon="5.3199">
        <ele>210.2</ele>
        <time>2022-03-29T11:18:46Z</time>
      </trkpt>
      <trkpt lat="46.50438" lon="5.31936">
        <ele>209.8</ele>
        <time>2022-03-29T11:18:51Z</time>
      </trkpt>
      <trkpt lat="46.50436" lon="5.31865">
        <ele>210</ele>
        <time>2022-03-29T11:18:58Z</time>
      </trkpt>
      <trkpt lat="46.50425" lon="5.31809">
        <ele>210.2</ele>
        <time>2022-03-29T11:19:04Z</time>
      </trkpt>
      <trkpt lat="46.50404" lon="5.31739">
        <ele>209.2</ele>
        <time>2022-03-29T11:19:12Z</time>
      </trkpt>
      <trkpt lat="46.50397" lon="5.31723">
        <ele>209.2</ele>
        <time>2022-03-29T11:19:14Z</time>
      </trkpt>
      <trkpt lat="46.50372" lon="5.31678">
        <ele>208.8</ele>
        <time>2022-03-29T11:19:20Z</time>
      </trkpt>
      <trkpt lat="46.50356" lon="5.31658">
        <ele>208.6</ele>
        <time>2022-03-29T11:19:23Z</time>
      </trkpt>
      <trkpt lat="46.50344" lon="5.31648">
        <ele>208.4</ele>
        <time>2022-03-29T11:19:25Z</time>
      </trkpt>
      <trkpt lat="46.50338" lon="5.31644">
        <ele>208.2</ele>
        <time>2022-03-29T11:19:26Z</time>
      </trkpt>
      <trkpt lat="46.5029" lon="5.31607">
        <ele>207.6</ele>
        <time>2022-03-29T11:19:34Z</time>
      </trkpt>
      <trkpt lat="46.50268" lon="5.31589">
        <ele>207.6</ele>
        <time>2022-03-29T11:19:38Z</time>
      </trkpt>
      <trkpt lat="46.50231" lon="5.31543">
        <ele>207.8</ele>
        <time>2022-03-29T11:19:46Z</time>
      </trkpt>
      <trkpt lat="46.50213" lon="5.31505">
        <ele>208.4</ele>
        <time>2022-03-29T11:19:52Z</time>
      </trkpt>
      <trkpt lat="46.50204" lon="5.31482">
        <ele>209.4</ele>
        <time>2022-03-29T11:19:56Z</time>
      </trkpt>
      <trkpt lat="46.50198" lon="5.31464">
        <ele>209.6</ele>
        <time>2022-03-29T11:19:59Z</time>
      </trkpt>
      <trkpt lat="46.50189" lon="5.31436">
        <ele>210.4</ele>
        <time>2022-03-29T11:20:04Z</time>
      </trkpt>
      <trkpt lat="46.50184" lon="5.3142">
        <ele>211.2</ele>
        <time>2022-03-29T11:20:07Z</time>
      </trkpt>
      <trkpt lat="46.5018" lon="5.31411">
        <ele>211.6</ele>
        <time>2022-03-29T11:20:09Z</time>
      </trkpt>
      <trkpt lat="46.50172" lon="5.31387">
        <ele>212.8</ele>
        <time>2022-03-29T11:20:14Z</time>
      </trkpt>
      <trkpt lat="46.50168" lon="5.31376">
        <ele>213.4</ele>
        <time>2022-03-29T11:20:16Z</time>
      </trkpt>
      <trkpt lat="46.50164" lon="5.31365">
        <ele>213.8</ele>
        <time>2022-03-29T11:20:18Z</time>
      </trkpt>
      <trkpt lat="46.50157" lon="5.31342">
        <ele>215</ele>
        <time>2022-03-29T11:20:22Z</time>
      </trkpt>
      <trkpt lat="46.50155" lon="5.31336">
        <ele>215</ele>
        <time>2022-03-29T11:20:23Z</time>
      </trkpt>
      <trkpt lat="46.50136" lon="5.31283">
        <ele>216.2</ele>
        <time>2022-03-29T11:20:32Z</time>
      </trkpt>
      <trkpt lat="46.50116" lon="5.31224">
        <ele>215.8</ele>
        <time>2022-03-29T11:20:40Z</time>
      </trkpt>
      <trkpt lat="46.50095" lon="5.3116">
        <ele>214.8</ele>
        <time>2022-03-29T11:20:47Z</time>
      </trkpt>
      <trkpt lat="46.50078" lon="5.31111">
        <ele>214.2</ele>
        <time>2022-03-29T11:20:52Z</time>
      </trkpt>
      <trkpt lat="46.50069" lon="5.31084">
        <ele>214</ele>
        <time>2022-03-29T11:20:55Z</time>
      </trkpt>
      <trkpt lat="46.50054" lon="5.3104">
        <ele>214.2</ele>
        <time>2022-03-29T11:21:01Z</time>
      </trkpt>
      <trkpt lat="46.50047" lon="5.31017">
        <ele>215.2</ele>
        <time>2022-03-29T11:21:05Z</time>
      </trkpt>
      <trkpt lat="46.50042" lon="5.31001">
        <ele>216.4</ele>
        <time>2022-03-29T11:21:08Z</time>
      </trkpt>
      <trkpt lat="46.5004" lon="5.30996">
        <ele>216.6</ele>
        <time>2022-03-29T11:21:09Z</time>
      </trkpt>
      <trkpt lat="46.50034" lon="5.30976">
        <ele>217.4</ele>
        <time>2022-03-29T11:21:13Z</time>
      </trkpt>
      <trkpt lat="46.5003" lon="5.30966">
        <ele>217.8</ele>
        <time>2022-03-29T11:21:15Z</time>
      </trkpt>
      <trkpt lat="46.50025" lon="5.30951">
        <ele>218.8</ele>
        <time>2022-03-29T11:21:18Z</time>
      </trkpt>
      <trkpt lat="46.50018" lon="5.30932">
        <ele>219.6</ele>
        <time>2022-03-29T11:21:22Z</time>
      </trkpt>
      <trkpt lat="46.50014" lon="5.30922">
        <ele>219.8</ele>
        <time>2022-03-29T11:21:24Z</time>
      </trkpt>
      <trkpt lat="46.50005" lon="5.30898">
        <ele>221</ele>
        <time>2022-03-29T11:21:29Z</time>
      </trkpt>
      <trkpt lat="46.49997" lon="5.3088">
        <ele>222.2</ele>
        <time>2022-03-29T11:21:33Z</time>
      </trkpt>
      <trkpt lat="46.49992" lon="5.30865">
        <ele>223</ele>
        <time>2022-03-29T11:21:36Z</time>
      </trkpt>
      <trkpt lat="46.49987" lon="5.3085">
        <ele>223.4</ele>
        <time>2022-03-29T11:21:39Z</time>
      </trkpt>
      <trkpt lat="46.49973" lon="5.30803">
        <ele>224.4</ele>
        <time>2022-03-29T11:21:47Z</time>
      </trkpt>
      <trkpt lat="46.49964" lon="5.30762">
        <ele>225.6</ele>
        <time>2022-03-29T11:21:54Z</time>
      </trkpt>
      <trkpt lat="46.49963" lon="5.30757">
        <ele>225.6</ele>
        <time>2022-03-29T11:21:55Z</time>
      </trkpt>
      <trkpt lat="46.49962" lon="5.30751">
        <ele>225.6</ele>
        <time>2022-03-29T11:21:56Z</time>
      </trkpt>
      <trkpt lat="46.49952" lon="5.30701">
        <ele>226</ele>
        <time>2022-03-29T11:22:04Z</time>
      </trkpt>
      <trkpt lat="46.4994" lon="5.30637">
        <ele>225.6</ele>
        <time>2022-03-29T11:22:12Z</time>
      </trkpt>
      <trkpt lat="46.49934" lon="5.30573">
        <ele>224.4</ele>
        <time>2022-03-29T11:22:19Z</time>
      </trkpt>
      <trkpt lat="46.49935" lon="5.30553">
        <ele>224.2</ele>
        <time>2022-03-29T11:22:21Z</time>
      </trkpt>
      <trkpt lat="46.49938" lon="5.30533">
        <ele>223.8</ele>
        <time>2022-03-29T11:22:23Z</time>
      </trkpt>
      <trkpt lat="46.4994" lon="5.30524">
        <ele>223.6</ele>
        <time>2022-03-29T11:22:24Z</time>
      </trkpt>
      <trkpt lat="46.49943" lon="5.30514">
        <ele>223.6</ele>
        <time>2022-03-29T11:22:25Z</time>
      </trkpt>
      <trkpt lat="46.49949" lon="5.30494">
        <ele>223.4</ele>
        <time>2022-03-29T11:22:27Z</time>
      </trkpt>
      <trkpt lat="46.49954" lon="5.30485">
        <ele>223</ele>
        <time>2022-03-29T11:22:28Z</time>
      </trkpt>
      <trkpt lat="46.49964" lon="5.30467">
        <ele>222.4</ele>
        <time>2022-03-29T11:22:30Z</time>
      </trkpt>
      <trkpt lat="46.4997" lon="5.30459">
        <ele>221.8</ele>
        <time>2022-03-29T11:22:31Z</time>
      </trkpt>
      <trkpt lat="46.49976" lon="5.30451">
        <ele>221.6</ele>
        <time>2022-03-29T11:22:32Z</time>
      </trkpt>
      <trkpt lat="46.49991" lon="5.30437">
        <ele>220.8</ele>
        <time>2022-03-29T11:22:34Z</time>
      </trkpt>
      <trkpt lat="46.50014" lon="5.30419">
        <ele>219.8</ele>
        <time>2022-03-29T11:22:37Z</time>
      </trkpt>
      <trkpt lat="46.50022" lon="5.30413">
        <ele>219.2</ele>
        <time>2022-03-29T11:22:38Z</time>
      </trkpt>
      <trkpt lat="46.50051" lon="5.30384">
        <ele>218.2</ele>
        <time>2022-03-29T11:22:42Z</time>
      </trkpt>
      <trkpt lat="46.50068" lon="5.30357">
        <ele>218</ele>
        <time>2022-03-29T11:22:45Z</time>
      </trkpt>
      <trkpt lat="46.50072" lon="5.30347">
        <ele>218</ele>
        <time>2022-03-29T11:22:46Z</time>
      </trkpt>
      <trkpt lat="46.50083" lon="5.30309">
        <ele>218.2</ele>
        <time>2022-03-29T11:22:50Z</time>
      </trkpt>
      <trkpt lat="46.50088" lon="5.30266">
        <ele>219</ele>
        <time>2022-03-29T11:22:55Z</time>
      </trkpt>
      <trkpt lat="46.50089" lon="5.30258">
        <ele>219.2</ele>
        <time>2022-03-29T11:22:56Z</time>
      </trkpt>
      <trkpt lat="46.50089" lon="5.30233">
        <ele>219.4</ele>
        <time>2022-03-29T11:22:59Z</time>
      </trkpt>
      <trkpt lat="46.5009" lon="5.30208">
        <ele>219.6</ele>
        <time>2022-03-29T11:23:02Z</time>
      </trkpt>
      <trkpt lat="46.50091" lon="5.30145">
        <ele>219.8</ele>
        <time>2022-03-29T11:23:09Z</time>
      </trkpt>
      <trkpt lat="46.50092" lon="5.3012">
        <ele>220.4</ele>
        <time>2022-03-29T11:23:12Z</time>
      </trkpt>
      <trkpt lat="46.50092" lon="5.30093">
        <ele>221</ele>
        <time>2022-03-29T11:23:15Z</time>
      </trkpt>
      <trkpt lat="46.5009" lon="5.30033">
        <ele>221.2</ele>
        <time>2022-03-29T11:23:22Z</time>
      </trkpt>
      <trkpt lat="46.50082" lon="5.29976">
        <ele>221.2</ele>
        <time>2022-03-29T11:23:29Z</time>
      </trkpt>
      <trkpt lat="46.50065" lon="5.29928">
        <ele>221</ele>
        <time>2022-03-29T11:23:35Z</time>
      </trkpt>
      <trkpt lat="46.50039" lon="5.2989">
        <ele>220.6</ele>
        <time>2022-03-29T11:23:41Z</time>
      </trkpt>
      <trkpt lat="46.50024" lon="5.29875">
        <ele>220.8</ele>
        <time>2022-03-29T11:23:44Z</time>
      </trkpt>
      <trkpt lat="46.5002" lon="5.2986">
        <ele>220.6</ele>
        <time>2022-03-29T11:23:46Z</time>
      </trkpt>
      <trkpt lat="46.50026" lon="5.29846">
        <ele>220.2</ele>
        <time>2022-03-29T11:23:48Z</time>
      </trkpt>
      <trkpt lat="46.5003" lon="5.2984">
        <ele>220</ele>
        <time>2022-03-29T11:23:49Z</time>
      </trkpt>
      <trkpt lat="46.50039" lon="5.29827">
        <ele>219.8</ele>
        <time>2022-03-29T11:23:51Z</time>
      </trkpt>
      <trkpt lat="46.50054" lon="5.29811">
        <ele>219.6</ele>
        <time>2022-03-29T11:23:54Z</time>
      </trkpt>
      <trkpt lat="46.5006" lon="5.29807">
        <ele>219.6</ele>
        <time>2022-03-29T11:23:55Z</time>
      </trkpt>
      <trkpt lat="46.50095" lon="5.29791">
        <ele>219.6</ele>
        <time>2022-03-29T11:24:01Z</time>
      </trkpt>
      <trkpt lat="46.501" lon="5.29789">
        <ele>219.6</ele>
        <time>2022-03-29T11:24:02Z</time>
      </trkpt>
      <trkpt lat="46.50113" lon="5.29787">
        <ele>220</ele>
        <time>2022-03-29T11:24:04Z</time>
      </trkpt>
      <trkpt lat="46.50124" lon="5.29783">
        <ele>220.4</ele>
        <time>2022-03-29T11:24:06Z</time>
      </trkpt>
      <trkpt lat="46.5013" lon="5.29782">
        <ele>220.6</ele>
        <time>2022-03-29T11:24:07Z</time>
      </trkpt>
      <trkpt lat="46.50147" lon="5.29777">
        <ele>221.8</ele>
        <time>2022-03-29T11:24:10Z</time>
      </trkpt>
      <trkpt lat="46.50163" lon="5.29774">
        <ele>222.4</ele>
        <time>2022-03-29T11:24:13Z</time>
      </trkpt>
      <trkpt lat="46.50179" lon="5.29772">
        <ele>222.8</ele>
        <time>2022-03-29T11:24:16Z</time>
      </trkpt>
      <trkpt lat="46.50203" lon="5.29772">
        <ele>224</ele>
        <time>2022-03-29T11:24:20Z</time>
      </trkpt>
      <trkpt lat="46.50209" lon="5.29773">
        <ele>224.2</ele>
        <time>2022-03-29T11:24:21Z</time>
      </trkpt>
      <trkpt lat="46.50246" lon="5.29771">
        <ele>225</ele>
        <time>2022-03-29T11:24:27Z</time>
      </trkpt>
      <trkpt lat="46.50289" lon="5.29756">
        <ele>225</ele>
        <time>2022-03-29T11:24:34Z</time>
      </trkpt>
      <trkpt lat="46.50325" lon="5.29741">
        <ele>225.2</ele>
        <time>2022-03-29T11:24:40Z</time>
      </trkpt>
      <trkpt lat="46.50349" lon="5.29732">
        <ele>225.8</ele>
        <time>2022-03-29T11:24:44Z</time>
      </trkpt>
      <trkpt lat="46.50398" lon="5.29707">
        <ele>226.2</ele>
        <time>2022-03-29T11:24:52Z</time>
      </trkpt>
      <trkpt lat="46.5045" lon="5.29672">
        <ele>226.2</ele>
        <time>2022-03-29T11:25:00Z</time>
      </trkpt>
      <trkpt lat="46.50503" lon="5.29634">
        <ele>226.2</ele>
        <time>2022-03-29T11:25:08Z</time>
      </trkpt>
      <trkpt lat="46.50523" lon="5.2962">
        <ele>226.2</ele>
        <time>2022-03-29T11:25:11Z</time>
      </trkpt>
      <trkpt lat="46.50576" lon="5.2958">
        <ele>226</ele>
        <time>2022-03-29T11:25:19Z</time>
      </trkpt>
      <trkpt lat="46.50603" lon="5.29559">
        <ele>225.8</ele>
        <time>2022-03-29T11:25:23Z</time>
      </trkpt>
      <trkpt lat="46.50644" lon="5.29531">
        <ele>225.6</ele>
        <time>2022-03-29T11:25:29Z</time>
      </trkpt>
      <trkpt lat="46.5066" lon="5.29528">
        <ele>225.4</ele>
        <time>2022-03-29T11:25:31Z</time>
      </trkpt>
      <trkpt lat="46.50668" lon="5.29529">
        <ele>225.2</ele>
        <time>2022-03-29T11:25:32Z</time>
      </trkpt>
      <trkpt lat="46.50693" lon="5.29538">
        <ele>224.8</ele>
        <time>2022-03-29T11:25:35Z</time>
      </trkpt>
      <trkpt lat="46.50727" lon="5.29555">
        <ele>224.2</ele>
        <time>2022-03-29T11:25:39Z</time>
      </trkpt>
      <trkpt lat="46.50736" lon="5.29559">
        <ele>224</ele>
        <time>2022-03-29T11:25:40Z</time>
      </trkpt>
      <trkpt lat="46.50755" lon="5.29565">
        <ele>223.2</ele>
        <time>2022-03-29T11:25:42Z</time>
      </trkpt>
      <trkpt lat="46.50775" lon="5.29567">
        <ele>222.8</ele>
        <time>2022-03-29T11:25:44Z</time>
      </trkpt>
      <trkpt lat="46.50807" lon="5.29569">
        <ele>222</ele>
        <time>2022-03-29T11:25:47Z</time>
      </trkpt>
      <trkpt lat="46.50839" lon="5.29572">
        <ele>220.6</ele>
        <time>2022-03-29T11:25:50Z</time>
      </trkpt>
      <trkpt lat="46.5085" lon="5.29573">
        <ele>220.2</ele>
        <time>2022-03-29T11:25:51Z</time>
      </trkpt>
      <trkpt lat="46.50861" lon="5.29574">
        <ele>219.2</ele>
        <time>2022-03-29T11:25:52Z</time>
      </trkpt>
      <trkpt lat="46.50883" lon="5.29575">
        <ele>218</ele>
        <time>2022-03-29T11:25:54Z</time>
      </trkpt>
      <trkpt lat="46.50906" lon="5.2957">
        <ele>217</ele>
        <time>2022-03-29T11:25:56Z</time>
      </trkpt>
      <trkpt lat="46.50917" lon="5.29564">
        <ele>216.4</ele>
        <time>2022-03-29T11:25:57Z</time>
      </trkpt>
      <trkpt lat="46.50949" lon="5.29541">
        <ele>215</ele>
        <time>2022-03-29T11:26:00Z</time>
      </trkpt>
      <trkpt lat="46.50983" lon="5.29515">
        <ele>213.2</ele>
        <time>2022-03-29T11:26:03Z</time>
      </trkpt>
      <trkpt lat="46.50994" lon="5.29506">
        <ele>212</ele>
        <time>2022-03-29T11:26:04Z</time>
      </trkpt>
      <trkpt lat="46.51005" lon="5.29497">
        <ele>211.4</ele>
        <time>2022-03-29T11:26:05Z</time>
      </trkpt>
      <trkpt lat="46.51016" lon="5.29488">
        <ele>210.4</ele>
        <time>2022-03-29T11:26:06Z</time>
      </trkpt>
      <trkpt lat="46.51039" lon="5.29471">
        <ele>208.8</ele>
        <time>2022-03-29T11:26:08Z</time>
      </trkpt>
      <trkpt lat="46.51061" lon="5.29456">
        <ele>207.2</ele>
        <time>2022-03-29T11:26:10Z</time>
      </trkpt>
      <trkpt lat="46.51072" lon="5.2945">
        <ele>206.4</ele>
        <time>2022-03-29T11:26:11Z</time>
      </trkpt>
      <trkpt lat="46.51105" lon="5.29438">
        <ele>205</ele>
        <time>2022-03-29T11:26:14Z</time>
      </trkpt>
      <trkpt lat="46.51116" lon="5.29435">
        <ele>204.4</ele>
        <time>2022-03-29T11:26:15Z</time>
      </trkpt>
      <trkpt lat="46.51137" lon="5.29429">
        <ele>203.8</ele>
        <time>2022-03-29T11:26:17Z</time>
      </trkpt>
      <trkpt lat="46.51176" lon="5.29418">
        <ele>202.8</ele>
        <time>2022-03-29T11:26:21Z</time>
      </trkpt>
      <trkpt lat="46.51189" lon="5.29414">
        <ele>202.8</ele>
        <time>2022-03-29T11:26:22Z</time>
      </trkpt>
      <trkpt lat="46.51249" lon="5.29399">
        <ele>202.4</ele>
        <time>2022-03-29T11:26:28Z</time>
      </trkpt>
      <trkpt lat="46.51279" lon="5.29391">
        <ele>202.2</ele>
        <time>2022-03-29T11:26:31Z</time>
      </trkpt>
      <trkpt lat="46.51334" lon="5.29359">
        <ele>201.8</ele>
        <time>2022-03-29T11:26:37Z</time>
      </trkpt>
      <trkpt lat="46.51343" lon="5.29353">
        <ele>201.8</ele>
        <time>2022-03-29T11:26:38Z</time>
      </trkpt>
      <trkpt lat="46.5136" lon="5.2934">
        <ele>201.6</ele>
        <time>2022-03-29T11:26:40Z</time>
      </trkpt>
      <trkpt lat="46.51374" lon="5.29322">
        <ele>201.6</ele>
        <time>2022-03-29T11:26:42Z</time>
      </trkpt>
      <trkpt lat="46.51402" lon="5.2927">
        <ele>201.6</ele>
        <time>2022-03-29T11:26:47Z</time>
      </trkpt>
      <trkpt lat="46.51433" lon="5.29224">
        <ele>201.8</ele>
        <time>2022-03-29T11:26:52Z</time>
      </trkpt>
      <trkpt lat="46.51442" lon="5.29206">
        <ele>201.8</ele>
        <time>2022-03-29T11:26:54Z</time>
      </trkpt>
      <trkpt lat="46.51449" lon="5.29181">
        <ele>201.8</ele>
        <time>2022-03-29T11:26:56Z</time>
      </trkpt>
      <trkpt lat="46.51464" lon="5.29096">
        <ele>201.6</ele>
        <time>2022-03-29T11:27:03Z</time>
      </trkpt>
      <trkpt lat="46.51466" lon="5.29084">
        <ele>201.6</ele>
        <time>2022-03-29T11:27:04Z</time>
      </trkpt>
      <trkpt lat="46.5148" lon="5.29002">
        <ele>201</ele>
        <time>2022-03-29T11:27:11Z</time>
      </trkpt>
      <trkpt lat="46.51484" lon="5.28979">
        <ele>200.8</ele>
        <time>2022-03-29T11:27:13Z</time>
      </trkpt>
      <trkpt lat="46.5149" lon="5.28943">
        <ele>200.8</ele>
        <time>2022-03-29T11:27:16Z</time>
      </trkpt>
      <trkpt lat="46.51498" lon="5.28896">
        <ele>200.6</ele>
        <time>2022-03-29T11:27:20Z</time>
      </trkpt>
      <trkpt lat="46.51511" lon="5.28819">
        <ele>200.2</ele>
        <time>2022-03-29T11:27:27Z</time>
      </trkpt>
      <trkpt lat="46.51511" lon="5.2881">
        <ele>200</ele>
        <time>2022-03-29T11:27:28Z</time>
      </trkpt>
      <trkpt lat="46.51511" lon="5.28797">
        <ele>200</ele>
        <time>2022-03-29T11:27:29Z</time>
      </trkpt>
      <trkpt lat="46.51508" lon="5.28767">
        <ele>200</ele>
        <time>2022-03-29T11:27:32Z</time>
      </trkpt>
      <trkpt lat="46.51495" lon="5.28711">
        <ele>200.8</ele>
        <time>2022-03-29T11:27:38Z</time>
      </trkpt>
      <trkpt lat="46.51474" lon="5.28646">
        <ele>201</ele>
        <time>2022-03-29T11:27:45Z</time>
      </trkpt>
      <trkpt lat="46.51451" lon="5.28578">
        <ele>200.6</ele>
        <time>2022-03-29T11:27:53Z</time>
      </trkpt>
      <trkpt lat="46.51426" lon="5.28504">
        <ele>200.4</ele>
        <time>2022-03-29T11:28:02Z</time>
      </trkpt>
      <trkpt lat="46.51424" lon="5.28495">
        <ele>200.4</ele>
        <time>2022-03-29T11:28:03Z</time>
      </trkpt>
      <trkpt lat="46.5142" lon="5.28477">
        <ele>200.6</ele>
        <time>2022-03-29T11:28:05Z</time>
      </trkpt>
      <trkpt lat="46.51421" lon="5.28458">
        <ele>200.6</ele>
        <time>2022-03-29T11:28:07Z</time>
      </trkpt>
      <trkpt lat="46.51425" lon="5.28441">
        <ele>200.8</ele>
        <time>2022-03-29T11:28:09Z</time>
      </trkpt>
      <trkpt lat="46.51431" lon="5.28426">
        <ele>201</ele>
        <time>2022-03-29T11:28:11Z</time>
      </trkpt>
      <trkpt lat="46.51454" lon="5.28381">
        <ele>202</ele>
        <time>2022-03-29T11:28:18Z</time>
      </trkpt>
      <trkpt lat="46.51457" lon="5.28375">
        <ele>202.2</ele>
        <time>2022-03-29T11:28:19Z</time>
      </trkpt>
      <trkpt lat="46.51475" lon="5.28338">
        <ele>203.2</ele>
        <time>2022-03-29T11:28:25Z</time>
      </trkpt>
      <trkpt lat="46.51481" lon="5.28326">
        <ele>203.6</ele>
        <time>2022-03-29T11:28:27Z</time>
      </trkpt>
      <trkpt lat="46.51489" lon="5.2831">
        <ele>204.4</ele>
        <time>2022-03-29T11:28:30Z</time>
      </trkpt>
      <trkpt lat="46.51507" lon="5.28275">
        <ele>205</ele>
        <time>2022-03-29T11:28:36Z</time>
      </trkpt>
      <trkpt lat="46.51513" lon="5.28265">
        <ele>205.8</ele>
        <time>2022-03-29T11:28:38Z</time>
      </trkpt>
      <trkpt lat="46.51528" lon="5.28237">
        <ele>207</ele>
        <time>2022-03-29T11:28:43Z</time>
      </trkpt>
      <trkpt lat="46.51533" lon="5.28226">
        <ele>207.2</ele>
        <time>2022-03-29T11:28:45Z</time>
      </trkpt>
      <trkpt lat="46.51542" lon="5.28203">
        <ele>208.2</ele>
        <time>2022-03-29T11:28:49Z</time>
      </trkpt>
      <trkpt lat="46.51549" lon="5.28178">
        <ele>209.2</ele>
        <time>2022-03-29T11:28:53Z</time>
      </trkpt>
      <trkpt lat="46.51562" lon="5.28142">
        <ele>210.4</ele>
        <time>2022-03-29T11:28:59Z</time>
      </trkpt>
      <trkpt lat="46.51569" lon="5.28123">
        <ele>211</ele>
        <time>2022-03-29T11:29:02Z</time>
      </trkpt>
      <trkpt lat="46.51574" lon="5.28104">
        <ele>211.4</ele>
        <time>2022-03-29T11:29:05Z</time>
      </trkpt>
      <trkpt lat="46.51584" lon="5.28073">
        <ele>212.6</ele>
        <time>2022-03-29T11:29:10Z</time>
      </trkpt>
      <trkpt lat="46.5159" lon="5.28055">
        <ele>213.4</ele>
        <time>2022-03-29T11:29:13Z</time>
      </trkpt>
      <trkpt lat="46.51594" lon="5.28043">
        <ele>213.8</ele>
        <time>2022-03-29T11:29:15Z</time>
      </trkpt>
      <trkpt lat="46.51612" lon="5.28007">
        <ele>215</ele>
        <time>2022-03-29T11:29:22Z</time>
      </trkpt>
      <trkpt lat="46.51639" lon="5.27976">
        <ele>215.8</ele>
        <time>2022-03-29T11:29:29Z</time>
      </trkpt>
      <trkpt lat="46.51679" lon="5.27935">
        <ele>215.8</ele>
        <time>2022-03-29T11:29:37Z</time>
      </trkpt>
      <trkpt lat="46.51725" lon="5.27887">
        <ele>215.6</ele>
        <time>2022-03-29T11:29:45Z</time>
      </trkpt>
      <trkpt lat="46.51765" lon="5.27846">
        <ele>215</ele>
        <time>2022-03-29T11:29:51Z</time>
      </trkpt>
      <trkpt lat="46.51795" lon="5.27815">
        <ele>214</ele>
        <time>2022-03-29T11:29:55Z</time>
      </trkpt>
      <trkpt lat="46.51818" lon="5.27791">
        <ele>213.6</ele>
        <time>2022-03-29T11:29:58Z</time>
      </trkpt>
      <trkpt lat="46.51842" lon="5.27766">
        <ele>212.8</ele>
        <time>2022-03-29T11:30:01Z</time>
      </trkpt>
      <trkpt lat="46.51866" lon="5.27742">
        <ele>211.4</ele>
        <time>2022-03-29T11:30:04Z</time>
      </trkpt>
      <trkpt lat="46.51882" lon="5.27725">
        <ele>210.8</ele>
        <time>2022-03-29T11:30:06Z</time>
      </trkpt>
      <trkpt lat="46.5189" lon="5.27716">
        <ele>210</ele>
        <time>2022-03-29T11:30:07Z</time>
      </trkpt>
      <trkpt lat="46.51916" lon="5.27689">
        <ele>209</ele>
        <time>2022-03-29T11:30:10Z</time>
      </trkpt>
      <trkpt lat="46.51933" lon="5.27671">
        <ele>207.8</ele>
        <time>2022-03-29T11:30:12Z</time>
      </trkpt>
      <trkpt lat="46.51949" lon="5.2765">
        <ele>206.4</ele>
        <time>2022-03-29T11:30:14Z</time>
      </trkpt>
      <trkpt lat="46.51974" lon="5.27617">
        <ele>205.2</ele>
        <time>2022-03-29T11:30:17Z</time>
      </trkpt>
      <trkpt lat="46.52006" lon="5.27576">
        <ele>204</ele>
        <time>2022-03-29T11:30:21Z</time>
      </trkpt>
      <trkpt lat="46.5202" lon="5.27556">
        <ele>203.8</ele>
        <time>2022-03-29T11:30:23Z</time>
      </trkpt>
      <trkpt lat="46.52061" lon="5.27502">
        <ele>203.4</ele>
        <time>2022-03-29T11:30:29Z</time>
      </trkpt>
      <trkpt lat="46.52068" lon="5.27494">
        <ele>203.6</ele>
        <time>2022-03-29T11:30:30Z</time>
      </trkpt>
      <trkpt lat="46.521" lon="5.27449">
        <ele>204.4</ele>
        <time>2022-03-29T11:30:36Z</time>
      </trkpt>
      <trkpt lat="46.52109" lon="5.27434">
        <ele>205</ele>
        <time>2022-03-29T11:30:38Z</time>
      </trkpt>
      <trkpt lat="46.52116" lon="5.27419">
        <ele>205.6</ele>
        <time>2022-03-29T11:30:40Z</time>
      </trkpt>
      <trkpt lat="46.52119" lon="5.27411">
        <ele>206</ele>
        <time>2022-03-29T11:30:41Z</time>
      </trkpt>
      <trkpt lat="46.52125" lon="5.27387">
        <ele>207</ele>
        <time>2022-03-29T11:30:44Z</time>
      </trkpt>
      <trkpt lat="46.52125" lon="5.27379">
        <ele>207</ele>
        <time>2022-03-29T11:30:45Z</time>
      </trkpt>
      <trkpt lat="46.52126" lon="5.27372">
        <ele>207.2</ele>
        <time>2022-03-29T11:30:46Z</time>
      </trkpt>
      <trkpt lat="46.52126" lon="5.27365">
        <ele>207.4</ele>
        <time>2022-03-29T11:30:47Z</time>
      </trkpt>
      <trkpt lat="46.52125" lon="5.27352">
        <ele>207.8</ele>
        <time>2022-03-29T11:30:49Z</time>
      </trkpt>
      <trkpt lat="46.52124" lon="5.27345">
        <ele>208</ele>
        <time>2022-03-29T11:30:50Z</time>
      </trkpt>
      <trkpt lat="46.52123" lon="5.27338">
        <ele>208.4</ele>
        <time>2022-03-29T11:30:51Z</time>
      </trkpt>
      <trkpt lat="46.52118" lon="5.27326">
        <ele>208.8</ele>
        <time>2022-03-29T11:30:53Z</time>
      </trkpt>
      <trkpt lat="46.52113" lon="5.27316">
        <ele>209</ele>
        <time>2022-03-29T11:30:55Z</time>
      </trkpt>
      <trkpt lat="46.52109" lon="5.27312">
        <ele>209.2</ele>
        <time>2022-03-29T11:30:56Z</time>
      </trkpt>
      <trkpt lat="46.52102" lon="5.27306">
        <ele>210</ele>
        <time>2022-03-29T11:30:58Z</time>
      </trkpt>
      <trkpt lat="46.52098" lon="5.27303">
        <ele>210.2</ele>
        <time>2022-03-29T11:30:59Z</time>
      </trkpt>
      <trkpt lat="46.52085" lon="5.27297">
        <ele>211</ele>
        <time>2022-03-29T11:31:02Z</time>
      </trkpt>
      <trkpt lat="46.52072" lon="5.27291">
        <ele>211.4</ele>
        <time>2022-03-29T11:31:05Z</time>
      </trkpt>
      <trkpt lat="46.5205" lon="5.27275">
        <ele>212.2</ele>
        <time>2022-03-29T11:31:11Z</time>
      </trkpt>
      <trkpt lat="46.52047" lon="5.27272">
        <ele>212.6</ele>
        <time>2022-03-29T11:31:12Z</time>
      </trkpt>
      <trkpt lat="46.5204" lon="5.27265">
        <ele>213</ele>
        <time>2022-03-29T11:31:14Z</time>
      </trkpt>
      <trkpt lat="46.52032" lon="5.27252">
        <ele>213.4</ele>
        <time>2022-03-29T11:31:17Z</time>
      </trkpt>
      <trkpt lat="46.52028" lon="5.27242">
        <ele>213.8</ele>
        <time>2022-03-29T11:31:19Z</time>
      </trkpt>
      <trkpt lat="46.52019" lon="5.27217">
        <ele>214.2</ele>
        <time>2022-03-29T11:31:24Z</time>
      </trkpt>
      <trkpt lat="46.52014" lon="5.27195">
        <ele>215</ele>
        <time>2022-03-29T11:31:28Z</time>
      </trkpt>
      <trkpt lat="46.52007" lon="5.27174">
        <ele>215.6</ele>
        <time>2022-03-29T11:31:32Z</time>
      </trkpt>
      <trkpt lat="46.52005" lon="5.27156">
        <ele>216.2</ele>
        <time>2022-03-29T11:31:35Z</time>
      </trkpt>
      <trkpt lat="46.52001" lon="5.27133">
        <ele>217</ele>
        <time>2022-03-29T11:31:39Z</time>
      </trkpt>
      <trkpt lat="46.51999" lon="5.27121">
        <ele>217.4</ele>
        <time>2022-03-29T11:31:41Z</time>
      </trkpt>
      <trkpt lat="46.51995" lon="5.27079">
        <ele>218.6</ele>
        <time>2022-03-29T11:31:48Z</time>
      </trkpt>
      <trkpt lat="46.51992" lon="5.2705">
        <ele>219.6</ele>
        <time>2022-03-29T11:31:53Z</time>
      </trkpt>
      <trkpt lat="46.5199" lon="5.27027">
        <ele>220.2</ele>
        <time>2022-03-29T11:31:57Z</time>
      </trkpt>
      <trkpt lat="46.51988" lon="5.2701">
        <ele>220.8</ele>
        <time>2022-03-29T11:32:00Z</time>
      </trkpt>
      <trkpt lat="46.51982" lon="5.26968">
        <ele>222</ele>
        <time>2022-03-29T11:32:07Z</time>
      </trkpt>
      <trkpt lat="46.51964" lon="5.26908">
        <ele>222.6</ele>
        <time>2022-03-29T11:32:16Z</time>
      </trkpt>
      <trkpt lat="46.51954" lon="5.26875">
        <ele>222.6</ele>
        <time>2022-03-29T11:32:20Z</time>
      </trkpt>
      <trkpt lat="46.51952" lon="5.26865">
        <ele>222.6</ele>
        <time>2022-03-29T11:32:21Z</time>
      </trkpt>
      <trkpt lat="46.51952" lon="5.26843">
        <ele>222.4</ele>
        <time>2022-03-29T11:32:23Z</time>
      </trkpt>
      <trkpt lat="46.51958" lon="5.26819">
        <ele>222</ele>
        <time>2022-03-29T11:32:25Z</time>
      </trkpt>
      <trkpt lat="46.51963" lon="5.26808">
        <ele>221.8</ele>
        <time>2022-03-29T11:32:26Z</time>
      </trkpt>
      <trkpt lat="46.51969" lon="5.26798">
        <ele>221.8</ele>
        <time>2022-03-29T11:32:27Z</time>
      </trkpt>
      <trkpt lat="46.51985" lon="5.2678">
        <ele>221.4</ele>
        <time>2022-03-29T11:32:29Z</time>
      </trkpt>
      <trkpt lat="46.51993" lon="5.26773">
        <ele>220.6</ele>
        <time>2022-03-29T11:32:30Z</time>
      </trkpt>
      <trkpt lat="46.52009" lon="5.26758">
        <ele>219.2</ele>
        <time>2022-03-29T11:32:32Z</time>
      </trkpt>
      <trkpt lat="46.52027" lon="5.26743">
        <ele>218</ele>
        <time>2022-03-29T11:32:34Z</time>
      </trkpt>
      <trkpt lat="46.52035" lon="5.26735">
        <ele>217.4</ele>
        <time>2022-03-29T11:32:35Z</time>
      </trkpt>
      <trkpt lat="46.52054" lon="5.26719">
        <ele>216.2</ele>
        <time>2022-03-29T11:32:37Z</time>
      </trkpt>
      <trkpt lat="46.52081" lon="5.26696">
        <ele>215.2</ele>
        <time>2022-03-29T11:32:40Z</time>
      </trkpt>
      <trkpt lat="46.5209" lon="5.26688">
        <ele>214.8</ele>
        <time>2022-03-29T11:32:41Z</time>
      </trkpt>
      <trkpt lat="46.52108" lon="5.26673">
        <ele>213.4</ele>
        <time>2022-03-29T11:32:43Z</time>
      </trkpt>
      <trkpt lat="46.52125" lon="5.26655">
        <ele>212.6</ele>
        <time>2022-03-29T11:32:45Z</time>
      </trkpt>
      <trkpt lat="46.52133" lon="5.26645">
        <ele>212</ele>
        <time>2022-03-29T11:32:46Z</time>
      </trkpt>
      <trkpt lat="46.52153" lon="5.26612">
        <ele>210.8</ele>
        <time>2022-03-29T11:32:49Z</time>
      </trkpt>
      <trkpt lat="46.52165" lon="5.26589">
        <ele>210</ele>
        <time>2022-03-29T11:32:51Z</time>
      </trkpt>
      <trkpt lat="46.5217" lon="5.2658">
        <ele>209.6</ele>
        <time>2022-03-29T11:32:52Z</time>
      </trkpt>
      <trkpt lat="46.52178" lon="5.26568">
        <ele>209</ele>
        <time>2022-03-29T11:32:53Z</time>
      </trkpt>
      <trkpt lat="46.52192" lon="5.2655">
        <ele>208.6</ele>
        <time>2022-03-29T11:32:55Z</time>
      </trkpt>
      <trkpt lat="46.52227" lon="5.26527">
        <ele>207.8</ele>
        <time>2022-03-29T11:32:59Z</time>
      </trkpt>
      <trkpt lat="46.52236" lon="5.26523">
        <ele>207.4</ele>
        <time>2022-03-29T11:33:00Z</time>
      </trkpt>
      <trkpt lat="46.52281" lon="5.26502">
        <ele>206.2</ele>
        <time>2022-03-29T11:33:05Z</time>
      </trkpt>
      <trkpt lat="46.52298" lon="5.26495">
        <ele>205.8</ele>
        <time>2022-03-29T11:33:07Z</time>
      </trkpt>
      <trkpt lat="46.52328" lon="5.26482">
        <ele>205</ele>
        <time>2022-03-29T11:33:10Z</time>
      </trkpt>
      <trkpt lat="46.52357" lon="5.26469">
        <ele>204</ele>
        <time>2022-03-29T11:33:13Z</time>
      </trkpt>
      <trkpt lat="46.52376" lon="5.26457">
        <ele>203.4</ele>
        <time>2022-03-29T11:33:15Z</time>
      </trkpt>
      <trkpt lat="46.52384" lon="5.26449">
        <ele>202.8</ele>
        <time>2022-03-29T11:33:16Z</time>
      </trkpt>
      <trkpt lat="46.5239" lon="5.26441">
        <ele>202.6</ele>
        <time>2022-03-29T11:33:17Z</time>
      </trkpt>
      <trkpt lat="46.52397" lon="5.2643">
        <ele>202.6</ele>
        <time>2022-03-29T11:33:18Z</time>
      </trkpt>
      <trkpt lat="46.52404" lon="5.26415">
        <ele>202.4</ele>
        <time>2022-03-29T11:33:19Z</time>
      </trkpt>
      <trkpt lat="46.52413" lon="5.26393">
        <ele>201.8</ele>
        <time>2022-03-29T11:33:21Z</time>
      </trkpt>
      <trkpt lat="46.52423" lon="5.26365">
        <ele>201.4</ele>
        <time>2022-03-29T11:33:23Z</time>
      </trkpt>
      <trkpt lat="46.52436" lon="5.26331">
        <ele>200.8</ele>
        <time>2022-03-29T11:33:26Z</time>
      </trkpt>
      <trkpt lat="46.52462" lon="5.26259">
        <ele>200.4</ele>
        <time>2022-03-29T11:33:32Z</time>
      </trkpt>
      <trkpt lat="46.52467" lon="5.26248">
        <ele>200.4</ele>
        <time>2022-03-29T11:33:33Z</time>
      </trkpt>
      <trkpt lat="46.52496" lon="5.26169">
        <ele>200.4</ele>
        <time>2022-03-29T11:33:40Z</time>
      </trkpt>
      <trkpt lat="46.525" lon="5.26159">
        <ele>200.4</ele>
        <time>2022-03-29T11:33:41Z</time>
      </trkpt>
      <trkpt lat="46.52513" lon="5.26131">
        <ele>200</ele>
        <time>2022-03-29T11:33:44Z</time>
      </trkpt>
      <trkpt lat="46.52519" lon="5.26123">
        <ele>200</ele>
        <time>2022-03-29T11:33:45Z</time>
      </trkpt>
      <trkpt lat="46.52526" lon="5.26119">
        <ele>199.8</ele>
        <time>2022-03-29T11:33:46Z</time>
      </trkpt>
      <trkpt lat="46.52539" lon="5.26118">
        <ele>199.8</ele>
        <time>2022-03-29T11:33:48Z</time>
      </trkpt>
      <trkpt lat="46.52548" lon="5.26118">
        <ele>199.8</ele>
        <time>2022-03-29T11:33:49Z</time>
      </trkpt>
      <trkpt lat="46.52563" lon="5.26113">
        <ele>199.8</ele>
        <time>2022-03-29T11:33:51Z</time>
      </trkpt>
      <trkpt lat="46.52567" lon="5.26109">
        <ele>200</ele>
        <time>2022-03-29T11:33:52Z</time>
      </trkpt>
      <trkpt lat="46.52572" lon="5.26103">
        <ele>200</ele>
        <time>2022-03-29T11:33:53Z</time>
      </trkpt>
      <trkpt lat="46.52579" lon="5.26087">
        <ele>200.2</ele>
        <time>2022-03-29T11:33:55Z</time>
      </trkpt>
      <trkpt lat="46.52589" lon="5.26044">
        <ele>201.8</ele>
        <time>2022-03-29T11:34:01Z</time>
      </trkpt>
      <trkpt lat="46.5259" lon="5.26039">
        <ele>202.4</ele>
        <time>2022-03-29T11:34:02Z</time>
      </trkpt>
      <trkpt lat="46.52595" lon="5.26014">
        <ele>203.4</ele>
        <time>2022-03-29T11:34:06Z</time>
      </trkpt>
      <trkpt lat="46.52596" lon="5.2601">
        <ele>204.2</ele>
        <time>2022-03-29T11:34:07Z</time>
      </trkpt>
      <trkpt lat="46.52601" lon="5.25988">
        <ele>205</ele>
        <time>2022-03-29T11:34:11Z</time>
      </trkpt>
      <trkpt lat="46.52602" lon="5.25983">
        <ele>205.2</ele>
        <time>2022-03-29T11:34:12Z</time>
      </trkpt>
      <trkpt lat="46.52612" lon="5.25965">
        <ele>206</ele>
        <time>2022-03-29T11:34:16Z</time>
      </trkpt>
      <trkpt lat="46.52615" lon="5.25962">
        <ele>206.4</ele>
        <time>2022-03-29T11:34:17Z</time>
      </trkpt>
      <trkpt lat="46.52627" lon="5.25956">
        <ele>207.6</ele>
        <time>2022-03-29T11:34:20Z</time>
      </trkpt>
      <trkpt lat="46.52641" lon="5.25954">
        <ele>208.6</ele>
        <time>2022-03-29T11:34:24Z</time>
      </trkpt>
      <trkpt lat="46.5265" lon="5.25952">
        <ele>209.4</ele>
        <time>2022-03-29T11:34:26Z</time>
      </trkpt>
      <trkpt lat="46.52657" lon="5.2595">
        <ele>210.2</ele>
        <time>2022-03-29T11:34:28Z</time>
      </trkpt>
      <trkpt lat="46.52671" lon="5.25938">
        <ele>211.4</ele>
        <time>2022-03-29T11:34:32Z</time>
      </trkpt>
      <trkpt lat="46.52681" lon="5.25916">
        <ele>212.6</ele>
        <time>2022-03-29T11:34:37Z</time>
      </trkpt>
      <trkpt lat="46.52684" lon="5.25908">
        <ele>213.2</ele>
        <time>2022-03-29T11:34:39Z</time>
      </trkpt>
      <trkpt lat="46.52686" lon="5.25903">
        <ele>213.6</ele>
        <time>2022-03-29T11:34:40Z</time>
      </trkpt>
      <trkpt lat="46.52691" lon="5.25876">
        <ele>214.8</ele>
        <time>2022-03-29T11:34:46Z</time>
      </trkpt>
      <trkpt lat="46.52693" lon="5.25848">
        <ele>215.8</ele>
        <time>2022-03-29T11:34:52Z</time>
      </trkpt>
      <trkpt lat="46.52693" lon="5.25838">
        <ele>216.8</ele>
        <time>2022-03-29T11:34:54Z</time>
      </trkpt>
      <trkpt lat="46.52693" lon="5.25832">
        <ele>217</ele>
        <time>2022-03-29T11:34:55Z</time>
      </trkpt>
      <trkpt lat="46.52693" lon="5.25803">
        <ele>218</ele>
        <time>2022-03-29T11:35:01Z</time>
      </trkpt>
      <trkpt lat="46.52695" lon="5.2579">
        <ele>218.2</ele>
        <time>2022-03-29T11:35:04Z</time>
      </trkpt>
      <trkpt lat="46.52705" lon="5.25752">
        <ele>219</ele>
        <time>2022-03-29T11:35:11Z</time>
      </trkpt>
      <trkpt lat="46.52715" lon="5.25703">
        <ele>219.8</ele>
        <time>2022-03-29T11:35:19Z</time>
      </trkpt>
      <trkpt lat="46.52717" lon="5.25652">
        <ele>220.2</ele>
        <time>2022-03-29T11:35:26Z</time>
      </trkpt>
      <trkpt lat="46.52717" lon="5.25644">
        <ele>220.4</ele>
        <time>2022-03-29T11:35:27Z</time>
      </trkpt>
      <trkpt lat="46.52719" lon="5.25592">
        <ele>221</ele>
        <time>2022-03-29T11:35:34Z</time>
      </trkpt>
      <trkpt lat="46.52722" lon="5.25511">
        <ele>221.2</ele>
        <time>2022-03-29T11:35:45Z</time>
      </trkpt>
      <trkpt lat="46.52722" lon="5.25504">
        <ele>221.4</ele>
        <time>2022-03-29T11:35:46Z</time>
      </trkpt>
      <trkpt lat="46.52722" lon="5.25481">
        <ele>221.6</ele>
        <time>2022-03-29T11:35:49Z</time>
      </trkpt>
      <trkpt lat="46.52718" lon="5.25468">
        <ele>221.8</ele>
        <time>2022-03-29T11:35:51Z</time>
      </trkpt>
      <trkpt lat="46.52697" lon="5.2543">
        <ele>222.2</ele>
        <time>2022-03-29T11:35:57Z</time>
      </trkpt>
      <trkpt lat="46.52669" lon="5.25391">
        <ele>222.6</ele>
        <time>2022-03-29T11:36:04Z</time>
      </trkpt>
      <trkpt lat="46.52658" lon="5.25375">
        <ele>222.6</ele>
        <time>2022-03-29T11:36:07Z</time>
      </trkpt>
      <trkpt lat="46.52643" lon="5.2535">
        <ele>222.8</ele>
        <time>2022-03-29T11:36:11Z</time>
      </trkpt>
      <trkpt lat="46.52629" lon="5.25313">
        <ele>223.2</ele>
        <time>2022-03-29T11:36:16Z</time>
      </trkpt>
      <trkpt lat="46.52627" lon="5.25305">
        <ele>223.4</ele>
        <time>2022-03-29T11:36:17Z</time>
      </trkpt>
      <trkpt lat="46.52618" lon="5.25243">
        <ele>223.6</ele>
        <time>2022-03-29T11:36:24Z</time>
      </trkpt>
      <trkpt lat="46.52617" lon="5.25179">
        <ele>223.4</ele>
        <time>2022-03-29T11:36:31Z</time>
      </trkpt>
      <trkpt lat="46.52615" lon="5.25133">
        <ele>223.8</ele>
        <time>2022-03-29T11:36:36Z</time>
      </trkpt>
      <trkpt lat="46.52614" lon="5.25097">
        <ele>224</ele>
        <time>2022-03-29T11:36:40Z</time>
      </trkpt>
      <trkpt lat="46.52608" lon="5.2501">
        <ele>223.2</ele>
        <time>2022-03-29T11:36:49Z</time>
      </trkpt>
      <trkpt lat="46.52597" lon="5.24943">
        <ele>222.6</ele>
        <time>2022-03-29T11:36:56Z</time>
      </trkpt>
      <trkpt lat="46.52594" lon="5.24914">
        <ele>222.6</ele>
        <time>2022-03-29T11:36:59Z</time>
      </trkpt>
      <trkpt lat="46.5259" lon="5.24847">
        <ele>222.8</ele>
        <time>2022-03-29T11:37:06Z</time>
      </trkpt>
      <trkpt lat="46.52586" lon="5.24759">
        <ele>222.6</ele>
        <time>2022-03-29T11:37:15Z</time>
      </trkpt>
      <trkpt lat="46.52586" lon="5.24743">
        <ele>222.6</ele>
        <time>2022-03-29T11:37:17Z</time>
      </trkpt>
      <trkpt lat="46.52583" lon="5.24671">
        <ele>222</ele>
        <time>2022-03-29T11:37:25Z</time>
      </trkpt>
      <trkpt lat="46.52571" lon="5.24618">
        <ele>222</ele>
        <time>2022-03-29T11:37:31Z</time>
      </trkpt>
      <trkpt lat="46.52544" lon="5.24544">
        <ele>222</ele>
        <time>2022-03-29T11:37:40Z</time>
      </trkpt>
      <trkpt lat="46.52537" lon="5.24525">
        <ele>222</ele>
        <time>2022-03-29T11:37:42Z</time>
      </trkpt>
      <trkpt lat="46.52519" lon="5.24462">
        <ele>221</ele>
        <time>2022-03-29T11:37:49Z</time>
      </trkpt>
      <trkpt lat="46.52506" lon="5.24385">
        <ele>220.2</ele>
        <time>2022-03-29T11:37:57Z</time>
      </trkpt>
      <trkpt lat="46.52503" lon="5.24367">
        <ele>220</ele>
        <time>2022-03-29T11:37:59Z</time>
      </trkpt>
      <trkpt lat="46.52496" lon="5.24312">
        <ele>219.6</ele>
        <time>2022-03-29T11:38:05Z</time>
      </trkpt>
      <trkpt lat="46.52487" lon="5.24234">
        <ele>219.4</ele>
        <time>2022-03-29T11:38:14Z</time>
      </trkpt>
      <trkpt lat="46.52479" lon="5.24173">
        <ele>220.6</ele>
        <time>2022-03-29T11:38:22Z</time>
      </trkpt>
      <trkpt lat="46.52476" lon="5.24151">
        <ele>221</ele>
        <time>2022-03-29T11:38:25Z</time>
      </trkpt>
      <trkpt lat="46.52476" lon="5.24146">
        <ele>221.2</ele>
        <time>2022-03-29T11:38:26Z</time>
      </trkpt>
      <trkpt lat="46.52477" lon="5.24141">
        <ele>221.2</ele>
        <time>2022-03-29T11:38:27Z</time>
      </trkpt>
      <trkpt lat="46.52482" lon="5.24129">
        <ele>221.4</ele>
        <time>2022-03-29T11:38:30Z</time>
      </trkpt>
      <trkpt lat="46.52481" lon="5.24124">
        <ele>221.6</ele>
        <time>2022-03-29T11:38:31Z</time>
      </trkpt>
      <trkpt lat="46.52479" lon="5.24113">
        <ele>221.6</ele>
        <time>2022-03-29T11:38:33Z</time>
      </trkpt>
      <trkpt lat="46.5248" lon="5.24098">
        <ele>221.6</ele>
        <time>2022-03-29T11:38:35Z</time>
      </trkpt>
      <trkpt lat="46.52482" lon="5.24081">
        <ele>221.6</ele>
        <time>2022-03-29T11:38:37Z</time>
      </trkpt>
      <trkpt lat="46.52486" lon="5.24056">
        <ele>221.4</ele>
        <time>2022-03-29T11:38:40Z</time>
      </trkpt>
      <trkpt lat="46.52495" lon="5.23992">
        <ele>221.8</ele>
        <time>2022-03-29T11:38:47Z</time>
      </trkpt>
      <trkpt lat="46.52503" lon="5.23926">
        <ele>222</ele>
        <time>2022-03-29T11:38:54Z</time>
      </trkpt>
      <trkpt lat="46.52504" lon="5.23907">
        <ele>222.2</ele>
        <time>2022-03-29T11:38:56Z</time>
      </trkpt>
      <trkpt lat="46.52502" lon="5.23888">
        <ele>222.4</ele>
        <time>2022-03-29T11:38:58Z</time>
      </trkpt>
      <trkpt lat="46.52501" lon="5.23877">
        <ele>222.4</ele>
        <time>2022-03-29T11:38:59Z</time>
      </trkpt>
      <trkpt lat="46.52489" lon="5.23823">
        <ele>222.2</ele>
        <time>2022-03-29T11:39:05Z</time>
      </trkpt>
      <trkpt lat="46.52478" lon="5.23777">
        <ele>221.4</ele>
        <time>2022-03-29T11:39:10Z</time>
      </trkpt>
      <trkpt lat="46.5247" lon="5.23749">
        <ele>221</ele>
        <time>2022-03-29T11:39:13Z</time>
      </trkpt>
      <trkpt lat="46.52452" lon="5.23673">
        <ele>220.4</ele>
        <time>2022-03-29T11:39:21Z</time>
      </trkpt>
      <trkpt lat="46.5245" lon="5.23664">
        <ele>220.2</ele>
        <time>2022-03-29T11:39:22Z</time>
      </trkpt>
      <trkpt lat="46.52447" lon="5.23655">
        <ele>220.2</ele>
        <time>2022-03-29T11:39:23Z</time>
      </trkpt>
      <trkpt lat="46.52426" lon="5.23576">
        <ele>219.8</ele>
        <time>2022-03-29T11:39:32Z</time>
      </trkpt>
      <trkpt lat="46.52424" lon="5.23567">
        <ele>219.8</ele>
        <time>2022-03-29T11:39:33Z</time>
      </trkpt>
      <trkpt lat="46.52419" lon="5.23523">
        <ele>220</ele>
        <time>2022-03-29T11:39:38Z</time>
      </trkpt>
      <trkpt lat="46.52421" lon="5.23505">
        <ele>220.2</ele>
        <time>2022-03-29T11:39:40Z</time>
      </trkpt>
      <trkpt lat="46.52426" lon="5.23487">
        <ele>220.2</ele>
        <time>2022-03-29T11:39:42Z</time>
      </trkpt>
      <trkpt lat="46.52451" lon="5.23427">
        <ele>220.2</ele>
        <time>2022-03-29T11:39:50Z</time>
      </trkpt>
      <trkpt lat="46.52481" lon="5.23357">
        <ele>221</ele>
        <time>2022-03-29T11:39:59Z</time>
      </trkpt>
      <trkpt lat="46.52512" lon="5.23288">
        <ele>221.4</ele>
        <time>2022-03-29T11:40:08Z</time>
      </trkpt>
      <trkpt lat="46.5254" lon="5.23225">
        <ele>220.2</ele>
        <time>2022-03-29T11:40:16Z</time>
      </trkpt>
      <trkpt lat="46.52568" lon="5.23159">
        <ele>219.6</ele>
        <time>2022-03-29T11:40:23Z</time>
      </trkpt>
      <trkpt lat="46.52577" lon="5.23136">
        <ele>219.4</ele>
        <time>2022-03-29T11:40:24Z</time>
      </trkpt>
      <trkpt lat="46.52589" lon="5.23107">
        <ele>218</ele>
        <time>2022-03-29T11:40:28Z</time>
      </trkpt>
      <trkpt lat="46.52602" lon="5.23072">
        <ele>217.4</ele>
        <time>2022-03-29T11:40:31Z</time>
      </trkpt>
      <trkpt lat="46.52605" lon="5.2306">
        <ele>217.2</ele>
        <time>2022-03-29T11:40:32Z</time>
      </trkpt>
      <trkpt lat="46.52607" lon="5.23048">
        <ele>216.8</ele>
        <time>2022-03-29T11:40:33Z</time>
      </trkpt>
      <trkpt lat="46.52611" lon="5.23021">
        <ele>216.2</ele>
        <time>2022-03-29T11:40:35Z</time>
      </trkpt>
      <trkpt lat="46.52612" lon="5.22994">
        <ele>215.4</ele>
        <time>2022-03-29T11:40:37Z</time>
      </trkpt>
      <trkpt lat="46.52613" lon="5.22952">
        <ele>214.6</ele>
        <time>2022-03-29T11:40:40Z</time>
      </trkpt>
      <trkpt lat="46.52614" lon="5.22924">
        <ele>214.4</ele>
        <time>2022-03-29T11:40:42Z</time>
      </trkpt>
      <trkpt lat="46.52616" lon="5.22855">
        <ele>213.2</ele>
        <time>2022-03-29T11:40:47Z</time>
      </trkpt>
      <trkpt lat="46.52616" lon="5.22828">
        <ele>211.6</ele>
        <time>2022-03-29T11:40:49Z</time>
      </trkpt>
      <trkpt lat="46.52617" lon="5.22815">
        <ele>211.2</ele>
        <time>2022-03-29T11:40:50Z</time>
      </trkpt>
      <trkpt lat="46.52617" lon="5.22764">
        <ele>210.4</ele>
        <time>2022-03-29T11:40:54Z</time>
      </trkpt>
      <trkpt lat="46.52618" lon="5.22713">
        <ele>209.2</ele>
        <time>2022-03-29T11:40:58Z</time>
      </trkpt>
      <trkpt lat="46.52621" lon="5.22627">
        <ele>208.4</ele>
        <time>2022-03-29T11:41:05Z</time>
      </trkpt>
      <trkpt lat="46.52621" lon="5.22605">
        <ele>208.4</ele>
        <time>2022-03-29T11:41:07Z</time>
      </trkpt>
      <trkpt lat="46.52625" lon="5.22524">
        <ele>208.6</ele>
        <time>2022-03-29T11:41:13Z</time>
      </trkpt>
      <trkpt lat="46.52626" lon="5.22512">
        <ele>208.6</ele>
        <time>2022-03-29T11:41:14Z</time>
      </trkpt>
      <trkpt lat="46.52628" lon="5.22501">
        <ele>208.4</ele>
        <time>2022-03-29T11:41:15Z</time>
      </trkpt>
      <trkpt lat="46.52639" lon="5.22445">
        <ele>207.8</ele>
        <time>2022-03-29T11:41:20Z</time>
      </trkpt>
      <trkpt lat="46.52644" lon="5.22424">
        <ele>207.4</ele>
        <time>2022-03-29T11:41:22Z</time>
      </trkpt>
      <trkpt lat="46.52659" lon="5.22363">
        <ele>207.4</ele>
        <time>2022-03-29T11:41:28Z</time>
      </trkpt>
      <trkpt lat="46.52679" lon="5.22281">
        <ele>208</ele>
        <time>2022-03-29T11:41:37Z</time>
      </trkpt>
      <trkpt lat="46.52682" lon="5.22273">
        <ele>208.2</ele>
        <time>2022-03-29T11:41:38Z</time>
      </trkpt>
      <trkpt lat="46.52683" lon="5.22265">
        <ele>208.4</ele>
        <time>2022-03-29T11:41:39Z</time>
      </trkpt>
      <trkpt lat="46.52692" lon="5.22228">
        <ele>209.8</ele>
        <time>2022-03-29T11:41:44Z</time>
      </trkpt>
      <trkpt lat="46.52694" lon="5.22222">
        <ele>210</ele>
        <time>2022-03-29T11:41:45Z</time>
      </trkpt>
      <trkpt lat="46.52704" lon="5.22178">
        <ele>210.8</ele>
        <time>2022-03-29T11:41:52Z</time>
      </trkpt>
      <trkpt lat="46.52711" lon="5.22144">
        <ele>211.8</ele>
        <time>2022-03-29T11:41:58Z</time>
      </trkpt>
      <trkpt lat="46.52714" lon="5.22132">
        <ele>212.2</ele>
        <time>2022-03-29T11:42:00Z</time>
      </trkpt>
      <trkpt lat="46.52718" lon="5.22117">
        <ele>213</ele>
        <time>2022-03-29T11:42:03Z</time>
      </trkpt>
      <trkpt lat="46.52724" lon="5.22095">
        <ele>214</ele>
        <time>2022-03-29T11:42:07Z</time>
      </trkpt>
      <trkpt lat="46.52726" lon="5.22089">
        <ele>214.4</ele>
        <time>2022-03-29T11:42:08Z</time>
      </trkpt>
      <trkpt lat="46.5273" lon="5.22054">
        <ele>215.6</ele>
        <time>2022-03-29T11:42:14Z</time>
      </trkpt>
      <trkpt lat="46.52731" lon="5.22024">
        <ele>216.8</ele>
        <time>2022-03-29T11:42:19Z</time>
      </trkpt>
      <trkpt lat="46.52729" lon="5.22004">
        <ele>217.4</ele>
        <time>2022-03-29T11:42:22Z</time>
      </trkpt>
      <trkpt lat="46.52727" lon="5.2199">
        <ele>217.8</ele>
        <time>2022-03-29T11:42:24Z</time>
      </trkpt>
      <trkpt lat="46.52721" lon="5.21949">
        <ele>218.8</ele>
        <time>2022-03-29T11:42:31Z</time>
      </trkpt>
      <trkpt lat="46.5271" lon="5.21871">
        <ele>219.8</ele>
        <time>2022-03-29T11:42:41Z</time>
      </trkpt>
      <trkpt lat="46.5271" lon="5.21871">
        <ele>219.8</ele>
        <time>2022-03-29T11:42:42Z</time>
      </trkpt>
      <trkpt lat="46.52699" lon="5.21803">
        <ele>220.2</ele>
        <time>2022-03-29T11:42:50Z</time>
      </trkpt>
      <trkpt lat="46.52688" lon="5.21732">
        <ele>220.4</ele>
        <time>2022-03-29T11:42:59Z</time>
      </trkpt>
      <trkpt lat="46.52677" lon="5.21667">
        <ele>220.4</ele>
        <time>2022-03-29T11:43:07Z</time>
      </trkpt>
      <trkpt lat="46.52665" lon="5.21585">
        <ele>220.8</ele>
        <time>2022-03-29T11:43:17Z</time>
      </trkpt>
      <trkpt lat="46.52663" lon="5.21577">
        <ele>220.8</ele>
        <time>2022-03-29T11:43:18Z</time>
      </trkpt>
      <trkpt lat="46.52652" lon="5.21501">
        <ele>220.2</ele>
        <time>2022-03-29T11:43:27Z</time>
      </trkpt>
      <trkpt lat="46.52647" lon="5.21471">
        <ele>220</ele>
        <time>2022-03-29T11:43:30Z</time>
      </trkpt>
      <trkpt lat="46.52638" lon="5.21415">
        <ele>219.2</ele>
        <time>2022-03-29T11:43:36Z</time>
      </trkpt>
      <trkpt lat="46.52633" lon="5.21386">
        <ele>219.2</ele>
        <time>2022-03-29T11:43:39Z</time>
      </trkpt>
      <trkpt lat="46.52619" lon="5.213">
        <ele>218.6</ele>
        <time>2022-03-29T11:43:48Z</time>
      </trkpt>
      <trkpt lat="46.52609" lon="5.21236">
        <ele>218.2</ele>
        <time>2022-03-29T11:43:54Z</time>
      </trkpt>
      <trkpt lat="46.52603" lon="5.212">
        <ele>217.8</ele>
        <time>2022-03-29T11:43:57Z</time>
      </trkpt>
      <trkpt lat="46.52596" lon="5.21154">
        <ele>216.8</ele>
        <time>2022-03-29T11:44:01Z</time>
      </trkpt>
      <trkpt lat="46.52589" lon="5.21109">
        <ele>216.4</ele>
        <time>2022-03-29T11:44:05Z</time>
      </trkpt>
      <trkpt lat="46.52577" lon="5.21031">
        <ele>216</ele>
        <time>2022-03-29T11:44:13Z</time>
      </trkpt>
      <trkpt lat="46.52575" lon="5.2102">
        <ele>216</ele>
        <time>2022-03-29T11:44:14Z</time>
      </trkpt>
      <trkpt lat="46.52569" lon="5.20977">
        <ele>216.2</ele>
        <time>2022-03-29T11:44:19Z</time>
      </trkpt>
      <trkpt lat="46.52565" lon="5.20929">
        <ele>216.6</ele>
        <time>2022-03-29T11:44:25Z</time>
      </trkpt>
      <trkpt lat="46.5256" lon="5.20852">
        <ele>217.8</ele>
        <time>2022-03-29T11:44:34Z</time>
      </trkpt>
      <trkpt lat="46.52559" lon="5.20834">
        <ele>218</ele>
        <time>2022-03-29T11:44:36Z</time>
      </trkpt>
      <trkpt lat="46.52555" lon="5.20773">
        <ele>218.6</ele>
        <time>2022-03-29T11:44:43Z</time>
      </trkpt>
      <trkpt lat="46.52549" lon="5.20692">
        <ele>218.8</ele>
        <time>2022-03-29T11:44:52Z</time>
      </trkpt>
      <trkpt lat="46.52547" lon="5.20657">
        <ele>218.8</ele>
        <time>2022-03-29T11:44:56Z</time>
      </trkpt>
      <trkpt lat="46.52543" lon="5.20594">
        <ele>219.4</ele>
        <time>2022-03-29T11:45:03Z</time>
      </trkpt>
      <trkpt lat="46.52541" lon="5.20568">
        <ele>219.4</ele>
        <time>2022-03-29T11:45:06Z</time>
      </trkpt>
      <trkpt lat="46.52536" lon="5.20486">
        <ele>219.2</ele>
        <time>2022-03-29T11:45:15Z</time>
      </trkpt>
      <trkpt lat="46.52531" lon="5.20412">
        <ele>219</ele>
        <time>2022-03-29T11:45:22Z</time>
      </trkpt>
      <trkpt lat="46.52526" lon="5.2034">
        <ele>218.2</ele>
        <time>2022-03-29T11:45:28Z</time>
      </trkpt>
      <trkpt lat="46.52525" lon="5.20328">
        <ele>218</ele>
        <time>2022-03-29T11:45:29Z</time>
      </trkpt>
      <trkpt lat="46.52521" lon="5.20277">
        <ele>217</ele>
        <time>2022-03-29T11:45:33Z</time>
      </trkpt>
      <trkpt lat="46.52518" lon="5.20237">
        <ele>215.6</ele>
        <time>2022-03-29T11:45:36Z</time>
      </trkpt>
      <trkpt lat="46.52516" lon="5.20196">
        <ele>214.6</ele>
        <time>2022-03-29T11:45:39Z</time>
      </trkpt>
      <trkpt lat="46.52513" lon="5.20155">
        <ele>213.2</ele>
        <time>2022-03-29T11:45:43Z</time>
      </trkpt>
      <trkpt lat="46.52512" lon="5.20115">
        <ele>212.6</ele>
        <time>2022-03-29T11:45:45Z</time>
      </trkpt>
      <trkpt lat="46.52513" lon="5.2009">
        <ele>212</ele>
        <time>2022-03-29T11:45:47Z</time>
      </trkpt>
      <trkpt lat="46.52514" lon="5.20053">
        <ele>211.6</ele>
        <time>2022-03-29T11:45:50Z</time>
      </trkpt>
      <trkpt lat="46.52517" lon="5.19973">
        <ele>211.4</ele>
        <time>2022-03-29T11:45:57Z</time>
      </trkpt>
      <trkpt lat="46.52518" lon="5.19962">
        <ele>211.4</ele>
        <time>2022-03-29T11:45:59Z</time>
      </trkpt>
      <trkpt lat="46.52518" lon="5.19899">
        <ele>211.4</ele>
        <time>2022-03-29T11:46:05Z</time>
      </trkpt>
      <trkpt lat="46.52516" lon="5.19805">
        <ele>212.6</ele>
        <time>2022-03-29T11:46:14Z</time>
      </trkpt>
      <trkpt lat="46.52515" lon="5.19758">
        <ele>213.4</ele>
        <time>2022-03-29T11:46:20Z</time>
      </trkpt>
      <trkpt lat="46.52514" lon="5.19691">
        <ele>214.2</ele>
        <time>2022-03-29T11:46:29Z</time>
      </trkpt>
      <trkpt lat="46.52513" lon="5.19662">
        <ele>214.8</ele>
        <time>2022-03-29T11:46:33Z</time>
      </trkpt>
      <trkpt lat="46.52514" lon="5.1964">
        <ele>215.6</ele>
        <time>2022-03-29T11:46:36Z</time>
      </trkpt>
      <trkpt lat="46.52514" lon="5.19625">
        <ele>215.8</ele>
        <time>2022-03-29T11:46:38Z</time>
      </trkpt>
      <trkpt lat="46.52513" lon="5.19586">
        <ele>217</ele>
        <time>2022-03-29T11:46:43Z</time>
      </trkpt>
      <trkpt lat="46.52513" lon="5.19586">
        <ele>217</ele>
        <time>2022-03-29T11:46:44Z</time>
      </trkpt>
      <trkpt lat="46.52512" lon="5.19514">
        <ele>218</ele>
        <time>2022-03-29T11:46:52Z</time>
      </trkpt>
      <trkpt lat="46.5251" lon="5.19431">
        <ele>218.6</ele>
        <time>2022-03-29T11:47:02Z</time>
      </trkpt>
      <trkpt lat="46.52508" lon="5.19346">
        <ele>219.2</ele>
        <time>2022-03-29T11:47:12Z</time>
      </trkpt>
      <trkpt lat="46.52507" lon="5.19269">
        <ele>218.6</ele>
        <time>2022-03-29T11:47:21Z</time>
      </trkpt>
      <trkpt lat="46.52506" lon="5.1922">
        <ele>219.2</ele>
        <time>2022-03-29T11:47:28Z</time>
      </trkpt>
      <trkpt lat="46.52505" lon="5.19203">
        <ele>219.2</ele>
        <time>2022-03-29T11:47:29Z</time>
      </trkpt>
      <trkpt lat="46.52505" lon="5.19184">
        <ele>219.4</ele>
        <time>2022-03-29T11:47:31Z</time>
      </trkpt>
      <trkpt lat="46.52507" lon="5.19129">
        <ele>218.8</ele>
        <time>2022-03-29T11:47:37Z</time>
      </trkpt>
      <trkpt lat="46.52518" lon="5.19085">
        <ele>218.4</ele>
        <time>2022-03-29T11:47:42Z</time>
      </trkpt>
      <trkpt lat="46.52521" lon="5.19076">
        <ele>218.2</ele>
        <time>2022-03-29T11:47:44Z</time>
      </trkpt>
      <trkpt lat="46.52538" lon="5.19035">
        <ele>218</ele>
        <time>2022-03-29T11:47:48Z</time>
      </trkpt>
      <trkpt lat="46.52561" lon="5.18981">
        <ele>217.6</ele>
        <time>2022-03-29T11:47:54Z</time>
      </trkpt>
      <trkpt lat="46.52579" lon="5.1894">
        <ele>217.2</ele>
        <time>2022-03-29T11:47:58Z</time>
      </trkpt>
      <trkpt lat="46.52589" lon="5.18918">
        <ele>216.8</ele>
        <time>2022-03-29T11:48:00Z</time>
      </trkpt>
      <trkpt lat="46.52599" lon="5.18894">
        <ele>215.6</ele>
        <time>2022-03-29T11:48:02Z</time>
      </trkpt>
      <trkpt lat="46.52611" lon="5.18856">
        <ele>214.4</ele>
        <time>2022-03-29T11:48:05Z</time>
      </trkpt>
      <trkpt lat="46.52614" lon="5.18843">
        <ele>214</ele>
        <time>2022-03-29T11:48:06Z</time>
      </trkpt>
      <trkpt lat="46.52617" lon="5.18816">
        <ele>213.4</ele>
        <time>2022-03-29T11:48:08Z</time>
      </trkpt>
      <trkpt lat="46.52619" lon="5.18789">
        <ele>212.8</ele>
        <time>2022-03-29T11:48:10Z</time>
      </trkpt>
      <trkpt lat="46.52622" lon="5.1872">
        <ele>212.4</ele>
        <time>2022-03-29T11:48:16Z</time>
      </trkpt>
      <trkpt lat="46.52625" lon="5.18649">
        <ele>212.8</ele>
        <time>2022-03-29T11:48:23Z</time>
      </trkpt>
      <trkpt lat="46.52628" lon="5.18563">
        <ele>212.4</ele>
        <time>2022-03-29T11:48:31Z</time>
      </trkpt>
      <trkpt lat="46.52632" lon="5.18535">
        <ele>212.2</ele>
        <time>2022-03-29T11:48:33Z</time>
      </trkpt>
      <trkpt lat="46.5264" lon="5.18508">
        <ele>211.8</ele>
        <time>2022-03-29T11:48:35Z</time>
      </trkpt>
      <trkpt lat="46.52643" lon="5.18498">
        <ele>211.4</ele>
        <time>2022-03-29T11:48:36Z</time>
      </trkpt>
      <trkpt lat="46.52661" lon="5.18458">
        <ele>210</ele>
        <time>2022-03-29T11:48:39Z</time>
      </trkpt>
      <trkpt lat="46.52666" lon="5.18446">
        <ele>209.8</ele>
        <time>2022-03-29T11:48:40Z</time>
      </trkpt>
      <trkpt lat="46.52683" lon="5.18411">
        <ele>208.6</ele>
        <time>2022-03-29T11:48:43Z</time>
      </trkpt>
      <trkpt lat="46.52704" lon="5.18365">
        <ele>207.6</ele>
        <time>2022-03-29T11:48:47Z</time>
      </trkpt>
      <trkpt lat="46.52719" lon="5.18331">
        <ele>207.2</ele>
        <time>2022-03-29T11:48:50Z</time>
      </trkpt>
      <trkpt lat="46.52749" lon="5.18266">
        <ele>207</ele>
        <time>2022-03-29T11:48:56Z</time>
      </trkpt>
      <trkpt lat="46.52758" lon="5.18245">
        <ele>206.8</ele>
        <time>2022-03-29T11:48:58Z</time>
      </trkpt>
      <trkpt lat="46.52765" lon="5.18223">
        <ele>206.8</ele>
        <time>2022-03-29T11:49:00Z</time>
      </trkpt>
      <trkpt lat="46.5277" lon="5.18202">
        <ele>206.8</ele>
        <time>2022-03-29T11:49:02Z</time>
      </trkpt>
      <trkpt lat="46.52776" lon="5.1814">
        <ele>207.8</ele>
        <time>2022-03-29T11:49:08Z</time>
      </trkpt>
      <trkpt lat="46.52778" lon="5.1806">
        <ele>208.8</ele>
        <time>2022-03-29T11:49:16Z</time>
      </trkpt>
      <trkpt lat="46.52772" lon="5.18007">
        <ele>209.2</ele>
        <time>2022-03-29T11:49:21Z</time>
      </trkpt>
      <trkpt lat="46.52761" lon="5.17944">
        <ele>208.8</ele>
        <time>2022-03-29T11:49:26Z</time>
      </trkpt>
      <trkpt lat="46.52761" lon="5.17918">
        <ele>208.2</ele>
        <time>2022-03-29T11:49:28Z</time>
      </trkpt>
      <trkpt lat="46.52762" lon="5.17906">
        <ele>207.8</ele>
        <time>2022-03-29T11:49:29Z</time>
      </trkpt>
      <trkpt lat="46.52762" lon="5.17893">
        <ele>207.4</ele>
        <time>2022-03-29T11:49:30Z</time>
      </trkpt>
      <trkpt lat="46.52767" lon="5.17847">
        <ele>206.6</ele>
        <time>2022-03-29T11:49:34Z</time>
      </trkpt>
      <trkpt lat="46.52769" lon="5.17825">
        <ele>206.6</ele>
        <time>2022-03-29T11:49:36Z</time>
      </trkpt>
      <trkpt lat="46.52777" lon="5.17752">
        <ele>206.2</ele>
        <time>2022-03-29T11:49:43Z</time>
      </trkpt>
      <trkpt lat="46.52779" lon="5.17719">
        <ele>205.8</ele>
        <time>2022-03-29T11:49:46Z</time>
      </trkpt>
      <trkpt lat="46.52782" lon="5.17698">
        <ele>205.6</ele>
        <time>2022-03-29T11:49:48Z</time>
      </trkpt>
      <trkpt lat="46.52785" lon="5.17688">
        <ele>205.6</ele>
        <time>2022-03-29T11:49:49Z</time>
      </trkpt>
      <trkpt lat="46.52793" lon="5.17671">
        <ele>205.6</ele>
        <time>2022-03-29T11:49:51Z</time>
      </trkpt>
      <trkpt lat="46.52798" lon="5.17663">
        <ele>205.6</ele>
        <time>2022-03-29T11:49:52Z</time>
      </trkpt>
      <trkpt lat="46.52804" lon="5.17657">
        <ele>205.6</ele>
        <time>2022-03-29T11:49:53Z</time>
      </trkpt>
      <trkpt lat="46.52815" lon="5.17645">
        <ele>205.6</ele>
        <time>2022-03-29T11:49:55Z</time>
      </trkpt>
      <trkpt lat="46.52818" lon="5.17637">
        <ele>205.6</ele>
        <time>2022-03-29T11:49:56Z</time>
      </trkpt>
      <trkpt lat="46.52818" lon="5.17629">
        <ele>205.6</ele>
        <time>2022-03-29T11:49:57Z</time>
      </trkpt>
      <trkpt lat="46.52813" lon="5.17613">
        <ele>205.8</ele>
        <time>2022-03-29T11:49:59Z</time>
      </trkpt>
      <trkpt lat="46.52778" lon="5.17557">
        <ele>206.4</ele>
        <time>2022-03-29T11:50:07Z</time>
      </trkpt>
      <trkpt lat="46.52741" lon="5.17497">
        <ele>206.4</ele>
        <time>2022-03-29T11:50:16Z</time>
      </trkpt>
      <trkpt lat="46.52737" lon="5.1749">
        <ele>206.4</ele>
        <time>2022-03-29T11:50:17Z</time>
      </trkpt>
      <trkpt lat="46.52729" lon="5.17478">
        <ele>206.6</ele>
        <time>2022-03-29T11:50:19Z</time>
      </trkpt>
      <trkpt lat="46.52717" lon="5.17462">
        <ele>206.8</ele>
        <time>2022-03-29T11:50:22Z</time>
      </trkpt>
      <trkpt lat="46.52704" lon="5.17447">
        <ele>207.4</ele>
        <time>2022-03-29T11:50:25Z</time>
      </trkpt>
      <trkpt lat="46.52694" lon="5.17437">
        <ele>207.8</ele>
        <time>2022-03-29T11:50:28Z</time>
      </trkpt>
      <trkpt lat="46.5269" lon="5.17432">
        <ele>208</ele>
        <time>2022-03-29T11:50:29Z</time>
      </trkpt>
      <trkpt lat="46.52683" lon="5.17425">
        <ele>208.4</ele>
        <time>2022-03-29T11:50:31Z</time>
      </trkpt>
      <trkpt lat="46.52669" lon="5.17409">
        <ele>209</ele>
        <time>2022-03-29T11:50:35Z</time>
      </trkpt>
      <trkpt lat="46.52649" lon="5.17388">
        <ele>210.2</ele>
        <time>2022-03-29T11:50:41Z</time>
      </trkpt>
      <trkpt lat="46.5263" lon="5.17368">
        <ele>211.2</ele>
        <time>2022-03-29T11:50:47Z</time>
      </trkpt>
      <trkpt lat="46.52624" lon="5.17362">
        <ele>211.4</ele>
        <time>2022-03-29T11:50:49Z</time>
      </trkpt>
      <trkpt lat="46.52615" lon="5.17351">
        <ele>212.2</ele>
        <time>2022-03-29T11:50:52Z</time>
      </trkpt>
      <trkpt lat="46.52606" lon="5.17338">
        <ele>213.4</ele>
        <time>2022-03-29T11:50:56Z</time>
      </trkpt>
      <trkpt lat="46.52604" lon="5.17335">
        <ele>213.8</ele>
        <time>2022-03-29T11:50:57Z</time>
      </trkpt>
      <trkpt lat="46.52596" lon="5.17328">
        <ele>214.6</ele>
        <time>2022-03-29T11:51:00Z</time>
      </trkpt>
      <trkpt lat="46.52585" lon="5.17316">
        <ele>215.8</ele>
        <time>2022-03-29T11:51:04Z</time>
      </trkpt>
      <trkpt lat="46.52569" lon="5.173">
        <ele>217</ele>
        <time>2022-03-29T11:51:09Z</time>
      </trkpt>
      <trkpt lat="46.52557" lon="5.17286">
        <ele>217.6</ele>
        <time>2022-03-29T11:51:13Z</time>
      </trkpt>
      <trkpt lat="46.52551" lon="5.17279">
        <ele>218</ele>
        <time>2022-03-29T11:51:15Z</time>
      </trkpt>
      <trkpt lat="46.52532" lon="5.17259">
        <ele>219</ele>
        <time>2022-03-29T11:51:21Z</time>
      </trkpt>
      <trkpt lat="46.52529" lon="5.17255">
        <ele>219</ele>
        <time>2022-03-29T11:51:22Z</time>
      </trkpt>
      <trkpt lat="46.52505" lon="5.17225">
        <ele>219.6</ele>
        <time>2022-03-29T11:51:30Z</time>
      </trkpt>
      <trkpt lat="46.52489" lon="5.17205">
        <ele>220</ele>
        <time>2022-03-29T11:51:35Z</time>
      </trkpt>
      <trkpt lat="46.52482" lon="5.17199">
        <ele>220.2</ele>
        <time>2022-03-29T11:51:37Z</time>
      </trkpt>
      <trkpt lat="46.52479" lon="5.17197">
        <ele>220.2</ele>
        <time>2022-03-29T11:51:38Z</time>
      </trkpt>
      <trkpt lat="46.52475" lon="5.17197">
        <ele>220.2</ele>
        <time>2022-03-29T11:51:39Z</time>
      </trkpt>
      <trkpt lat="46.5247" lon="5.17201">
        <ele>220.2</ele>
        <time>2022-03-29T11:51:41Z</time>
      </trkpt>
      <trkpt lat="46.52467" lon="5.17207">
        <ele>220</ele>
        <time>2022-03-29T11:51:45Z</time>
      </trkpt>
      <trkpt lat="46.52467" lon="5.17207">
        <ele>220</ele>
        <time>2022-03-29T11:51:46Z</time>
      </trkpt>
      <trkpt lat="46.52468" lon="5.17205">
        <ele>219.8</ele>
        <time>2022-03-29T11:52:25Z</time>
      </trkpt>
      <trkpt lat="46.52469" lon="5.172">
        <ele>219.8</ele>
        <time>2022-03-29T11:52:27Z</time>
      </trkpt>
      <trkpt lat="46.52465" lon="5.17183">
        <ele>219.8</ele>
        <time>2022-03-29T11:52:31Z</time>
      </trkpt>
      <trkpt lat="46.52462" lon="5.17179">
        <ele>219.8</ele>
        <time>2022-03-29T11:52:32Z</time>
      </trkpt>
      <trkpt lat="46.52444" lon="5.17159">
        <ele>220</ele>
        <time>2022-03-29T11:52:36Z</time>
      </trkpt>
      <trkpt lat="46.52406" lon="5.17111">
        <ele>220.8</ele>
        <time>2022-03-29T11:52:45Z</time>
      </trkpt>
      <trkpt lat="46.52402" lon="5.17106">
        <ele>220.8</ele>
        <time>2022-03-29T11:52:46Z</time>
      </trkpt>
      <trkpt lat="46.52361" lon="5.1706">
        <ele>220.8</ele>
        <time>2022-03-29T11:52:55Z</time>
      </trkpt>
      <trkpt lat="46.5232" lon="5.17013">
        <ele>221</ele>
        <time>2022-03-29T11:53:04Z</time>
      </trkpt>
      <trkpt lat="46.52291" lon="5.16968">
        <ele>220.6</ele>
        <time>2022-03-29T11:53:11Z</time>
      </trkpt>
      <trkpt lat="46.52281" lon="5.16935">
        <ele>220.4</ele>
        <time>2022-03-29T11:53:15Z</time>
      </trkpt>
      <trkpt lat="46.5228" lon="5.16926">
        <ele>220.4</ele>
        <time>2022-03-29T11:53:16Z</time>
      </trkpt>
      <trkpt lat="46.52277" lon="5.16873">
        <ele>220.4</ele>
        <time>2022-03-29T11:53:22Z</time>
      </trkpt>
      <trkpt lat="46.5228" lon="5.16803">
        <ele>220.8</ele>
        <time>2022-03-29T11:53:31Z</time>
      </trkpt>
      <trkpt lat="46.5228" lon="5.16772">
        <ele>221.2</ele>
        <time>2022-03-29T11:53:37Z</time>
      </trkpt>
      <trkpt lat="46.52281" lon="5.16741">
        <ele>221.4</ele>
        <time>2022-03-29T11:53:44Z</time>
      </trkpt>
      <trkpt lat="46.52279" lon="5.16717">
        <ele>221.4</ele>
        <time>2022-03-29T11:53:47Z</time>
      </trkpt>
      <trkpt lat="46.52276" lon="5.16701">
        <ele>221.6</ele>
        <time>2022-03-29T11:53:49Z</time>
      </trkpt>
      <trkpt lat="46.52273" lon="5.16693">
        <ele>221.6</ele>
        <time>2022-03-29T11:53:50Z</time>
      </trkpt>
      <trkpt lat="46.52263" lon="5.16671">
        <ele>222</ele>
        <time>2022-03-29T11:53:53Z</time>
      </trkpt>
      <trkpt lat="46.52259" lon="5.16665">
        <ele>222</ele>
        <time>2022-03-29T11:53:54Z</time>
      </trkpt>
      <trkpt lat="46.52245" lon="5.16647">
        <ele>222.2</ele>
        <time>2022-03-29T11:53:57Z</time>
      </trkpt>
      <trkpt lat="46.52233" lon="5.16639">
        <ele>222.2</ele>
        <time>2022-03-29T11:53:59Z</time>
      </trkpt>
      <trkpt lat="46.52179" lon="5.16608">
        <ele>221.8</ele>
        <time>2022-03-29T11:54:08Z</time>
      </trkpt>
      <trkpt lat="46.52131" lon="5.16582">
        <ele>222.4</ele>
        <time>2022-03-29T11:54:17Z</time>
      </trkpt>
      <trkpt lat="46.5208" lon="5.16554">
        <ele>222.6</ele>
        <time>2022-03-29T11:54:26Z</time>
      </trkpt>
      <trkpt lat="46.52074" lon="5.16551">
        <ele>222.6</ele>
        <time>2022-03-29T11:54:27Z</time>
      </trkpt>
      <trkpt lat="46.52062" lon="5.16546">
        <ele>222.4</ele>
        <time>2022-03-29T11:54:29Z</time>
      </trkpt>
      <trkpt lat="46.52051" lon="5.16544">
        <ele>222.2</ele>
        <time>2022-03-29T11:54:31Z</time>
      </trkpt>
      <trkpt lat="46.52044" lon="5.16544">
        <ele>222.2</ele>
        <time>2022-03-29T11:54:32Z</time>
      </trkpt>
      <trkpt lat="46.51996" lon="5.16552">
        <ele>221.4</ele>
        <time>2022-03-29T11:54:39Z</time>
      </trkpt>
      <trkpt lat="46.51959" lon="5.16558">
        <ele>220.6</ele>
        <time>2022-03-29T11:54:44Z</time>
      </trkpt>
      <trkpt lat="46.51951" lon="5.1656">
        <ele>220.4</ele>
        <time>2022-03-29T11:54:45Z</time>
      </trkpt>
      <trkpt lat="46.51917" lon="5.16567">
        <ele>219.6</ele>
        <time>2022-03-29T11:54:49Z</time>
      </trkpt>
      <trkpt lat="46.5189" lon="5.16573">
        <ele>218.2</ele>
        <time>2022-03-29T11:54:52Z</time>
      </trkpt>
      <trkpt lat="46.51853" lon="5.16579">
        <ele>216.6</ele>
        <time>2022-03-29T11:54:56Z</time>
      </trkpt>
      <trkpt lat="46.51835" lon="5.1658">
        <ele>216</ele>
        <time>2022-03-29T11:54:58Z</time>
      </trkpt>
      <trkpt lat="46.51828" lon="5.16579">
        <ele>215.6</ele>
        <time>2022-03-29T11:54:59Z</time>
      </trkpt>
      <trkpt lat="46.51783" lon="5.16575">
        <ele>214.4</ele>
        <time>2022-03-29T11:55:04Z</time>
      </trkpt>
      <trkpt lat="46.51768" lon="5.16575">
        <ele>214</ele>
        <time>2022-03-29T11:55:06Z</time>
      </trkpt>
      <trkpt lat="46.5176" lon="5.16576">
        <ele>214</ele>
        <time>2022-03-29T11:55:07Z</time>
      </trkpt>
      <trkpt lat="46.51747" lon="5.16581">
        <ele>213.8</ele>
        <time>2022-03-29T11:55:09Z</time>
      </trkpt>
      <trkpt lat="46.51739" lon="5.16586">
        <ele>213.8</ele>
        <time>2022-03-29T11:55:10Z</time>
      </trkpt>
      <trkpt lat="46.51708" lon="5.16617">
        <ele>213.6</ele>
        <time>2022-03-29T11:55:16Z</time>
      </trkpt>
      <trkpt lat="46.51686" lon="5.1664">
        <ele>214.4</ele>
        <time>2022-03-29T11:55:21Z</time>
      </trkpt>
      <trkpt lat="46.51681" lon="5.16643">
        <ele>214.6</ele>
        <time>2022-03-29T11:55:22Z</time>
      </trkpt>
      <trkpt lat="46.51672" lon="5.16647">
        <ele>215</ele>
        <time>2022-03-29T11:55:24Z</time>
      </trkpt>
      <trkpt lat="46.51649" lon="5.16653">
        <ele>215.4</ele>
        <time>2022-03-29T11:55:28Z</time>
      </trkpt>
      <trkpt lat="46.51644" lon="5.16653">
        <ele>215.8</ele>
        <time>2022-03-29T11:55:29Z</time>
      </trkpt>
      <trkpt lat="46.5161" lon="5.16663">
        <ele>216.4</ele>
        <time>2022-03-29T11:55:35Z</time>
      </trkpt>
      <trkpt lat="46.51603" lon="5.16666">
        <ele>216.6</ele>
        <time>2022-03-29T11:55:36Z</time>
      </trkpt>
      <trkpt lat="46.5158" lon="5.16679">
        <ele>216.8</ele>
        <time>2022-03-29T11:55:40Z</time>
      </trkpt>
      <trkpt lat="46.5156" lon="5.16692">
        <ele>216.6</ele>
        <time>2022-03-29T11:55:43Z</time>
      </trkpt>
      <trkpt lat="46.51547" lon="5.16696">
        <ele>216.4</ele>
        <time>2022-03-29T11:55:45Z</time>
      </trkpt>
      <trkpt lat="46.51531" lon="5.16695">
        <ele>216.4</ele>
        <time>2022-03-29T11:55:47Z</time>
      </trkpt>
      <trkpt lat="46.51518" lon="5.1669">
        <ele>216.2</ele>
        <time>2022-03-29T11:55:49Z</time>
      </trkpt>
      <trkpt lat="46.51467" lon="5.16674">
        <ele>215.4</ele>
        <time>2022-03-29T11:55:56Z</time>
      </trkpt>
      <trkpt lat="46.51419" lon="5.1667">
        <ele>215.2</ele>
        <time>2022-03-29T11:56:03Z</time>
      </trkpt>
      <trkpt lat="46.51405" lon="5.16674">
        <ele>215.2</ele>
        <time>2022-03-29T11:56:05Z</time>
      </trkpt>
      <trkpt lat="46.51393" lon="5.1668">
        <ele>215.4</ele>
        <time>2022-03-29T11:56:07Z</time>
      </trkpt>
      <trkpt lat="46.5136" lon="5.1671">
        <ele>215.6</ele>
        <time>2022-03-29T11:56:13Z</time>
      </trkpt>
      <trkpt lat="46.51312" lon="5.16745">
        <ele>215.4</ele>
        <time>2022-03-29T11:56:21Z</time>
      </trkpt>
      <trkpt lat="46.51258" lon="5.16777">
        <ele>215</ele>
        <time>2022-03-29T11:56:30Z</time>
      </trkpt>
      <trkpt lat="46.51244" lon="5.16779">
        <ele>214.6</ele>
        <time>2022-03-29T11:56:32Z</time>
      </trkpt>
      <trkpt lat="46.51231" lon="5.16778">
        <ele>214.4</ele>
        <time>2022-03-29T11:56:34Z</time>
      </trkpt>
      <trkpt lat="46.51224" lon="5.16776">
        <ele>214.4</ele>
        <time>2022-03-29T11:56:35Z</time>
      </trkpt>
      <trkpt lat="46.51195" lon="5.16754">
        <ele>214.4</ele>
        <time>2022-03-29T11:56:40Z</time>
      </trkpt>
      <trkpt lat="46.51153" lon="5.16698">
        <ele>213.8</ele>
        <time>2022-03-29T11:56:48Z</time>
      </trkpt>
      <trkpt lat="46.51109" lon="5.16638">
        <ele>213</ele>
        <time>2022-03-29T11:56:56Z</time>
      </trkpt>
      <trkpt lat="46.51102" lon="5.16633">
        <ele>213</ele>
        <time>2022-03-29T11:56:57Z</time>
      </trkpt>
      <trkpt lat="46.51083" lon="5.1662">
        <ele>212.6</ele>
        <time>2022-03-29T11:57:00Z</time>
      </trkpt>
      <trkpt lat="46.51069" lon="5.16614">
        <ele>212.2</ele>
        <time>2022-03-29T11:57:02Z</time>
      </trkpt>
      <trkpt lat="46.51022" lon="5.16595">
        <ele>211.8</ele>
        <time>2022-03-29T11:57:09Z</time>
      </trkpt>
      <trkpt lat="46.50994" lon="5.1657">
        <ele>211.8</ele>
        <time>2022-03-29T11:57:14Z</time>
      </trkpt>
      <trkpt lat="46.50987" lon="5.16564">
        <ele>211.8</ele>
        <time>2022-03-29T11:57:15Z</time>
      </trkpt>
      <trkpt lat="46.5097" lon="5.16557">
        <ele>211.8</ele>
        <time>2022-03-29T11:57:18Z</time>
      </trkpt>
      <trkpt lat="46.50937" lon="5.16559">
        <ele>211.8</ele>
        <time>2022-03-29T11:57:23Z</time>
      </trkpt>
      <trkpt lat="46.50916" lon="5.16564">
        <ele>211.8</ele>
        <time>2022-03-29T11:57:26Z</time>
      </trkpt>
      <trkpt lat="46.5089" lon="5.16568">
        <ele>211</ele>
        <time>2022-03-29T11:57:30Z</time>
      </trkpt>
      <trkpt lat="46.50884" lon="5.16568">
        <ele>211</ele>
        <time>2022-03-29T11:57:31Z</time>
      </trkpt>
      <trkpt lat="46.50878" lon="5.16568">
        <ele>210.8</ele>
        <time>2022-03-29T11:57:32Z</time>
      </trkpt>
      <trkpt lat="46.5084" lon="5.16558">
        <ele>210.2</ele>
        <time>2022-03-29T11:57:38Z</time>
      </trkpt>
      <trkpt lat="46.50788" lon="5.16539">
        <ele>210.2</ele>
        <time>2022-03-29T11:57:47Z</time>
      </trkpt>
      <trkpt lat="46.50752" lon="5.16532">
        <ele>210.6</ele>
        <time>2022-03-29T11:57:53Z</time>
      </trkpt>
      <trkpt lat="46.50711" lon="5.16539">
        <ele>210.6</ele>
        <time>2022-03-29T11:58:00Z</time>
      </trkpt>
      <trkpt lat="46.50681" lon="5.16554">
        <ele>211</ele>
        <time>2022-03-29T11:58:06Z</time>
      </trkpt>
      <trkpt lat="46.5065" lon="5.16579">
        <ele>211.2</ele>
        <time>2022-03-29T11:58:13Z</time>
      </trkpt>
      <trkpt lat="46.50614" lon="5.16611">
        <ele>211.2</ele>
        <time>2022-03-29T11:58:21Z</time>
      </trkpt>
      <trkpt lat="46.50581" lon="5.16636">
        <ele>211.6</ele>
        <time>2022-03-29T11:58:28Z</time>
      </trkpt>
      <trkpt lat="46.50537" lon="5.16663">
        <ele>212</ele>
        <time>2022-03-29T11:58:37Z</time>
      </trkpt>
      <trkpt lat="46.50531" lon="5.16666">
        <ele>212</ele>
        <time>2022-03-29T11:58:38Z</time>
      </trkpt>
      <trkpt lat="46.50479" lon="5.16699">
        <ele>212.2</ele>
        <time>2022-03-29T11:58:48Z</time>
      </trkpt>
      <trkpt lat="46.50439" lon="5.16715">
        <ele>211.4</ele>
        <time>2022-03-29T11:58:55Z</time>
      </trkpt>
      <trkpt lat="46.50421" lon="5.16712">
        <ele>211</ele>
        <time>2022-03-29T11:58:58Z</time>
      </trkpt>
      <trkpt lat="46.50404" lon="5.16708">
        <ele>210.4</ele>
        <time>2022-03-29T11:59:01Z</time>
      </trkpt>
      <trkpt lat="46.5036" lon="5.16695">
        <ele>210</ele>
        <time>2022-03-29T11:59:08Z</time>
      </trkpt>
      <trkpt lat="46.50331" lon="5.16675">
        <ele>209.8</ele>
        <time>2022-03-29T11:59:13Z</time>
      </trkpt>
      <trkpt lat="46.5032" lon="5.16664">
        <ele>209.8</ele>
        <time>2022-03-29T11:59:15Z</time>
      </trkpt>
      <trkpt lat="46.50301" lon="5.1664">
        <ele>210</ele>
        <time>2022-03-29T11:59:19Z</time>
      </trkpt>
      <trkpt lat="46.50291" lon="5.16632">
        <ele>209.8</ele>
        <time>2022-03-29T11:59:21Z</time>
      </trkpt>
      <trkpt lat="46.50277" lon="5.16625">
        <ele>209.8</ele>
        <time>2022-03-29T11:59:23Z</time>
      </trkpt>
      <trkpt lat="46.50271" lon="5.16624">
        <ele>209.8</ele>
        <time>2022-03-29T11:59:24Z</time>
      </trkpt>
      <trkpt lat="46.50237" lon="5.16625">
        <ele>209.6</ele>
        <time>2022-03-29T11:59:30Z</time>
      </trkpt>
      <trkpt lat="46.50197" lon="5.16628">
        <ele>210.2</ele>
        <time>2022-03-29T11:59:37Z</time>
      </trkpt>
      <trkpt lat="46.50177" lon="5.16629">
        <ele>210.6</ele>
        <time>2022-03-29T11:59:41Z</time>
      </trkpt>
      <trkpt lat="46.5016" lon="5.16631">
        <ele>210.8</ele>
        <time>2022-03-29T11:59:44Z</time>
      </trkpt>
      <trkpt lat="46.50114" lon="5.16633">
        <ele>211</ele>
        <time>2022-03-29T11:59:53Z</time>
      </trkpt>
      <trkpt lat="46.50105" lon="5.16632">
        <ele>211.4</ele>
        <time>2022-03-29T11:59:55Z</time>
      </trkpt>
      <trkpt lat="46.50081" lon="5.16627">
        <ele>212</ele>
        <time>2022-03-29T12:00:00Z</time>
      </trkpt>
      <trkpt lat="46.50061" lon="5.16623">
        <ele>212.6</ele>
        <time>2022-03-29T12:00:04Z</time>
      </trkpt>
      <trkpt lat="46.50047" lon="5.16618">
        <ele>213</ele>
        <time>2022-03-29T12:00:07Z</time>
      </trkpt>
      <trkpt lat="46.50042" lon="5.16617">
        <ele>213</ele>
        <time>2022-03-29T12:00:08Z</time>
      </trkpt>
      <trkpt lat="46.50012" lon="5.16606">
        <ele>213.6</ele>
        <time>2022-03-29T12:00:15Z</time>
      </trkpt>
      <trkpt lat="46.50007" lon="5.16605">
        <ele>213.8</ele>
        <time>2022-03-29T12:00:16Z</time>
      </trkpt>
      <trkpt lat="46.49984" lon="5.16597">
        <ele>215</ele>
        <time>2022-03-29T12:00:21Z</time>
      </trkpt>
      <trkpt lat="46.49966" lon="5.16591">
        <ele>215.8</ele>
        <time>2022-03-29T12:00:25Z</time>
      </trkpt>
      <trkpt lat="46.49947" lon="5.16585">
        <ele>216.2</ele>
        <time>2022-03-29T12:00:29Z</time>
      </trkpt>
      <trkpt lat="46.49924" lon="5.16579">
        <ele>216.6</ele>
        <time>2022-03-29T12:00:34Z</time>
      </trkpt>
      <trkpt lat="46.49885" lon="5.16572">
        <ele>216.6</ele>
        <time>2022-03-29T12:00:42Z</time>
      </trkpt>
      <trkpt lat="46.49829" lon="5.16563">
        <ele>217</ele>
        <time>2022-03-29T12:00:54Z</time>
      </trkpt>
      <trkpt lat="46.49824" lon="5.16563">
        <ele>217.2</ele>
        <time>2022-03-29T12:00:55Z</time>
      </trkpt>
      <trkpt lat="46.49818" lon="5.16562">
        <ele>217.2</ele>
        <time>2022-03-29T12:00:56Z</time>
      </trkpt>
      <trkpt lat="46.49774" lon="5.16554">
        <ele>217.8</ele>
        <time>2022-03-29T12:01:05Z</time>
      </trkpt>
      <trkpt lat="46.49735" lon="5.16547">
        <ele>218.4</ele>
        <time>2022-03-29T12:01:13Z</time>
      </trkpt>
      <trkpt lat="46.49727" lon="5.16547">
        <ele>218.8</ele>
        <time>2022-03-29T12:01:15Z</time>
      </trkpt>
      <trkpt lat="46.49707" lon="5.16548">
        <ele>219.2</ele>
        <time>2022-03-29T12:01:19Z</time>
      </trkpt>
      <trkpt lat="46.497" lon="5.1655">
        <ele>219.6</ele>
        <time>2022-03-29T12:01:21Z</time>
      </trkpt>
      <trkpt lat="46.49691" lon="5.16552">
        <ele>219.8</ele>
        <time>2022-03-29T12:01:23Z</time>
      </trkpt>
      <trkpt lat="46.49668" lon="5.16559">
        <ele>220.6</ele>
        <time>2022-03-29T12:01:29Z</time>
      </trkpt>
      <trkpt lat="46.49665" lon="5.1656">
        <ele>220.8</ele>
        <time>2022-03-29T12:01:30Z</time>
      </trkpt>
      <trkpt lat="46.49647" lon="5.16568">
        <ele>221.8</ele>
        <time>2022-03-29T12:01:35Z</time>
      </trkpt>
      <trkpt lat="46.49635" lon="5.16573">
        <ele>222.4</ele>
        <time>2022-03-29T12:01:38Z</time>
      </trkpt>
      <trkpt lat="46.49627" lon="5.16575">
        <ele>222.8</ele>
        <time>2022-03-29T12:01:40Z</time>
      </trkpt>
      <trkpt lat="46.496" lon="5.16586">
        <ele>223.6</ele>
        <time>2022-03-29T12:01:47Z</time>
      </trkpt>
      <trkpt lat="46.4959" lon="5.16589">
        <ele>224</ele>
        <time>2022-03-29T12:01:49Z</time>
      </trkpt>
      <trkpt lat="46.49564" lon="5.16597">
        <ele>225.2</ele>
        <time>2022-03-29T12:01:55Z</time>
      </trkpt>
      <trkpt lat="46.49529" lon="5.1661">
        <ele>226.2</ele>
        <time>2022-03-29T12:02:02Z</time>
      </trkpt>
      <trkpt lat="46.49519" lon="5.16614">
        <ele>226.2</ele>
        <time>2022-03-29T12:02:04Z</time>
      </trkpt>
      <trkpt lat="46.49472" lon="5.1663">
        <ele>225.8</ele>
        <time>2022-03-29T12:02:12Z</time>
      </trkpt>
      <trkpt lat="46.49433" lon="5.16633">
        <ele>225</ele>
        <time>2022-03-29T12:02:18Z</time>
      </trkpt>
      <trkpt lat="46.49427" lon="5.16633">
        <ele>225</ele>
        <time>2022-03-29T12:02:19Z</time>
      </trkpt>
      <trkpt lat="46.49368" lon="5.16633">
        <ele>224.2</ele>
        <time>2022-03-29T12:02:28Z</time>
      </trkpt>
      <trkpt lat="46.49342" lon="5.16632">
        <ele>224.2</ele>
        <time>2022-03-29T12:02:32Z</time>
      </trkpt>
      <trkpt lat="46.4929" lon="5.16631">
        <ele>223.8</ele>
        <time>2022-03-29T12:02:40Z</time>
      </trkpt>
      <trkpt lat="46.49235" lon="5.16632">
        <ele>223.2</ele>
        <time>2022-03-29T12:02:48Z</time>
      </trkpt>
      <trkpt lat="46.49228" lon="5.16633">
        <ele>223</ele>
        <time>2022-03-29T12:02:49Z</time>
      </trkpt>
      <trkpt lat="46.49188" lon="5.16645">
        <ele>222.4</ele>
        <time>2022-03-29T12:02:55Z</time>
      </trkpt>
      <trkpt lat="46.49131" lon="5.16667">
        <ele>222</ele>
        <time>2022-03-29T12:03:04Z</time>
      </trkpt>
      <trkpt lat="46.49076" lon="5.16687">
        <ele>222.2</ele>
        <time>2022-03-29T12:03:13Z</time>
      </trkpt>
      <trkpt lat="46.49022" lon="5.16707">
        <ele>222.4</ele>
        <time>2022-03-29T12:03:22Z</time>
      </trkpt>
      <trkpt lat="46.48968" lon="5.16731">
        <ele>223</ele>
        <time>2022-03-29T12:03:31Z</time>
      </trkpt>
      <trkpt lat="46.48939" lon="5.16746">
        <ele>223.4</ele>
        <time>2022-03-29T12:03:36Z</time>
      </trkpt>
      <trkpt lat="46.48887" lon="5.16773">
        <ele>224</ele>
        <time>2022-03-29T12:03:46Z</time>
      </trkpt>
      <trkpt lat="46.48883" lon="5.16776">
        <ele>224</ele>
        <time>2022-03-29T12:03:47Z</time>
      </trkpt>
      <trkpt lat="46.48859" lon="5.1679">
        <ele>224.4</ele>
        <time>2022-03-29T12:03:52Z</time>
      </trkpt>
      <trkpt lat="46.48845" lon="5.16798">
        <ele>224.6</ele>
        <time>2022-03-29T12:03:55Z</time>
      </trkpt>
      <trkpt lat="46.48817" lon="5.16813">
        <ele>225.4</ele>
        <time>2022-03-29T12:04:01Z</time>
      </trkpt>
      <trkpt lat="46.48803" lon="5.16821">
        <ele>225.6</ele>
        <time>2022-03-29T12:04:04Z</time>
      </trkpt>
      <trkpt lat="46.4876" lon="5.16833">
        <ele>225.8</ele>
        <time>2022-03-29T12:04:12Z</time>
      </trkpt>
      <trkpt lat="46.48709" lon="5.1684">
        <ele>225.8</ele>
        <time>2022-03-29T12:04:21Z</time>
      </trkpt>
      <trkpt lat="46.48652" lon="5.16848">
        <ele>225.6</ele>
        <time>2022-03-29T12:04:31Z</time>
      </trkpt>
      <trkpt lat="46.48594" lon="5.16852">
        <ele>225.2</ele>
        <time>2022-03-29T12:04:41Z</time>
      </trkpt>
      <trkpt lat="46.48547" lon="5.16842">
        <ele>225.2</ele>
        <time>2022-03-29T12:04:49Z</time>
      </trkpt>
      <trkpt lat="46.48504" lon="5.16819">
        <ele>225.6</ele>
        <time>2022-03-29T12:04:57Z</time>
      </trkpt>
      <trkpt lat="46.48471" lon="5.16797">
        <ele>226.6</ele>
        <time>2022-03-29T12:05:04Z</time>
      </trkpt>
      <trkpt lat="46.48452" lon="5.16785">
        <ele>226.6</ele>
        <time>2022-03-29T12:05:08Z</time>
      </trkpt>
      <trkpt lat="46.48447" lon="5.16782">
        <ele>226.8</ele>
        <time>2022-03-29T12:05:09Z</time>
      </trkpt>
      <trkpt lat="46.48411" lon="5.16759">
        <ele>228</ele>
        <time>2022-03-29T12:05:17Z</time>
      </trkpt>
      <trkpt lat="46.48373" lon="5.16733">
        <ele>229.2</ele>
        <time>2022-03-29T12:05:26Z</time>
      </trkpt>
      <trkpt lat="46.48368" lon="5.1673">
        <ele>229.4</ele>
        <time>2022-03-29T12:05:27Z</time>
      </trkpt>
      <trkpt lat="46.48334" lon="5.16708">
        <ele>230.2</ele>
        <time>2022-03-29T12:05:35Z</time>
      </trkpt>
      <trkpt lat="46.4833" lon="5.16705">
        <ele>230.4</ele>
        <time>2022-03-29T12:05:36Z</time>
      </trkpt>
      <trkpt lat="46.48288" lon="5.16679">
        <ele>230.8</ele>
        <time>2022-03-29T12:05:45Z</time>
      </trkpt>
      <trkpt lat="46.48246" lon="5.16659">
        <ele>231</ele>
        <time>2022-03-29T12:05:53Z</time>
      </trkpt>
      <trkpt lat="46.48192" lon="5.16635">
        <ele>231.2</ele>
        <time>2022-03-29T12:06:03Z</time>
      </trkpt>
      <trkpt lat="46.48181" lon="5.16631">
        <ele>231.2</ele>
        <time>2022-03-29T12:06:05Z</time>
      </trkpt>
      <trkpt lat="46.48138" lon="5.16607">
        <ele>231</ele>
        <time>2022-03-29T12:06:13Z</time>
      </trkpt>
      <trkpt lat="46.48091" lon="5.1657">
        <ele>230.8</ele>
        <time>2022-03-29T12:06:22Z</time>
      </trkpt>
      <trkpt lat="46.4804" lon="5.16527">
        <ele>230.4</ele>
        <time>2022-03-29T12:06:31Z</time>
      </trkpt>
      <trkpt lat="46.47988" lon="5.16488">
        <ele>230</ele>
        <time>2022-03-29T12:06:40Z</time>
      </trkpt>
      <trkpt lat="46.47982" lon="5.16484">
        <ele>229.8</ele>
        <time>2022-03-29T12:06:41Z</time>
      </trkpt>
      <trkpt lat="46.47958" lon="5.16467">
        <ele>229.4</ele>
        <time>2022-03-29T12:06:45Z</time>
      </trkpt>
      <trkpt lat="46.47935" lon="5.16449">
        <ele>229</ele>
        <time>2022-03-29T12:06:49Z</time>
      </trkpt>
      <trkpt lat="46.47907" lon="5.16423">
        <ele>228.2</ele>
        <time>2022-03-29T12:06:54Z</time>
      </trkpt>
      <trkpt lat="46.47886" lon="5.16401">
        <ele>228</ele>
        <time>2022-03-29T12:06:58Z</time>
      </trkpt>
      <trkpt lat="46.47856" lon="5.16368">
        <ele>228</ele>
        <time>2022-03-29T12:07:04Z</time>
      </trkpt>
      <trkpt lat="46.47822" lon="5.16329">
        <ele>227.8</ele>
        <time>2022-03-29T12:07:11Z</time>
      </trkpt>
      <trkpt lat="46.47812" lon="5.16319">
        <ele>227.6</ele>
        <time>2022-03-29T12:07:13Z</time>
      </trkpt>
      <trkpt lat="46.47773" lon="5.16276">
        <ele>227.6</ele>
        <time>2022-03-29T12:07:21Z</time>
      </trkpt>
      <trkpt lat="46.47739" lon="5.16247">
        <ele>228</ele>
        <time>2022-03-29T12:07:28Z</time>
      </trkpt>
      <trkpt lat="46.47702" lon="5.16232">
        <ele>228.4</ele>
        <time>2022-03-29T12:07:35Z</time>
      </trkpt>
      <trkpt lat="46.47662" lon="5.16223">
        <ele>229.2</ele>
        <time>2022-03-29T12:07:43Z</time>
      </trkpt>
      <trkpt lat="46.47652" lon="5.1622">
        <ele>229.6</ele>
        <time>2022-03-29T12:07:45Z</time>
      </trkpt>
      <trkpt lat="46.47615" lon="5.16208">
        <ele>230.4</ele>
        <time>2022-03-29T12:07:53Z</time>
      </trkpt>
      <trkpt lat="46.47585" lon="5.16188">
        <ele>230.6</ele>
        <time>2022-03-29T12:07:59Z</time>
      </trkpt>
      <trkpt lat="46.47576" lon="5.16178">
        <ele>230.6</ele>
        <time>2022-03-29T12:08:01Z</time>
      </trkpt>
      <trkpt lat="46.47564" lon="5.16162">
        <ele>230.6</ele>
        <time>2022-03-29T12:08:04Z</time>
      </trkpt>
      <trkpt lat="46.47539" lon="5.16111">
        <ele>231.2</ele>
        <time>2022-03-29T12:08:12Z</time>
      </trkpt>
      <trkpt lat="46.47523" lon="5.16059">
        <ele>231.4</ele>
        <time>2022-03-29T12:08:19Z</time>
      </trkpt>
      <trkpt lat="46.47515" lon="5.16029">
        <ele>231.6</ele>
        <time>2022-03-29T12:08:23Z</time>
      </trkpt>
      <trkpt lat="46.47506" lon="5.16003">
        <ele>231.8</ele>
        <time>2022-03-29T12:08:27Z</time>
      </trkpt>
      <trkpt lat="46.47503" lon="5.15997">
        <ele>232</ele>
        <time>2022-03-29T12:08:28Z</time>
      </trkpt>
      <trkpt lat="46.47499" lon="5.15991">
        <ele>232</ele>
        <time>2022-03-29T12:08:29Z</time>
      </trkpt>
      <trkpt lat="46.47486" lon="5.15979">
        <ele>232.2</ele>
        <time>2022-03-29T12:08:32Z</time>
      </trkpt>
      <trkpt lat="46.47482" lon="5.15976">
        <ele>232.2</ele>
        <time>2022-03-29T12:08:33Z</time>
      </trkpt>
      <trkpt lat="46.47475" lon="5.15972">
        <ele>232.6</ele>
        <time>2022-03-29T12:08:35Z</time>
      </trkpt>
      <trkpt lat="46.47473" lon="5.15971">
        <ele>232.8</ele>
        <time>2022-03-29T12:08:36Z</time>
      </trkpt>
      <trkpt lat="46.47468" lon="5.15967">
        <ele>233.4</ele>
        <time>2022-03-29T12:08:40Z</time>
      </trkpt>
      <trkpt lat="46.47463" lon="5.15966">
        <ele>233.6</ele>
        <time>2022-03-29T12:08:41Z</time>
      </trkpt>
      <trkpt lat="46.47459" lon="5.15968">
        <ele>233.8</ele>
        <time>2022-03-29T12:08:42Z</time>
      </trkpt>
      <trkpt lat="46.47455" lon="5.15969">
        <ele>233.8</ele>
        <time>2022-03-29T12:08:43Z</time>
      </trkpt>
      <trkpt lat="46.47451" lon="5.1597">
        <ele>233.8</ele>
        <time>2022-03-29T12:08:44Z</time>
      </trkpt>
      <trkpt lat="46.47434" lon="5.15969">
        <ele>233.8</ele>
        <time>2022-03-29T12:08:47Z</time>
      </trkpt>
      <trkpt lat="46.47394" lon="5.15964">
        <ele>233.4</ele>
        <time>2022-03-29T12:08:54Z</time>
      </trkpt>
      <trkpt lat="46.47389" lon="5.15963">
        <ele>233.4</ele>
        <time>2022-03-29T12:08:55Z</time>
      </trkpt>
      <trkpt lat="46.47354" lon="5.15953">
        <ele>233.8</ele>
        <time>2022-03-29T12:09:01Z</time>
      </trkpt>
      <trkpt lat="46.47349" lon="5.15951">
        <ele>233.8</ele>
        <time>2022-03-29T12:09:02Z</time>
      </trkpt>
      <trkpt lat="46.47327" lon="5.1594">
        <ele>233.8</ele>
        <time>2022-03-29T12:09:06Z</time>
      </trkpt>
      <trkpt lat="46.47274" lon="5.15915">
        <ele>233.8</ele>
        <time>2022-03-29T12:09:15Z</time>
      </trkpt>
      <trkpt lat="46.47231" lon="5.15905">
        <ele>233.2</ele>
        <time>2022-03-29T12:09:22Z</time>
      </trkpt>
      <trkpt lat="46.47172" lon="5.15907">
        <ele>233.2</ele>
        <time>2022-03-29T12:09:32Z</time>
      </trkpt>
      <trkpt lat="46.47116" lon="5.1591">
        <ele>233.4</ele>
        <time>2022-03-29T12:09:42Z</time>
      </trkpt>
      <trkpt lat="46.47062" lon="5.15914">
        <ele>233.6</ele>
        <time>2022-03-29T12:09:52Z</time>
      </trkpt>
      <trkpt lat="46.47057" lon="5.15914">
        <ele>233.6</ele>
        <time>2022-03-29T12:09:53Z</time>
      </trkpt>
      <trkpt lat="46.47017" lon="5.15908">
        <ele>234.2</ele>
        <time>2022-03-29T12:10:00Z</time>
      </trkpt>
      <trkpt lat="46.46981" lon="5.15886">
        <ele>233.8</ele>
        <time>2022-03-29T12:10:07Z</time>
      </trkpt>
      <trkpt lat="46.46931" lon="5.15846">
        <ele>233.6</ele>
        <time>2022-03-29T12:10:17Z</time>
      </trkpt>
      <trkpt lat="46.46883" lon="5.15807">
        <ele>233.6</ele>
        <time>2022-03-29T12:10:27Z</time>
      </trkpt>
      <trkpt lat="46.46847" lon="5.15779">
        <ele>233.6</ele>
        <time>2022-03-29T12:10:34Z</time>
      </trkpt>
      <trkpt lat="46.46837" lon="5.15771">
        <ele>233.6</ele>
        <time>2022-03-29T12:10:36Z</time>
      </trkpt>
      <trkpt lat="46.46784" lon="5.15731">
        <ele>233.4</ele>
        <time>2022-03-29T12:10:46Z</time>
      </trkpt>
      <trkpt lat="46.46744" lon="5.15702">
        <ele>233</ele>
        <time>2022-03-29T12:10:53Z</time>
      </trkpt>
      <trkpt lat="46.46739" lon="5.15697">
        <ele>233</ele>
        <time>2022-03-29T12:10:54Z</time>
      </trkpt>
      <trkpt lat="46.46685" lon="5.15656">
        <ele>232.4</ele>
        <time>2022-03-29T12:11:03Z</time>
      </trkpt>
      <trkpt lat="46.46673" lon="5.15647">
        <ele>232.4</ele>
        <time>2022-03-29T12:11:05Z</time>
      </trkpt>
      <trkpt lat="46.46643" lon="5.15626">
        <ele>232</ele>
        <time>2022-03-29T12:11:10Z</time>
      </trkpt>
      <trkpt lat="46.46622" lon="5.15617">
        <ele>231.8</ele>
        <time>2022-03-29T12:11:13Z</time>
      </trkpt>
      <trkpt lat="46.46594" lon="5.15607">
        <ele>230.8</ele>
        <time>2022-03-29T12:11:17Z</time>
      </trkpt>
      <trkpt lat="46.46557" lon="5.15596">
        <ele>230</ele>
        <time>2022-03-29T12:11:22Z</time>
      </trkpt>
      <trkpt lat="46.46528" lon="5.15588">
        <ele>229.6</ele>
        <time>2022-03-29T12:11:26Z</time>
      </trkpt>
      <trkpt lat="46.46491" lon="5.15576">
        <ele>229.2</ele>
        <time>2022-03-29T12:11:31Z</time>
      </trkpt>
      <trkpt lat="46.46478" lon="5.15572">
        <ele>228.8</ele>
        <time>2022-03-29T12:11:33Z</time>
      </trkpt>
      <trkpt lat="46.46426" lon="5.15556">
        <ele>228.2</ele>
        <time>2022-03-29T12:11:40Z</time>
      </trkpt>
      <trkpt lat="46.46391" lon="5.15544">
        <ele>227.6</ele>
        <time>2022-03-29T12:11:45Z</time>
      </trkpt>
      <trkpt lat="46.46349" lon="5.15528">
        <ele>227.4</ele>
        <time>2022-03-29T12:11:51Z</time>
      </trkpt>
      <trkpt lat="46.46293" lon="5.15506">
        <ele>227.2</ele>
        <time>2022-03-29T12:11:59Z</time>
      </trkpt>
      <trkpt lat="46.46273" lon="5.15498">
        <ele>227.2</ele>
        <time>2022-03-29T12:12:02Z</time>
      </trkpt>
      <trkpt lat="46.46222" lon="5.15478">
        <ele>227.4</ele>
        <time>2022-03-29T12:12:10Z</time>
      </trkpt>
      <trkpt lat="46.4617" lon="5.15457">
        <ele>226.8</ele>
        <time>2022-03-29T12:12:18Z</time>
      </trkpt>
      <trkpt lat="46.46164" lon="5.15455">
        <ele>226.6</ele>
        <time>2022-03-29T12:12:19Z</time>
      </trkpt>
      <trkpt lat="46.46113" lon="5.15428">
        <ele>226</ele>
        <time>2022-03-29T12:12:27Z</time>
      </trkpt>
      <trkpt lat="46.46089" lon="5.15409">
        <ele>225.6</ele>
        <time>2022-03-29T12:12:31Z</time>
      </trkpt>
      <trkpt lat="46.46078" lon="5.15398">
        <ele>225.4</ele>
        <time>2022-03-29T12:12:33Z</time>
      </trkpt>
      <trkpt lat="46.4604" lon="5.15354">
        <ele>225.2</ele>
        <time>2022-03-29T12:12:41Z</time>
      </trkpt>
      <trkpt lat="46.46015" lon="5.15318">
        <ele>225.8</ele>
        <time>2022-03-29T12:12:48Z</time>
      </trkpt>
      <trkpt lat="46.46003" lon="5.153">
        <ele>226.6</ele>
        <time>2022-03-29T12:12:53Z</time>
      </trkpt>
      <trkpt lat="46.46002" lon="5.15298">
        <ele>227</ele>
        <time>2022-03-29T12:12:54Z</time>
      </trkpt>
      <trkpt lat="46.4599" lon="5.15279">
        <ele>227.6</ele>
        <time>2022-03-29T12:12:59Z</time>
      </trkpt>
      <trkpt lat="46.45988" lon="5.15276">
        <ele>227.6</ele>
        <time>2022-03-29T12:13:00Z</time>
      </trkpt>
      <trkpt lat="46.45973" lon="5.15253">
        <ele>228.6</ele>
        <time>2022-03-29T12:13:05Z</time>
      </trkpt>
      <trkpt lat="46.4597" lon="5.15249">
        <ele>229</ele>
        <time>2022-03-29T12:13:06Z</time>
      </trkpt>
      <trkpt lat="46.45951" lon="5.15216">
        <ele>230</ele>
        <time>2022-03-29T12:13:13Z</time>
      </trkpt>
      <trkpt lat="46.45948" lon="5.15212">
        <ele>230.2</ele>
        <time>2022-03-29T12:13:14Z</time>
      </trkpt>
      <trkpt lat="46.45928" lon="5.15183">
        <ele>231.2</ele>
        <time>2022-03-29T12:13:21Z</time>
      </trkpt>
      <trkpt lat="46.45924" lon="5.15179">
        <ele>231.4</ele>
        <time>2022-03-29T12:13:22Z</time>
      </trkpt>
      <trkpt lat="46.45905" lon="5.15163">
        <ele>232.4</ele>
        <time>2022-03-29T12:13:27Z</time>
      </trkpt>
      <trkpt lat="46.45901" lon="5.1516">
        <ele>232.4</ele>
        <time>2022-03-29T12:13:28Z</time>
      </trkpt>
      <trkpt lat="46.45878" lon="5.15152">
        <ele>233.4</ele>
        <time>2022-03-29T12:13:33Z</time>
      </trkpt>
      <trkpt lat="46.45867" lon="5.15151">
        <ele>233.6</ele>
        <time>2022-03-29T12:13:35Z</time>
      </trkpt>
      <trkpt lat="46.45837" lon="5.15145">
        <ele>233.6</ele>
        <time>2022-03-29T12:13:40Z</time>
      </trkpt>
      <trkpt lat="46.45787" lon="5.15142">
        <ele>232.6</ele>
        <time>2022-03-29T12:13:48Z</time>
      </trkpt>
      <trkpt lat="46.45764" lon="5.15146">
        <ele>232.4</ele>
        <time>2022-03-29T12:13:52Z</time>
      </trkpt>
      <trkpt lat="46.45747" lon="5.15152">
        <ele>232.2</ele>
        <time>2022-03-29T12:13:55Z</time>
      </trkpt>
      <trkpt lat="46.45717" lon="5.15168">
        <ele>232.4</ele>
        <time>2022-03-29T12:14:01Z</time>
      </trkpt>
      <trkpt lat="46.45682" lon="5.15201">
        <ele>233.2</ele>
        <time>2022-03-29T12:14:09Z</time>
      </trkpt>
      <trkpt lat="46.45668" lon="5.15215">
        <ele>233.4</ele>
        <time>2022-03-29T12:14:12Z</time>
      </trkpt>
      <trkpt lat="46.4565" lon="5.15234">
        <ele>233.6</ele>
        <time>2022-03-29T12:14:16Z</time>
      </trkpt>
      <trkpt lat="46.45613" lon="5.15274">
        <ele>234.6</ele>
        <time>2022-03-29T12:14:25Z</time>
      </trkpt>
      <trkpt lat="46.45574" lon="5.1531">
        <ele>235.6</ele>
        <time>2022-03-29T12:14:34Z</time>
      </trkpt>
      <trkpt lat="46.4557" lon="5.15314">
        <ele>235.8</ele>
        <time>2022-03-29T12:14:35Z</time>
      </trkpt>
      <trkpt lat="46.45551" lon="5.1533">
        <ele>236.8</ele>
        <time>2022-03-29T12:14:39Z</time>
      </trkpt>
      <trkpt lat="46.45526" lon="5.15349">
        <ele>237</ele>
        <time>2022-03-29T12:14:44Z</time>
      </trkpt>
      <trkpt lat="46.45484" lon="5.15375">
        <ele>236</ele>
        <time>2022-03-29T12:14:51Z</time>
      </trkpt>
      <trkpt lat="46.45466" lon="5.15386">
        <ele>235.6</ele>
        <time>2022-03-29T12:14:54Z</time>
      </trkpt>
      <trkpt lat="46.45433" lon="5.15402">
        <ele>234.8</ele>
        <time>2022-03-29T12:14:59Z</time>
      </trkpt>
      <trkpt lat="46.4541" lon="5.15408">
        <ele>234.4</ele>
        <time>2022-03-29T12:15:02Z</time>
      </trkpt>
      <trkpt lat="46.45379" lon="5.15413">
        <ele>234</ele>
        <time>2022-03-29T12:15:06Z</time>
      </trkpt>
      <trkpt lat="46.45363" lon="5.15416">
        <ele>233.2</ele>
        <time>2022-03-29T12:15:08Z</time>
      </trkpt>
      <trkpt lat="46.45332" lon="5.1542">
        <ele>232.2</ele>
        <time>2022-03-29T12:15:12Z</time>
      </trkpt>
      <trkpt lat="46.45316" lon="5.15423">
        <ele>231.8</ele>
        <time>2022-03-29T12:15:14Z</time>
      </trkpt>
      <trkpt lat="46.45301" lon="5.15425">
        <ele>231.6</ele>
        <time>2022-03-29T12:15:16Z</time>
      </trkpt>
      <trkpt lat="46.45273" lon="5.15429">
        <ele>231.2</ele>
        <time>2022-03-29T12:15:20Z</time>
      </trkpt>
      <trkpt lat="46.45266" lon="5.1543">
        <ele>231.2</ele>
        <time>2022-03-29T12:15:21Z</time>
      </trkpt>
      <trkpt lat="46.45216" lon="5.15437">
        <ele>231.2</ele>
        <time>2022-03-29T12:15:29Z</time>
      </trkpt>
      <trkpt lat="46.45161" lon="5.15445">
        <ele>231.8</ele>
        <time>2022-03-29T12:15:38Z</time>
      </trkpt>
      <trkpt lat="46.45154" lon="5.15446">
        <ele>231.8</ele>
        <time>2022-03-29T12:15:39Z</time>
      </trkpt>
      <trkpt lat="46.45095" lon="5.15455">
        <ele>230.4</ele>
        <time>2022-03-29T12:15:48Z</time>
      </trkpt>
      <trkpt lat="46.45074" lon="5.15457">
        <ele>230.2</ele>
        <time>2022-03-29T12:15:51Z</time>
      </trkpt>
      <trkpt lat="46.45044" lon="5.15454">
        <ele>228.8</ele>
        <time>2022-03-29T12:15:55Z</time>
      </trkpt>
      <trkpt lat="46.45009" lon="5.15435">
        <ele>227.8</ele>
        <time>2022-03-29T12:16:00Z</time>
      </trkpt>
      <trkpt lat="46.44968" lon="5.154">
        <ele>227</ele>
        <time>2022-03-29T12:16:07Z</time>
      </trkpt>
      <trkpt lat="46.44947" lon="5.15383">
        <ele>227</ele>
        <time>2022-03-29T12:16:11Z</time>
      </trkpt>
      <trkpt lat="46.44932" lon="5.1537">
        <ele>227</ele>
        <time>2022-03-29T12:16:14Z</time>
      </trkpt>
      <trkpt lat="46.44891" lon="5.15335">
        <ele>227</ele>
        <time>2022-03-29T12:16:23Z</time>
      </trkpt>
      <trkpt lat="46.44847" lon="5.15298">
        <ele>227.2</ele>
        <time>2022-03-29T12:16:33Z</time>
      </trkpt>
      <trkpt lat="46.44808" lon="5.1527">
        <ele>228.2</ele>
        <time>2022-03-29T12:16:42Z</time>
      </trkpt>
      <trkpt lat="46.44772" lon="5.15251">
        <ele>229</ele>
        <time>2022-03-29T12:16:50Z</time>
      </trkpt>
      <trkpt lat="46.44767" lon="5.1525">
        <ele>229.2</ele>
        <time>2022-03-29T12:16:51Z</time>
      </trkpt>
      <trkpt lat="46.44725" lon="5.15236">
        <ele>230</ele>
        <time>2022-03-29T12:17:00Z</time>
      </trkpt>
      <trkpt lat="46.44715" lon="5.15234">
        <ele>230.2</ele>
        <time>2022-03-29T12:17:02Z</time>
      </trkpt>
      <trkpt lat="46.44674" lon="5.15231">
        <ele>230.6</ele>
        <time>2022-03-29T12:17:10Z</time>
      </trkpt>
      <trkpt lat="46.44633" lon="5.15234">
        <ele>231.2</ele>
        <time>2022-03-29T12:17:18Z</time>
      </trkpt>
      <trkpt lat="46.44628" lon="5.15235">
        <ele>231.4</ele>
        <time>2022-03-29T12:17:19Z</time>
      </trkpt>
      <trkpt lat="46.44589" lon="5.1524">
        <ele>232</ele>
        <time>2022-03-29T12:17:27Z</time>
      </trkpt>
      <trkpt lat="46.44579" lon="5.15242">
        <ele>232.2</ele>
        <time>2022-03-29T12:17:29Z</time>
      </trkpt>
      <trkpt lat="46.44538" lon="5.1525">
        <ele>233.2</ele>
        <time>2022-03-29T12:17:38Z</time>
      </trkpt>
      <trkpt lat="46.44533" lon="5.15251">
        <ele>233.4</ele>
        <time>2022-03-29T12:17:39Z</time>
      </trkpt>
      <trkpt lat="46.44485" lon="5.15261">
        <ele>234.2</ele>
        <time>2022-03-29T12:17:49Z</time>
      </trkpt>
      <trkpt lat="46.44434" lon="5.15271">
        <ele>234.4</ele>
        <time>2022-03-29T12:17:58Z</time>
      </trkpt>
      <trkpt lat="46.44385" lon="5.15281">
        <ele>233.6</ele>
        <time>2022-03-29T12:18:06Z</time>
      </trkpt>
      <trkpt lat="46.44341" lon="5.15297">
        <ele>233.2</ele>
        <time>2022-03-29T12:18:13Z</time>
      </trkpt>
      <trkpt lat="46.4429" lon="5.15335">
        <ele>232.8</ele>
        <time>2022-03-29T12:18:22Z</time>
      </trkpt>
      <trkpt lat="46.44256" lon="5.15355">
        <ele>232.8</ele>
        <time>2022-03-29T12:18:28Z</time>
      </trkpt>
      <trkpt lat="46.44219" lon="5.15359">
        <ele>232.8</ele>
        <time>2022-03-29T12:18:34Z</time>
      </trkpt>
      <trkpt lat="46.44167" lon="5.15356">
        <ele>233</ele>
        <time>2022-03-29T12:18:42Z</time>
      </trkpt>
      <trkpt lat="46.44114" lon="5.15352">
        <ele>232.4</ele>
        <time>2022-03-29T12:18:50Z</time>
      </trkpt>
      <trkpt lat="46.44102" lon="5.15351">
        <ele>232.4</ele>
        <time>2022-03-29T12:18:52Z</time>
      </trkpt>
      <trkpt lat="46.44047" lon="5.1535">
        <ele>232.8</ele>
        <time>2022-03-29T12:19:01Z</time>
      </trkpt>
      <trkpt lat="46.43995" lon="5.15351">
        <ele>233.8</ele>
        <time>2022-03-29T12:19:10Z</time>
      </trkpt>
      <trkpt lat="46.4399" lon="5.15351">
        <ele>233.8</ele>
        <time>2022-03-29T12:19:11Z</time>
      </trkpt>
      <trkpt lat="46.43932" lon="5.15356">
        <ele>234</ele>
        <time>2022-03-29T12:19:21Z</time>
      </trkpt>
      <trkpt lat="46.43877" lon="5.1535">
        <ele>234.6</ele>
        <time>2022-03-29T12:19:30Z</time>
      </trkpt>
      <trkpt lat="46.43872" lon="5.15349">
        <ele>234.8</ele>
        <time>2022-03-29T12:19:31Z</time>
      </trkpt>
      <trkpt lat="46.4384" lon="5.15336">
        <ele>235.4</ele>
        <time>2022-03-29T12:19:37Z</time>
      </trkpt>
      <trkpt lat="46.43826" lon="5.15326">
        <ele>235.8</ele>
        <time>2022-03-29T12:19:40Z</time>
      </trkpt>
      <trkpt lat="46.43812" lon="5.15314">
        <ele>236.4</ele>
        <time>2022-03-29T12:19:43Z</time>
      </trkpt>
      <trkpt lat="46.43804" lon="5.15306">
        <ele>237</ele>
        <time>2022-03-29T12:19:45Z</time>
      </trkpt>
      <trkpt lat="46.4377" lon="5.1527">
        <ele>238</ele>
        <time>2022-03-29T12:19:53Z</time>
      </trkpt>
      <trkpt lat="46.43766" lon="5.15265">
        <ele>238</ele>
        <time>2022-03-29T12:19:54Z</time>
      </trkpt>
      <trkpt lat="46.43731" lon="5.15224">
        <ele>238.8</ele>
        <time>2022-03-29T12:20:02Z</time>
      </trkpt>
      <trkpt lat="46.43688" lon="5.15174">
        <ele>237.6</ele>
        <time>2022-03-29T12:20:10Z</time>
      </trkpt>
      <trkpt lat="46.43659" lon="5.1514">
        <ele>236.8</ele>
        <time>2022-03-29T12:20:15Z</time>
      </trkpt>
      <trkpt lat="46.43642" lon="5.1512">
        <ele>236</ele>
        <time>2022-03-29T12:20:18Z</time>
      </trkpt>
      <trkpt lat="46.43637" lon="5.15113">
        <ele>235.6</ele>
        <time>2022-03-29T12:20:19Z</time>
      </trkpt>
      <trkpt lat="46.43607" lon="5.15078">
        <ele>234.2</ele>
        <time>2022-03-29T12:20:24Z</time>
      </trkpt>
      <trkpt lat="46.4359" lon="5.15057">
        <ele>233.2</ele>
        <time>2022-03-29T12:20:27Z</time>
      </trkpt>
      <trkpt lat="46.43576" lon="5.15041">
        <ele>232.8</ele>
        <time>2022-03-29T12:20:29Z</time>
      </trkpt>
      <trkpt lat="46.4355" lon="5.1501">
        <ele>231.6</ele>
        <time>2022-03-29T12:20:33Z</time>
      </trkpt>
      <trkpt lat="46.43522" lon="5.14978">
        <ele>230.6</ele>
        <time>2022-03-29T12:20:37Z</time>
      </trkpt>
      <trkpt lat="46.43516" lon="5.1497">
        <ele>230.4</ele>
        <time>2022-03-29T12:20:38Z</time>
      </trkpt>
      <trkpt lat="46.43495" lon="5.14945">
        <ele>229.6</ele>
        <time>2022-03-29T12:20:41Z</time>
      </trkpt>
      <trkpt lat="46.4346" lon="5.14905">
        <ele>228.4</ele>
        <time>2022-03-29T12:20:46Z</time>
      </trkpt>
      <trkpt lat="46.43454" lon="5.14897">
        <ele>228</ele>
        <time>2022-03-29T12:20:47Z</time>
      </trkpt>
      <trkpt lat="46.43434" lon="5.14873">
        <ele>227.2</ele>
        <time>2022-03-29T12:20:50Z</time>
      </trkpt>
      <trkpt lat="46.43401" lon="5.14837">
        <ele>226</ele>
        <time>2022-03-29T12:20:55Z</time>
      </trkpt>
      <trkpt lat="46.43368" lon="5.14809">
        <ele>225</ele>
        <time>2022-03-29T12:21:00Z</time>
      </trkpt>
      <trkpt lat="46.43361" lon="5.14804">
        <ele>224.6</ele>
        <time>2022-03-29T12:21:01Z</time>
      </trkpt>
      <trkpt lat="46.43326" lon="5.14776">
        <ele>224.4</ele>
        <time>2022-03-29T12:21:07Z</time>
      </trkpt>
      <trkpt lat="46.43291" lon="5.1475">
        <ele>225.8</ele>
        <time>2022-03-29T12:21:14Z</time>
      </trkpt>
      <trkpt lat="46.43286" lon="5.14746">
        <ele>226</ele>
        <time>2022-03-29T12:21:15Z</time>
      </trkpt>
      <trkpt lat="46.43254" lon="5.14716">
        <ele>226.2</ele>
        <time>2022-03-29T12:21:22Z</time>
      </trkpt>
      <trkpt lat="46.4322" lon="5.14677">
        <ele>226.8</ele>
        <time>2022-03-29T12:21:30Z</time>
      </trkpt>
      <trkpt lat="46.43203" lon="5.14656">
        <ele>227.4</ele>
        <time>2022-03-29T12:21:34Z</time>
      </trkpt>
      <trkpt lat="46.43175" lon="5.14621">
        <ele>227.8</ele>
        <time>2022-03-29T12:21:41Z</time>
      </trkpt>
      <trkpt lat="46.43146" lon="5.14582">
        <ele>228.2</ele>
        <time>2022-03-29T12:21:49Z</time>
      </trkpt>
      <trkpt lat="46.43138" lon="5.14572">
        <ele>228.4</ele>
        <time>2022-03-29T12:21:51Z</time>
      </trkpt>
      <trkpt lat="46.4313" lon="5.14561">
        <ele>228.8</ele>
        <time>2022-03-29T12:21:53Z</time>
      </trkpt>
      <trkpt lat="46.43115" lon="5.14538">
        <ele>229.2</ele>
        <time>2022-03-29T12:21:57Z</time>
      </trkpt>
      <trkpt lat="46.43088" lon="5.14495">
        <ele>229.2</ele>
        <time>2022-03-29T12:22:03Z</time>
      </trkpt>
      <trkpt lat="46.43051" lon="5.14435">
        <ele>228.6</ele>
        <time>2022-03-29T12:22:11Z</time>
      </trkpt>
      <trkpt lat="46.43015" lon="5.14377">
        <ele>227.8</ele>
        <time>2022-03-29T12:22:19Z</time>
      </trkpt>
      <trkpt lat="46.42998" lon="5.14348">
        <ele>227.6</ele>
        <time>2022-03-29T12:22:23Z</time>
      </trkpt>
      <trkpt lat="46.42973" lon="5.14308">
        <ele>227.6</ele>
        <time>2022-03-29T12:22:29Z</time>
      </trkpt>
      <trkpt lat="46.42964" lon="5.14297">
        <ele>227.6</ele>
        <time>2022-03-29T12:22:31Z</time>
      </trkpt>
      <trkpt lat="46.42951" lon="5.14281">
        <ele>227.6</ele>
        <time>2022-03-29T12:22:34Z</time>
      </trkpt>
      <trkpt lat="46.42935" lon="5.14268">
        <ele>227.6</ele>
        <time>2022-03-29T12:22:37Z</time>
      </trkpt>
      <trkpt lat="46.4289" lon="5.1423">
        <ele>228.2</ele>
        <time>2022-03-29T12:22:46Z</time>
      </trkpt>
      <trkpt lat="46.42874" lon="5.14217">
        <ele>228.6</ele>
        <time>2022-03-29T12:22:49Z</time>
      </trkpt>
      <trkpt lat="46.42859" lon="5.14206">
        <ele>228.8</ele>
        <time>2022-03-29T12:22:52Z</time>
      </trkpt>
      <trkpt lat="46.4285" lon="5.14203">
        <ele>229</ele>
        <time>2022-03-29T12:22:54Z</time>
      </trkpt>
      <trkpt lat="46.42835" lon="5.14201">
        <ele>229</ele>
        <time>2022-03-29T12:22:57Z</time>
      </trkpt>
      <trkpt lat="46.42817" lon="5.14196">
        <ele>229</ele>
        <time>2022-03-29T12:23:00Z</time>
      </trkpt>
      <trkpt lat="46.42787" lon="5.1419">
        <ele>229</ele>
        <time>2022-03-29T12:23:05Z</time>
      </trkpt>
      <trkpt lat="46.42781" lon="5.1419">
        <ele>228.8</ele>
        <time>2022-03-29T12:23:06Z</time>
      </trkpt>
      <trkpt lat="46.42744" lon="5.14191">
        <ele>228.8</ele>
        <time>2022-03-29T12:23:12Z</time>
      </trkpt>
      <trkpt lat="46.42708" lon="5.14199">
        <ele>228.8</ele>
        <time>2022-03-29T12:23:18Z</time>
      </trkpt>
      <trkpt lat="46.42703" lon="5.14202">
        <ele>228.8</ele>
        <time>2022-03-29T12:23:19Z</time>
      </trkpt>
      <trkpt lat="46.4267" lon="5.14228">
        <ele>228.8</ele>
        <time>2022-03-29T12:23:26Z</time>
      </trkpt>
      <trkpt lat="46.42623" lon="5.14251">
        <ele>229</ele>
        <time>2022-03-29T12:23:34Z</time>
      </trkpt>
      <trkpt lat="46.42573" lon="5.14277">
        <ele>228.6</ele>
        <time>2022-03-29T12:23:43Z</time>
      </trkpt>
      <trkpt lat="46.42565" lon="5.14279">
        <ele>228.6</ele>
        <time>2022-03-29T12:23:44Z</time>
      </trkpt>
      <trkpt lat="46.42535" lon="5.14282">
        <ele>228.4</ele>
        <time>2022-03-29T12:23:49Z</time>
      </trkpt>
      <trkpt lat="46.4249" lon="5.14292">
        <ele>228.2</ele>
        <time>2022-03-29T12:23:56Z</time>
      </trkpt>
      <trkpt lat="46.42477" lon="5.14295">
        <ele>228</ele>
        <time>2022-03-29T12:23:58Z</time>
      </trkpt>
      <trkpt lat="46.42464" lon="5.14294">
        <ele>227.6</ele>
        <time>2022-03-29T12:24:00Z</time>
      </trkpt>
      <trkpt lat="46.42458" lon="5.14291">
        <ele>227.6</ele>
        <time>2022-03-29T12:24:01Z</time>
      </trkpt>
      <trkpt lat="46.42421" lon="5.14268">
        <ele>227</ele>
        <time>2022-03-29T12:24:07Z</time>
      </trkpt>
      <trkpt lat="46.42393" lon="5.14254">
        <ele>227.2</ele>
        <time>2022-03-29T12:24:12Z</time>
      </trkpt>
      <trkpt lat="46.42358" lon="5.14249">
        <ele>227.4</ele>
        <time>2022-03-29T12:24:18Z</time>
      </trkpt>
      <trkpt lat="46.42353" lon="5.14247">
        <ele>227.4</ele>
        <time>2022-03-29T12:24:19Z</time>
      </trkpt>
      <trkpt lat="46.42317" lon="5.1424">
        <ele>228.4</ele>
        <time>2022-03-29T12:24:26Z</time>
      </trkpt>
      <trkpt lat="46.42307" lon="5.1424">
        <ele>228.8</ele>
        <time>2022-03-29T12:24:28Z</time>
      </trkpt>
      <trkpt lat="46.42279" lon="5.14244">
        <ele>229.8</ele>
        <time>2022-03-29T12:24:34Z</time>
      </trkpt>
      <trkpt lat="46.42274" lon="5.14246">
        <ele>230.6</ele>
        <time>2022-03-29T12:24:35Z</time>
      </trkpt>
      <trkpt lat="46.42269" lon="5.14249">
        <ele>230.6</ele>
        <time>2022-03-29T12:24:36Z</time>
      </trkpt>
      <trkpt lat="46.42257" lon="5.14256">
        <ele>231.6</ele>
        <time>2022-03-29T12:24:39Z</time>
      </trkpt>
      <trkpt lat="46.42249" lon="5.14263">
        <ele>232.2</ele>
        <time>2022-03-29T12:24:41Z</time>
      </trkpt>
      <trkpt lat="46.42228" lon="5.14279">
        <ele>232.8</ele>
        <time>2022-03-29T12:24:46Z</time>
      </trkpt>
      <trkpt lat="46.42206" lon="5.14296">
        <ele>233.2</ele>
        <time>2022-03-29T12:24:51Z</time>
      </trkpt>
      <trkpt lat="46.42178" lon="5.1432">
        <ele>233.8</ele>
        <time>2022-03-29T12:24:58Z</time>
      </trkpt>
      <trkpt lat="46.42174" lon="5.14323">
        <ele>234</ele>
        <time>2022-03-29T12:24:59Z</time>
      </trkpt>
      <trkpt lat="46.4215" lon="5.1433">
        <ele>234.8</ele>
        <time>2022-03-29T12:25:04Z</time>
      </trkpt>
      <trkpt lat="46.42144" lon="5.14331">
        <ele>235.2</ele>
        <time>2022-03-29T12:25:05Z</time>
      </trkpt>
      <trkpt lat="46.4214" lon="5.14331">
        <ele>235.4</ele>
        <time>2022-03-29T12:25:06Z</time>
      </trkpt>
      <trkpt lat="46.42101" lon="5.14333">
        <ele>235.6</ele>
        <time>2022-03-29T12:25:13Z</time>
      </trkpt>
      <trkpt lat="46.4209" lon="5.14337">
        <ele>235.6</ele>
        <time>2022-03-29T12:25:15Z</time>
      </trkpt>
      <trkpt lat="46.42069" lon="5.14348">
        <ele>235.6</ele>
        <time>2022-03-29T12:25:19Z</time>
      </trkpt>
      <trkpt lat="46.42027" lon="5.14368">
        <ele>235.6</ele>
        <time>2022-03-29T12:25:27Z</time>
      </trkpt>
      <trkpt lat="46.41983" lon="5.1437">
        <ele>235.8</ele>
        <time>2022-03-29T12:25:35Z</time>
      </trkpt>
      <trkpt lat="46.41972" lon="5.1437">
        <ele>236</ele>
        <time>2022-03-29T12:25:37Z</time>
      </trkpt>
      <trkpt lat="46.41941" lon="5.14372">
        <ele>236.2</ele>
        <time>2022-03-29T12:25:43Z</time>
      </trkpt>
      <trkpt lat="46.41908" lon="5.14383">
        <ele>237</ele>
        <time>2022-03-29T12:25:50Z</time>
      </trkpt>
      <trkpt lat="46.41903" lon="5.14385">
        <ele>237.2</ele>
        <time>2022-03-29T12:25:51Z</time>
      </trkpt>
      <trkpt lat="46.41899" lon="5.14389">
        <ele>237.2</ele>
        <time>2022-03-29T12:25:52Z</time>
      </trkpt>
      <trkpt lat="46.41894" lon="5.14392">
        <ele>237.4</ele>
        <time>2022-03-29T12:25:53Z</time>
      </trkpt>
      <trkpt lat="46.41887" lon="5.144">
        <ele>237.6</ele>
        <time>2022-03-29T12:25:55Z</time>
      </trkpt>
      <trkpt lat="46.41884" lon="5.14405">
        <ele>237.8</ele>
        <time>2022-03-29T12:25:56Z</time>
      </trkpt>
      <trkpt lat="46.41875" lon="5.14422">
        <ele>238</ele>
        <time>2022-03-29T12:25:59Z</time>
      </trkpt>
      <trkpt lat="46.41873" lon="5.14429">
        <ele>238</ele>
        <time>2022-03-29T12:26:00Z</time>
      </trkpt>
      <trkpt lat="46.41866" lon="5.14449">
        <ele>238.4</ele>
        <time>2022-03-29T12:26:03Z</time>
      </trkpt>
      <trkpt lat="46.41854" lon="5.14481">
        <ele>238.8</ele>
        <time>2022-03-29T12:26:08Z</time>
      </trkpt>
      <trkpt lat="46.41851" lon="5.14486">
        <ele>239</ele>
        <time>2022-03-29T12:26:09Z</time>
      </trkpt>
      <trkpt lat="46.41833" lon="5.14504">
        <ele>239.4</ele>
        <time>2022-03-29T12:26:13Z</time>
      </trkpt>
      <trkpt lat="46.41829" lon="5.14508">
        <ele>239.6</ele>
        <time>2022-03-29T12:26:14Z</time>
      </trkpt>
      <trkpt lat="46.41808" lon="5.14516">
        <ele>240</ele>
        <time>2022-03-29T12:26:18Z</time>
      </trkpt>
      <trkpt lat="46.41765" lon="5.14535">
        <ele>240.4</ele>
        <time>2022-03-29T12:26:26Z</time>
      </trkpt>
      <trkpt lat="46.41736" lon="5.14552">
        <ele>240.4</ele>
        <time>2022-03-29T12:26:32Z</time>
      </trkpt>
      <trkpt lat="46.41731" lon="5.14555">
        <ele>240.4</ele>
        <time>2022-03-29T12:26:33Z</time>
      </trkpt>
      <trkpt lat="46.41721" lon="5.14562">
        <ele>240.6</ele>
        <time>2022-03-29T12:26:35Z</time>
      </trkpt>
      <trkpt lat="46.41699" lon="5.14585">
        <ele>240.8</ele>
        <time>2022-03-29T12:26:40Z</time>
      </trkpt>
      <trkpt lat="46.41689" lon="5.14594">
        <ele>240.8</ele>
        <time>2022-03-29T12:26:42Z</time>
      </trkpt>
      <trkpt lat="46.41679" lon="5.146">
        <ele>240.8</ele>
        <time>2022-03-29T12:26:44Z</time>
      </trkpt>
      <trkpt lat="46.41673" lon="5.14601">
        <ele>240.8</ele>
        <time>2022-03-29T12:26:45Z</time>
      </trkpt>
      <trkpt lat="46.41662" lon="5.14605">
        <ele>240.8</ele>
        <time>2022-03-29T12:26:47Z</time>
      </trkpt>
      <trkpt lat="46.41632" lon="5.1461">
        <ele>240.4</ele>
        <time>2022-03-29T12:26:52Z</time>
      </trkpt>
      <trkpt lat="46.4162" lon="5.14611">
        <ele>240.4</ele>
        <time>2022-03-29T12:26:54Z</time>
      </trkpt>
      <trkpt lat="46.41601" lon="5.14611">
        <ele>240.2</ele>
        <time>2022-03-29T12:26:57Z</time>
      </trkpt>
      <trkpt lat="46.41587" lon="5.14611">
        <ele>240</ele>
        <time>2022-03-29T12:26:59Z</time>
      </trkpt>
      <trkpt lat="46.41575" lon="5.14613">
        <ele>240</ele>
        <time>2022-03-29T12:27:01Z</time>
      </trkpt>
      <trkpt lat="46.41564" lon="5.1462">
        <ele>239.8</ele>
        <time>2022-03-29T12:27:03Z</time>
      </trkpt>
      <trkpt lat="46.41554" lon="5.1463">
        <ele>239.8</ele>
        <time>2022-03-29T12:27:05Z</time>
      </trkpt>
      <trkpt lat="46.41535" lon="5.14658">
        <ele>239.6</ele>
        <time>2022-03-29T12:27:10Z</time>
      </trkpt>
      <trkpt lat="46.41524" lon="5.14675">
        <ele>240</ele>
        <time>2022-03-29T12:27:13Z</time>
      </trkpt>
      <trkpt lat="46.41507" lon="5.14699">
        <ele>240</ele>
        <time>2022-03-29T12:27:17Z</time>
      </trkpt>
      <trkpt lat="46.41483" lon="5.1473">
        <ele>240.4</ele>
        <time>2022-03-29T12:27:22Z</time>
      </trkpt>
      <trkpt lat="46.41465" lon="5.14759">
        <ele>240.4</ele>
        <time>2022-03-29T12:27:26Z</time>
      </trkpt>
      <trkpt lat="46.41462" lon="5.14767">
        <ele>240.2</ele>
        <time>2022-03-29T12:27:27Z</time>
      </trkpt>
      <trkpt lat="46.41458" lon="5.14775">
        <ele>240.2</ele>
        <time>2022-03-29T12:27:28Z</time>
      </trkpt>
      <trkpt lat="46.41446" lon="5.14819">
        <ele>239.8</ele>
        <time>2022-03-29T12:27:33Z</time>
      </trkpt>
      <trkpt lat="46.41433" lon="5.14896">
        <ele>240.2</ele>
        <time>2022-03-29T12:27:42Z</time>
      </trkpt>
      <trkpt lat="46.41429" lon="5.14922">
        <ele>240.6</ele>
        <time>2022-03-29T12:27:45Z</time>
      </trkpt>
      <trkpt lat="46.41422" lon="5.14937">
        <ele>240.8</ele>
        <time>2022-03-29T12:27:47Z</time>
      </trkpt>
      <trkpt lat="46.41411" lon="5.14947">
        <ele>240.8</ele>
        <time>2022-03-29T12:27:49Z</time>
      </trkpt>
      <trkpt lat="46.41405" lon="5.1495">
        <ele>240.8</ele>
        <time>2022-03-29T12:27:50Z</time>
      </trkpt>
      <trkpt lat="46.41368" lon="5.14956">
        <ele>241.2</ele>
        <time>2022-03-29T12:27:56Z</time>
      </trkpt>
      <trkpt lat="46.41362" lon="5.14956">
        <ele>241.4</ele>
        <time>2022-03-29T12:27:57Z</time>
      </trkpt>
      <trkpt lat="46.41321" lon="5.14953">
        <ele>242.4</ele>
        <time>2022-03-29T12:28:04Z</time>
      </trkpt>
      <trkpt lat="46.41286" lon="5.14946">
        <ele>243</ele>
        <time>2022-03-29T12:28:10Z</time>
      </trkpt>
      <trkpt lat="46.41237" lon="5.14935">
        <ele>242.2</ele>
        <time>2022-03-29T12:28:18Z</time>
      </trkpt>
      <trkpt lat="46.41196" lon="5.1493">
        <ele>241.6</ele>
        <time>2022-03-29T12:28:25Z</time>
      </trkpt>
      <trkpt lat="46.41184" lon="5.14929">
        <ele>241.2</ele>
        <time>2022-03-29T12:28:27Z</time>
      </trkpt>
      <trkpt lat="46.41146" lon="5.1493">
        <ele>240.6</ele>
        <time>2022-03-29T12:28:33Z</time>
      </trkpt>
      <trkpt lat="46.41117" lon="5.14932">
        <ele>239.4</ele>
        <time>2022-03-29T12:28:37Z</time>
      </trkpt>
      <trkpt lat="46.41103" lon="5.14935">
        <ele>238.6</ele>
        <time>2022-03-29T12:28:39Z</time>
      </trkpt>
      <trkpt lat="46.4109" lon="5.14939">
        <ele>238.2</ele>
        <time>2022-03-29T12:28:41Z</time>
      </trkpt>
      <trkpt lat="46.41057" lon="5.14951">
        <ele>237.8</ele>
        <time>2022-03-29T12:28:46Z</time>
      </trkpt>
      <trkpt lat="46.41038" lon="5.14955">
        <ele>237.4</ele>
        <time>2022-03-29T12:28:49Z</time>
      </trkpt>
      <trkpt lat="46.41026" lon="5.14952">
        <ele>237.4</ele>
        <time>2022-03-29T12:28:51Z</time>
      </trkpt>
      <trkpt lat="46.4102" lon="5.1495">
        <ele>237.4</ele>
        <time>2022-03-29T12:28:52Z</time>
      </trkpt>
      <trkpt lat="46.41009" lon="5.14942">
        <ele>237.6</ele>
        <time>2022-03-29T12:28:54Z</time>
      </trkpt>
      <trkpt lat="46.40978" lon="5.14911">
        <ele>237.6</ele>
        <time>2022-03-29T12:29:00Z</time>
      </trkpt>
      <trkpt lat="46.40972" lon="5.14907">
        <ele>237.6</ele>
        <time>2022-03-29T12:29:01Z</time>
      </trkpt>
      <trkpt lat="46.40943" lon="5.14892">
        <ele>237.2</ele>
        <time>2022-03-29T12:29:06Z</time>
      </trkpt>
      <trkpt lat="46.4092" lon="5.14884">
        <ele>236.8</ele>
        <time>2022-03-29T12:29:10Z</time>
      </trkpt>
      <trkpt lat="46.40885" lon="5.14873">
        <ele>237</ele>
        <time>2022-03-29T12:29:16Z</time>
      </trkpt>
      <trkpt lat="46.4088" lon="5.1487">
        <ele>237</ele>
        <time>2022-03-29T12:29:17Z</time>
      </trkpt>
      <trkpt lat="46.40875" lon="5.14865">
        <ele>237</ele>
        <time>2022-03-29T12:29:18Z</time>
      </trkpt>
      <trkpt lat="46.40867" lon="5.14853">
        <ele>237</ele>
        <time>2022-03-29T12:29:20Z</time>
      </trkpt>
      <trkpt lat="46.40864" lon="5.14846">
        <ele>237</ele>
        <time>2022-03-29T12:29:21Z</time>
      </trkpt>
      <trkpt lat="46.40861" lon="5.14839">
        <ele>237.2</ele>
        <time>2022-03-29T12:29:22Z</time>
      </trkpt>
      <trkpt lat="46.4085" lon="5.14802">
        <ele>237.4</ele>
        <time>2022-03-29T12:29:27Z</time>
      </trkpt>
      <trkpt lat="46.40828" lon="5.14747">
        <ele>237.8</ele>
        <time>2022-03-29T12:29:35Z</time>
      </trkpt>
      <trkpt lat="46.40816" lon="5.14734">
        <ele>238</ele>
        <time>2022-03-29T12:29:38Z</time>
      </trkpt>
      <trkpt lat="46.40812" lon="5.14731">
        <ele>238.2</ele>
        <time>2022-03-29T12:29:39Z</time>
      </trkpt>
      <trkpt lat="46.40807" lon="5.14728">
        <ele>238.4</ele>
        <time>2022-03-29T12:29:40Z</time>
      </trkpt>
      <trkpt lat="46.40779" lon="5.14715">
        <ele>239</ele>
        <time>2022-03-29T12:29:45Z</time>
      </trkpt>
      <trkpt lat="46.40738" lon="5.14703">
        <ele>237.8</ele>
        <time>2022-03-29T12:29:51Z</time>
      </trkpt>
      <trkpt lat="46.40725" lon="5.14699">
        <ele>237.2</ele>
        <time>2022-03-29T12:29:53Z</time>
      </trkpt>
      <trkpt lat="46.40708" lon="5.14692">
        <ele>236.6</ele>
        <time>2022-03-29T12:29:56Z</time>
      </trkpt>
      <trkpt lat="46.40704" lon="5.14689">
        <ele>236.4</ele>
        <time>2022-03-29T12:29:57Z</time>
      </trkpt>
      <trkpt lat="46.40698" lon="5.14686">
        <ele>236.2</ele>
        <time>2022-03-29T12:29:59Z</time>
      </trkpt>
      <trkpt lat="46.40697" lon="5.14685">
        <ele>235.6</ele>
        <time>2022-03-29T12:30:00Z</time>
      </trkpt>
      <trkpt lat="46.40696" lon="5.14685">
        <ele>235</ele>
        <time>2022-03-29T12:30:02Z</time>
      </trkpt>
      <trkpt lat="46.40694" lon="5.14686">
        <ele>235</ele>
        <time>2022-03-29T12:34:30Z</time>
      </trkpt>
      <trkpt lat="46.4069" lon="5.14687">
        <ele>235</ele>
        <time>2022-03-29T12:34:32Z</time>
      </trkpt>
      <trkpt lat="46.40687" lon="5.14693">
        <ele>235.2</ele>
        <time>2022-03-29T12:34:34Z</time>
      </trkpt>
      <trkpt lat="46.40683" lon="5.1472">
        <ele>235.4</ele>
        <time>2022-03-29T12:34:41Z</time>
      </trkpt>
      <trkpt lat="46.40683" lon="5.14725">
        <ele>235.4</ele>
        <time>2022-03-29T12:34:43Z</time>
      </trkpt>
      <trkpt lat="46.40683" lon="5.14725">
        <ele>235.6</ele>
        <time>2022-03-29T12:34:45Z</time>
      </trkpt>
      <trkpt lat="46.40684" lon="5.14727">
        <ele>235.8</ele>
        <time>2022-03-29T12:36:26Z</time>
      </trkpt>
      <trkpt lat="46.40685" lon="5.14728">
        <ele>235.8</ele>
        <time>2022-03-29T12:36:27Z</time>
      </trkpt>
      <trkpt lat="46.40687" lon="5.14727">
        <ele>235.8</ele>
        <time>2022-03-29T12:36:28Z</time>
      </trkpt>
      <trkpt lat="46.40689" lon="5.14711">
        <ele>235.8</ele>
        <time>2022-03-29T12:36:32Z</time>
      </trkpt>
      <trkpt lat="46.4069" lon="5.14705">
        <ele>235.8</ele>
        <time>2022-03-29T12:36:33Z</time>
      </trkpt>
      <trkpt lat="46.40693" lon="5.14676">
        <ele>235.6</ele>
        <time>2022-03-29T12:36:37Z</time>
      </trkpt>
      <trkpt lat="46.40701" lon="5.14638">
        <ele>235.6</ele>
        <time>2022-03-29T12:36:42Z</time>
      </trkpt>
      <trkpt lat="46.40712" lon="5.14577">
        <ele>235.6</ele>
        <time>2022-03-29T12:36:49Z</time>
      </trkpt>
      <trkpt lat="46.40716" lon="5.1456">
        <ele>235.8</ele>
        <time>2022-03-29T12:36:51Z</time>
      </trkpt>
      <trkpt lat="46.40721" lon="5.14533">
        <ele>235.8</ele>
        <time>2022-03-29T12:36:54Z</time>
      </trkpt>
      <trkpt lat="46.4073" lon="5.14477">
        <ele>236.4</ele>
        <time>2022-03-29T12:37:01Z</time>
      </trkpt>
      <trkpt lat="46.40731" lon="5.1447">
        <ele>236.6</ele>
        <time>2022-03-29T12:37:02Z</time>
      </trkpt>
      <trkpt lat="46.40732" lon="5.14443">
        <ele>237</ele>
        <time>2022-03-29T12:37:06Z</time>
      </trkpt>
      <trkpt lat="46.4073" lon="5.14416">
        <ele>237.6</ele>
        <time>2022-03-29T12:37:10Z</time>
      </trkpt>
      <trkpt lat="46.40724" lon="5.14405">
        <ele>237.8</ele>
        <time>2022-03-29T12:37:12Z</time>
      </trkpt>
      <trkpt lat="46.40716" lon="5.144">
        <ele>238.4</ele>
        <time>2022-03-29T12:37:14Z</time>
      </trkpt>
      <trkpt lat="46.40711" lon="5.14399">
        <ele>238.4</ele>
        <time>2022-03-29T12:37:15Z</time>
      </trkpt>
      <trkpt lat="46.40697" lon="5.14396">
        <ele>239</ele>
        <time>2022-03-29T12:37:18Z</time>
      </trkpt>
      <trkpt lat="46.4068" lon="5.1439">
        <ele>239.8</ele>
        <time>2022-03-29T12:37:22Z</time>
      </trkpt>
      <trkpt lat="46.40672" lon="5.14386">
        <ele>240.4</ele>
        <time>2022-03-29T12:37:24Z</time>
      </trkpt>
      <trkpt lat="46.40655" lon="5.14379">
        <ele>240.8</ele>
        <time>2022-03-29T12:37:28Z</time>
      </trkpt>
      <trkpt lat="46.40646" lon="5.14375">
        <ele>241</ele>
        <time>2022-03-29T12:37:30Z</time>
      </trkpt>
      <trkpt lat="46.40631" lon="5.14373">
        <ele>241.2</ele>
        <time>2022-03-29T12:37:33Z</time>
      </trkpt>
      <trkpt lat="46.40626" lon="5.14372">
        <ele>241.2</ele>
        <time>2022-03-29T12:37:34Z</time>
      </trkpt>
      <trkpt lat="46.40621" lon="5.14372">
        <ele>241.4</ele>
        <time>2022-03-29T12:37:35Z</time>
      </trkpt>
      <trkpt lat="46.40611" lon="5.14371">
        <ele>241.8</ele>
        <time>2022-03-29T12:37:37Z</time>
      </trkpt>
      <trkpt lat="46.40583" lon="5.14372">
        <ele>242</ele>
        <time>2022-03-29T12:37:42Z</time>
      </trkpt>
      <trkpt lat="46.40546" lon="5.1438">
        <ele>242.2</ele>
        <time>2022-03-29T12:37:49Z</time>
      </trkpt>
      <trkpt lat="46.40502" lon="5.14381">
        <ele>242.4</ele>
        <time>2022-03-29T12:37:57Z</time>
      </trkpt>
      <trkpt lat="46.4048" lon="5.1438">
        <ele>242.4</ele>
        <time>2022-03-29T12:38:01Z</time>
      </trkpt>
      <trkpt lat="46.40456" lon="5.14382">
        <ele>242.6</ele>
        <time>2022-03-29T12:38:05Z</time>
      </trkpt>
      <trkpt lat="46.40451" lon="5.14383">
        <ele>242.6</ele>
        <time>2022-03-29T12:38:06Z</time>
      </trkpt>
      <trkpt lat="46.40429" lon="5.1439">
        <ele>243</ele>
        <time>2022-03-29T12:38:10Z</time>
      </trkpt>
      <trkpt lat="46.4039" lon="5.14396">
        <ele>243</ele>
        <time>2022-03-29T12:38:17Z</time>
      </trkpt>
      <trkpt lat="46.40352" lon="5.14393">
        <ele>243</ele>
        <time>2022-03-29T12:38:23Z</time>
      </trkpt>
      <trkpt lat="46.40315" lon="5.14384">
        <ele>242.8</ele>
        <time>2022-03-29T12:38:29Z</time>
      </trkpt>
      <trkpt lat="46.40304" lon="5.14378">
        <ele>242.8</ele>
        <time>2022-03-29T12:38:31Z</time>
      </trkpt>
      <trkpt lat="46.40289" lon="5.14364">
        <ele>243</ele>
        <time>2022-03-29T12:38:34Z</time>
      </trkpt>
      <trkpt lat="46.40255" lon="5.14337">
        <ele>243</ele>
        <time>2022-03-29T12:38:40Z</time>
      </trkpt>
      <trkpt lat="46.40243" lon="5.14331">
        <ele>243</ele>
        <time>2022-03-29T12:38:42Z</time>
      </trkpt>
      <trkpt lat="46.40218" lon="5.14327">
        <ele>243</ele>
        <time>2022-03-29T12:38:46Z</time>
      </trkpt>
      <trkpt lat="46.40176" lon="5.14322">
        <ele>242.8</ele>
        <time>2022-03-29T12:38:53Z</time>
      </trkpt>
      <trkpt lat="46.40126" lon="5.14313">
        <ele>242.8</ele>
        <time>2022-03-29T12:39:02Z</time>
      </trkpt>
      <trkpt lat="46.40108" lon="5.14312">
        <ele>242.8</ele>
        <time>2022-03-29T12:39:05Z</time>
      </trkpt>
      <trkpt lat="46.4009" lon="5.14309">
        <ele>242.8</ele>
        <time>2022-03-29T12:39:08Z</time>
      </trkpt>
      <trkpt lat="46.40079" lon="5.14306">
        <ele>242.8</ele>
        <time>2022-03-29T12:39:10Z</time>
      </trkpt>
      <trkpt lat="46.40035" lon="5.14288">
        <ele>243.2</ele>
        <time>2022-03-29T12:39:18Z</time>
      </trkpt>
      <trkpt lat="46.3998" lon="5.14262">
        <ele>243.2</ele>
        <time>2022-03-29T12:39:28Z</time>
      </trkpt>
      <trkpt lat="46.3993" lon="5.14255">
        <ele>243.6</ele>
        <time>2022-03-29T12:39:37Z</time>
      </trkpt>
      <trkpt lat="46.39919" lon="5.14258">
        <ele>243.6</ele>
        <time>2022-03-29T12:39:39Z</time>
      </trkpt>
      <trkpt lat="46.39902" lon="5.14268">
        <ele>243.6</ele>
        <time>2022-03-29T12:39:42Z</time>
      </trkpt>
      <trkpt lat="46.39891" lon="5.14278">
        <ele>243.6</ele>
        <time>2022-03-29T12:39:44Z</time>
      </trkpt>
      <trkpt lat="46.39877" lon="5.14295">
        <ele>243.4</ele>
        <time>2022-03-29T12:39:47Z</time>
      </trkpt>
      <trkpt lat="46.39866" lon="5.14303">
        <ele>243.2</ele>
        <time>2022-03-29T12:39:49Z</time>
      </trkpt>
      <trkpt lat="46.39854" lon="5.14306">
        <ele>243.2</ele>
        <time>2022-03-29T12:39:51Z</time>
      </trkpt>
      <trkpt lat="46.39842" lon="5.14303">
        <ele>243.2</ele>
        <time>2022-03-29T12:39:53Z</time>
      </trkpt>
      <trkpt lat="46.39826" lon="5.14298">
        <ele>243.6</ele>
        <time>2022-03-29T12:39:56Z</time>
      </trkpt>
      <trkpt lat="46.398" lon="5.14289">
        <ele>244</ele>
        <time>2022-03-29T12:40:01Z</time>
      </trkpt>
      <trkpt lat="46.39779" lon="5.14284">
        <ele>244.2</ele>
        <time>2022-03-29T12:40:05Z</time>
      </trkpt>
      <trkpt lat="46.39768" lon="5.14282">
        <ele>244.4</ele>
        <time>2022-03-29T12:40:07Z</time>
      </trkpt>
      <trkpt lat="46.39763" lon="5.14283">
        <ele>244.4</ele>
        <time>2022-03-29T12:40:08Z</time>
      </trkpt>
      <trkpt lat="46.39757" lon="5.14284">
        <ele>244.4</ele>
        <time>2022-03-29T12:40:09Z</time>
      </trkpt>
      <trkpt lat="46.39742" lon="5.14293">
        <ele>244.4</ele>
        <time>2022-03-29T12:40:12Z</time>
      </trkpt>
      <trkpt lat="46.39698" lon="5.14317">
        <ele>244.8</ele>
        <time>2022-03-29T12:40:21Z</time>
      </trkpt>
      <trkpt lat="46.3965" lon="5.14328">
        <ele>244.4</ele>
        <time>2022-03-29T12:40:30Z</time>
      </trkpt>
      <trkpt lat="46.3962" lon="5.14338">
        <ele>244</ele>
        <time>2022-03-29T12:40:36Z</time>
      </trkpt>
      <trkpt lat="46.39615" lon="5.14338">
        <ele>244</ele>
        <time>2022-03-29T12:40:37Z</time>
      </trkpt>
      <trkpt lat="46.39611" lon="5.14337">
        <ele>244</ele>
        <time>2022-03-29T12:40:38Z</time>
      </trkpt>
      <trkpt lat="46.39606" lon="5.14336">
        <ele>244.2</ele>
        <time>2022-03-29T12:40:39Z</time>
      </trkpt>
      <trkpt lat="46.39596" lon="5.1433">
        <ele>244.2</ele>
        <time>2022-03-29T12:40:41Z</time>
      </trkpt>
      <trkpt lat="46.39592" lon="5.14326">
        <ele>244.2</ele>
        <time>2022-03-29T12:40:42Z</time>
      </trkpt>
      <trkpt lat="46.3958" lon="5.14309">
        <ele>244.2</ele>
        <time>2022-03-29T12:40:45Z</time>
      </trkpt>
      <trkpt lat="46.39553" lon="5.14256">
        <ele>244.2</ele>
        <time>2022-03-29T12:40:53Z</time>
      </trkpt>
      <trkpt lat="46.39545" lon="5.14246">
        <ele>244.2</ele>
        <time>2022-03-29T12:40:55Z</time>
      </trkpt>
      <trkpt lat="46.39535" lon="5.14239">
        <ele>244.2</ele>
        <time>2022-03-29T12:40:57Z</time>
      </trkpt>
      <trkpt lat="46.39529" lon="5.14236">
        <ele>244.4</ele>
        <time>2022-03-29T12:40:58Z</time>
      </trkpt>
      <trkpt lat="46.39506" lon="5.14229">
        <ele>244.6</ele>
        <time>2022-03-29T12:41:02Z</time>
      </trkpt>
      <trkpt lat="46.395" lon="5.14228">
        <ele>244.6</ele>
        <time>2022-03-29T12:41:03Z</time>
      </trkpt>
      <trkpt lat="46.39467" lon="5.14222">
        <ele>244.8</ele>
        <time>2022-03-29T12:41:09Z</time>
      </trkpt>
      <trkpt lat="46.39461" lon="5.14219">
        <ele>244.8</ele>
        <time>2022-03-29T12:41:10Z</time>
      </trkpt>
      <trkpt lat="46.39456" lon="5.14217">
        <ele>244.8</ele>
        <time>2022-03-29T12:41:11Z</time>
      </trkpt>
      <trkpt lat="46.39435" lon="5.14206">
        <ele>244.6</ele>
        <time>2022-03-29T12:41:15Z</time>
      </trkpt>
      <trkpt lat="46.39431" lon="5.14204">
        <ele>244.6</ele>
        <time>2022-03-29T12:41:16Z</time>
      </trkpt>
      <trkpt lat="46.39424" lon="5.14195">
        <ele>244.2</ele>
        <time>2022-03-29T12:41:19Z</time>
      </trkpt>
      <trkpt lat="46.39423" lon="5.14186">
        <ele>243.2</ele>
        <time>2022-03-29T12:41:22Z</time>
      </trkpt>
      <trkpt lat="46.39424" lon="5.14184">
        <ele>243</ele>
        <time>2022-03-29T12:41:23Z</time>
      </trkpt>
      <trkpt lat="46.39424" lon="5.14181">
        <ele>242.4</ele>
        <time>2022-03-29T12:41:24Z</time>
      </trkpt>
      <trkpt lat="46.39422" lon="5.14182">
        <ele>242</ele>
        <time>2022-03-29T12:41:26Z</time>
      </trkpt>
      <trkpt lat="46.39419" lon="5.14199">
        <ele>241.4</ele>
        <time>2022-03-29T12:41:31Z</time>
      </trkpt>
      <trkpt lat="46.39419" lon="5.142">
        <ele>241.4</ele>
        <time>2022-03-29T12:41:34Z</time>
      </trkpt>
      <trkpt lat="46.39418" lon="5.14205">
        <ele>241.8</ele>
        <time>2022-03-29T12:42:51Z</time>
      </trkpt>
      <trkpt lat="46.3941" lon="5.14222">
        <ele>242</ele>
        <time>2022-03-29T12:42:56Z</time>
      </trkpt>
      <trkpt lat="46.39405" lon="5.14238">
        <ele>242.2</ele>
        <time>2022-03-29T12:42:59Z</time>
      </trkpt>
      <trkpt lat="46.39402" lon="5.14245">
        <ele>242.4</ele>
        <time>2022-03-29T12:43:00Z</time>
      </trkpt>
      <trkpt lat="46.39397" lon="5.1426">
        <ele>242.4</ele>
        <time>2022-03-29T12:43:02Z</time>
      </trkpt>
      <trkpt lat="46.39395" lon="5.14277">
        <ele>242.2</ele>
        <time>2022-03-29T12:43:04Z</time>
      </trkpt>
      <trkpt lat="46.39396" lon="5.14295">
        <ele>242.2</ele>
        <time>2022-03-29T12:43:06Z</time>
      </trkpt>
      <trkpt lat="46.394" lon="5.14311">
        <ele>242</ele>
        <time>2022-03-29T12:43:08Z</time>
      </trkpt>
      <trkpt lat="46.39422" lon="5.14359">
        <ele>241.8</ele>
        <time>2022-03-29T12:43:14Z</time>
      </trkpt>
      <trkpt lat="46.39445" lon="5.14417">
        <ele>241.8</ele>
        <time>2022-03-29T12:43:21Z</time>
      </trkpt>
      <trkpt lat="46.39448" lon="5.14426">
        <ele>241.8</ele>
        <time>2022-03-29T12:43:22Z</time>
      </trkpt>
      <trkpt lat="46.39449" lon="5.14435">
        <ele>241.8</ele>
        <time>2022-03-29T12:43:23Z</time>
      </trkpt>
      <trkpt lat="46.39447" lon="5.14456">
        <ele>241.8</ele>
        <time>2022-03-29T12:43:25Z</time>
      </trkpt>
      <trkpt lat="46.39441" lon="5.14474">
        <ele>241.6</ele>
        <time>2022-03-29T12:43:27Z</time>
      </trkpt>
      <trkpt lat="46.39437" lon="5.14483">
        <ele>241.6</ele>
        <time>2022-03-29T12:43:28Z</time>
      </trkpt>
      <trkpt lat="46.39404" lon="5.14528">
        <ele>241.2</ele>
        <time>2022-03-29T12:43:34Z</time>
      </trkpt>
      <trkpt lat="46.39363" lon="5.14577">
        <ele>240.2</ele>
        <time>2022-03-29T12:43:41Z</time>
      </trkpt>
      <trkpt lat="46.39359" lon="5.14585">
        <ele>240.2</ele>
        <time>2022-03-29T12:43:42Z</time>
      </trkpt>
      <trkpt lat="46.39347" lon="5.14619">
        <ele>239.6</ele>
        <time>2022-03-29T12:43:46Z</time>
      </trkpt>
      <trkpt lat="46.39329" lon="5.14664">
        <ele>239.8</ele>
        <time>2022-03-29T12:43:52Z</time>
      </trkpt>
      <trkpt lat="46.39297" lon="5.14724">
        <ele>239.8</ele>
        <time>2022-03-29T12:44:01Z</time>
      </trkpt>
      <trkpt lat="46.39266" lon="5.14783">
        <ele>240.8</ele>
        <time>2022-03-29T12:44:11Z</time>
      </trkpt>
      <trkpt lat="46.39259" lon="5.14793">
        <ele>241.4</ele>
        <time>2022-03-29T12:44:13Z</time>
      </trkpt>
      <trkpt lat="46.39246" lon="5.14811">
        <ele>242.4</ele>
        <time>2022-03-29T12:44:17Z</time>
      </trkpt>
      <trkpt lat="46.39238" lon="5.1482">
        <ele>242.8</ele>
        <time>2022-03-29T12:44:19Z</time>
      </trkpt>
      <trkpt lat="46.39226" lon="5.14832">
        <ele>243.6</ele>
        <time>2022-03-29T12:44:22Z</time>
      </trkpt>
      <trkpt lat="46.39205" lon="5.14861">
        <ele>244.4</ele>
        <time>2022-03-29T12:44:28Z</time>
      </trkpt>
      <trkpt lat="46.39195" lon="5.14878">
        <ele>245</ele>
        <time>2022-03-29T12:44:31Z</time>
      </trkpt>
      <trkpt lat="46.39183" lon="5.14903">
        <ele>245.6</ele>
        <time>2022-03-29T12:44:35Z</time>
      </trkpt>
      <trkpt lat="46.39173" lon="5.14926">
        <ele>246</ele>
        <time>2022-03-29T12:44:39Z</time>
      </trkpt>
      <trkpt lat="46.39159" lon="5.14955">
        <ele>246.2</ele>
        <time>2022-03-29T12:44:44Z</time>
      </trkpt>
      <trkpt lat="46.39146" lon="5.14978">
        <ele>247.2</ele>
        <time>2022-03-29T12:44:48Z</time>
      </trkpt>
      <trkpt lat="46.39143" lon="5.14983">
        <ele>247.2</ele>
        <time>2022-03-29T12:44:49Z</time>
      </trkpt>
      <trkpt lat="46.39134" lon="5.14993">
        <ele>247.4</ele>
        <time>2022-03-29T12:44:51Z</time>
      </trkpt>
      <trkpt lat="46.39097" lon="5.15029">
        <ele>247.2</ele>
        <time>2022-03-29T12:44:59Z</time>
      </trkpt>
      <trkpt lat="46.3907" lon="5.15064">
        <ele>247.2</ele>
        <time>2022-03-29T12:45:05Z</time>
      </trkpt>
      <trkpt lat="46.39065" lon="5.15071">
        <ele>247.2</ele>
        <time>2022-03-29T12:45:06Z</time>
      </trkpt>
      <trkpt lat="46.39058" lon="5.15088">
        <ele>247.2</ele>
        <time>2022-03-29T12:45:08Z</time>
      </trkpt>
      <trkpt lat="46.39057" lon="5.15097">
        <ele>247</ele>
        <time>2022-03-29T12:45:09Z</time>
      </trkpt>
      <trkpt lat="46.39057" lon="5.15106">
        <ele>247</ele>
        <time>2022-03-29T12:45:10Z</time>
      </trkpt>
      <trkpt lat="46.39062" lon="5.15135">
        <ele>246.6</ele>
        <time>2022-03-29T12:45:13Z</time>
      </trkpt>
      <trkpt lat="46.39068" lon="5.15201">
        <ele>246.8</ele>
        <time>2022-03-29T12:45:20Z</time>
      </trkpt>
      <trkpt lat="46.39065" lon="5.15278">
        <ele>247.6</ele>
        <time>2022-03-29T12:45:28Z</time>
      </trkpt>
      <trkpt lat="46.39065" lon="5.15334">
        <ele>247.6</ele>
        <time>2022-03-29T12:45:34Z</time>
      </trkpt>
      <trkpt lat="46.39065" lon="5.15343">
        <ele>247.6</ele>
        <time>2022-03-29T12:45:35Z</time>
      </trkpt>
      <trkpt lat="46.39063" lon="5.15362">
        <ele>247.6</ele>
        <time>2022-03-29T12:45:37Z</time>
      </trkpt>
      <trkpt lat="46.39061" lon="5.15371">
        <ele>247.6</ele>
        <time>2022-03-29T12:45:38Z</time>
      </trkpt>
      <trkpt lat="46.39058" lon="5.15378">
        <ele>248</ele>
        <time>2022-03-29T12:45:39Z</time>
      </trkpt>
      <trkpt lat="46.39049" lon="5.15392">
        <ele>248.2</ele>
        <time>2022-03-29T12:45:41Z</time>
      </trkpt>
      <trkpt lat="46.39018" lon="5.1542">
        <ele>248.2</ele>
        <time>2022-03-29T12:45:47Z</time>
      </trkpt>
      <trkpt lat="46.38972" lon="5.15446">
        <ele>247.4</ele>
        <time>2022-03-29T12:45:55Z</time>
      </trkpt>
      <trkpt lat="46.38925" lon="5.1546">
        <ele>247.4</ele>
        <time>2022-03-29T12:46:03Z</time>
      </trkpt>
      <trkpt lat="46.38883" lon="5.15484">
        <ele>248</ele>
        <time>2022-03-29T12:46:11Z</time>
      </trkpt>
      <trkpt lat="46.38845" lon="5.15511">
        <ele>247.8</ele>
        <time>2022-03-29T12:46:18Z</time>
      </trkpt>
      <trkpt lat="46.38805" lon="5.15546">
        <ele>247.2</ele>
        <time>2022-03-29T12:46:25Z</time>
      </trkpt>
      <trkpt lat="46.38792" lon="5.15553">
        <ele>247</ele>
        <time>2022-03-29T12:46:27Z</time>
      </trkpt>
      <trkpt lat="46.38777" lon="5.15554">
        <ele>246.8</ele>
        <time>2022-03-29T12:46:29Z</time>
      </trkpt>
      <trkpt lat="46.38753" lon="5.15551">
        <ele>246.4</ele>
        <time>2022-03-29T12:46:32Z</time>
      </trkpt>
      <trkpt lat="46.38736" lon="5.1555">
        <ele>246</ele>
        <time>2022-03-29T12:46:34Z</time>
      </trkpt>
      <trkpt lat="46.38728" lon="5.15552">
        <ele>245.4</ele>
        <time>2022-03-29T12:46:35Z</time>
      </trkpt>
      <trkpt lat="46.38719" lon="5.15555">
        <ele>245</ele>
        <time>2022-03-29T12:46:36Z</time>
      </trkpt>
      <trkpt lat="46.38701" lon="5.15566">
        <ele>244</ele>
        <time>2022-03-29T12:46:38Z</time>
      </trkpt>
      <trkpt lat="46.38685" lon="5.1558">
        <ele>243</ele>
        <time>2022-03-29T12:46:40Z</time>
      </trkpt>
      <trkpt lat="46.3867" lon="5.15594">
        <ele>241.6</ele>
        <time>2022-03-29T12:46:42Z</time>
      </trkpt>
      <trkpt lat="46.38663" lon="5.15601">
        <ele>241.4</ele>
        <time>2022-03-29T12:46:43Z</time>
      </trkpt>
      <trkpt lat="46.38648" lon="5.15613">
        <ele>240.6</ele>
        <time>2022-03-29T12:46:45Z</time>
      </trkpt>
      <trkpt lat="46.38633" lon="5.15621">
        <ele>239.8</ele>
        <time>2022-03-29T12:46:47Z</time>
      </trkpt>
      <trkpt lat="46.38618" lon="5.15627">
        <ele>239.4</ele>
        <time>2022-03-29T12:46:49Z</time>
      </trkpt>
      <trkpt lat="46.38606" lon="5.15634">
        <ele>239.2</ele>
        <time>2022-03-29T12:46:51Z</time>
      </trkpt>
      <trkpt lat="46.38601" lon="5.15639">
        <ele>239.2</ele>
        <time>2022-03-29T12:46:52Z</time>
      </trkpt>
      <trkpt lat="46.38597" lon="5.15644">
        <ele>239.2</ele>
        <time>2022-03-29T12:46:53Z</time>
      </trkpt>
      <trkpt lat="46.38589" lon="5.15664">
        <ele>240</ele>
        <time>2022-03-29T12:46:56Z</time>
      </trkpt>
      <trkpt lat="46.38585" lon="5.15686">
        <ele>240.4</ele>
        <time>2022-03-29T12:46:59Z</time>
      </trkpt>
      <trkpt lat="46.38582" lon="5.15699">
        <ele>240.8</ele>
        <time>2022-03-29T12:47:01Z</time>
      </trkpt>
      <trkpt lat="46.3858" lon="5.15706">
        <ele>240.8</ele>
        <time>2022-03-29T12:47:02Z</time>
      </trkpt>
      <trkpt lat="46.38577" lon="5.15712">
        <ele>240.8</ele>
        <time>2022-03-29T12:47:03Z</time>
      </trkpt>
      <trkpt lat="46.38566" lon="5.15727">
        <ele>241.6</ele>
        <time>2022-03-29T12:47:06Z</time>
      </trkpt>
      <trkpt lat="46.38562" lon="5.15732">
        <ele>242</ele>
        <time>2022-03-29T12:47:07Z</time>
      </trkpt>
      <trkpt lat="46.38554" lon="5.15742">
        <ele>242.8</ele>
        <time>2022-03-29T12:47:09Z</time>
      </trkpt>
      <trkpt lat="46.38537" lon="5.15769">
        <ele>243.8</ele>
        <time>2022-03-29T12:47:14Z</time>
      </trkpt>
      <trkpt lat="46.38534" lon="5.15775">
        <ele>244</ele>
        <time>2022-03-29T12:47:15Z</time>
      </trkpt>
      <trkpt lat="46.38522" lon="5.15799">
        <ele>244.8</ele>
        <time>2022-03-29T12:47:19Z</time>
      </trkpt>
      <trkpt lat="46.38517" lon="5.15804">
        <ele>245.2</ele>
        <time>2022-03-29T12:47:20Z</time>
      </trkpt>
      <trkpt lat="46.38513" lon="5.15808">
        <ele>245.2</ele>
        <time>2022-03-29T12:47:21Z</time>
      </trkpt>
      <trkpt lat="46.38497" lon="5.15813">
        <ele>245.6</ele>
        <time>2022-03-29T12:47:24Z</time>
      </trkpt>
      <trkpt lat="46.38462" lon="5.1583">
        <ele>246</ele>
        <time>2022-03-29T12:47:31Z</time>
      </trkpt>
      <trkpt lat="46.38457" lon="5.15834">
        <ele>246.2</ele>
        <time>2022-03-29T12:47:32Z</time>
      </trkpt>
      <trkpt lat="46.38418" lon="5.1586">
        <ele>246.6</ele>
        <time>2022-03-29T12:47:40Z</time>
      </trkpt>
      <trkpt lat="46.38413" lon="5.15864">
        <ele>246.6</ele>
        <time>2022-03-29T12:47:41Z</time>
      </trkpt>
      <trkpt lat="46.38381" lon="5.15893">
        <ele>246.4</ele>
        <time>2022-03-29T12:47:47Z</time>
      </trkpt>
      <trkpt lat="46.38377" lon="5.15899">
        <ele>246.4</ele>
        <time>2022-03-29T12:47:48Z</time>
      </trkpt>
      <trkpt lat="46.38372" lon="5.15905">
        <ele>246.4</ele>
        <time>2022-03-29T12:47:49Z</time>
      </trkpt>
      <trkpt lat="46.38366" lon="5.1592">
        <ele>246.4</ele>
        <time>2022-03-29T12:47:51Z</time>
      </trkpt>
      <trkpt lat="46.38364" lon="5.15928">
        <ele>246.4</ele>
        <time>2022-03-29T12:47:52Z</time>
      </trkpt>
      <trkpt lat="46.38362" lon="5.15937">
        <ele>246.4</ele>
        <time>2022-03-29T12:47:53Z</time>
      </trkpt>
      <trkpt lat="46.38359" lon="5.15954">
        <ele>246.4</ele>
        <time>2022-03-29T12:47:55Z</time>
      </trkpt>
      <trkpt lat="46.38354" lon="5.15969">
        <ele>246.4</ele>
        <time>2022-03-29T12:47:57Z</time>
      </trkpt>
      <trkpt lat="46.38333" lon="5.16002">
        <ele>246.4</ele>
        <time>2022-03-29T12:48:02Z</time>
      </trkpt>
      <trkpt lat="46.38325" lon="5.16016">
        <ele>246.4</ele>
        <time>2022-03-29T12:48:04Z</time>
      </trkpt>
      <trkpt lat="46.38319" lon="5.16032">
        <ele>246.4</ele>
        <time>2022-03-29T12:48:06Z</time>
      </trkpt>
      <trkpt lat="46.38318" lon="5.16041">
        <ele>246.4</ele>
        <time>2022-03-29T12:48:07Z</time>
      </trkpt>
      <trkpt lat="46.38318" lon="5.1605">
        <ele>246.4</ele>
        <time>2022-03-29T12:48:08Z</time>
      </trkpt>
      <trkpt lat="46.38321" lon="5.16069">
        <ele>246.6</ele>
        <time>2022-03-29T12:48:10Z</time>
      </trkpt>
      <trkpt lat="46.38336" lon="5.16131">
        <ele>246.4</ele>
        <time>2022-03-29T12:48:17Z</time>
      </trkpt>
      <trkpt lat="46.38339" lon="5.16187">
        <ele>246.4</ele>
        <time>2022-03-29T12:48:23Z</time>
      </trkpt>
      <trkpt lat="46.38336" lon="5.16205">
        <ele>246.6</ele>
        <time>2022-03-29T12:48:25Z</time>
      </trkpt>
      <trkpt lat="46.38328" lon="5.16229">
        <ele>246.8</ele>
        <time>2022-03-29T12:48:28Z</time>
      </trkpt>
      <trkpt lat="46.38299" lon="5.16287">
        <ele>247</ele>
        <time>2022-03-29T12:48:36Z</time>
      </trkpt>
      <trkpt lat="46.38279" lon="5.16353">
        <ele>247</ele>
        <time>2022-03-29T12:48:44Z</time>
      </trkpt>
      <trkpt lat="46.38266" lon="5.16434">
        <ele>247.2</ele>
        <time>2022-03-29T12:48:53Z</time>
      </trkpt>
      <trkpt lat="46.38261" lon="5.16497">
        <ele>247.2</ele>
        <time>2022-03-29T12:49:00Z</time>
      </trkpt>
      <trkpt lat="46.38263" lon="5.16567">
        <ele>246.4</ele>
        <time>2022-03-29T12:49:07Z</time>
      </trkpt>
      <trkpt lat="46.38262" lon="5.166">
        <ele>246</ele>
        <time>2022-03-29T12:49:10Z</time>
      </trkpt>
      <trkpt lat="46.3826" lon="5.16613">
        <ele>246</ele>
        <time>2022-03-29T12:49:11Z</time>
      </trkpt>
      <trkpt lat="46.38246" lon="5.16656">
        <ele>246</ele>
        <time>2022-03-29T12:49:16Z</time>
      </trkpt>
      <trkpt lat="46.38226" lon="5.1671">
        <ele>246.2</ele>
        <time>2022-03-29T12:49:22Z</time>
      </trkpt>
      <trkpt lat="46.38213" lon="5.16764">
        <ele>246</ele>
        <time>2022-03-29T12:49:28Z</time>
      </trkpt>
      <trkpt lat="46.38199" lon="5.16839">
        <ele>246</ele>
        <time>2022-03-29T12:49:36Z</time>
      </trkpt>
      <trkpt lat="46.38193" lon="5.16863">
        <ele>246.2</ele>
        <time>2022-03-29T12:49:39Z</time>
      </trkpt>
      <trkpt lat="46.38175" lon="5.16931">
        <ele>245.8</ele>
        <time>2022-03-29T12:49:47Z</time>
      </trkpt>
      <trkpt lat="46.38162" lon="5.16981">
        <ele>245.6</ele>
        <time>2022-03-29T12:49:53Z</time>
      </trkpt>
      <trkpt lat="46.3814" lon="5.17059">
        <ele>246</ele>
        <time>2022-03-29T12:50:02Z</time>
      </trkpt>
      <trkpt lat="46.38116" lon="5.17097">
        <ele>246.2</ele>
        <time>2022-03-29T12:50:08Z</time>
      </trkpt>
      <trkpt lat="46.38084" lon="5.17141">
        <ele>246.6</ele>
        <time>2022-03-29T12:50:15Z</time>
      </trkpt>
      <trkpt lat="46.38048" lon="5.17181">
        <ele>247.2</ele>
        <time>2022-03-29T12:50:22Z</time>
      </trkpt>
      <trkpt lat="46.38042" lon="5.17185">
        <ele>247.2</ele>
        <time>2022-03-29T12:50:23Z</time>
      </trkpt>
      <trkpt lat="46.38017" lon="5.17197">
        <ele>247.2</ele>
        <time>2022-03-29T12:50:27Z</time>
      </trkpt>
      <trkpt lat="46.37972" lon="5.17213">
        <ele>246.8</ele>
        <time>2022-03-29T12:50:35Z</time>
      </trkpt>
      <trkpt lat="46.37921" lon="5.17234">
        <ele>246.6</ele>
        <time>2022-03-29T12:50:44Z</time>
      </trkpt>
      <trkpt lat="46.37878" lon="5.17254">
        <ele>247</ele>
        <time>2022-03-29T12:50:52Z</time>
      </trkpt>
      <trkpt lat="46.37852" lon="5.17275">
        <ele>247.2</ele>
        <time>2022-03-29T12:50:57Z</time>
      </trkpt>
      <trkpt lat="46.37847" lon="5.1728">
        <ele>247.4</ele>
        <time>2022-03-29T12:50:58Z</time>
      </trkpt>
      <trkpt lat="46.37811" lon="5.17338">
        <ele>247</ele>
        <time>2022-03-29T12:51:07Z</time>
      </trkpt>
      <trkpt lat="46.37784" lon="5.17384">
        <ele>247</ele>
        <time>2022-03-29T12:51:14Z</time>
      </trkpt>
      <trkpt lat="46.37757" lon="5.1742">
        <ele>247</ele>
        <time>2022-03-29T12:51:20Z</time>
      </trkpt>
      <trkpt lat="46.3772" lon="5.17452">
        <ele>246.4</ele>
        <time>2022-03-29T12:51:27Z</time>
      </trkpt>
      <trkpt lat="46.37686" lon="5.17473">
        <ele>246.4</ele>
        <time>2022-03-29T12:51:33Z</time>
      </trkpt>
      <trkpt lat="46.37653" lon="5.17474">
        <ele>246.4</ele>
        <time>2022-03-29T12:51:38Z</time>
      </trkpt>
      <trkpt lat="46.37635" lon="5.17469">
        <ele>246.6</ele>
        <time>2022-03-29T12:51:41Z</time>
      </trkpt>
      <trkpt lat="46.37619" lon="5.17461">
        <ele>246.6</ele>
        <time>2022-03-29T12:51:44Z</time>
      </trkpt>
      <trkpt lat="46.37585" lon="5.17451">
        <ele>247.2</ele>
        <time>2022-03-29T12:51:50Z</time>
      </trkpt>
      <trkpt lat="46.37527" lon="5.17454">
        <ele>246.8</ele>
        <time>2022-03-29T12:51:59Z</time>
      </trkpt>
      <trkpt lat="46.37481" lon="5.17462">
        <ele>246.6</ele>
        <time>2022-03-29T12:52:06Z</time>
      </trkpt>
      <trkpt lat="46.37459" lon="5.1747">
        <ele>246.6</ele>
        <time>2022-03-29T12:52:10Z</time>
      </trkpt>
      <trkpt lat="46.37454" lon="5.17471">
        <ele>246.6</ele>
        <time>2022-03-29T12:52:11Z</time>
      </trkpt>
      <trkpt lat="46.37421" lon="5.17469">
        <ele>246</ele>
        <time>2022-03-29T12:52:17Z</time>
      </trkpt>
      <trkpt lat="46.37415" lon="5.17467">
        <ele>246</ele>
        <time>2022-03-29T12:52:18Z</time>
      </trkpt>
      <trkpt lat="46.37377" lon="5.17451">
        <ele>246</ele>
        <time>2022-03-29T12:52:24Z</time>
      </trkpt>
      <trkpt lat="46.37326" lon="5.17437">
        <ele>245.2</ele>
        <time>2022-03-29T12:52:32Z</time>
      </trkpt>
      <trkpt lat="46.37291" lon="5.17434">
        <ele>245</ele>
        <time>2022-03-29T12:52:37Z</time>
      </trkpt>
      <trkpt lat="46.37277" lon="5.17434">
        <ele>244.8</ele>
        <time>2022-03-29T12:52:39Z</time>
      </trkpt>
      <trkpt lat="46.37228" lon="5.17437">
        <ele>244</ele>
        <time>2022-03-29T12:52:46Z</time>
      </trkpt>
      <trkpt lat="46.37222" lon="5.17437">
        <ele>244</ele>
        <time>2022-03-29T12:52:47Z</time>
      </trkpt>
      <trkpt lat="46.37199" lon="5.17432">
        <ele>244</ele>
        <time>2022-03-29T12:52:51Z</time>
      </trkpt>
      <trkpt lat="46.37194" lon="5.17431">
        <ele>244</ele>
        <time>2022-03-29T12:52:52Z</time>
      </trkpt>
      <trkpt lat="46.37179" lon="5.17421">
        <ele>244.2</ele>
        <time>2022-03-29T12:52:55Z</time>
      </trkpt>
      <trkpt lat="46.37174" lon="5.17417">
        <ele>244.2</ele>
        <time>2022-03-29T12:52:56Z</time>
      </trkpt>
      <trkpt lat="46.37154" lon="5.17397">
        <ele>244.2</ele>
        <time>2022-03-29T12:53:00Z</time>
      </trkpt>
      <trkpt lat="46.37148" lon="5.17393">
        <ele>244.2</ele>
        <time>2022-03-29T12:53:01Z</time>
      </trkpt>
      <trkpt lat="46.37142" lon="5.17391">
        <ele>244</ele>
        <time>2022-03-29T12:53:02Z</time>
      </trkpt>
      <trkpt lat="46.37114" lon="5.17387">
        <ele>243.6</ele>
        <time>2022-03-29T12:53:06Z</time>
      </trkpt>
      <trkpt lat="46.37082" lon="5.17386">
        <ele>243</ele>
        <time>2022-03-29T12:53:11Z</time>
      </trkpt>
      <trkpt lat="46.37064" lon="5.17386">
        <ele>242.6</ele>
        <time>2022-03-29T12:53:14Z</time>
      </trkpt>
      <trkpt lat="46.37052" lon="5.17386">
        <ele>242.8</ele>
        <time>2022-03-29T12:53:16Z</time>
      </trkpt>
      <trkpt lat="46.37036" lon="5.17385">
        <ele>242.8</ele>
        <time>2022-03-29T12:53:19Z</time>
      </trkpt>
      <trkpt lat="46.36995" lon="5.17381">
        <ele>242.8</ele>
        <time>2022-03-29T12:53:26Z</time>
      </trkpt>
      <trkpt lat="46.36984" lon="5.17378">
        <ele>242.8</ele>
        <time>2022-03-29T12:53:28Z</time>
      </trkpt>
      <trkpt lat="46.36966" lon="5.17369">
        <ele>242.6</ele>
        <time>2022-03-29T12:53:31Z</time>
      </trkpt>
      <trkpt lat="46.36918" lon="5.17341">
        <ele>242.6</ele>
        <time>2022-03-29T12:53:39Z</time>
      </trkpt>
      <trkpt lat="46.36865" lon="5.17322">
        <ele>243.6</ele>
        <time>2022-03-29T12:53:48Z</time>
      </trkpt>
      <trkpt lat="46.36861" lon="5.1732">
        <ele>243.6</ele>
        <time>2022-03-29T12:53:49Z</time>
      </trkpt>
      <trkpt lat="46.36835" lon="5.17317">
        <ele>244</ele>
        <time>2022-03-29T12:53:54Z</time>
      </trkpt>
      <trkpt lat="46.36808" lon="5.17318">
        <ele>244.4</ele>
        <time>2022-03-29T12:54:00Z</time>
      </trkpt>
      <trkpt lat="46.36804" lon="5.1732">
        <ele>244.6</ele>
        <time>2022-03-29T12:54:01Z</time>
      </trkpt>
      <trkpt lat="46.368" lon="5.17323">
        <ele>245</ele>
        <time>2022-03-29T12:54:02Z</time>
      </trkpt>
      <trkpt lat="46.36787" lon="5.1734">
        <ele>245.6</ele>
        <time>2022-03-29T12:54:06Z</time>
      </trkpt>
      <trkpt lat="46.36776" lon="5.17359">
        <ele>246.6</ele>
        <time>2022-03-29T12:54:10Z</time>
      </trkpt>
      <trkpt lat="46.36768" lon="5.17366">
        <ele>247</ele>
        <time>2022-03-29T12:54:13Z</time>
      </trkpt>
      <trkpt lat="46.36764" lon="5.17366">
        <ele>247.2</ele>
        <time>2022-03-29T12:54:17Z</time>
      </trkpt>
      <trkpt lat="46.36764" lon="5.17366">
        <ele>247.2</ele>
        <time>2022-03-29T12:54:18Z</time>
      </trkpt>
      <trkpt lat="46.3676" lon="5.17363">
        <ele>247.2</ele>
        <time>2022-03-29T12:54:24Z</time>
      </trkpt>
      <trkpt lat="46.36756" lon="5.17357">
        <ele>247.2</ele>
        <time>2022-03-29T12:54:26Z</time>
      </trkpt>
      <trkpt lat="46.36739" lon="5.17337">
        <ele>247.2</ele>
        <time>2022-03-29T12:54:31Z</time>
      </trkpt>
      <trkpt lat="46.36732" lon="5.17329">
        <ele>247.4</ele>
        <time>2022-03-29T12:54:33Z</time>
      </trkpt>
      <trkpt lat="46.36729" lon="5.17328">
        <ele>247.8</ele>
        <time>2022-03-29T12:54:34Z</time>
      </trkpt>
      <trkpt lat="46.36723" lon="5.17327">
        <ele>247.8</ele>
        <time>2022-03-29T12:54:35Z</time>
      </trkpt>
      <trkpt lat="46.36693" lon="5.17326">
        <ele>248</ele>
        <time>2022-03-29T12:54:40Z</time>
      </trkpt>
      <trkpt lat="46.36648" lon="5.17324">
        <ele>246.8</ele>
        <time>2022-03-29T12:54:47Z</time>
      </trkpt>
      <trkpt lat="46.36641" lon="5.17325">
        <ele>246.8</ele>
        <time>2022-03-29T12:54:48Z</time>
      </trkpt>
      <trkpt lat="46.36594" lon="5.17333">
        <ele>246.6</ele>
        <time>2022-03-29T12:54:55Z</time>
      </trkpt>
      <trkpt lat="46.36556" lon="5.17347">
        <ele>246.6</ele>
        <time>2022-03-29T12:55:01Z</time>
      </trkpt>
      <trkpt lat="46.36549" lon="5.17348">
        <ele>246.4</ele>
        <time>2022-03-29T12:55:02Z</time>
      </trkpt>
      <trkpt lat="46.36529" lon="5.17348">
        <ele>246</ele>
        <time>2022-03-29T12:55:05Z</time>
      </trkpt>
      <trkpt lat="46.36515" lon="5.17344">
        <ele>245.6</ele>
        <time>2022-03-29T12:55:07Z</time>
      </trkpt>
      <trkpt lat="46.36487" lon="5.17334">
        <ele>245.2</ele>
        <time>2022-03-29T12:55:11Z</time>
      </trkpt>
      <trkpt lat="46.36452" lon="5.1732">
        <ele>245</ele>
        <time>2022-03-29T12:55:16Z</time>
      </trkpt>
      <trkpt lat="46.36432" lon="5.17309">
        <ele>244.8</ele>
        <time>2022-03-29T12:55:19Z</time>
      </trkpt>
      <trkpt lat="46.36419" lon="5.17303">
        <ele>244.6</ele>
        <time>2022-03-29T12:55:21Z</time>
      </trkpt>
      <trkpt lat="46.36406" lon="5.17302">
        <ele>244.4</ele>
        <time>2022-03-29T12:55:23Z</time>
      </trkpt>
      <trkpt lat="46.36392" lon="5.17306">
        <ele>244.4</ele>
        <time>2022-03-29T12:55:25Z</time>
      </trkpt>
      <trkpt lat="46.36379" lon="5.17315">
        <ele>244.4</ele>
        <time>2022-03-29T12:55:27Z</time>
      </trkpt>
      <trkpt lat="46.36329" lon="5.17355">
        <ele>244</ele>
        <time>2022-03-29T12:55:35Z</time>
      </trkpt>
      <trkpt lat="46.36322" lon="5.1736">
        <ele>244</ele>
        <time>2022-03-29T12:55:36Z</time>
      </trkpt>
      <trkpt lat="46.36296" lon="5.17382">
        <ele>243.4</ele>
        <time>2022-03-29T12:55:40Z</time>
      </trkpt>
      <trkpt lat="46.36286" lon="5.17397">
        <ele>243.4</ele>
        <time>2022-03-29T12:55:42Z</time>
      </trkpt>
      <trkpt lat="46.36272" lon="5.17446">
        <ele>243.2</ele>
        <time>2022-03-29T12:55:47Z</time>
      </trkpt>
      <trkpt lat="46.36265" lon="5.17464">
        <ele>243.2</ele>
        <time>2022-03-29T12:55:49Z</time>
      </trkpt>
      <trkpt lat="46.36255" lon="5.1748">
        <ele>243.2</ele>
        <time>2022-03-29T12:55:51Z</time>
      </trkpt>
      <trkpt lat="46.36241" lon="5.17489">
        <ele>243.2</ele>
        <time>2022-03-29T12:55:53Z</time>
      </trkpt>
      <trkpt lat="46.36233" lon="5.17491">
        <ele>243</ele>
        <time>2022-03-29T12:55:54Z</time>
      </trkpt>
      <trkpt lat="46.362" lon="5.17495">
        <ele>242.4</ele>
        <time>2022-03-29T12:55:58Z</time>
      </trkpt>
      <trkpt lat="46.36191" lon="5.17496">
        <ele>242.2</ele>
        <time>2022-03-29T12:55:59Z</time>
      </trkpt>
      <trkpt lat="46.36174" lon="5.17503">
        <ele>241.4</ele>
        <time>2022-03-29T12:56:01Z</time>
      </trkpt>
      <trkpt lat="46.36155" lon="5.17512">
        <ele>240.6</ele>
        <time>2022-03-29T12:56:03Z</time>
      </trkpt>
      <trkpt lat="46.36146" lon="5.17516">
        <ele>239.8</ele>
        <time>2022-03-29T12:56:04Z</time>
      </trkpt>
      <trkpt lat="46.36125" lon="5.17522">
        <ele>238.4</ele>
        <time>2022-03-29T12:56:06Z</time>
      </trkpt>
      <trkpt lat="46.36114" lon="5.17524">
        <ele>237.6</ele>
        <time>2022-03-29T12:56:07Z</time>
      </trkpt>
      <trkpt lat="46.36103" lon="5.17524">
        <ele>237.2</ele>
        <time>2022-03-29T12:56:08Z</time>
      </trkpt>
      <trkpt lat="46.36081" lon="5.1752">
        <ele>234.8</ele>
        <time>2022-03-29T12:56:10Z</time>
      </trkpt>
      <trkpt lat="46.3607" lon="5.17517">
        <ele>234.2</ele>
        <time>2022-03-29T12:56:11Z</time>
      </trkpt>
      <trkpt lat="46.36059" lon="5.17514">
        <ele>233.2</ele>
        <time>2022-03-29T12:56:12Z</time>
      </trkpt>
      <trkpt lat="46.36039" lon="5.1751">
        <ele>231.8</ele>
        <time>2022-03-29T12:56:14Z</time>
      </trkpt>
      <trkpt lat="46.36018" lon="5.1751">
        <ele>230.4</ele>
        <time>2022-03-29T12:56:16Z</time>
      </trkpt>
      <trkpt lat="46.3599" lon="5.17515">
        <ele>229.2</ele>
        <time>2022-03-29T12:56:19Z</time>
      </trkpt>
      <trkpt lat="46.35982" lon="5.17517">
        <ele>229.2</ele>
        <time>2022-03-29T12:56:20Z</time>
      </trkpt>
      <trkpt lat="46.35945" lon="5.17527">
        <ele>229.4</ele>
        <time>2022-03-29T12:56:25Z</time>
      </trkpt>
      <trkpt lat="46.35927" lon="5.17529">
        <ele>230.4</ele>
        <time>2022-03-29T12:56:28Z</time>
      </trkpt>
      <trkpt lat="46.35916" lon="5.17528">
        <ele>230.8</ele>
        <time>2022-03-29T12:56:30Z</time>
      </trkpt>
      <trkpt lat="46.35906" lon="5.17528">
        <ele>231.4</ele>
        <time>2022-03-29T12:56:32Z</time>
      </trkpt>
      <trkpt lat="46.35901" lon="5.17529">
        <ele>232</ele>
        <time>2022-03-29T12:56:33Z</time>
      </trkpt>
      <trkpt lat="46.35893" lon="5.17528">
        <ele>232.8</ele>
        <time>2022-03-29T12:56:35Z</time>
      </trkpt>
      <trkpt lat="46.35878" lon="5.17527">
        <ele>234</ele>
        <time>2022-03-29T12:56:39Z</time>
      </trkpt>
      <trkpt lat="46.35874" lon="5.17527">
        <ele>234.4</ele>
        <time>2022-03-29T12:56:40Z</time>
      </trkpt>
      <trkpt lat="46.35858" lon="5.17529">
        <ele>235.2</ele>
        <time>2022-03-29T12:56:44Z</time>
      </trkpt>
      <trkpt lat="46.3585" lon="5.17531">
        <ele>236</ele>
        <time>2022-03-29T12:56:46Z</time>
      </trkpt>
      <trkpt lat="46.35846" lon="5.17531">
        <ele>236.6</ele>
        <time>2022-03-29T12:56:47Z</time>
      </trkpt>
      <trkpt lat="46.35824" lon="5.17537">
        <ele>237.8</ele>
        <time>2022-03-29T12:56:52Z</time>
      </trkpt>
      <trkpt lat="46.35802" lon="5.17544">
        <ele>238.6</ele>
        <time>2022-03-29T12:56:57Z</time>
      </trkpt>
      <trkpt lat="46.35797" lon="5.17545">
        <ele>239</ele>
        <time>2022-03-29T12:56:58Z</time>
      </trkpt>
      <trkpt lat="46.35767" lon="5.17554">
        <ele>239.8</ele>
        <time>2022-03-29T12:57:04Z</time>
      </trkpt>
      <trkpt lat="46.35762" lon="5.17556">
        <ele>240</ele>
        <time>2022-03-29T12:57:05Z</time>
      </trkpt>
      <trkpt lat="46.35742" lon="5.17564">
        <ele>240.8</ele>
        <time>2022-03-29T12:57:09Z</time>
      </trkpt>
      <trkpt lat="46.35731" lon="5.1757">
        <ele>241</ele>
        <time>2022-03-29T12:57:11Z</time>
      </trkpt>
      <trkpt lat="46.35694" lon="5.17585">
        <ele>240.2</ele>
        <time>2022-03-29T12:57:17Z</time>
      </trkpt>
      <trkpt lat="46.35644" lon="5.17591">
        <ele>239.4</ele>
        <time>2022-03-29T12:57:24Z</time>
      </trkpt>
      <trkpt lat="46.35623" lon="5.17592">
        <ele>239</ele>
        <time>2022-03-29T12:57:27Z</time>
      </trkpt>
      <trkpt lat="46.35595" lon="5.17593">
        <ele>238.2</ele>
        <time>2022-03-29T12:57:31Z</time>
      </trkpt>
      <trkpt lat="46.35581" lon="5.17593">
        <ele>237.8</ele>
        <time>2022-03-29T12:57:33Z</time>
      </trkpt>
      <trkpt lat="46.35549" lon="5.17588">
        <ele>237.6</ele>
        <time>2022-03-29T12:57:38Z</time>
      </trkpt>
      <trkpt lat="46.35517" lon="5.17578">
        <ele>238</ele>
        <time>2022-03-29T12:57:44Z</time>
      </trkpt>
      <trkpt lat="46.35492" lon="5.17567">
        <ele>239</ele>
        <time>2022-03-29T12:57:50Z</time>
      </trkpt>
      <trkpt lat="46.35488" lon="5.17566">
        <ele>239</ele>
        <time>2022-03-29T12:57:51Z</time>
      </trkpt>
      <trkpt lat="46.35476" lon="5.17563">
        <ele>240</ele>
        <time>2022-03-29T12:57:54Z</time>
      </trkpt>
      <trkpt lat="46.35442" lon="5.17555">
        <ele>241.4</ele>
        <time>2022-03-29T12:58:01Z</time>
      </trkpt>
      <trkpt lat="46.35437" lon="5.17553">
        <ele>241.6</ele>
        <time>2022-03-29T12:58:02Z</time>
      </trkpt>
      <trkpt lat="46.35417" lon="5.17546">
        <ele>242.4</ele>
        <time>2022-03-29T12:58:06Z</time>
      </trkpt>
      <trkpt lat="46.35398" lon="5.17534">
        <ele>242.6</ele>
        <time>2022-03-29T12:58:10Z</time>
      </trkpt>
      <trkpt lat="46.35379" lon="5.17515">
        <ele>242.6</ele>
        <time>2022-03-29T12:58:14Z</time>
      </trkpt>
      <trkpt lat="46.35369" lon="5.17508">
        <ele>242.6</ele>
        <time>2022-03-29T12:58:16Z</time>
      </trkpt>
      <trkpt lat="46.35359" lon="5.17506">
        <ele>242.4</ele>
        <time>2022-03-29T12:58:18Z</time>
      </trkpt>
      <trkpt lat="46.35347" lon="5.17511">
        <ele>242.4</ele>
        <time>2022-03-29T12:58:20Z</time>
      </trkpt>
      <trkpt lat="46.35336" lon="5.17519">
        <ele>242.4</ele>
        <time>2022-03-29T12:58:22Z</time>
      </trkpt>
      <trkpt lat="46.35321" lon="5.17536">
        <ele>242.4</ele>
        <time>2022-03-29T12:58:25Z</time>
      </trkpt>
      <trkpt lat="46.35288" lon="5.17571">
        <ele>241.6</ele>
        <time>2022-03-29T12:58:31Z</time>
      </trkpt>
      <trkpt lat="46.35256" lon="5.17589">
        <ele>240.8</ele>
        <time>2022-03-29T12:58:36Z</time>
      </trkpt>
      <trkpt lat="46.35248" lon="5.17592">
        <ele>240.6</ele>
        <time>2022-03-29T12:58:37Z</time>
      </trkpt>
      <trkpt lat="46.35242" lon="5.17594">
        <ele>240.6</ele>
        <time>2022-03-29T12:58:38Z</time>
      </trkpt>
      <trkpt lat="46.35224" lon="5.17601">
        <ele>240.2</ele>
        <time>2022-03-29T12:58:41Z</time>
      </trkpt>
      <trkpt lat="46.35193" lon="5.17621">
        <ele>240</ele>
        <time>2022-03-29T12:58:47Z</time>
      </trkpt>
      <trkpt lat="46.35151" lon="5.17654">
        <ele>241.4</ele>
        <time>2022-03-29T12:58:56Z</time>
      </trkpt>
      <trkpt lat="46.35146" lon="5.17658">
        <ele>241.8</ele>
        <time>2022-03-29T12:58:57Z</time>
      </trkpt>
      <trkpt lat="46.35131" lon="5.17667">
        <ele>242.4</ele>
        <time>2022-03-29T12:59:00Z</time>
      </trkpt>
      <trkpt lat="46.35113" lon="5.17671">
        <ele>242.8</ele>
        <time>2022-03-29T12:59:03Z</time>
      </trkpt>
      <trkpt lat="46.35076" lon="5.1767">
        <ele>242.8</ele>
        <time>2022-03-29T12:59:09Z</time>
      </trkpt>
      <trkpt lat="46.35017" lon="5.1767">
        <ele>242.2</ele>
        <time>2022-03-29T12:59:18Z</time>
      </trkpt>
      <trkpt lat="46.34979" lon="5.17661">
        <ele>241.8</ele>
        <time>2022-03-29T12:59:24Z</time>
      </trkpt>
      <trkpt lat="46.34921" lon="5.17638">
        <ele>241.2</ele>
        <time>2022-03-29T12:59:33Z</time>
      </trkpt>
      <trkpt lat="46.34915" lon="5.17635">
        <ele>241</ele>
        <time>2022-03-29T12:59:34Z</time>
      </trkpt>
      <trkpt lat="46.3491" lon="5.17633">
        <ele>240.8</ele>
        <time>2022-03-29T12:59:35Z</time>
      </trkpt>
      <trkpt lat="46.34865" lon="5.1761">
        <ele>240</ele>
        <time>2022-03-29T12:59:42Z</time>
      </trkpt>
      <trkpt lat="46.34858" lon="5.17607">
        <ele>239.8</ele>
        <time>2022-03-29T12:59:43Z</time>
      </trkpt>
      <trkpt lat="46.34828" lon="5.17595">
        <ele>239.2</ele>
        <time>2022-03-29T12:59:47Z</time>
      </trkpt>
      <trkpt lat="46.34819" lon="5.17592">
        <ele>238.6</ele>
        <time>2022-03-29T12:59:48Z</time>
      </trkpt>
      <trkpt lat="46.34792" lon="5.17588">
        <ele>237.6</ele>
        <time>2022-03-29T12:59:51Z</time>
      </trkpt>
      <trkpt lat="46.34782" lon="5.17588">
        <ele>237</ele>
        <time>2022-03-29T12:59:52Z</time>
      </trkpt>
      <trkpt lat="46.34765" lon="5.17587">
        <ele>235.8</ele>
        <time>2022-03-29T12:59:54Z</time>
      </trkpt>
      <trkpt lat="46.34756" lon="5.17586">
        <ele>234.6</ele>
        <time>2022-03-29T12:59:55Z</time>
      </trkpt>
      <trkpt lat="46.34739" lon="5.17584">
        <ele>233.4</ele>
        <time>2022-03-29T12:59:57Z</time>
      </trkpt>
      <trkpt lat="46.34731" lon="5.17582">
        <ele>233.2</ele>
        <time>2022-03-29T12:59:58Z</time>
      </trkpt>
      <trkpt lat="46.34679" lon="5.17576">
        <ele>233</ele>
        <time>2022-03-29T13:00:05Z</time>
      </trkpt>
      <trkpt lat="46.34651" lon="5.17571">
        <ele>233.4</ele>
        <time>2022-03-29T13:00:10Z</time>
      </trkpt>
      <trkpt lat="46.34615" lon="5.17571">
        <ele>235</ele>
        <time>2022-03-29T13:00:17Z</time>
      </trkpt>
      <trkpt lat="46.34605" lon="5.1757">
        <ele>236</ele>
        <time>2022-03-29T13:00:19Z</time>
      </trkpt>
      <trkpt lat="46.34592" lon="5.17569">
        <ele>237.4</ele>
        <time>2022-03-29T13:00:22Z</time>
      </trkpt>
      <trkpt lat="46.34575" lon="5.17566">
        <ele>238.6</ele>
        <time>2022-03-29T13:00:25Z</time>
      </trkpt>
      <trkpt lat="46.34566" lon="5.17564">
        <ele>239.2</ele>
        <time>2022-03-29T13:00:27Z</time>
      </trkpt>
      <trkpt lat="46.34555" lon="5.17563">
        <ele>239.8</ele>
        <time>2022-03-29T13:00:29Z</time>
      </trkpt>
      <trkpt lat="46.34545" lon="5.17561">
        <ele>240.4</ele>
        <time>2022-03-29T13:00:32Z</time>
      </trkpt>
      <trkpt lat="46.34534" lon="5.1756">
        <ele>240.6</ele>
        <time>2022-03-29T13:00:33Z</time>
      </trkpt>
      <trkpt lat="46.3453" lon="5.1756">
        <ele>241</ele>
        <time>2022-03-29T13:00:34Z</time>
      </trkpt>
      <trkpt lat="46.34511" lon="5.17562">
        <ele>241.8</ele>
        <time>2022-03-29T13:00:38Z</time>
      </trkpt>
      <trkpt lat="46.34506" lon="5.17563">
        <ele>242.4</ele>
        <time>2022-03-29T13:00:39Z</time>
      </trkpt>
      <trkpt lat="46.3448" lon="5.17566">
        <ele>243.4</ele>
        <time>2022-03-29T13:00:44Z</time>
      </trkpt>
      <trkpt lat="46.3446" lon="5.17568">
        <ele>244.4</ele>
        <time>2022-03-29T13:00:48Z</time>
      </trkpt>
      <trkpt lat="46.34449" lon="5.17569">
        <ele>244.4</ele>
        <time>2022-03-29T13:00:50Z</time>
      </trkpt>
      <trkpt lat="46.34408" lon="5.17574">
        <ele>244.8</ele>
        <time>2022-03-29T13:00:58Z</time>
      </trkpt>
      <trkpt lat="46.34366" lon="5.17591">
        <ele>245.2</ele>
        <time>2022-03-29T13:01:06Z</time>
      </trkpt>
      <trkpt lat="46.34322" lon="5.17627">
        <ele>245.4</ele>
        <time>2022-03-29T13:01:15Z</time>
      </trkpt>
      <trkpt lat="46.34317" lon="5.17632">
        <ele>245.6</ele>
        <time>2022-03-29T13:01:16Z</time>
      </trkpt>
      <trkpt lat="46.34281" lon="5.1767">
        <ele>245.4</ele>
        <time>2022-03-29T13:01:24Z</time>
      </trkpt>
      <trkpt lat="46.34243" lon="5.1771">
        <ele>245.6</ele>
        <time>2022-03-29T13:01:32Z</time>
      </trkpt>
      <trkpt lat="46.34199" lon="5.17751">
        <ele>245.2</ele>
        <time>2022-03-29T13:01:40Z</time>
      </trkpt>
      <trkpt lat="46.34184" lon="5.17764">
        <ele>245</ele>
        <time>2022-03-29T13:01:43Z</time>
      </trkpt>
      <trkpt lat="46.34167" lon="5.17778">
        <ele>245</ele>
        <time>2022-03-29T13:01:46Z</time>
      </trkpt>
      <trkpt lat="46.34158" lon="5.17786">
        <ele>245.2</ele>
        <time>2022-03-29T13:01:48Z</time>
      </trkpt>
      <trkpt lat="46.3412" lon="5.1782">
        <ele>245.6</ele>
        <time>2022-03-29T13:01:55Z</time>
      </trkpt>
      <trkpt lat="46.34078" lon="5.1787">
        <ele>245.4</ele>
        <time>2022-03-29T13:02:04Z</time>
      </trkpt>
      <trkpt lat="46.34048" lon="5.17912">
        <ele>244.6</ele>
        <time>2022-03-29T13:02:10Z</time>
      </trkpt>
      <trkpt lat="46.34035" lon="5.1793">
        <ele>244.6</ele>
        <time>2022-03-29T13:02:13Z</time>
      </trkpt>
      <trkpt lat="46.33992" lon="5.17989">
        <ele>244.2</ele>
        <time>2022-03-29T13:02:22Z</time>
      </trkpt>
      <trkpt lat="46.33988" lon="5.17994">
        <ele>244</ele>
        <time>2022-03-29T13:02:23Z</time>
      </trkpt>
      <trkpt lat="46.33943" lon="5.18042">
        <ele>244</ele>
        <time>2022-03-29T13:02:31Z</time>
      </trkpt>
      <trkpt lat="46.33939" lon="5.18046">
        <ele>243.8</ele>
        <time>2022-03-29T13:02:32Z</time>
      </trkpt>
      <trkpt lat="46.33922" lon="5.18065">
        <ele>243.6</ele>
        <time>2022-03-29T13:02:35Z</time>
      </trkpt>
      <trkpt lat="46.33914" lon="5.1808">
        <ele>243.4</ele>
        <time>2022-03-29T13:02:37Z</time>
      </trkpt>
      <trkpt lat="46.33893" lon="5.18136">
        <ele>243.2</ele>
        <time>2022-03-29T13:02:44Z</time>
      </trkpt>
      <trkpt lat="46.33868" lon="5.18178">
        <ele>243.2</ele>
        <time>2022-03-29T13:02:50Z</time>
      </trkpt>
      <trkpt lat="46.33838" lon="5.18213">
        <ele>243.4</ele>
        <time>2022-03-29T13:02:56Z</time>
      </trkpt>
      <trkpt lat="46.33807" lon="5.18255">
        <ele>242.8</ele>
        <time>2022-03-29T13:03:02Z</time>
      </trkpt>
      <trkpt lat="46.33791" lon="5.1828">
        <ele>241.8</ele>
        <time>2022-03-29T13:03:05Z</time>
      </trkpt>
      <trkpt lat="46.33787" lon="5.18287">
        <ele>241.6</ele>
        <time>2022-03-29T13:03:06Z</time>
      </trkpt>
      <trkpt lat="46.33769" lon="5.18326">
        <ele>241</ele>
        <time>2022-03-29T13:03:10Z</time>
      </trkpt>
      <trkpt lat="46.3376" lon="5.18346">
        <ele>240.4</ele>
        <time>2022-03-29T13:03:12Z</time>
      </trkpt>
      <trkpt lat="46.33745" lon="5.18372">
        <ele>239.8</ele>
        <time>2022-03-29T13:03:15Z</time>
      </trkpt>
      <trkpt lat="46.3374" lon="5.18377">
        <ele>239.6</ele>
        <time>2022-03-29T13:03:16Z</time>
      </trkpt>
      <trkpt lat="46.33732" lon="5.18384">
        <ele>239.6</ele>
        <time>2022-03-29T13:03:17Z</time>
      </trkpt>
      <trkpt lat="46.33714" lon="5.18398">
        <ele>239.4</ele>
        <time>2022-03-29T13:03:20Z</time>
      </trkpt>
      <trkpt lat="46.33696" lon="5.18416">
        <ele>239</ele>
        <time>2022-03-29T13:03:23Z</time>
      </trkpt>
      <trkpt lat="46.33687" lon="5.18427">
        <ele>239</ele>
        <time>2022-03-29T13:03:25Z</time>
      </trkpt>
      <trkpt lat="46.33662" lon="5.18454">
        <ele>239.2</ele>
        <time>2022-03-29T13:03:30Z</time>
      </trkpt>
      <trkpt lat="46.33637" lon="5.18471">
        <ele>239.4</ele>
        <time>2022-03-29T13:03:35Z</time>
      </trkpt>
      <trkpt lat="46.33609" lon="5.18487">
        <ele>240.6</ele>
        <time>2022-03-29T13:03:41Z</time>
      </trkpt>
      <trkpt lat="46.33601" lon="5.18492">
        <ele>240.8</ele>
        <time>2022-03-29T13:03:43Z</time>
      </trkpt>
      <trkpt lat="46.33593" lon="5.18499">
        <ele>241</ele>
        <time>2022-03-29T13:03:45Z</time>
      </trkpt>
      <trkpt lat="46.33584" lon="5.1851">
        <ele>242</ele>
        <time>2022-03-29T13:03:48Z</time>
      </trkpt>
      <trkpt lat="46.3358" lon="5.18514">
        <ele>242.2</ele>
        <time>2022-03-29T13:03:49Z</time>
      </trkpt>
      <trkpt lat="46.33573" lon="5.18523">
        <ele>243</ele>
        <time>2022-03-29T13:03:51Z</time>
      </trkpt>
      <trkpt lat="46.3356" lon="5.1854">
        <ele>244</ele>
        <time>2022-03-29T13:03:55Z</time>
      </trkpt>
      <trkpt lat="46.33549" lon="5.18554">
        <ele>245</ele>
        <time>2022-03-29T13:03:58Z</time>
      </trkpt>
      <trkpt lat="46.33541" lon="5.18561">
        <ele>245.6</ele>
        <time>2022-03-29T13:04:00Z</time>
      </trkpt>
      <trkpt lat="46.33532" lon="5.18567">
        <ele>245.8</ele>
        <time>2022-03-29T13:04:02Z</time>
      </trkpt>
      <trkpt lat="46.33529" lon="5.1857">
        <ele>246</ele>
        <time>2022-03-29T13:04:03Z</time>
      </trkpt>
      <trkpt lat="46.33523" lon="5.18574">
        <ele>246.2</ele>
        <time>2022-03-29T13:04:04Z</time>
      </trkpt>
      <trkpt lat="46.33515" lon="5.1858">
        <ele>246.6</ele>
        <time>2022-03-29T13:04:06Z</time>
      </trkpt>
      <trkpt lat="46.33508" lon="5.18584">
        <ele>247</ele>
        <time>2022-03-29T13:04:08Z</time>
      </trkpt>
      <trkpt lat="46.33499" lon="5.1859">
        <ele>247.2</ele>
        <time>2022-03-29T13:04:10Z</time>
      </trkpt>
      <trkpt lat="46.33495" lon="5.18592">
        <ele>247.6</ele>
        <time>2022-03-29T13:04:11Z</time>
      </trkpt>
      <trkpt lat="46.33481" lon="5.18602">
        <ele>248.4</ele>
        <time>2022-03-29T13:04:15Z</time>
      </trkpt>
      <trkpt lat="46.33475" lon="5.18605">
        <ele>248.6</ele>
        <time>2022-03-29T13:04:17Z</time>
      </trkpt>
      <trkpt lat="46.3347" lon="5.18606">
        <ele>249</ele>
        <time>2022-03-29T13:04:19Z</time>
      </trkpt>
      <trkpt lat="46.33463" lon="5.18608">
        <ele>249.6</ele>
        <time>2022-03-29T13:04:24Z</time>
      </trkpt>
      <trkpt lat="46.33462" lon="5.1861">
        <ele>249.6</ele>
        <time>2022-03-29T13:04:25Z</time>
      </trkpt>
      <trkpt lat="46.3346" lon="5.18621">
        <ele>249.8</ele>
        <time>2022-03-29T13:04:28Z</time>
      </trkpt>
      <trkpt lat="46.33459" lon="5.18646">
        <ele>250</ele>
        <time>2022-03-29T13:04:32Z</time>
      </trkpt>
      <trkpt lat="46.33457" lon="5.18705">
        <ele>250.4</ele>
        <time>2022-03-29T13:04:40Z</time>
      </trkpt>
      <trkpt lat="46.33458" lon="5.18713">
        <ele>250.8</ele>
        <time>2022-03-29T13:04:41Z</time>
      </trkpt>
      <trkpt lat="46.33459" lon="5.18739">
        <ele>251.8</ele>
        <time>2022-03-29T13:04:44Z</time>
      </trkpt>
      <trkpt lat="46.33459" lon="5.18757">
        <ele>252</ele>
        <time>2022-03-29T13:04:46Z</time>
      </trkpt>
      <trkpt lat="46.33458" lon="5.18775">
        <ele>252</ele>
        <time>2022-03-29T13:04:48Z</time>
      </trkpt>
      <trkpt lat="46.33458" lon="5.18785">
        <ele>252</ele>
        <time>2022-03-29T13:04:49Z</time>
      </trkpt>
      <trkpt lat="46.3346" lon="5.18849">
        <ele>252.2</ele>
        <time>2022-03-29T13:04:56Z</time>
      </trkpt>
      <trkpt lat="46.33466" lon="5.18914">
        <ele>252.4</ele>
        <time>2022-03-29T13:05:03Z</time>
      </trkpt>
      <trkpt lat="46.33467" lon="5.18922">
        <ele>252.4</ele>
        <time>2022-03-29T13:05:04Z</time>
      </trkpt>
      <trkpt lat="46.33471" lon="5.18958">
        <ele>252.6</ele>
        <time>2022-03-29T13:05:08Z</time>
      </trkpt>
      <trkpt lat="46.33479" lon="5.19021">
        <ele>252.8</ele>
        <time>2022-03-29T13:05:15Z</time>
      </trkpt>
      <trkpt lat="46.33484" lon="5.19078">
        <ele>253</ele>
        <time>2022-03-29T13:05:21Z</time>
      </trkpt>
      <trkpt lat="46.33485" lon="5.19099">
        <ele>253.2</ele>
        <time>2022-03-29T13:05:23Z</time>
      </trkpt>
      <trkpt lat="46.33484" lon="5.19183">
        <ele>253</ele>
        <time>2022-03-29T13:05:31Z</time>
      </trkpt>
      <trkpt lat="46.33484" lon="5.19194">
        <ele>253</ele>
        <time>2022-03-29T13:05:32Z</time>
      </trkpt>
      <trkpt lat="46.33486" lon="5.19284">
        <ele>252.4</ele>
        <time>2022-03-29T13:05:40Z</time>
      </trkpt>
      <trkpt lat="46.33486" lon="5.19308">
        <ele>252</ele>
        <time>2022-03-29T13:05:42Z</time>
      </trkpt>
      <trkpt lat="46.33486" lon="5.19367">
        <ele>251.4</ele>
        <time>2022-03-29T13:05:47Z</time>
      </trkpt>
      <trkpt lat="46.33486" lon="5.19414">
        <ele>251</ele>
        <time>2022-03-29T13:05:51Z</time>
      </trkpt>
      <trkpt lat="46.33486" lon="5.19459">
        <ele>250.6</ele>
        <time>2022-03-29T13:05:55Z</time>
      </trkpt>
      <trkpt lat="46.33485" lon="5.19537">
        <ele>250.6</ele>
        <time>2022-03-29T13:06:02Z</time>
      </trkpt>
      <trkpt lat="46.33484" lon="5.19548">
        <ele>250.6</ele>
        <time>2022-03-29T13:06:03Z</time>
      </trkpt>
      <trkpt lat="46.33484" lon="5.19618">
        <ele>250.8</ele>
        <time>2022-03-29T13:06:10Z</time>
      </trkpt>
      <trkpt lat="46.33484" lon="5.19663">
        <ele>251</ele>
        <time>2022-03-29T13:06:15Z</time>
      </trkpt>
      <trkpt lat="46.33477" lon="5.19735">
        <ele>251.8</ele>
        <time>2022-03-29T13:06:23Z</time>
      </trkpt>
      <trkpt lat="46.33472" lon="5.19761">
        <ele>252.2</ele>
        <time>2022-03-29T13:06:26Z</time>
      </trkpt>
      <trkpt lat="46.33461" lon="5.19814">
        <ele>252.8</ele>
        <time>2022-03-29T13:06:32Z</time>
      </trkpt>
      <trkpt lat="46.33453" lon="5.19849">
        <ele>253.2</ele>
        <time>2022-03-29T13:06:36Z</time>
      </trkpt>
      <trkpt lat="46.33441" lon="5.19908">
        <ele>254</ele>
        <time>2022-03-29T13:06:43Z</time>
      </trkpt>
      <trkpt lat="46.33425" lon="5.19987">
        <ele>254</ele>
        <time>2022-03-29T13:06:52Z</time>
      </trkpt>
      <trkpt lat="46.3342" lon="5.20038">
        <ele>253.6</ele>
        <time>2022-03-29T13:06:57Z</time>
      </trkpt>
      <trkpt lat="46.33423" lon="5.20103">
        <ele>253</ele>
        <time>2022-03-29T13:07:03Z</time>
      </trkpt>
      <trkpt lat="46.33432" lon="5.2018">
        <ele>253</ele>
        <time>2022-03-29T13:07:10Z</time>
      </trkpt>
      <trkpt lat="46.33434" lon="5.20193">
        <ele>252.8</ele>
        <time>2022-03-29T13:07:11Z</time>
      </trkpt>
      <trkpt lat="46.3344" lon="5.2025">
        <ele>252.4</ele>
        <time>2022-03-29T13:07:16Z</time>
      </trkpt>
      <trkpt lat="46.33444" lon="5.20281">
        <ele>252</ele>
        <time>2022-03-29T13:07:19Z</time>
      </trkpt>
      <trkpt lat="46.33453" lon="5.20364">
        <ele>252</ele>
        <time>2022-03-29T13:07:27Z</time>
      </trkpt>
      <trkpt lat="46.33454" lon="5.20373">
        <ele>252</ele>
        <time>2022-03-29T13:07:28Z</time>
      </trkpt>
      <trkpt lat="46.33458" lon="5.20428">
        <ele>252.8</ele>
        <time>2022-03-29T13:07:34Z</time>
      </trkpt>
      <trkpt lat="46.33461" lon="5.20459">
        <ele>253.4</ele>
        <time>2022-03-29T13:07:37Z</time>
      </trkpt>
      <trkpt lat="46.33464" lon="5.20514">
        <ele>253.6</ele>
        <time>2022-03-29T13:07:43Z</time>
      </trkpt>
      <trkpt lat="46.33468" lon="5.20579">
        <ele>254.4</ele>
        <time>2022-03-29T13:07:50Z</time>
      </trkpt>
      <trkpt lat="46.33471" lon="5.20626">
        <ele>254.6</ele>
        <time>2022-03-29T13:07:55Z</time>
      </trkpt>
      <trkpt lat="46.33477" lon="5.2071">
        <ele>255</ele>
        <time>2022-03-29T13:08:04Z</time>
      </trkpt>
      <trkpt lat="46.33479" lon="5.20737">
        <ele>255.6</ele>
        <time>2022-03-29T13:08:07Z</time>
      </trkpt>
      <trkpt lat="46.33483" lon="5.20792">
        <ele>256.2</ele>
        <time>2022-03-29T13:08:13Z</time>
      </trkpt>
      <trkpt lat="46.33486" lon="5.20839">
        <ele>256.2</ele>
        <time>2022-03-29T13:08:18Z</time>
      </trkpt>
      <trkpt lat="46.33487" lon="5.20866">
        <ele>256.2</ele>
        <time>2022-03-29T13:08:21Z</time>
      </trkpt>
      <trkpt lat="46.33485" lon="5.20932">
        <ele>256</ele>
        <time>2022-03-29T13:08:28Z</time>
      </trkpt>
      <trkpt lat="46.33476" lon="5.21003">
        <ele>255.6</ele>
        <time>2022-03-29T13:08:35Z</time>
      </trkpt>
      <trkpt lat="46.33467" lon="5.21083">
        <ele>255.6</ele>
        <time>2022-03-29T13:08:43Z</time>
      </trkpt>
      <trkpt lat="46.33458" lon="5.2117">
        <ele>255</ele>
        <time>2022-03-29T13:08:51Z</time>
      </trkpt>
      <trkpt lat="46.33457" lon="5.21178">
        <ele>255</ele>
        <time>2022-03-29T13:08:52Z</time>
      </trkpt>
      <trkpt lat="46.33444" lon="5.21245">
        <ele>255.6</ele>
        <time>2022-03-29T13:08:59Z</time>
      </trkpt>
      <trkpt lat="46.33428" lon="5.21323">
        <ele>256.2</ele>
        <time>2022-03-29T13:09:08Z</time>
      </trkpt>
      <trkpt lat="46.33419" lon="5.21364">
        <ele>256.8</ele>
        <time>2022-03-29T13:09:13Z</time>
      </trkpt>
      <trkpt lat="46.33407" lon="5.21417">
        <ele>257.2</ele>
        <time>2022-03-29T13:09:19Z</time>
      </trkpt>
      <trkpt lat="46.33391" lon="5.21492">
        <ele>257.2</ele>
        <time>2022-03-29T13:09:27Z</time>
      </trkpt>
      <trkpt lat="46.33389" lon="5.215">
        <ele>257.2</ele>
        <time>2022-03-29T13:09:28Z</time>
      </trkpt>
      <trkpt lat="46.33374" lon="5.21575">
        <ele>257</ele>
        <time>2022-03-29T13:09:36Z</time>
      </trkpt>
      <trkpt lat="46.33361" lon="5.21651">
        <ele>256.6</ele>
        <time>2022-03-29T13:09:44Z</time>
      </trkpt>
      <trkpt lat="46.3336" lon="5.21706">
        <ele>256.4</ele>
        <time>2022-03-29T13:09:49Z</time>
      </trkpt>
      <trkpt lat="46.33362" lon="5.21781">
        <ele>255.8</ele>
        <time>2022-03-29T13:09:55Z</time>
      </trkpt>
      <trkpt lat="46.33362" lon="5.21795">
        <ele>255.6</ele>
        <time>2022-03-29T13:09:56Z</time>
      </trkpt>
      <trkpt lat="46.33364" lon="5.21872">
        <ele>254.6</ele>
        <time>2022-03-29T13:10:02Z</time>
      </trkpt>
      <trkpt lat="46.33365" lon="5.21897">
        <ele>254.2</ele>
        <time>2022-03-29T13:10:04Z</time>
      </trkpt>
      <trkpt lat="46.33367" lon="5.21954">
        <ele>254.2</ele>
        <time>2022-03-29T13:10:09Z</time>
      </trkpt>
      <trkpt lat="46.33368" lon="5.22023">
        <ele>255.4</ele>
        <time>2022-03-29T13:10:16Z</time>
      </trkpt>
      <trkpt lat="46.33368" lon="5.22031">
        <ele>255.8</ele>
        <time>2022-03-29T13:10:17Z</time>
      </trkpt>
      <trkpt lat="46.33369" lon="5.22091">
        <ele>257</ele>
        <time>2022-03-29T13:10:23Z</time>
      </trkpt>
      <trkpt lat="46.33371" lon="5.22136">
        <ele>258.2</ele>
        <time>2022-03-29T13:10:27Z</time>
      </trkpt>
      <trkpt lat="46.33371" lon="5.22168">
        <ele>258.4</ele>
        <time>2022-03-29T13:10:30Z</time>
      </trkpt>
      <trkpt lat="46.33374" lon="5.2225">
        <ele>258.6</ele>
        <time>2022-03-29T13:10:38Z</time>
      </trkpt>
      <trkpt lat="46.33375" lon="5.22269">
        <ele>258.6</ele>
        <time>2022-03-29T13:10:40Z</time>
      </trkpt>
      <trkpt lat="46.33377" lon="5.2235">
        <ele>259.2</ele>
        <time>2022-03-29T13:10:48Z</time>
      </trkpt>
      <trkpt lat="46.3338" lon="5.22434">
        <ele>259.2</ele>
        <time>2022-03-29T13:10:56Z</time>
      </trkpt>
      <trkpt lat="46.33381" lon="5.22457">
        <ele>259</ele>
        <time>2022-03-29T13:10:58Z</time>
      </trkpt>
      <trkpt lat="46.33389" lon="5.22516">
        <ele>258.4</ele>
        <time>2022-03-29T13:11:03Z</time>
      </trkpt>
      <trkpt lat="46.33406" lon="5.2258">
        <ele>257.4</ele>
        <time>2022-03-29T13:11:08Z</time>
      </trkpt>
      <trkpt lat="46.33414" lon="5.22604">
        <ele>257</ele>
        <time>2022-03-29T13:11:10Z</time>
      </trkpt>
      <trkpt lat="46.33426" lon="5.22648">
        <ele>255.6</ele>
        <time>2022-03-29T13:11:13Z</time>
      </trkpt>
      <trkpt lat="46.33434" lon="5.22675">
        <ele>254.8</ele>
        <time>2022-03-29T13:11:15Z</time>
      </trkpt>
      <trkpt lat="46.33439" lon="5.22689">
        <ele>254.4</ele>
        <time>2022-03-29T13:11:16Z</time>
      </trkpt>
      <trkpt lat="46.33446" lon="5.22716">
        <ele>253</ele>
        <time>2022-03-29T13:11:18Z</time>
      </trkpt>
      <trkpt lat="46.33454" lon="5.22743">
        <ele>252</ele>
        <time>2022-03-29T13:11:20Z</time>
      </trkpt>
      <trkpt lat="46.33465" lon="5.22781">
        <ele>251.4</ele>
        <time>2022-03-29T13:11:23Z</time>
      </trkpt>
      <trkpt lat="46.33472" lon="5.22807">
        <ele>251</ele>
        <time>2022-03-29T13:11:25Z</time>
      </trkpt>
      <trkpt lat="46.33496" lon="5.22887">
        <ele>250</ele>
        <time>2022-03-29T13:11:31Z</time>
      </trkpt>
      <trkpt lat="46.335" lon="5.22901">
        <ele>249.4</ele>
        <time>2022-03-29T13:11:32Z</time>
      </trkpt>
      <trkpt lat="46.33513" lon="5.22947">
        <ele>248</ele>
        <time>2022-03-29T13:11:35Z</time>
      </trkpt>
      <trkpt lat="46.33525" lon="5.2299">
        <ele>246.8</ele>
        <time>2022-03-29T13:11:38Z</time>
      </trkpt>
      <trkpt lat="46.33533" lon="5.23017">
        <ele>245.8</ele>
        <time>2022-03-29T13:11:40Z</time>
      </trkpt>
      <trkpt lat="46.33537" lon="5.2303">
        <ele>245.2</ele>
        <time>2022-03-29T13:11:41Z</time>
      </trkpt>
      <trkpt lat="46.33558" lon="5.23089">
        <ele>244.6</ele>
        <time>2022-03-29T13:11:46Z</time>
      </trkpt>
      <trkpt lat="46.33584" lon="5.2315">
        <ele>244.6</ele>
        <time>2022-03-29T13:11:52Z</time>
      </trkpt>
      <trkpt lat="46.33601" lon="5.2319">
        <ele>245.6</ele>
        <time>2022-03-29T13:11:57Z</time>
      </trkpt>
      <trkpt lat="46.33611" lon="5.23212">
        <ele>246.6</ele>
        <time>2022-03-29T13:12:00Z</time>
      </trkpt>
      <trkpt lat="46.33617" lon="5.23225">
        <ele>247.8</ele>
        <time>2022-03-29T13:12:02Z</time>
      </trkpt>
      <trkpt lat="46.3362" lon="5.23231">
        <ele>248</ele>
        <time>2022-03-29T13:12:03Z</time>
      </trkpt>
      <trkpt lat="46.33626" lon="5.23245">
        <ele>249</ele>
        <time>2022-03-29T13:12:05Z</time>
      </trkpt>
      <trkpt lat="46.33631" lon="5.23258">
        <ele>250</ele>
        <time>2022-03-29T13:12:07Z</time>
      </trkpt>
      <trkpt lat="46.33638" lon="5.23275">
        <ele>251.4</ele>
        <time>2022-03-29T13:12:10Z</time>
      </trkpt>
      <trkpt lat="46.33642" lon="5.23285">
        <ele>252.6</ele>
        <time>2022-03-29T13:12:12Z</time>
      </trkpt>
      <trkpt lat="46.3365" lon="5.23302">
        <ele>253.6</ele>
        <time>2022-03-29T13:12:15Z</time>
      </trkpt>
      <trkpt lat="46.3366" lon="5.23324">
        <ele>254.6</ele>
        <time>2022-03-29T13:12:19Z</time>
      </trkpt>
      <trkpt lat="46.33664" lon="5.23331">
        <ele>255</ele>
        <time>2022-03-29T13:12:20Z</time>
      </trkpt>
      <trkpt lat="46.33679" lon="5.23363">
        <ele>256</ele>
        <time>2022-03-29T13:12:25Z</time>
      </trkpt>
      <trkpt lat="46.33685" lon="5.23376">
        <ele>256.4</ele>
        <time>2022-03-29T13:12:27Z</time>
      </trkpt>
      <trkpt lat="46.33689" lon="5.23383">
        <ele>256.6</ele>
        <time>2022-03-29T13:12:28Z</time>
      </trkpt>
      <trkpt lat="46.33702" lon="5.23411">
        <ele>257</ele>
        <time>2022-03-29T13:12:32Z</time>
      </trkpt>
      <trkpt lat="46.3372" lon="5.23448">
        <ele>257.4</ele>
        <time>2022-03-29T13:12:37Z</time>
      </trkpt>
      <trkpt lat="46.33753" lon="5.23516">
        <ele>257.4</ele>
        <time>2022-03-29T13:12:46Z</time>
      </trkpt>
      <trkpt lat="46.33757" lon="5.23525">
        <ele>257.4</ele>
        <time>2022-03-29T13:12:47Z</time>
      </trkpt>
      <trkpt lat="46.33783" lon="5.23596">
        <ele>257</ele>
        <time>2022-03-29T13:12:55Z</time>
      </trkpt>
      <trkpt lat="46.33795" lon="5.23658">
        <ele>256.8</ele>
        <time>2022-03-29T13:13:01Z</time>
      </trkpt>
      <trkpt lat="46.33799" lon="5.2372">
        <ele>257.2</ele>
        <time>2022-03-29T13:13:07Z</time>
      </trkpt>
      <trkpt lat="46.33799" lon="5.23798">
        <ele>257.6</ele>
        <time>2022-03-29T13:13:15Z</time>
      </trkpt>
      <trkpt lat="46.33798" lon="5.23868">
        <ele>258</ele>
        <time>2022-03-29T13:13:23Z</time>
      </trkpt>
      <trkpt lat="46.33799" lon="5.23886">
        <ele>258.4</ele>
        <time>2022-03-29T13:13:25Z</time>
      </trkpt>
      <trkpt lat="46.33798" lon="5.2394">
        <ele>259.2</ele>
        <time>2022-03-29T13:13:31Z</time>
      </trkpt>
      <trkpt lat="46.33797" lon="5.24018">
        <ele>258.8</ele>
        <time>2022-03-29T13:13:39Z</time>
      </trkpt>
      <trkpt lat="46.33793" lon="5.24105">
        <ele>259</ele>
        <time>2022-03-29T13:13:48Z</time>
      </trkpt>
      <trkpt lat="46.33788" lon="5.24167">
        <ele>259.2</ele>
        <time>2022-03-29T13:13:55Z</time>
      </trkpt>
      <trkpt lat="46.33781" lon="5.24242">
        <ele>259.2</ele>
        <time>2022-03-29T13:14:04Z</time>
      </trkpt>
      <trkpt lat="46.33779" lon="5.24259">
        <ele>259.8</ele>
        <time>2022-03-29T13:14:06Z</time>
      </trkpt>
      <trkpt lat="46.33774" lon="5.24292">
        <ele>260.6</ele>
        <time>2022-03-29T13:14:10Z</time>
      </trkpt>
      <trkpt lat="46.33774" lon="5.243">
        <ele>261</ele>
        <time>2022-03-29T13:14:11Z</time>
      </trkpt>
      <trkpt lat="46.33775" lon="5.24361">
        <ele>261.8</ele>
        <time>2022-03-29T13:14:18Z</time>
      </trkpt>
      <trkpt lat="46.33776" lon="5.2437">
        <ele>262</ele>
        <time>2022-03-29T13:14:19Z</time>
      </trkpt>
      <trkpt lat="46.33787" lon="5.24417">
        <ele>262.6</ele>
        <time>2022-03-29T13:14:24Z</time>
      </trkpt>
      <trkpt lat="46.33804" lon="5.24486">
        <ele>261.6</ele>
        <time>2022-03-29T13:14:30Z</time>
      </trkpt>
      <trkpt lat="46.33813" lon="5.2452">
        <ele>261</ele>
        <time>2022-03-29T13:14:33Z</time>
      </trkpt>
      <trkpt lat="46.33825" lon="5.24564">
        <ele>260.4</ele>
        <time>2022-03-29T13:14:37Z</time>
      </trkpt>
      <trkpt lat="46.33841" lon="5.24626">
        <ele>260</ele>
        <time>2022-03-29T13:14:43Z</time>
      </trkpt>
      <trkpt lat="46.33857" lon="5.24688">
        <ele>260</ele>
        <time>2022-03-29T13:14:50Z</time>
      </trkpt>
      <trkpt lat="46.33867" lon="5.24731">
        <ele>261.2</ele>
        <time>2022-03-29T13:14:55Z</time>
      </trkpt>
      <trkpt lat="46.33872" lon="5.24747">
        <ele>261.4</ele>
        <time>2022-03-29T13:14:57Z</time>
      </trkpt>
      <trkpt lat="46.3389" lon="5.24818">
        <ele>262.2</ele>
        <time>2022-03-29T13:15:06Z</time>
      </trkpt>
      <trkpt lat="46.33895" lon="5.24841">
        <ele>263.6</ele>
        <time>2022-03-29T13:15:09Z</time>
      </trkpt>
      <trkpt lat="46.3391" lon="5.24895">
        <ele>264.6</ele>
        <time>2022-03-29T13:15:16Z</time>
      </trkpt>
      <trkpt lat="46.33911" lon="5.24904">
        <ele>264.8</ele>
        <time>2022-03-29T13:15:17Z</time>
      </trkpt>
      <trkpt lat="46.33915" lon="5.2495">
        <ele>264.8</ele>
        <time>2022-03-29T13:15:22Z</time>
      </trkpt>
      <trkpt lat="46.33914" lon="5.25019">
        <ele>264.6</ele>
        <time>2022-03-29T13:15:28Z</time>
      </trkpt>
      <trkpt lat="46.33914" lon="5.25067">
        <ele>263.6</ele>
        <time>2022-03-29T13:15:32Z</time>
      </trkpt>
      <trkpt lat="46.33913" lon="5.25093">
        <ele>263</ele>
        <time>2022-03-29T13:15:34Z</time>
      </trkpt>
      <trkpt lat="46.33913" lon="5.25119">
        <ele>262.4</ele>
        <time>2022-03-29T13:15:36Z</time>
      </trkpt>
      <trkpt lat="46.33913" lon="5.25158">
        <ele>261.2</ele>
        <time>2022-03-29T13:15:39Z</time>
      </trkpt>
      <trkpt lat="46.33913" lon="5.2521">
        <ele>260.8</ele>
        <time>2022-03-29T13:15:43Z</time>
      </trkpt>
      <trkpt lat="46.33914" lon="5.25284">
        <ele>260.2</ele>
        <time>2022-03-29T13:15:49Z</time>
      </trkpt>
      <trkpt lat="46.33913" lon="5.25307">
        <ele>259.8</ele>
        <time>2022-03-29T13:15:51Z</time>
      </trkpt>
      <trkpt lat="46.33912" lon="5.25378">
        <ele>259.4</ele>
        <time>2022-03-29T13:15:58Z</time>
      </trkpt>
      <trkpt lat="46.33911" lon="5.25429">
        <ele>260.6</ele>
        <time>2022-03-29T13:16:04Z</time>
      </trkpt>
      <trkpt lat="46.33911" lon="5.25452">
        <ele>261.4</ele>
        <time>2022-03-29T13:16:07Z</time>
      </trkpt>
      <trkpt lat="46.33911" lon="5.25485">
        <ele>262.6</ele>
        <time>2022-03-29T13:16:11Z</time>
      </trkpt>
      <trkpt lat="46.33911" lon="5.25493">
        <ele>262.6</ele>
        <time>2022-03-29T13:16:12Z</time>
      </trkpt>
      <trkpt lat="46.3391" lon="5.25525">
        <ele>263.8</ele>
        <time>2022-03-29T13:16:16Z</time>
      </trkpt>
      <trkpt lat="46.3391" lon="5.25545">
        <ele>264.2</ele>
        <time>2022-03-29T13:16:19Z</time>
      </trkpt>
      <trkpt lat="46.33909" lon="5.25565">
        <ele>264.2</ele>
        <time>2022-03-29T13:16:24Z</time>
      </trkpt>
      <trkpt lat="46.33909" lon="5.25566">
        <ele>263.8</ele>
        <time>2022-03-29T13:16:27Z</time>
      </trkpt>
      <trkpt lat="46.33909" lon="5.25571">
        <ele>262.8</ele>
        <time>2022-03-29T13:17:01Z</time>
      </trkpt>
      <trkpt lat="46.3391" lon="5.25594">
        <ele>262.8</ele>
        <time>2022-03-29T13:17:05Z</time>
      </trkpt>
      <trkpt lat="46.33916" lon="5.25607">
        <ele>262.8</ele>
        <time>2022-03-29T13:17:07Z</time>
      </trkpt>
      <trkpt lat="46.3392" lon="5.25613">
        <ele>262.8</ele>
        <time>2022-03-29T13:17:08Z</time>
      </trkpt>
      <trkpt lat="46.33926" lon="5.25618">
        <ele>262.6</ele>
        <time>2022-03-29T13:17:09Z</time>
      </trkpt>
      <trkpt lat="46.33943" lon="5.25631">
        <ele>262.4</ele>
        <time>2022-03-29T13:17:12Z</time>
      </trkpt>
      <trkpt lat="46.33948" lon="5.25645">
        <ele>262.4</ele>
        <time>2022-03-29T13:17:14Z</time>
      </trkpt>
      <trkpt lat="46.33944" lon="5.25663">
        <ele>262.4</ele>
        <time>2022-03-29T13:17:16Z</time>
      </trkpt>
      <trkpt lat="46.33942" lon="5.25685">
        <ele>262.2</ele>
        <time>2022-03-29T13:17:18Z</time>
      </trkpt>
      <trkpt lat="46.3394" lon="5.25695">
        <ele>262</ele>
        <time>2022-03-29T13:17:19Z</time>
      </trkpt>
      <trkpt lat="46.33939" lon="5.25706">
        <ele>261.8</ele>
        <time>2022-03-29T13:17:20Z</time>
      </trkpt>
      <trkpt lat="46.33939" lon="5.25717">
        <ele>261.6</ele>
        <time>2022-03-29T13:17:21Z</time>
      </trkpt>
      <trkpt lat="46.33943" lon="5.25737">
        <ele>261.2</ele>
        <time>2022-03-29T13:17:23Z</time>
      </trkpt>
      <trkpt lat="46.33947" lon="5.25747">
        <ele>261</ele>
        <time>2022-03-29T13:17:24Z</time>
      </trkpt>
      <trkpt lat="46.33952" lon="5.25755">
        <ele>261</ele>
        <time>2022-03-29T13:17:25Z</time>
      </trkpt>
      <trkpt lat="46.33957" lon="5.25764">
        <ele>260.8</ele>
        <time>2022-03-29T13:17:26Z</time>
      </trkpt>
      <trkpt lat="46.33969" lon="5.25779">
        <ele>260.4</ele>
        <time>2022-03-29T13:17:28Z</time>
      </trkpt>
      <trkpt lat="46.33976" lon="5.25786">
        <ele>260.4</ele>
        <time>2022-03-29T13:17:29Z</time>
      </trkpt>
      <trkpt lat="46.33995" lon="5.25809">
        <ele>260</ele>
        <time>2022-03-29T13:17:32Z</time>
      </trkpt>
      <trkpt lat="46.34" lon="5.25818">
        <ele>259.6</ele>
        <time>2022-03-29T13:17:33Z</time>
      </trkpt>
      <trkpt lat="46.34012" lon="5.25834">
        <ele>259.4</ele>
        <time>2022-03-29T13:17:35Z</time>
      </trkpt>
      <trkpt lat="46.34018" lon="5.25841">
        <ele>259.2</ele>
        <time>2022-03-29T13:17:36Z</time>
      </trkpt>
      <trkpt lat="46.34045" lon="5.25863">
        <ele>259.4</ele>
        <time>2022-03-29T13:17:40Z</time>
      </trkpt>
      <trkpt lat="46.34058" lon="5.25873">
        <ele>259.4</ele>
        <time>2022-03-29T13:17:42Z</time>
      </trkpt>
      <trkpt lat="46.34067" lon="5.2589">
        <ele>259.4</ele>
        <time>2022-03-29T13:17:44Z</time>
      </trkpt>
      <trkpt lat="46.34068" lon="5.2591">
        <ele>259.6</ele>
        <time>2022-03-29T13:17:46Z</time>
      </trkpt>
      <trkpt lat="46.34067" lon="5.2592">
        <ele>259.8</ele>
        <time>2022-03-29T13:17:47Z</time>
      </trkpt>
      <trkpt lat="46.3406" lon="5.26006">
        <ele>260</ele>
        <time>2022-03-29T13:17:55Z</time>
      </trkpt>
      <trkpt lat="46.34058" lon="5.26016">
        <ele>260</ele>
        <time>2022-03-29T13:17:56Z</time>
      </trkpt>
      <trkpt lat="46.34049" lon="5.2605">
        <ele>260.2</ele>
        <time>2022-03-29T13:18:00Z</time>
      </trkpt>
      <trkpt lat="46.34048" lon="5.26059">
        <ele>260.2</ele>
        <time>2022-03-29T13:18:01Z</time>
      </trkpt>
      <trkpt lat="46.34048" lon="5.26067">
        <ele>260.2</ele>
        <time>2022-03-29T13:18:02Z</time>
      </trkpt>
      <trkpt lat="46.34054" lon="5.26077">
        <ele>260.2</ele>
        <time>2022-03-29T13:18:04Z</time>
      </trkpt>
      <trkpt lat="46.34079" lon="5.26082">
        <ele>260.2</ele>
        <time>2022-03-29T13:18:08Z</time>
      </trkpt>
      <trkpt lat="46.34113" lon="5.26093">
        <ele>260.2</ele>
        <time>2022-03-29T13:18:13Z</time>
      </trkpt>
      <trkpt lat="46.3414" lon="5.26103">
        <ele>260.4</ele>
        <time>2022-03-29T13:18:17Z</time>
      </trkpt>
      <trkpt lat="46.34148" lon="5.26115">
        <ele>260.4</ele>
        <time>2022-03-29T13:18:19Z</time>
      </trkpt>
      <trkpt lat="46.34152" lon="5.26129">
        <ele>260.6</ele>
        <time>2022-03-29T13:18:21Z</time>
      </trkpt>
      <trkpt lat="46.34152" lon="5.2614">
        <ele>260.6</ele>
        <time>2022-03-29T13:18:22Z</time>
      </trkpt>
      <trkpt lat="46.34149" lon="5.26174">
        <ele>260.6</ele>
        <time>2022-03-29T13:18:25Z</time>
      </trkpt>
      <trkpt lat="46.34147" lon="5.26198">
        <ele>260.6</ele>
        <time>2022-03-29T13:18:27Z</time>
      </trkpt>
      <trkpt lat="46.34141" lon="5.26254">
        <ele>260.4</ele>
        <time>2022-03-29T13:18:32Z</time>
      </trkpt>
      <trkpt lat="46.3414" lon="5.26266">
        <ele>259.6</ele>
        <time>2022-03-29T13:18:33Z</time>
      </trkpt>
      <trkpt lat="46.34133" lon="5.26336">
        <ele>258.4</ele>
        <time>2022-03-29T13:18:39Z</time>
      </trkpt>
      <trkpt lat="46.34131" lon="5.26348">
        <ele>257.6</ele>
        <time>2022-03-29T13:18:40Z</time>
      </trkpt>
      <trkpt lat="46.34128" lon="5.26373">
        <ele>256.8</ele>
        <time>2022-03-29T13:18:42Z</time>
      </trkpt>
      <trkpt lat="46.34124" lon="5.26413">
        <ele>255.8</ele>
        <time>2022-03-29T13:18:45Z</time>
      </trkpt>
      <trkpt lat="46.34119" lon="5.26455">
        <ele>254.6</ele>
        <time>2022-03-29T13:18:48Z</time>
      </trkpt>
      <trkpt lat="46.34115" lon="5.26483">
        <ele>253</ele>
        <time>2022-03-29T13:18:50Z</time>
      </trkpt>
      <trkpt lat="46.34109" lon="5.26511">
        <ele>251.8</ele>
        <time>2022-03-29T13:18:52Z</time>
      </trkpt>
      <trkpt lat="46.34103" lon="5.26541">
        <ele>250.6</ele>
        <time>2022-03-29T13:18:54Z</time>
      </trkpt>
      <trkpt lat="46.34092" lon="5.26586">
        <ele>249.6</ele>
        <time>2022-03-29T13:18:57Z</time>
      </trkpt>
      <trkpt lat="46.34082" lon="5.26616">
        <ele>248.4</ele>
        <time>2022-03-29T13:18:59Z</time>
      </trkpt>
      <trkpt lat="46.34064" lon="5.26659">
        <ele>246.6</ele>
        <time>2022-03-29T13:19:02Z</time>
      </trkpt>
      <trkpt lat="46.34058" lon="5.26673">
        <ele>245.2</ele>
        <time>2022-03-29T13:19:03Z</time>
      </trkpt>
      <trkpt lat="46.34046" lon="5.26702">
        <ele>244.2</ele>
        <time>2022-03-29T13:19:05Z</time>
      </trkpt>
      <trkpt lat="46.34028" lon="5.26744">
        <ele>242.8</ele>
        <time>2022-03-29T13:19:08Z</time>
      </trkpt>
      <trkpt lat="46.34017" lon="5.26771">
        <ele>241.4</ele>
        <time>2022-03-29T13:19:10Z</time>
      </trkpt>
      <trkpt lat="46.34005" lon="5.26797">
        <ele>240.2</ele>
        <time>2022-03-29T13:19:12Z</time>
      </trkpt>
      <trkpt lat="46.33989" lon="5.26834">
        <ele>238.8</ele>
        <time>2022-03-29T13:19:15Z</time>
      </trkpt>
      <trkpt lat="46.33984" lon="5.26846">
        <ele>238.4</ele>
        <time>2022-03-29T13:19:16Z</time>
      </trkpt>
      <trkpt lat="46.33969" lon="5.2688">
        <ele>237.8</ele>
        <time>2022-03-29T13:19:19Z</time>
      </trkpt>
      <trkpt lat="46.33955" lon="5.26912">
        <ele>237.2</ele>
        <time>2022-03-29T13:19:22Z</time>
      </trkpt>
      <trkpt lat="46.33942" lon="5.26943">
        <ele>236.6</ele>
        <time>2022-03-29T13:19:25Z</time>
      </trkpt>
      <trkpt lat="46.3393" lon="5.26973">
        <ele>236.4</ele>
        <time>2022-03-29T13:19:28Z</time>
      </trkpt>
      <trkpt lat="46.3391" lon="5.27018">
        <ele>236</ele>
        <time>2022-03-29T13:19:33Z</time>
      </trkpt>
      <trkpt lat="46.33906" lon="5.27028">
        <ele>236</ele>
        <time>2022-03-29T13:19:34Z</time>
      </trkpt>
      <trkpt lat="46.339" lon="5.27048">
        <ele>235.8</ele>
        <time>2022-03-29T13:19:36Z</time>
      </trkpt>
      <trkpt lat="46.33895" lon="5.2707">
        <ele>235.8</ele>
        <time>2022-03-29T13:19:38Z</time>
      </trkpt>
      <trkpt lat="46.33895" lon="5.27104">
        <ele>235.6</ele>
        <time>2022-03-29T13:19:41Z</time>
      </trkpt>
      <trkpt lat="46.33896" lon="5.27127">
        <ele>235.4</ele>
        <time>2022-03-29T13:19:43Z</time>
      </trkpt>
      <trkpt lat="46.33901" lon="5.27215">
        <ele>235.4</ele>
        <time>2022-03-29T13:19:51Z</time>
      </trkpt>
      <trkpt lat="46.33907" lon="5.27301">
        <ele>235.2</ele>
        <time>2022-03-29T13:19:59Z</time>
      </trkpt>
      <trkpt lat="46.33909" lon="5.27386">
        <ele>235.2</ele>
        <time>2022-03-29T13:20:07Z</time>
      </trkpt>
      <trkpt lat="46.33905" lon="5.27432">
        <ele>235.4</ele>
        <time>2022-03-29T13:20:12Z</time>
      </trkpt>
      <trkpt lat="46.33904" lon="5.2744">
        <ele>235.6</ele>
        <time>2022-03-29T13:20:13Z</time>
      </trkpt>
      <trkpt lat="46.33897" lon="5.27472">
        <ele>236.8</ele>
        <time>2022-03-29T13:20:17Z</time>
      </trkpt>
      <trkpt lat="46.33895" lon="5.2748">
        <ele>237</ele>
        <time>2022-03-29T13:20:18Z</time>
      </trkpt>
      <trkpt lat="46.33887" lon="5.27516">
        <ele>238</ele>
        <time>2022-03-29T13:20:23Z</time>
      </trkpt>
      <trkpt lat="46.33884" lon="5.27529">
        <ele>238.6</ele>
        <time>2022-03-29T13:20:25Z</time>
      </trkpt>
      <trkpt lat="46.33879" lon="5.27549">
        <ele>239.2</ele>
        <time>2022-03-29T13:20:28Z</time>
      </trkpt>
      <trkpt lat="46.33874" lon="5.27574">
        <ele>240.2</ele>
        <time>2022-03-29T13:20:32Z</time>
      </trkpt>
      <trkpt lat="46.3387" lon="5.27595">
        <ele>241.4</ele>
        <time>2022-03-29T13:20:36Z</time>
      </trkpt>
      <trkpt lat="46.33867" lon="5.27611">
        <ele>242.4</ele>
        <time>2022-03-29T13:20:39Z</time>
      </trkpt>
      <trkpt lat="46.33866" lon="5.27616">
        <ele>242.6</ele>
        <time>2022-03-29T13:20:40Z</time>
      </trkpt>
      <trkpt lat="46.33861" lon="5.2764">
        <ele>243.8</ele>
        <time>2022-03-29T13:20:45Z</time>
      </trkpt>
      <trkpt lat="46.33859" lon="5.2765">
        <ele>244.4</ele>
        <time>2022-03-29T13:20:47Z</time>
      </trkpt>
      <trkpt lat="46.33857" lon="5.27659">
        <ele>245</ele>
        <time>2022-03-29T13:20:49Z</time>
      </trkpt>
      <trkpt lat="46.33852" lon="5.27683">
        <ele>246.4</ele>
        <time>2022-03-29T13:20:54Z</time>
      </trkpt>
      <trkpt lat="46.33847" lon="5.27702">
        <ele>247.4</ele>
        <time>2022-03-29T13:20:58Z</time>
      </trkpt>
      <trkpt lat="46.33836" lon="5.27729">
        <ele>248.4</ele>
        <time>2022-03-29T13:21:04Z</time>
      </trkpt>
      <trkpt lat="46.33831" lon="5.27737">
        <ele>248.6</ele>
        <time>2022-03-29T13:21:06Z</time>
      </trkpt>
      <trkpt lat="46.33811" lon="5.27771">
        <ele>249.6</ele>
        <time>2022-03-29T13:21:14Z</time>
      </trkpt>
      <trkpt lat="46.33794" lon="5.27798">
        <ele>250.2</ele>
        <time>2022-03-29T13:21:20Z</time>
      </trkpt>
      <trkpt lat="46.33788" lon="5.27807">
        <ele>250.8</ele>
        <time>2022-03-29T13:21:22Z</time>
      </trkpt>
      <trkpt lat="46.33785" lon="5.27812">
        <ele>250.8</ele>
        <time>2022-03-29T13:21:23Z</time>
      </trkpt>
      <trkpt lat="46.33771" lon="5.27833">
        <ele>251.6</ele>
        <time>2022-03-29T13:21:28Z</time>
      </trkpt>
      <trkpt lat="46.33763" lon="5.27838">
        <ele>252</ele>
        <time>2022-03-29T13:21:30Z</time>
      </trkpt>
      <trkpt lat="46.33754" lon="5.27846">
        <ele>252.4</ele>
        <time>2022-03-29T13:21:33Z</time>
      </trkpt>
      <trkpt lat="46.33754" lon="5.2785">
        <ele>252.4</ele>
        <time>2022-03-29T13:21:34Z</time>
      </trkpt>
      <trkpt lat="46.33753" lon="5.2786">
        <ele>253.2</ele>
        <time>2022-03-29T13:21:37Z</time>
      </trkpt>
      <trkpt lat="46.33751" lon="5.27864">
        <ele>253.4</ele>
        <time>2022-03-29T13:21:38Z</time>
      </trkpt>
      <trkpt lat="46.33736" lon="5.27887">
        <ele>254</ele>
        <time>2022-03-29T13:21:43Z</time>
      </trkpt>
      <trkpt lat="46.33733" lon="5.27893">
        <ele>254.4</ele>
        <time>2022-03-29T13:21:44Z</time>
      </trkpt>
      <trkpt lat="46.33715" lon="5.27921">
        <ele>255.2</ele>
        <time>2022-03-29T13:21:49Z</time>
      </trkpt>
      <trkpt lat="46.33712" lon="5.27927">
        <ele>255.4</ele>
        <time>2022-03-29T13:21:50Z</time>
      </trkpt>
      <trkpt lat="46.33708" lon="5.27932">
        <ele>255.6</ele>
        <time>2022-03-29T13:21:51Z</time>
      </trkpt>
      <trkpt lat="46.33686" lon="5.27968">
        <ele>256.6</ele>
        <time>2022-03-29T13:21:58Z</time>
      </trkpt>
      <trkpt lat="46.33682" lon="5.27973">
        <ele>256.8</ele>
        <time>2022-03-29T13:21:59Z</time>
      </trkpt>
      <trkpt lat="46.33666" lon="5.28">
        <ele>257.6</ele>
        <time>2022-03-29T13:22:04Z</time>
      </trkpt>
      <trkpt lat="46.33648" lon="5.28028">
        <ele>258.6</ele>
        <time>2022-03-29T13:22:09Z</time>
      </trkpt>
      <trkpt lat="46.33642" lon="5.28039">
        <ele>259</ele>
        <time>2022-03-29T13:22:11Z</time>
      </trkpt>
      <trkpt lat="46.33619" lon="5.28075">
        <ele>260</ele>
        <time>2022-03-29T13:22:17Z</time>
      </trkpt>
      <trkpt lat="46.33611" lon="5.28088">
        <ele>260</ele>
        <time>2022-03-29T13:22:19Z</time>
      </trkpt>
      <trkpt lat="46.33584" lon="5.28143">
        <ele>259.2</ele>
        <time>2022-03-29T13:22:26Z</time>
      </trkpt>
      <trkpt lat="46.33573" lon="5.2817">
        <ele>259</ele>
        <time>2022-03-29T13:22:29Z</time>
      </trkpt>
      <trkpt lat="46.33563" lon="5.28202">
        <ele>258.8</ele>
        <time>2022-03-29T13:22:32Z</time>
      </trkpt>
      <trkpt lat="46.33549" lon="5.28272">
        <ele>258.2</ele>
        <time>2022-03-29T13:22:38Z</time>
      </trkpt>
      <trkpt lat="46.33543" lon="5.28329">
        <ele>258.2</ele>
        <time>2022-03-29T13:22:43Z</time>
      </trkpt>
      <trkpt lat="46.33543" lon="5.2835">
        <ele>258.2</ele>
        <time>2022-03-29T13:22:45Z</time>
      </trkpt>
      <trkpt lat="46.33543" lon="5.28397">
        <ele>258.8</ele>
        <time>2022-03-29T13:22:50Z</time>
      </trkpt>
      <trkpt lat="46.33543" lon="5.28406">
        <ele>259.2</ele>
        <time>2022-03-29T13:22:51Z</time>
      </trkpt>
      <trkpt lat="46.33542" lon="5.28438">
        <ele>260.2</ele>
        <time>2022-03-29T13:22:55Z</time>
      </trkpt>
      <trkpt lat="46.33542" lon="5.28455">
        <ele>260.6</ele>
        <time>2022-03-29T13:22:57Z</time>
      </trkpt>
      <trkpt lat="46.33543" lon="5.28494">
        <ele>261.2</ele>
        <time>2022-03-29T13:23:02Z</time>
      </trkpt>
      <trkpt lat="46.33544" lon="5.28516">
        <ele>261.6</ele>
        <time>2022-03-29T13:23:05Z</time>
      </trkpt>
      <trkpt lat="46.33546" lon="5.28531">
        <ele>261.6</ele>
        <time>2022-03-29T13:23:07Z</time>
      </trkpt>
      <trkpt lat="46.33551" lon="5.28569">
        <ele>262.4</ele>
        <time>2022-03-29T13:23:12Z</time>
      </trkpt>
      <trkpt lat="46.33558" lon="5.28626">
        <ele>263.2</ele>
        <time>2022-03-29T13:23:19Z</time>
      </trkpt>
      <trkpt lat="46.3356" lon="5.28653">
        <ele>263.4</ele>
        <time>2022-03-29T13:23:22Z</time>
      </trkpt>
      <trkpt lat="46.33564" lon="5.28705">
        <ele>264.2</ele>
        <time>2022-03-29T13:23:28Z</time>
      </trkpt>
      <trkpt lat="46.33568" lon="5.28748">
        <ele>264.6</ele>
        <time>2022-03-29T13:23:33Z</time>
      </trkpt>
      <trkpt lat="46.33569" lon="5.28782">
        <ele>265</ele>
        <time>2022-03-29T13:23:37Z</time>
      </trkpt>
      <trkpt lat="46.33561" lon="5.2884">
        <ele>265.6</ele>
        <time>2022-03-29T13:23:43Z</time>
      </trkpt>
      <trkpt lat="46.33559" lon="5.2885">
        <ele>265.6</ele>
        <time>2022-03-29T13:23:44Z</time>
      </trkpt>
      <trkpt lat="46.33548" lon="5.2889">
        <ele>265.4</ele>
        <time>2022-03-29T13:23:48Z</time>
      </trkpt>
      <trkpt lat="46.33537" lon="5.28932">
        <ele>264.6</ele>
        <time>2022-03-29T13:23:52Z</time>
      </trkpt>
      <trkpt lat="46.33529" lon="5.28963">
        <ele>264.2</ele>
        <time>2022-03-29T13:23:55Z</time>
      </trkpt>
      <trkpt lat="46.33511" lon="5.29028">
        <ele>264.8</ele>
        <time>2022-03-29T13:24:02Z</time>
      </trkpt>
      <trkpt lat="46.33494" lon="5.29081">
        <ele>265.4</ele>
        <time>2022-03-29T13:24:09Z</time>
      </trkpt>
      <trkpt lat="46.33484" lon="5.29108">
        <ele>266</ele>
        <time>2022-03-29T13:24:13Z</time>
      </trkpt>
      <trkpt lat="46.33469" lon="5.29143">
        <ele>266.6</ele>
        <time>2022-03-29T13:24:18Z</time>
      </trkpt>
      <trkpt lat="46.33458" lon="5.29172">
        <ele>267.2</ele>
        <time>2022-03-29T13:24:22Z</time>
      </trkpt>
      <trkpt lat="46.33446" lon="5.29203">
        <ele>267.8</ele>
        <time>2022-03-29T13:24:26Z</time>
      </trkpt>
      <trkpt lat="46.3344" lon="5.29219">
        <ele>268</ele>
        <time>2022-03-29T13:24:28Z</time>
      </trkpt>
      <trkpt lat="46.33434" lon="5.29235">
        <ele>268.2</ele>
        <time>2022-03-29T13:24:30Z</time>
      </trkpt>
      <trkpt lat="46.3343" lon="5.29243">
        <ele>268.4</ele>
        <time>2022-03-29T13:24:31Z</time>
      </trkpt>
      <trkpt lat="46.33422" lon="5.29268">
        <ele>268.6</ele>
        <time>2022-03-29T13:24:34Z</time>
      </trkpt>
      <trkpt lat="46.33422" lon="5.29286">
        <ele>268.4</ele>
        <time>2022-03-29T13:24:36Z</time>
      </trkpt>
      <trkpt lat="46.33431" lon="5.293">
        <ele>268.2</ele>
        <time>2022-03-29T13:24:38Z</time>
      </trkpt>
      <trkpt lat="46.33437" lon="5.29306">
        <ele>268.2</ele>
        <time>2022-03-29T13:24:39Z</time>
      </trkpt>
      <trkpt lat="46.33487" lon="5.29338">
        <ele>268</ele>
        <time>2022-03-29T13:24:47Z</time>
      </trkpt>
      <trkpt lat="46.33541" lon="5.29359">
        <ele>268.8</ele>
        <time>2022-03-29T13:24:55Z</time>
      </trkpt>
      <trkpt lat="46.33555" lon="5.29364">
        <ele>269</ele>
        <time>2022-03-29T13:24:57Z</time>
      </trkpt>
      <trkpt lat="46.33584" lon="5.29372">
        <ele>269.4</ele>
        <time>2022-03-29T13:25:01Z</time>
      </trkpt>
      <trkpt lat="46.33607" lon="5.29375">
        <ele>269.6</ele>
        <time>2022-03-29T13:25:04Z</time>
      </trkpt>
      <trkpt lat="46.33642" lon="5.29368">
        <ele>269.2</ele>
        <time>2022-03-29T13:25:08Z</time>
      </trkpt>
      <trkpt lat="46.33651" lon="5.29368">
        <ele>269.2</ele>
        <time>2022-03-29T13:25:09Z</time>
      </trkpt>
      <trkpt lat="46.33658" lon="5.29369">
        <ele>269.2</ele>
        <time>2022-03-29T13:25:10Z</time>
      </trkpt>
      <trkpt lat="46.33676" lon="5.29377">
        <ele>268.8</ele>
        <time>2022-03-29T13:25:12Z</time>
      </trkpt>
      <trkpt lat="46.3369" lon="5.2939">
        <ele>268.6</ele>
        <time>2022-03-29T13:25:14Z</time>
      </trkpt>
      <trkpt lat="46.33696" lon="5.29399">
        <ele>268.4</ele>
        <time>2022-03-29T13:25:15Z</time>
      </trkpt>
      <trkpt lat="46.33736" lon="5.29454">
        <ele>268.4</ele>
        <time>2022-03-29T13:25:21Z</time>
      </trkpt>
      <trkpt lat="46.33757" lon="5.29478">
        <ele>268.4</ele>
        <time>2022-03-29T13:25:24Z</time>
      </trkpt>
      <trkpt lat="46.33802" lon="5.29514">
        <ele>268.2</ele>
        <time>2022-03-29T13:25:30Z</time>
      </trkpt>
      <trkpt lat="46.33819" lon="5.29519">
        <ele>268.2</ele>
        <time>2022-03-29T13:25:32Z</time>
      </trkpt>
      <trkpt lat="46.33835" lon="5.2952">
        <ele>268.2</ele>
        <time>2022-03-29T13:25:34Z</time>
      </trkpt>
      <trkpt lat="46.33896" lon="5.2952">
        <ele>267.6</ele>
        <time>2022-03-29T13:25:41Z</time>
      </trkpt>
      <trkpt lat="46.33913" lon="5.29519">
        <ele>267.4</ele>
        <time>2022-03-29T13:25:43Z</time>
      </trkpt>
      <trkpt lat="46.33938" lon="5.29513">
        <ele>267.2</ele>
        <time>2022-03-29T13:25:46Z</time>
      </trkpt>
      <trkpt lat="46.33945" lon="5.29508">
        <ele>267.2</ele>
        <time>2022-03-29T13:25:47Z</time>
      </trkpt>
      <trkpt lat="46.33951" lon="5.295">
        <ele>267.2</ele>
        <time>2022-03-29T13:25:48Z</time>
      </trkpt>
      <trkpt lat="46.3396" lon="5.29481">
        <ele>267.2</ele>
        <time>2022-03-29T13:25:50Z</time>
      </trkpt>
      <trkpt lat="46.33969" lon="5.29448">
        <ele>267.6</ele>
        <time>2022-03-29T13:25:53Z</time>
      </trkpt>
      <trkpt lat="46.33979" lon="5.29427">
        <ele>267.6</ele>
        <time>2022-03-29T13:25:55Z</time>
      </trkpt>
      <trkpt lat="46.33984" lon="5.29419">
        <ele>267.6</ele>
        <time>2022-03-29T13:25:56Z</time>
      </trkpt>
      <trkpt lat="46.33999" lon="5.29399">
        <ele>267.6</ele>
        <time>2022-03-29T13:25:58Z</time>
      </trkpt>
      <trkpt lat="46.34007" lon="5.29392">
        <ele>267.6</ele>
        <time>2022-03-29T13:25:59Z</time>
      </trkpt>
      <trkpt lat="46.34015" lon="5.29386">
        <ele>267.6</ele>
        <time>2022-03-29T13:26:00Z</time>
      </trkpt>
      <trkpt lat="46.34044" lon="5.29373">
        <ele>267</ele>
        <time>2022-03-29T13:26:03Z</time>
      </trkpt>
      <trkpt lat="46.34053" lon="5.29368">
        <ele>266.4</ele>
        <time>2022-03-29T13:26:04Z</time>
      </trkpt>
      <trkpt lat="46.34062" lon="5.29361">
        <ele>266.2</ele>
        <time>2022-03-29T13:26:05Z</time>
      </trkpt>
      <trkpt lat="46.3407" lon="5.29353">
        <ele>265.8</ele>
        <time>2022-03-29T13:26:06Z</time>
      </trkpt>
      <trkpt lat="46.34083" lon="5.29331">
        <ele>265.4</ele>
        <time>2022-03-29T13:26:08Z</time>
      </trkpt>
      <trkpt lat="46.34089" lon="5.29318">
        <ele>265.4</ele>
        <time>2022-03-29T13:26:09Z</time>
      </trkpt>
      <trkpt lat="46.341" lon="5.29295">
        <ele>265.2</ele>
        <time>2022-03-29T13:26:11Z</time>
      </trkpt>
      <trkpt lat="46.34115" lon="5.29277">
        <ele>265</ele>
        <time>2022-03-29T13:26:13Z</time>
      </trkpt>
      <trkpt lat="46.34132" lon="5.29269">
        <ele>265</ele>
        <time>2022-03-29T13:26:15Z</time>
      </trkpt>
      <trkpt lat="46.34139" lon="5.29268">
        <ele>264.8</ele>
        <time>2022-03-29T13:26:16Z</time>
      </trkpt>
      <trkpt lat="46.34194" lon="5.29262">
        <ele>264.6</ele>
        <time>2022-03-29T13:26:22Z</time>
      </trkpt>
      <trkpt lat="46.3421" lon="5.29267">
        <ele>264.6</ele>
        <time>2022-03-29T13:26:24Z</time>
      </trkpt>
      <trkpt lat="46.34216" lon="5.2927">
        <ele>264.6</ele>
        <time>2022-03-29T13:26:25Z</time>
      </trkpt>
      <trkpt lat="46.34266" lon="5.29288">
        <ele>264.8</ele>
        <time>2022-03-29T13:26:31Z</time>
      </trkpt>
      <trkpt lat="46.34321" lon="5.29307">
        <ele>265.4</ele>
        <time>2022-03-29T13:26:38Z</time>
      </trkpt>
      <trkpt lat="46.34351" lon="5.29329">
        <ele>265.6</ele>
        <time>2022-03-29T13:26:42Z</time>
      </trkpt>
      <trkpt lat="46.34358" lon="5.29333">
        <ele>265.6</ele>
        <time>2022-03-29T13:26:43Z</time>
      </trkpt>
      <trkpt lat="46.34373" lon="5.29338">
        <ele>265.8</ele>
        <time>2022-03-29T13:26:45Z</time>
      </trkpt>
      <trkpt lat="46.34394" lon="5.29345">
        <ele>266</ele>
        <time>2022-03-29T13:26:48Z</time>
      </trkpt>
      <trkpt lat="46.34402" lon="5.29349">
        <ele>266.2</ele>
        <time>2022-03-29T13:26:49Z</time>
      </trkpt>
      <trkpt lat="46.34409" lon="5.29356">
        <ele>266.6</ele>
        <time>2022-03-29T13:26:50Z</time>
      </trkpt>
      <trkpt lat="46.34416" lon="5.29363">
        <ele>266.6</ele>
        <time>2022-03-29T13:26:51Z</time>
      </trkpt>
      <trkpt lat="46.34421" lon="5.2937">
        <ele>266.8</ele>
        <time>2022-03-29T13:26:52Z</time>
      </trkpt>
      <trkpt lat="46.34434" lon="5.29396">
        <ele>267</ele>
        <time>2022-03-29T13:26:55Z</time>
      </trkpt>
      <trkpt lat="46.34458" lon="5.29437">
        <ele>267.6</ele>
        <time>2022-03-29T13:27:00Z</time>
      </trkpt>
      <trkpt lat="46.34463" lon="5.29445">
        <ele>267.6</ele>
        <time>2022-03-29T13:27:01Z</time>
      </trkpt>
      <trkpt lat="46.34471" lon="5.29464">
        <ele>267.8</ele>
        <time>2022-03-29T13:27:03Z</time>
      </trkpt>
      <trkpt lat="46.34473" lon="5.29475">
        <ele>267.8</ele>
        <time>2022-03-29T13:27:04Z</time>
      </trkpt>
      <trkpt lat="46.34472" lon="5.29486">
        <ele>267.8</ele>
        <time>2022-03-29T13:27:05Z</time>
      </trkpt>
      <trkpt lat="46.34468" lon="5.2951">
        <ele>267.6</ele>
        <time>2022-03-29T13:27:07Z</time>
      </trkpt>
      <trkpt lat="46.3446" lon="5.2956">
        <ele>267.4</ele>
        <time>2022-03-29T13:27:11Z</time>
      </trkpt>
      <trkpt lat="46.34461" lon="5.29573">
        <ele>267.4</ele>
        <time>2022-03-29T13:27:12Z</time>
      </trkpt>
      <trkpt lat="46.34463" lon="5.29583">
        <ele>267.2</ele>
        <time>2022-03-29T13:27:13Z</time>
      </trkpt>
      <trkpt lat="46.34469" lon="5.29595">
        <ele>267</ele>
        <time>2022-03-29T13:27:14Z</time>
      </trkpt>
      <trkpt lat="46.34477" lon="5.29602">
        <ele>266.8</ele>
        <time>2022-03-29T13:27:15Z</time>
      </trkpt>
      <trkpt lat="46.34486" lon="5.29604">
        <ele>266.6</ele>
        <time>2022-03-29T13:27:16Z</time>
      </trkpt>
      <trkpt lat="46.34514" lon="5.2961">
        <ele>265.4</ele>
        <time>2022-03-29T13:27:19Z</time>
      </trkpt>
      <trkpt lat="46.34541" lon="5.29615">
        <ele>264.4</ele>
        <time>2022-03-29T13:27:22Z</time>
      </trkpt>
      <trkpt lat="46.34552" lon="5.29617">
        <ele>264.2</ele>
        <time>2022-03-29T13:27:23Z</time>
      </trkpt>
      <trkpt lat="46.34609" lon="5.29626">
        <ele>263.4</ele>
        <time>2022-03-29T13:27:29Z</time>
      </trkpt>
      <trkpt lat="46.34618" lon="5.29628">
        <ele>263.4</ele>
        <time>2022-03-29T13:27:30Z</time>
      </trkpt>
      <trkpt lat="46.34672" lon="5.29638">
        <ele>263.4</ele>
        <time>2022-03-29T13:27:36Z</time>
      </trkpt>
      <trkpt lat="46.3469" lon="5.29643">
        <ele>263.4</ele>
        <time>2022-03-29T13:27:38Z</time>
      </trkpt>
      <trkpt lat="46.34707" lon="5.29646">
        <ele>263.6</ele>
        <time>2022-03-29T13:27:40Z</time>
      </trkpt>
      <trkpt lat="46.34724" lon="5.29642">
        <ele>263.8</ele>
        <time>2022-03-29T13:27:42Z</time>
      </trkpt>
      <trkpt lat="46.34755" lon="5.29624">
        <ele>264.4</ele>
        <time>2022-03-29T13:27:46Z</time>
      </trkpt>
      <trkpt lat="46.34795" lon="5.29616">
        <ele>265.2</ele>
        <time>2022-03-29T13:27:51Z</time>
      </trkpt>
      <trkpt lat="46.34837" lon="5.29619">
        <ele>266</ele>
        <time>2022-03-29T13:27:56Z</time>
      </trkpt>
      <trkpt lat="46.3487" lon="5.29633">
        <ele>266.6</ele>
        <time>2022-03-29T13:28:00Z</time>
      </trkpt>
      <trkpt lat="46.34886" lon="5.29643">
        <ele>266.6</ele>
        <time>2022-03-29T13:28:02Z</time>
      </trkpt>
      <trkpt lat="46.34917" lon="5.29663">
        <ele>266.8</ele>
        <time>2022-03-29T13:28:06Z</time>
      </trkpt>
      <trkpt lat="46.34934" lon="5.29666">
        <ele>266.8</ele>
        <time>2022-03-29T13:28:08Z</time>
      </trkpt>
      <trkpt lat="46.34951" lon="5.29657">
        <ele>266.6</ele>
        <time>2022-03-29T13:28:10Z</time>
      </trkpt>
      <trkpt lat="46.34958" lon="5.2965">
        <ele>266.6</ele>
        <time>2022-03-29T13:28:11Z</time>
      </trkpt>
      <trkpt lat="46.34973" lon="5.29639">
        <ele>266.4</ele>
        <time>2022-03-29T13:28:13Z</time>
      </trkpt>
      <trkpt lat="46.3499" lon="5.29635">
        <ele>266.6</ele>
        <time>2022-03-29T13:28:15Z</time>
      </trkpt>
      <trkpt lat="46.35034" lon="5.29641">
        <ele>266.4</ele>
        <time>2022-03-29T13:28:20Z</time>
      </trkpt>
      <trkpt lat="46.35063" lon="5.29656">
        <ele>266.2</ele>
        <time>2022-03-29T13:28:23Z</time>
      </trkpt>
      <trkpt lat="46.35073" lon="5.29659">
        <ele>266</ele>
        <time>2022-03-29T13:28:24Z</time>
      </trkpt>
      <trkpt lat="46.35093" lon="5.29663">
        <ele>265.4</ele>
        <time>2022-03-29T13:28:26Z</time>
      </trkpt>
      <trkpt lat="46.35113" lon="5.29662">
        <ele>264.8</ele>
        <time>2022-03-29T13:28:28Z</time>
      </trkpt>
      <trkpt lat="46.35143" lon="5.29659">
        <ele>264.4</ele>
        <time>2022-03-29T13:28:31Z</time>
      </trkpt>
      <trkpt lat="46.35199" lon="5.29651">
        <ele>264.4</ele>
        <time>2022-03-29T13:28:37Z</time>
      </trkpt>
      <trkpt lat="46.35253" lon="5.29644">
        <ele>265.2</ele>
        <time>2022-03-29T13:28:43Z</time>
      </trkpt>
      <trkpt lat="46.35262" lon="5.29644">
        <ele>265.6</ele>
        <time>2022-03-29T13:28:44Z</time>
      </trkpt>
      <trkpt lat="46.35307" lon="5.2965">
        <ele>266.2</ele>
        <time>2022-03-29T13:28:49Z</time>
      </trkpt>
      <trkpt lat="46.35324" lon="5.29653">
        <ele>266.6</ele>
        <time>2022-03-29T13:28:51Z</time>
      </trkpt>
      <trkpt lat="46.35376" lon="5.29669">
        <ele>267.4</ele>
        <time>2022-03-29T13:28:57Z</time>
      </trkpt>
      <trkpt lat="46.35402" lon="5.29678">
        <ele>267.4</ele>
        <time>2022-03-29T13:29:00Z</time>
      </trkpt>
      <trkpt lat="46.35418" lon="5.29682">
        <ele>267.4</ele>
        <time>2022-03-29T13:29:02Z</time>
      </trkpt>
      <trkpt lat="46.35459" lon="5.29696">
        <ele>267</ele>
        <time>2022-03-29T13:29:07Z</time>
      </trkpt>
      <trkpt lat="46.35466" lon="5.29697">
        <ele>267</ele>
        <time>2022-03-29T13:29:08Z</time>
      </trkpt>
      <trkpt lat="46.35482" lon="5.29692">
        <ele>266.8</ele>
        <time>2022-03-29T13:29:10Z</time>
      </trkpt>
      <trkpt lat="46.35492" lon="5.29678">
        <ele>266.2</ele>
        <time>2022-03-29T13:29:12Z</time>
      </trkpt>
      <trkpt lat="46.35498" lon="5.29669">
        <ele>266.2</ele>
        <time>2022-03-29T13:29:13Z</time>
      </trkpt>
      <trkpt lat="46.35504" lon="5.29661">
        <ele>265.8</ele>
        <time>2022-03-29T13:29:14Z</time>
      </trkpt>
      <trkpt lat="46.35519" lon="5.29653">
        <ele>265.6</ele>
        <time>2022-03-29T13:29:16Z</time>
      </trkpt>
      <trkpt lat="46.35529" lon="5.29651">
        <ele>265.6</ele>
        <time>2022-03-29T13:29:17Z</time>
      </trkpt>
      <trkpt lat="46.35565" lon="5.29643">
        <ele>265.6</ele>
        <time>2022-03-29T13:29:21Z</time>
      </trkpt>
      <trkpt lat="46.35619" lon="5.29617">
        <ele>266.6</ele>
        <time>2022-03-29T13:29:27Z</time>
      </trkpt>
      <trkpt lat="46.35628" lon="5.29612">
        <ele>266.8</ele>
        <time>2022-03-29T13:29:28Z</time>
      </trkpt>
      <trkpt lat="46.35663" lon="5.2959">
        <ele>267</ele>
        <time>2022-03-29T13:29:32Z</time>
      </trkpt>
      <trkpt lat="46.35671" lon="5.29583">
        <ele>267</ele>
        <time>2022-03-29T13:29:33Z</time>
      </trkpt>
      <trkpt lat="46.35714" lon="5.29549">
        <ele>267</ele>
        <time>2022-03-29T13:29:38Z</time>
      </trkpt>
      <trkpt lat="46.35751" lon="5.29543">
        <ele>266.8</ele>
        <time>2022-03-29T13:29:42Z</time>
      </trkpt>
      <trkpt lat="46.3581" lon="5.29543">
        <ele>266.2</ele>
        <time>2022-03-29T13:29:48Z</time>
      </trkpt>
      <trkpt lat="46.35852" lon="5.29546">
        <ele>266</ele>
        <time>2022-03-29T13:29:52Z</time>
      </trkpt>
      <trkpt lat="46.35873" lon="5.29549">
        <ele>265.4</ele>
        <time>2022-03-29T13:29:54Z</time>
      </trkpt>
      <trkpt lat="46.35913" lon="5.29553">
        <ele>264.8</ele>
        <time>2022-03-29T13:29:58Z</time>
      </trkpt>
      <trkpt lat="46.35935" lon="5.29553">
        <ele>264.2</ele>
        <time>2022-03-29T13:30:00Z</time>
      </trkpt>
      <trkpt lat="46.35968" lon="5.2955">
        <ele>262.8</ele>
        <time>2022-03-29T13:30:03Z</time>
      </trkpt>
      <trkpt lat="46.3601" lon="5.29546">
        <ele>261.8</ele>
        <time>2022-03-29T13:30:07Z</time>
      </trkpt>
      <trkpt lat="46.36021" lon="5.29544">
        <ele>261.8</ele>
        <time>2022-03-29T13:30:08Z</time>
      </trkpt>
      <trkpt lat="46.36079" lon="5.29538">
        <ele>261.6</ele>
        <time>2022-03-29T13:30:14Z</time>
      </trkpt>
      <trkpt lat="46.3613" lon="5.29532">
        <ele>261.8</ele>
        <time>2022-03-29T13:30:20Z</time>
      </trkpt>
      <trkpt lat="46.36168" lon="5.29522">
        <ele>261.8</ele>
        <time>2022-03-29T13:30:25Z</time>
      </trkpt>
      <trkpt lat="46.36175" lon="5.29519">
        <ele>261.8</ele>
        <time>2022-03-29T13:30:26Z</time>
      </trkpt>
      <trkpt lat="46.36193" lon="5.29504">
        <ele>262</ele>
        <time>2022-03-29T13:30:29Z</time>
      </trkpt>
      <trkpt lat="46.36228" lon="5.29474">
        <ele>262.8</ele>
        <time>2022-03-29T13:30:34Z</time>
      </trkpt>
      <trkpt lat="46.36245" lon="5.29467">
        <ele>262.8</ele>
        <time>2022-03-29T13:30:36Z</time>
      </trkpt>
      <trkpt lat="46.36255" lon="5.29467">
        <ele>262.6</ele>
        <time>2022-03-29T13:30:37Z</time>
      </trkpt>
      <trkpt lat="46.36263" lon="5.29468">
        <ele>262.4</ele>
        <time>2022-03-29T13:30:38Z</time>
      </trkpt>
      <trkpt lat="46.36291" lon="5.29479">
        <ele>261.6</ele>
        <time>2022-03-29T13:30:41Z</time>
      </trkpt>
      <trkpt lat="46.36329" lon="5.29507">
        <ele>261</ele>
        <time>2022-03-29T13:30:46Z</time>
      </trkpt>
      <trkpt lat="46.36353" lon="5.29537">
        <ele>261.4</ele>
        <time>2022-03-29T13:30:50Z</time>
      </trkpt>
      <trkpt lat="46.36358" lon="5.29546">
        <ele>262</ele>
        <time>2022-03-29T13:30:51Z</time>
      </trkpt>
      <trkpt lat="46.36378" lon="5.29584">
        <ele>263.2</ele>
        <time>2022-03-29T13:30:55Z</time>
      </trkpt>
      <trkpt lat="46.36405" lon="5.29615">
        <ele>263.8</ele>
        <time>2022-03-29T13:30:59Z</time>
      </trkpt>
      <trkpt lat="46.36454" lon="5.29652">
        <ele>263.8</ele>
        <time>2022-03-29T13:31:05Z</time>
      </trkpt>
      <trkpt lat="46.36505" lon="5.29682">
        <ele>263</ele>
        <time>2022-03-29T13:31:11Z</time>
      </trkpt>
      <trkpt lat="46.36559" lon="5.29701">
        <ele>262.4</ele>
        <time>2022-03-29T13:31:17Z</time>
      </trkpt>
      <trkpt lat="46.36594" lon="5.29717">
        <ele>262.2</ele>
        <time>2022-03-29T13:31:21Z</time>
      </trkpt>
      <trkpt lat="46.36649" lon="5.29744">
        <ele>262.4</ele>
        <time>2022-03-29T13:31:27Z</time>
      </trkpt>
      <trkpt lat="46.36656" lon="5.29748">
        <ele>262.4</ele>
        <time>2022-03-29T13:31:28Z</time>
      </trkpt>
      <trkpt lat="46.36684" lon="5.29764">
        <ele>262</ele>
        <time>2022-03-29T13:31:31Z</time>
      </trkpt>
      <trkpt lat="46.36733" lon="5.29803">
        <ele>261.6</ele>
        <time>2022-03-29T13:31:37Z</time>
      </trkpt>
      <trkpt lat="46.36782" lon="5.29834">
        <ele>262</ele>
        <time>2022-03-29T13:31:43Z</time>
      </trkpt>
      <trkpt lat="46.36806" lon="5.29845">
        <ele>262.2</ele>
        <time>2022-03-29T13:31:46Z</time>
      </trkpt>
      <trkpt lat="46.36823" lon="5.29846">
        <ele>262.4</ele>
        <time>2022-03-29T13:31:48Z</time>
      </trkpt>
      <trkpt lat="46.36864" lon="5.29833">
        <ele>263.4</ele>
        <time>2022-03-29T13:31:53Z</time>
      </trkpt>
      <trkpt lat="46.36873" lon="5.2983">
        <ele>263.6</ele>
        <time>2022-03-29T13:31:54Z</time>
      </trkpt>
      <trkpt lat="46.36919" lon="5.29817">
        <ele>263.8</ele>
        <time>2022-03-29T13:31:59Z</time>
      </trkpt>
      <trkpt lat="46.36939" lon="5.29814">
        <ele>263.6</ele>
        <time>2022-03-29T13:32:01Z</time>
      </trkpt>
      <trkpt lat="46.36961" lon="5.29818">
        <ele>262.8</ele>
        <time>2022-03-29T13:32:03Z</time>
      </trkpt>
      <trkpt lat="46.36972" lon="5.29821">
        <ele>262.6</ele>
        <time>2022-03-29T13:32:04Z</time>
      </trkpt>
      <trkpt lat="46.36983" lon="5.29822">
        <ele>261.8</ele>
        <time>2022-03-29T13:32:05Z</time>
      </trkpt>
      <trkpt lat="46.36994" lon="5.29822">
        <ele>261</ele>
        <time>2022-03-29T13:32:06Z</time>
      </trkpt>
      <trkpt lat="46.37006" lon="5.29822">
        <ele>260.6</ele>
        <time>2022-03-29T13:32:07Z</time>
      </trkpt>
      <trkpt lat="46.37018" lon="5.29825">
        <ele>259.2</ele>
        <time>2022-03-29T13:32:08Z</time>
      </trkpt>
      <trkpt lat="46.37029" lon="5.29829">
        <ele>259</ele>
        <time>2022-03-29T13:32:09Z</time>
      </trkpt>
      <trkpt lat="46.3704" lon="5.29836">
        <ele>258.2</ele>
        <time>2022-03-29T13:32:10Z</time>
      </trkpt>
      <trkpt lat="46.37069" lon="5.29857">
        <ele>257</ele>
        <time>2022-03-29T13:32:13Z</time>
      </trkpt>
      <trkpt lat="46.37088" lon="5.29872">
        <ele>256.8</ele>
        <time>2022-03-29T13:32:15Z</time>
      </trkpt>
      <trkpt lat="46.3713" lon="5.29903">
        <ele>257.6</ele>
        <time>2022-03-29T13:32:20Z</time>
      </trkpt>
      <trkpt lat="46.37153" lon="5.2992">
        <ele>258.4</ele>
        <time>2022-03-29T13:32:23Z</time>
      </trkpt>
      <trkpt lat="46.37176" lon="5.29933">
        <ele>259.4</ele>
        <time>2022-03-29T13:32:26Z</time>
      </trkpt>
      <trkpt lat="46.37193" lon="5.29934">
        <ele>260.6</ele>
        <time>2022-03-29T13:32:28Z</time>
      </trkpt>
      <trkpt lat="46.37201" lon="5.29932">
        <ele>261</ele>
        <time>2022-03-29T13:32:29Z</time>
      </trkpt>
      <trkpt lat="46.37251" lon="5.29913">
        <ele>261.4</ele>
        <time>2022-03-29T13:32:35Z</time>
      </trkpt>
      <trkpt lat="46.37281" lon="5.29908">
        <ele>261</ele>
        <time>2022-03-29T13:32:38Z</time>
      </trkpt>
      <trkpt lat="46.37291" lon="5.2991">
        <ele>260.8</ele>
        <time>2022-03-29T13:32:39Z</time>
      </trkpt>
      <trkpt lat="46.37299" lon="5.29914">
        <ele>260.6</ele>
        <time>2022-03-29T13:32:40Z</time>
      </trkpt>
      <trkpt lat="46.37306" lon="5.2992">
        <ele>260.4</ele>
        <time>2022-03-29T13:32:41Z</time>
      </trkpt>
      <trkpt lat="46.37312" lon="5.29929">
        <ele>259.8</ele>
        <time>2022-03-29T13:32:42Z</time>
      </trkpt>
      <trkpt lat="46.37315" lon="5.29939">
        <ele>259.2</ele>
        <time>2022-03-29T13:32:43Z</time>
      </trkpt>
      <trkpt lat="46.37315" lon="5.2996">
        <ele>258</ele>
        <time>2022-03-29T13:32:45Z</time>
      </trkpt>
      <trkpt lat="46.37304" lon="5.29979">
        <ele>256.6</ele>
        <time>2022-03-29T13:32:47Z</time>
      </trkpt>
      <trkpt lat="46.37284" lon="5.29991">
        <ele>255.8</ele>
        <time>2022-03-29T13:32:49Z</time>
      </trkpt>
      <trkpt lat="46.37275" lon="5.30001">
        <ele>255.2</ele>
        <time>2022-03-29T13:32:50Z</time>
      </trkpt>
      <trkpt lat="46.37268" lon="5.30012">
        <ele>254.6</ele>
        <time>2022-03-29T13:32:51Z</time>
      </trkpt>
      <trkpt lat="46.37264" lon="5.30025">
        <ele>253.8</ele>
        <time>2022-03-29T13:32:52Z</time>
      </trkpt>
      <trkpt lat="46.37262" lon="5.3004">
        <ele>253.4</ele>
        <time>2022-03-29T13:32:53Z</time>
      </trkpt>
      <trkpt lat="46.37262" lon="5.30055">
        <ele>252.6</ele>
        <time>2022-03-29T13:32:54Z</time>
      </trkpt>
      <trkpt lat="46.37263" lon="5.30101">
        <ele>251</ele>
        <time>2022-03-29T13:32:57Z</time>
      </trkpt>
      <trkpt lat="46.37262" lon="5.30116">
        <ele>250.8</ele>
        <time>2022-03-29T13:32:58Z</time>
      </trkpt>
      <trkpt lat="46.3726" lon="5.30146">
        <ele>250</ele>
        <time>2022-03-29T13:33:00Z</time>
      </trkpt>
      <trkpt lat="46.37256" lon="5.3016">
        <ele>249.2</ele>
        <time>2022-03-29T13:33:01Z</time>
      </trkpt>
      <trkpt lat="46.3725" lon="5.30173">
        <ele>249</ele>
        <time>2022-03-29T13:33:02Z</time>
      </trkpt>
      <trkpt lat="46.37242" lon="5.30182">
        <ele>248.4</ele>
        <time>2022-03-29T13:33:03Z</time>
      </trkpt>
      <trkpt lat="46.37232" lon="5.30189">
        <ele>247.4</ele>
        <time>2022-03-29T13:33:04Z</time>
      </trkpt>
      <trkpt lat="46.37211" lon="5.302">
        <ele>246</ele>
        <time>2022-03-29T13:33:06Z</time>
      </trkpt>
      <trkpt lat="46.37169" lon="5.30223">
        <ele>244.6</ele>
        <time>2022-03-29T13:33:10Z</time>
      </trkpt>
      <trkpt lat="46.3716" lon="5.30232">
        <ele>244.2</ele>
        <time>2022-03-29T13:33:11Z</time>
      </trkpt>
      <trkpt lat="46.37151" lon="5.30243">
        <ele>243.6</ele>
        <time>2022-03-29T13:33:12Z</time>
      </trkpt>
      <trkpt lat="46.37144" lon="5.30256">
        <ele>243.2</ele>
        <time>2022-03-29T13:33:13Z</time>
      </trkpt>
      <trkpt lat="46.37139" lon="5.3027">
        <ele>243</ele>
        <time>2022-03-29T13:33:14Z</time>
      </trkpt>
      <trkpt lat="46.37135" lon="5.30286">
        <ele>241.8</ele>
        <time>2022-03-29T13:33:15Z</time>
      </trkpt>
      <trkpt lat="46.37134" lon="5.30301">
        <ele>241.6</ele>
        <time>2022-03-29T13:33:16Z</time>
      </trkpt>
      <trkpt lat="46.37132" lon="5.30317">
        <ele>240.8</ele>
        <time>2022-03-29T13:33:17Z</time>
      </trkpt>
      <trkpt lat="46.37129" lon="5.30363">
        <ele>239.8</ele>
        <time>2022-03-29T13:33:20Z</time>
      </trkpt>
      <trkpt lat="46.37125" lon="5.30421">
        <ele>238.2</ele>
        <time>2022-03-29T13:33:24Z</time>
      </trkpt>
      <trkpt lat="46.37119" lon="5.30504">
        <ele>237.4</ele>
        <time>2022-03-29T13:33:30Z</time>
      </trkpt>
      <trkpt lat="46.37117" lon="5.30517">
        <ele>237</ele>
        <time>2022-03-29T13:33:31Z</time>
      </trkpt>
      <trkpt lat="46.37114" lon="5.30593">
        <ele>236.8</ele>
        <time>2022-03-29T13:33:37Z</time>
      </trkpt>
      <trkpt lat="46.37122" lon="5.30652">
        <ele>236.6</ele>
        <time>2022-03-29T13:33:42Z</time>
      </trkpt>
      <trkpt lat="46.37143" lon="5.30729">
        <ele>236.8</ele>
        <time>2022-03-29T13:33:49Z</time>
      </trkpt>
      <trkpt lat="46.37147" lon="5.30739">
        <ele>236.6</ele>
        <time>2022-03-29T13:33:50Z</time>
      </trkpt>
      <trkpt lat="46.37171" lon="5.30798">
        <ele>236.8</ele>
        <time>2022-03-29T13:33:56Z</time>
      </trkpt>
      <trkpt lat="46.37202" lon="5.30851">
        <ele>236.8</ele>
        <time>2022-03-29T13:34:02Z</time>
      </trkpt>
      <trkpt lat="46.37241" lon="5.30908">
        <ele>236.6</ele>
        <time>2022-03-29T13:34:09Z</time>
      </trkpt>
      <trkpt lat="46.37246" lon="5.30916">
        <ele>236.4</ele>
        <time>2022-03-29T13:34:10Z</time>
      </trkpt>
      <trkpt lat="46.37257" lon="5.30931">
        <ele>236.2</ele>
        <time>2022-03-29T13:34:12Z</time>
      </trkpt>
      <trkpt lat="46.37297" lon="5.30987">
        <ele>236</ele>
        <time>2022-03-29T13:34:19Z</time>
      </trkpt>
      <trkpt lat="46.37337" lon="5.31045">
        <ele>236.2</ele>
        <time>2022-03-29T13:34:26Z</time>
      </trkpt>
      <trkpt lat="46.37361" lon="5.3108">
        <ele>236</ele>
        <time>2022-03-29T13:34:30Z</time>
      </trkpt>
      <trkpt lat="46.37404" lon="5.31144">
        <ele>236.4</ele>
        <time>2022-03-29T13:34:38Z</time>
      </trkpt>
      <trkpt lat="46.37419" lon="5.31168">
        <ele>236.8</ele>
        <time>2022-03-29T13:34:41Z</time>
      </trkpt>
      <trkpt lat="46.37457" lon="5.31222">
        <ele>237.4</ele>
        <time>2022-03-29T13:34:48Z</time>
      </trkpt>
      <trkpt lat="46.3748" lon="5.31255">
        <ele>237.6</ele>
        <time>2022-03-29T13:34:52Z</time>
      </trkpt>
      <trkpt lat="46.37521" lon="5.31313">
        <ele>237.8</ele>
        <time>2022-03-29T13:34:59Z</time>
      </trkpt>
      <trkpt lat="46.37531" lon="5.31329">
        <ele>238</ele>
        <time>2022-03-29T13:35:01Z</time>
      </trkpt>
      <trkpt lat="46.37558" lon="5.31371">
        <ele>238.2</ele>
        <time>2022-03-29T13:35:06Z</time>
      </trkpt>
      <trkpt lat="46.37599" lon="5.31429">
        <ele>238</ele>
        <time>2022-03-29T13:35:13Z</time>
      </trkpt>
      <trkpt lat="46.37623" lon="5.31463">
        <ele>238</ele>
        <time>2022-03-29T13:35:17Z</time>
      </trkpt>
      <trkpt lat="46.37665" lon="5.31523">
        <ele>238</ele>
        <time>2022-03-29T13:35:24Z</time>
      </trkpt>
      <trkpt lat="46.37671" lon="5.31531">
        <ele>238</ele>
        <time>2022-03-29T13:35:25Z</time>
      </trkpt>
      <trkpt lat="46.3771" lon="5.31589">
        <ele>238</ele>
        <time>2022-03-29T13:35:32Z</time>
      </trkpt>
      <trkpt lat="46.37721" lon="5.31605">
        <ele>238</ele>
        <time>2022-03-29T13:35:34Z</time>
      </trkpt>
      <trkpt lat="46.37757" lon="5.31661">
        <ele>238.2</ele>
        <time>2022-03-29T13:35:41Z</time>
      </trkpt>
      <trkpt lat="46.37778" lon="5.31692">
        <ele>238.6</ele>
        <time>2022-03-29T13:35:45Z</time>
      </trkpt>
      <trkpt lat="46.37794" lon="5.31717">
        <ele>238.8</ele>
        <time>2022-03-29T13:35:48Z</time>
      </trkpt>
      <trkpt lat="46.37834" lon="5.31773">
        <ele>239.2</ele>
        <time>2022-03-29T13:35:55Z</time>
      </trkpt>
      <trkpt lat="46.37845" lon="5.31789">
        <ele>239.4</ele>
        <time>2022-03-29T13:35:57Z</time>
      </trkpt>
      <trkpt lat="46.37857" lon="5.31805">
        <ele>239.6</ele>
        <time>2022-03-29T13:35:59Z</time>
      </trkpt>
      <trkpt lat="46.37897" lon="5.31861">
        <ele>239.8</ele>
        <time>2022-03-29T13:36:06Z</time>
      </trkpt>
      <trkpt lat="46.37903" lon="5.3187">
        <ele>240</ele>
        <time>2022-03-29T13:36:07Z</time>
      </trkpt>
      <trkpt lat="46.37928" lon="5.31923">
        <ele>240.6</ele>
        <time>2022-03-29T13:36:13Z</time>
      </trkpt>
      <trkpt lat="46.37946" lon="5.31988">
        <ele>240.6</ele>
        <time>2022-03-29T13:36:19Z</time>
      </trkpt>
      <trkpt lat="46.37956" lon="5.32021">
        <ele>240.4</ele>
        <time>2022-03-29T13:36:22Z</time>
      </trkpt>
      <trkpt lat="46.37968" lon="5.32051">
        <ele>240.4</ele>
        <time>2022-03-29T13:36:25Z</time>
      </trkpt>
      <trkpt lat="46.37992" lon="5.32093">
        <ele>240.4</ele>
        <time>2022-03-29T13:36:30Z</time>
      </trkpt>
      <trkpt lat="46.38023" lon="5.32151">
        <ele>240.6</ele>
        <time>2022-03-29T13:36:37Z</time>
      </trkpt>
      <trkpt lat="46.38034" lon="5.32185">
        <ele>240.8</ele>
        <time>2022-03-29T13:36:41Z</time>
      </trkpt>
      <trkpt lat="46.38036" lon="5.32194">
        <ele>241</ele>
        <time>2022-03-29T13:36:42Z</time>
      </trkpt>
      <trkpt lat="46.38044" lon="5.32229">
        <ele>241.8</ele>
        <time>2022-03-29T13:36:46Z</time>
      </trkpt>
      <trkpt lat="46.38048" lon="5.32247">
        <ele>242.2</ele>
        <time>2022-03-29T13:36:48Z</time>
      </trkpt>
      <trkpt lat="46.38051" lon="5.32255">
        <ele>242.4</ele>
        <time>2022-03-29T13:36:49Z</time>
      </trkpt>
      <trkpt lat="46.3806" lon="5.32267">
        <ele>242.6</ele>
        <time>2022-03-29T13:36:51Z</time>
      </trkpt>
      <trkpt lat="46.38079" lon="5.32284">
        <ele>242.6</ele>
        <time>2022-03-29T13:36:54Z</time>
      </trkpt>
      <trkpt lat="46.38092" lon="5.323">
        <ele>242.4</ele>
        <time>2022-03-29T13:36:56Z</time>
      </trkpt>
      <trkpt lat="46.38116" lon="5.3235">
        <ele>241.2</ele>
        <time>2022-03-29T13:37:01Z</time>
      </trkpt>
      <trkpt lat="46.38141" lon="5.32384">
        <ele>241</ele>
        <time>2022-03-29T13:37:05Z</time>
      </trkpt>
      <trkpt lat="46.38147" lon="5.32389">
        <ele>241</ele>
        <time>2022-03-29T13:37:06Z</time>
      </trkpt>
      <trkpt lat="46.38197" lon="5.32435">
        <ele>241</ele>
        <time>2022-03-29T13:37:13Z</time>
      </trkpt>
      <trkpt lat="46.38217" lon="5.32455">
        <ele>241</ele>
        <time>2022-03-29T13:37:16Z</time>
      </trkpt>
      <trkpt lat="46.38231" lon="5.32466">
        <ele>241</ele>
        <time>2022-03-29T13:37:18Z</time>
      </trkpt>
      <trkpt lat="46.38245" lon="5.32472">
        <ele>241</ele>
        <time>2022-03-29T13:37:20Z</time>
      </trkpt>
      <trkpt lat="46.38293" lon="5.32479">
        <ele>241</ele>
        <time>2022-03-29T13:37:26Z</time>
      </trkpt>
      <trkpt lat="46.38349" lon="5.325">
        <ele>241.2</ele>
        <time>2022-03-29T13:37:33Z</time>
      </trkpt>
      <trkpt lat="46.38357" lon="5.32503">
        <ele>241.2</ele>
        <time>2022-03-29T13:37:34Z</time>
      </trkpt>
      <trkpt lat="46.38374" lon="5.32507">
        <ele>241.4</ele>
        <time>2022-03-29T13:37:36Z</time>
      </trkpt>
      <trkpt lat="46.38388" lon="5.32504">
        <ele>241.4</ele>
        <time>2022-03-29T13:37:38Z</time>
      </trkpt>
      <trkpt lat="46.38402" lon="5.3249">
        <ele>241.4</ele>
        <time>2022-03-29T13:37:40Z</time>
      </trkpt>
      <trkpt lat="46.38406" lon="5.32483">
        <ele>241.4</ele>
        <time>2022-03-29T13:37:41Z</time>
      </trkpt>
      <trkpt lat="46.38409" lon="5.32473">
        <ele>241.4</ele>
        <time>2022-03-29T13:37:42Z</time>
      </trkpt>
      <trkpt lat="46.38413" lon="5.32451">
        <ele>241.6</ele>
        <time>2022-03-29T13:37:44Z</time>
      </trkpt>
      <trkpt lat="46.38419" lon="5.32419">
        <ele>241.6</ele>
        <time>2022-03-29T13:37:47Z</time>
      </trkpt>
      <trkpt lat="46.38428" lon="5.32399">
        <ele>241.8</ele>
        <time>2022-03-29T13:37:49Z</time>
      </trkpt>
      <trkpt lat="46.38437" lon="5.32383">
        <ele>241.8</ele>
        <time>2022-03-29T13:37:51Z</time>
      </trkpt>
      <trkpt lat="46.38452" lon="5.32371">
        <ele>241.8</ele>
        <time>2022-03-29T13:37:53Z</time>
      </trkpt>
      <trkpt lat="46.38469" lon="5.3237">
        <ele>242</ele>
        <time>2022-03-29T13:37:55Z</time>
      </trkpt>
      <trkpt lat="46.38477" lon="5.32373">
        <ele>242</ele>
        <time>2022-03-29T13:37:56Z</time>
      </trkpt>
      <trkpt lat="46.38492" lon="5.32381">
        <ele>242</ele>
        <time>2022-03-29T13:37:58Z</time>
      </trkpt>
      <trkpt lat="46.38505" lon="5.32394">
        <ele>242.2</ele>
        <time>2022-03-29T13:38:00Z</time>
      </trkpt>
      <trkpt lat="46.38544" lon="5.32434">
        <ele>242.2</ele>
        <time>2022-03-29T13:38:06Z</time>
      </trkpt>
      <trkpt lat="46.38592" lon="5.32481">
        <ele>242</ele>
        <time>2022-03-29T13:38:13Z</time>
      </trkpt>
      <trkpt lat="46.38597" lon="5.32486">
        <ele>242</ele>
        <time>2022-03-29T13:38:14Z</time>
      </trkpt>
      <trkpt lat="46.38626" lon="5.32508">
        <ele>243</ele>
        <time>2022-03-29T13:38:18Z</time>
      </trkpt>
      <trkpt lat="46.38639" lon="5.32519">
        <ele>243.4</ele>
        <time>2022-03-29T13:38:20Z</time>
      </trkpt>
      <trkpt lat="46.38682" lon="5.32559">
        <ele>244</ele>
        <time>2022-03-29T13:38:27Z</time>
      </trkpt>
      <trkpt lat="46.38725" lon="5.326">
        <ele>244.4</ele>
        <time>2022-03-29T13:38:34Z</time>
      </trkpt>
      <trkpt lat="46.38774" lon="5.32638">
        <ele>244.6</ele>
        <time>2022-03-29T13:38:42Z</time>
      </trkpt>
      <trkpt lat="46.38779" lon="5.32642">
        <ele>244.6</ele>
        <time>2022-03-29T13:38:43Z</time>
      </trkpt>
      <trkpt lat="46.38789" lon="5.32657">
        <ele>244.4</ele>
        <time>2022-03-29T13:38:45Z</time>
      </trkpt>
      <trkpt lat="46.38791" lon="5.32667">
        <ele>244.4</ele>
        <time>2022-03-29T13:38:46Z</time>
      </trkpt>
      <trkpt lat="46.38791" lon="5.32676">
        <ele>244.4</ele>
        <time>2022-03-29T13:38:47Z</time>
      </trkpt>
      <trkpt lat="46.38791" lon="5.32712">
        <ele>244.4</ele>
        <time>2022-03-29T13:38:50Z</time>
      </trkpt>
      <trkpt lat="46.3879" lon="5.32724">
        <ele>244.4</ele>
        <time>2022-03-29T13:38:51Z</time>
      </trkpt>
      <trkpt lat="46.38783" lon="5.32759">
        <ele>244.2</ele>
        <time>2022-03-29T13:38:54Z</time>
      </trkpt>
      <trkpt lat="46.38766" lon="5.32816">
        <ele>244.4</ele>
        <time>2022-03-29T13:39:00Z</time>
      </trkpt>
      <trkpt lat="46.38762" lon="5.32868">
        <ele>244.4</ele>
        <time>2022-03-29T13:39:05Z</time>
      </trkpt>
      <trkpt lat="46.38763" lon="5.3288">
        <ele>244.6</ele>
        <time>2022-03-29T13:39:06Z</time>
      </trkpt>
      <trkpt lat="46.38768" lon="5.32899">
        <ele>244.6</ele>
        <time>2022-03-29T13:39:08Z</time>
      </trkpt>
      <trkpt lat="46.38771" lon="5.32905">
        <ele>244.8</ele>
        <time>2022-03-29T13:39:09Z</time>
      </trkpt>
      <trkpt lat="46.38776" lon="5.32911">
        <ele>244.6</ele>
        <time>2022-03-29T13:39:10Z</time>
      </trkpt>
      <trkpt lat="46.3879" lon="5.32919">
        <ele>244.8</ele>
        <time>2022-03-29T13:39:12Z</time>
      </trkpt>
      <trkpt lat="46.38832" lon="5.32935">
        <ele>245</ele>
        <time>2022-03-29T13:39:18Z</time>
      </trkpt>
      <trkpt lat="46.38886" lon="5.32955">
        <ele>244.8</ele>
        <time>2022-03-29T13:39:25Z</time>
      </trkpt>
      <trkpt lat="46.38914" lon="5.32966">
        <ele>245</ele>
        <time>2022-03-29T13:39:29Z</time>
      </trkpt>
      <trkpt lat="46.38934" lon="5.32974">
        <ele>245.2</ele>
        <time>2022-03-29T13:39:32Z</time>
      </trkpt>
      <trkpt lat="46.3895" lon="5.32979">
        <ele>245.6</ele>
        <time>2022-03-29T13:39:34Z</time>
      </trkpt>
      <trkpt lat="46.38997" lon="5.32995">
        <ele>246.2</ele>
        <time>2022-03-29T13:39:41Z</time>
      </trkpt>
      <trkpt lat="46.39012" lon="5.33">
        <ele>246.2</ele>
        <time>2022-03-29T13:39:43Z</time>
      </trkpt>
      <trkpt lat="46.39045" lon="5.33011">
        <ele>246.4</ele>
        <time>2022-03-29T13:39:48Z</time>
      </trkpt>
      <trkpt lat="46.39096" lon="5.33025">
        <ele>246.6</ele>
        <time>2022-03-29T13:39:55Z</time>
      </trkpt>
      <trkpt lat="46.39105" lon="5.33025">
        <ele>246.6</ele>
        <time>2022-03-29T13:39:56Z</time>
      </trkpt>
      <trkpt lat="46.39127" lon="5.3302">
        <ele>246.4</ele>
        <time>2022-03-29T13:39:59Z</time>
      </trkpt>
      <trkpt lat="46.39182" lon="5.33003">
        <ele>246.4</ele>
        <time>2022-03-29T13:40:06Z</time>
      </trkpt>
      <trkpt lat="46.39198" lon="5.32997">
        <ele>246.4</ele>
        <time>2022-03-29T13:40:08Z</time>
      </trkpt>
      <trkpt lat="46.39257" lon="5.32972">
        <ele>246.8</ele>
        <time>2022-03-29T13:40:16Z</time>
      </trkpt>
      <trkpt lat="46.39272" lon="5.32965">
        <ele>246.8</ele>
        <time>2022-03-29T13:40:18Z</time>
      </trkpt>
      <trkpt lat="46.39319" lon="5.32941">
        <ele>247.4</ele>
        <time>2022-03-29T13:40:25Z</time>
      </trkpt>
      <trkpt lat="46.39327" lon="5.32937">
        <ele>247.4</ele>
        <time>2022-03-29T13:40:26Z</time>
      </trkpt>
      <trkpt lat="46.39344" lon="5.32928">
        <ele>247.6</ele>
        <time>2022-03-29T13:40:29Z</time>
      </trkpt>
      <trkpt lat="46.39351" lon="5.32917">
        <ele>247.6</ele>
        <time>2022-03-29T13:40:31Z</time>
      </trkpt>
      <trkpt lat="46.39358" lon="5.32896">
        <ele>248.2</ele>
        <time>2022-03-29T13:40:34Z</time>
      </trkpt>
      <trkpt lat="46.39361" lon="5.3289">
        <ele>248.4</ele>
        <time>2022-03-29T13:40:35Z</time>
      </trkpt>
      <trkpt lat="46.39365" lon="5.32885">
        <ele>248.6</ele>
        <time>2022-03-29T13:40:36Z</time>
      </trkpt>
      <trkpt lat="46.39374" lon="5.32887">
        <ele>249.2</ele>
        <time>2022-03-29T13:40:38Z</time>
      </trkpt>
      <trkpt lat="46.39379" lon="5.32892">
        <ele>249.4</ele>
        <time>2022-03-29T13:40:39Z</time>
      </trkpt>
      <trkpt lat="46.39384" lon="5.32896">
        <ele>249.8</ele>
        <time>2022-03-29T13:40:40Z</time>
      </trkpt>
      <trkpt lat="46.39395" lon="5.32904">
        <ele>250.6</ele>
        <time>2022-03-29T13:40:42Z</time>
      </trkpt>
      <trkpt lat="46.39407" lon="5.32909">
        <ele>250.8</ele>
        <time>2022-03-29T13:40:44Z</time>
      </trkpt>
      <trkpt lat="46.39413" lon="5.32909">
        <ele>250.8</ele>
        <time>2022-03-29T13:40:45Z</time>
      </trkpt>
      <trkpt lat="46.39419" lon="5.32909">
        <ele>251</ele>
        <time>2022-03-29T13:40:46Z</time>
      </trkpt>
      <trkpt lat="46.39451" lon="5.32902">
        <ele>252</ele>
        <time>2022-03-29T13:40:52Z</time>
      </trkpt>
      <trkpt lat="46.39462" lon="5.32898">
        <ele>252.8</ele>
        <time>2022-03-29T13:40:54Z</time>
      </trkpt>
      <trkpt lat="46.39467" lon="5.32896">
        <ele>253.4</ele>
        <time>2022-03-29T13:40:55Z</time>
      </trkpt>
      <trkpt lat="46.39482" lon="5.32891">
        <ele>254.4</ele>
        <time>2022-03-29T13:40:58Z</time>
      </trkpt>
      <trkpt lat="46.39505" lon="5.32881">
        <ele>255.6</ele>
        <time>2022-03-29T13:41:03Z</time>
      </trkpt>
      <trkpt lat="46.39524" lon="5.32873">
        <ele>256.8</ele>
        <time>2022-03-29T13:41:07Z</time>
      </trkpt>
      <trkpt lat="46.39528" lon="5.32871">
        <ele>256.8</ele>
        <time>2022-03-29T13:41:08Z</time>
      </trkpt>
      <trkpt lat="46.39548" lon="5.32862">
        <ele>257.8</ele>
        <time>2022-03-29T13:41:12Z</time>
      </trkpt>
      <trkpt lat="46.39565" lon="5.32853">
        <ele>258.2</ele>
        <time>2022-03-29T13:41:15Z</time>
      </trkpt>
      <trkpt lat="46.39608" lon="5.32832">
        <ele>258.2</ele>
        <time>2022-03-29T13:41:22Z</time>
      </trkpt>
      <trkpt lat="46.39645" lon="5.32823">
        <ele>258.4</ele>
        <time>2022-03-29T13:41:28Z</time>
      </trkpt>
      <trkpt lat="46.39667" lon="5.32815">
        <ele>259.2</ele>
        <time>2022-03-29T13:41:32Z</time>
      </trkpt>
      <trkpt lat="46.39683" lon="5.32808">
        <ele>260</ele>
        <time>2022-03-29T13:41:35Z</time>
      </trkpt>
      <trkpt lat="46.39692" lon="5.32802">
        <ele>260.6</ele>
        <time>2022-03-29T13:41:37Z</time>
      </trkpt>
      <trkpt lat="46.3971" lon="5.32792">
        <ele>261.8</ele>
        <time>2022-03-29T13:41:41Z</time>
      </trkpt>
      <trkpt lat="46.39724" lon="5.32784">
        <ele>262.8</ele>
        <time>2022-03-29T13:41:44Z</time>
      </trkpt>
      <trkpt lat="46.39733" lon="5.32779">
        <ele>263.4</ele>
        <time>2022-03-29T13:41:46Z</time>
      </trkpt>
      <trkpt lat="46.3976" lon="5.32764">
        <ele>264.6</ele>
        <time>2022-03-29T13:41:52Z</time>
      </trkpt>
      <trkpt lat="46.39778" lon="5.32755">
        <ele>265.6</ele>
        <time>2022-03-29T13:41:56Z</time>
      </trkpt>
      <trkpt lat="46.39801" lon="5.32743">
        <ele>266.8</ele>
        <time>2022-03-29T13:42:01Z</time>
      </trkpt>
      <trkpt lat="46.39819" lon="5.32735">
        <ele>268</ele>
        <time>2022-03-29T13:42:05Z</time>
      </trkpt>
      <trkpt lat="46.39861" lon="5.32716">
        <ele>269</ele>
        <time>2022-03-29T13:42:14Z</time>
      </trkpt>
      <trkpt lat="46.39866" lon="5.32714">
        <ele>269.2</ele>
        <time>2022-03-29T13:42:15Z</time>
      </trkpt>
      <trkpt lat="46.39896" lon="5.327">
        <ele>270.4</ele>
        <time>2022-03-29T13:42:21Z</time>
      </trkpt>
      <trkpt lat="46.39911" lon="5.32694">
        <ele>270.8</ele>
        <time>2022-03-29T13:42:24Z</time>
      </trkpt>
      <trkpt lat="46.39926" lon="5.32686">
        <ele>271.6</ele>
        <time>2022-03-29T13:42:27Z</time>
      </trkpt>
      <trkpt lat="46.3997" lon="5.32666">
        <ele>272.6</ele>
        <time>2022-03-29T13:42:35Z</time>
      </trkpt>
      <trkpt lat="46.39986" lon="5.32659">
        <ele>272.8</ele>
        <time>2022-03-29T13:42:38Z</time>
      </trkpt>
      <trkpt lat="46.40019" lon="5.32643">
        <ele>273.8</ele>
        <time>2022-03-29T13:42:44Z</time>
      </trkpt>
      <trkpt lat="46.40036" lon="5.32633">
        <ele>274.2</ele>
        <time>2022-03-29T13:42:47Z</time>
      </trkpt>
      <trkpt lat="46.40048" lon="5.32628">
        <ele>274.2</ele>
        <time>2022-03-29T13:42:49Z</time>
      </trkpt>
      <trkpt lat="46.40062" lon="5.32629">
        <ele>274</ele>
        <time>2022-03-29T13:42:51Z</time>
      </trkpt>
      <trkpt lat="46.40072" lon="5.32642">
        <ele>274</ele>
        <time>2022-03-29T13:42:53Z</time>
      </trkpt>
      <trkpt lat="46.40082" lon="5.32682">
        <ele>274.2</ele>
        <time>2022-03-29T13:42:57Z</time>
      </trkpt>
      <trkpt lat="46.40086" lon="5.32703">
        <ele>274.6</ele>
        <time>2022-03-29T13:42:59Z</time>
      </trkpt>
      <trkpt lat="46.40097" lon="5.32731">
        <ele>275</ele>
        <time>2022-03-29T13:43:02Z</time>
      </trkpt>
      <trkpt lat="46.40127" lon="5.32803">
        <ele>275.4</ele>
        <time>2022-03-29T13:43:10Z</time>
      </trkpt>
      <trkpt lat="46.40157" lon="5.32872">
        <ele>275.4</ele>
        <time>2022-03-29T13:43:18Z</time>
      </trkpt>
      <trkpt lat="46.40193" lon="5.32944">
        <ele>275.6</ele>
        <time>2022-03-29T13:43:26Z</time>
      </trkpt>
      <trkpt lat="46.4023" lon="5.33004">
        <ele>275.6</ele>
        <time>2022-03-29T13:43:33Z</time>
      </trkpt>
      <trkpt lat="46.40241" lon="5.33019">
        <ele>275.6</ele>
        <time>2022-03-29T13:43:35Z</time>
      </trkpt>
      <trkpt lat="46.40256" lon="5.33042">
        <ele>276</ele>
        <time>2022-03-29T13:43:38Z</time>
      </trkpt>
      <trkpt lat="46.40287" lon="5.33086">
        <ele>276.6</ele>
        <time>2022-03-29T13:43:44Z</time>
      </trkpt>
      <trkpt lat="46.4033" lon="5.33149">
        <ele>277.2</ele>
        <time>2022-03-29T13:43:52Z</time>
      </trkpt>
      <trkpt lat="46.40336" lon="5.33157">
        <ele>277.2</ele>
        <time>2022-03-29T13:43:53Z</time>
      </trkpt>
      <trkpt lat="46.40378" lon="5.33214">
        <ele>276.2</ele>
        <time>2022-03-29T13:44:00Z</time>
      </trkpt>
      <trkpt lat="46.40385" lon="5.33222">
        <ele>276</ele>
        <time>2022-03-29T13:44:01Z</time>
      </trkpt>
      <trkpt lat="46.40427" lon="5.33271">
        <ele>275.2</ele>
        <time>2022-03-29T13:44:07Z</time>
      </trkpt>
      <trkpt lat="46.40435" lon="5.33278">
        <ele>274.8</ele>
        <time>2022-03-29T13:44:08Z</time>
      </trkpt>
      <trkpt lat="46.4045" lon="5.33289">
        <ele>274.4</ele>
        <time>2022-03-29T13:44:10Z</time>
      </trkpt>
      <trkpt lat="46.40467" lon="5.33297">
        <ele>274</ele>
        <time>2022-03-29T13:44:12Z</time>
      </trkpt>
      <trkpt lat="46.40484" lon="5.33305">
        <ele>273.8</ele>
        <time>2022-03-29T13:44:14Z</time>
      </trkpt>
      <trkpt lat="46.405" lon="5.33315">
        <ele>273.6</ele>
        <time>2022-03-29T13:44:16Z</time>
      </trkpt>
      <trkpt lat="46.40507" lon="5.33322">
        <ele>273.4</ele>
        <time>2022-03-29T13:44:17Z</time>
      </trkpt>
      <trkpt lat="46.4052" lon="5.33337">
        <ele>273.4</ele>
        <time>2022-03-29T13:44:19Z</time>
      </trkpt>
      <trkpt lat="46.4054" lon="5.33354">
        <ele>273.4</ele>
        <time>2022-03-29T13:44:22Z</time>
      </trkpt>
      <trkpt lat="46.40549" lon="5.33359">
        <ele>273.6</ele>
        <time>2022-03-29T13:44:23Z</time>
      </trkpt>
      <trkpt lat="46.40575" lon="5.33373">
        <ele>274.6</ele>
        <time>2022-03-29T13:44:27Z</time>
      </trkpt>
      <trkpt lat="46.40582" lon="5.33377">
        <ele>275</ele>
        <time>2022-03-29T13:44:28Z</time>
      </trkpt>
      <trkpt lat="46.40602" lon="5.33388">
        <ele>276</ele>
        <time>2022-03-29T13:44:31Z</time>
      </trkpt>
      <trkpt lat="46.40614" lon="5.33396">
        <ele>276.6</ele>
        <time>2022-03-29T13:44:33Z</time>
      </trkpt>
      <trkpt lat="46.40626" lon="5.33404">
        <ele>277.2</ele>
        <time>2022-03-29T13:44:35Z</time>
      </trkpt>
      <trkpt lat="46.40643" lon="5.33415">
        <ele>278.4</ele>
        <time>2022-03-29T13:44:38Z</time>
      </trkpt>
      <trkpt lat="46.40649" lon="5.33419">
        <ele>278.6</ele>
        <time>2022-03-29T13:44:39Z</time>
      </trkpt>
      <trkpt lat="46.40667" lon="5.3343">
        <ele>280</ele>
        <time>2022-03-29T13:44:42Z</time>
      </trkpt>
      <trkpt lat="46.40682" lon="5.3344">
        <ele>281</ele>
        <time>2022-03-29T13:44:45Z</time>
      </trkpt>
      <trkpt lat="46.40692" lon="5.33446">
        <ele>281.4</ele>
        <time>2022-03-29T13:44:47Z</time>
      </trkpt>
      <trkpt lat="46.40708" lon="5.33456">
        <ele>282.2</ele>
        <time>2022-03-29T13:44:50Z</time>
      </trkpt>
      <trkpt lat="46.40739" lon="5.33475">
        <ele>283.4</ele>
        <time>2022-03-29T13:44:56Z</time>
      </trkpt>
      <trkpt lat="46.40781" lon="5.33495">
        <ele>284.6</ele>
        <time>2022-03-29T13:45:04Z</time>
      </trkpt>
      <trkpt lat="46.40792" lon="5.33499">
        <ele>285</ele>
        <time>2022-03-29T13:45:06Z</time>
      </trkpt>
      <trkpt lat="46.40818" lon="5.33506">
        <ele>285.8</ele>
        <time>2022-03-29T13:45:11Z</time>
      </trkpt>
      <trkpt lat="46.40834" lon="5.3351">
        <ele>286.2</ele>
        <time>2022-03-29T13:45:14Z</time>
      </trkpt>
      <trkpt lat="46.40856" lon="5.33516">
        <ele>286.8</ele>
        <time>2022-03-29T13:45:18Z</time>
      </trkpt>
      <trkpt lat="46.40877" lon="5.33522">
        <ele>288</ele>
        <time>2022-03-29T13:45:22Z</time>
      </trkpt>
      <trkpt lat="46.40882" lon="5.33524">
        <ele>288.2</ele>
        <time>2022-03-29T13:45:23Z</time>
      </trkpt>
      <trkpt lat="46.40903" lon="5.33529">
        <ele>289.4</ele>
        <time>2022-03-29T13:45:27Z</time>
      </trkpt>
      <trkpt lat="46.40935" lon="5.33538">
        <ele>290.4</ele>
        <time>2022-03-29T13:45:33Z</time>
      </trkpt>
      <trkpt lat="46.40948" lon="5.33541">
        <ele>290.6</ele>
        <time>2022-03-29T13:45:35Z</time>
      </trkpt>
      <trkpt lat="46.40992" lon="5.33554">
        <ele>290.8</ele>
        <time>2022-03-29T13:45:41Z</time>
      </trkpt>
      <trkpt lat="46.41054" lon="5.33571">
        <ele>289.6</ele>
        <time>2022-03-29T13:45:48Z</time>
      </trkpt>
      <trkpt lat="46.41073" lon="5.33579">
        <ele>289</ele>
        <time>2022-03-29T13:45:50Z</time>
      </trkpt>
      <trkpt lat="46.41112" lon="5.33601">
        <ele>288</ele>
        <time>2022-03-29T13:45:54Z</time>
      </trkpt>
      <trkpt lat="46.41159" lon="5.33638">
        <ele>286.8</ele>
        <time>2022-03-29T13:45:59Z</time>
      </trkpt>
      <trkpt lat="46.41212" lon="5.33687">
        <ele>286.2</ele>
        <time>2022-03-29T13:46:05Z</time>
      </trkpt>
      <trkpt lat="46.41244" lon="5.33716">
        <ele>286.2</ele>
        <time>2022-03-29T13:46:09Z</time>
      </trkpt>
      <trkpt lat="46.41289" lon="5.33762">
        <ele>287</ele>
        <time>2022-03-29T13:46:15Z</time>
      </trkpt>
      <trkpt lat="46.41296" lon="5.3377">
        <ele>287.2</ele>
        <time>2022-03-29T13:46:16Z</time>
      </trkpt>
      <trkpt lat="46.41322" lon="5.33796">
        <ele>288</ele>
        <time>2022-03-29T13:46:20Z</time>
      </trkpt>
      <trkpt lat="46.41352" lon="5.33806">
        <ele>289</ele>
        <time>2022-03-29T13:46:24Z</time>
      </trkpt>
      <trkpt lat="46.41373" lon="5.33813">
        <ele>290.2</ele>
        <time>2022-03-29T13:46:27Z</time>
      </trkpt>
      <trkpt lat="46.41402" lon="5.33822">
        <ele>291.6</ele>
        <time>2022-03-29T13:46:31Z</time>
      </trkpt>
      <trkpt lat="46.41409" lon="5.33823">
        <ele>291.8</ele>
        <time>2022-03-29T13:46:32Z</time>
      </trkpt>
      <trkpt lat="46.41436" lon="5.33831">
        <ele>292.6</ele>
        <time>2022-03-29T13:46:36Z</time>
      </trkpt>
      <trkpt lat="46.41457" lon="5.33839">
        <ele>293.4</ele>
        <time>2022-03-29T13:46:39Z</time>
      </trkpt>
      <trkpt lat="46.41463" lon="5.33843">
        <ele>293.6</ele>
        <time>2022-03-29T13:46:40Z</time>
      </trkpt>
      <trkpt lat="46.41469" lon="5.33846">
        <ele>293.8</ele>
        <time>2022-03-29T13:46:41Z</time>
      </trkpt>
      <trkpt lat="46.41493" lon="5.33865">
        <ele>295</ele>
        <time>2022-03-29T13:46:45Z</time>
      </trkpt>
      <trkpt lat="46.415" lon="5.33869">
        <ele>295.4</ele>
        <time>2022-03-29T13:46:46Z</time>
      </trkpt>
      <trkpt lat="46.41514" lon="5.33875">
        <ele>296.2</ele>
        <time>2022-03-29T13:46:48Z</time>
      </trkpt>
      <trkpt lat="46.4152" lon="5.33876">
        <ele>296.4</ele>
        <time>2022-03-29T13:46:49Z</time>
      </trkpt>
      <trkpt lat="46.41534" lon="5.33879">
        <ele>297.2</ele>
        <time>2022-03-29T13:46:51Z</time>
      </trkpt>
      <trkpt lat="46.41559" lon="5.33884">
        <ele>298.6</ele>
        <time>2022-03-29T13:46:55Z</time>
      </trkpt>
      <trkpt lat="46.41597" lon="5.33889">
        <ele>299.6</ele>
        <time>2022-03-29T13:47:01Z</time>
      </trkpt>
      <trkpt lat="46.41603" lon="5.33889">
        <ele>299.8</ele>
        <time>2022-03-29T13:47:02Z</time>
      </trkpt>
      <trkpt lat="46.41631" lon="5.33882">
        <ele>299.8</ele>
        <time>2022-03-29T13:47:06Z</time>
      </trkpt>
      <trkpt lat="46.41664" lon="5.33881">
        <ele>299.8</ele>
        <time>2022-03-29T13:47:10Z</time>
      </trkpt>
      <trkpt lat="46.41708" lon="5.33875">
        <ele>298.8</ele>
        <time>2022-03-29T13:47:15Z</time>
      </trkpt>
      <trkpt lat="46.41718" lon="5.33872">
        <ele>298.4</ele>
        <time>2022-03-29T13:47:16Z</time>
      </trkpt>
      <trkpt lat="46.4175" lon="5.33862">
        <ele>297.2</ele>
        <time>2022-03-29T13:47:19Z</time>
      </trkpt>
      <trkpt lat="46.41774" lon="5.33863">
        <ele>296.6</ele>
        <time>2022-03-29T13:47:21Z</time>
      </trkpt>
      <trkpt lat="46.41786" lon="5.33866">
        <ele>296.2</ele>
        <time>2022-03-29T13:47:22Z</time>
      </trkpt>
      <trkpt lat="46.41798" lon="5.3387">
        <ele>295.2</ele>
        <time>2022-03-29T13:47:23Z</time>
      </trkpt>
      <trkpt lat="46.41822" lon="5.33877">
        <ele>294</ele>
        <time>2022-03-29T13:47:25Z</time>
      </trkpt>
      <trkpt lat="46.41846" lon="5.33881">
        <ele>292.6</ele>
        <time>2022-03-29T13:47:27Z</time>
      </trkpt>
      <trkpt lat="46.41871" lon="5.33882">
        <ele>290.8</ele>
        <time>2022-03-29T13:47:29Z</time>
      </trkpt>
      <trkpt lat="46.41884" lon="5.33881">
        <ele>289.8</ele>
        <time>2022-03-29T13:47:30Z</time>
      </trkpt>
      <trkpt lat="46.41908" lon="5.33877">
        <ele>288.4</ele>
        <time>2022-03-29T13:47:32Z</time>
      </trkpt>
      <trkpt lat="46.41932" lon="5.33873">
        <ele>287.4</ele>
        <time>2022-03-29T13:47:34Z</time>
      </trkpt>
      <trkpt lat="46.41944" lon="5.33873">
        <ele>287.2</ele>
        <time>2022-03-29T13:47:35Z</time>
      </trkpt>
      <trkpt lat="46.41955" lon="5.33875">
        <ele>286.8</ele>
        <time>2022-03-29T13:47:36Z</time>
      </trkpt>
      <trkpt lat="46.41966" lon="5.33879">
        <ele>286.6</ele>
        <time>2022-03-29T13:47:37Z</time>
      </trkpt>
      <trkpt lat="46.41986" lon="5.33891">
        <ele>286.4</ele>
        <time>2022-03-29T13:47:39Z</time>
      </trkpt>
      <trkpt lat="46.42015" lon="5.33904">
        <ele>286.8</ele>
        <time>2022-03-29T13:47:42Z</time>
      </trkpt>
      <trkpt lat="46.42025" lon="5.33905">
        <ele>287.2</ele>
        <time>2022-03-29T13:47:43Z</time>
      </trkpt>
      <trkpt lat="46.42045" lon="5.33904">
        <ele>288.8</ele>
        <time>2022-03-29T13:47:45Z</time>
      </trkpt>
      <trkpt lat="46.42064" lon="5.33903">
        <ele>290</ele>
        <time>2022-03-29T13:47:47Z</time>
      </trkpt>
      <trkpt lat="46.42075" lon="5.33904">
        <ele>290.6</ele>
        <time>2022-03-29T13:47:48Z</time>
      </trkpt>
      <trkpt lat="46.42096" lon="5.33908">
        <ele>291.2</ele>
        <time>2022-03-29T13:47:50Z</time>
      </trkpt>
      <trkpt lat="46.42116" lon="5.33917">
        <ele>291.8</ele>
        <time>2022-03-29T13:47:52Z</time>
      </trkpt>
      <trkpt lat="46.42145" lon="5.33932">
        <ele>292.4</ele>
        <time>2022-03-29T13:47:55Z</time>
      </trkpt>
      <trkpt lat="46.42164" lon="5.33939">
        <ele>292.6</ele>
        <time>2022-03-29T13:47:57Z</time>
      </trkpt>
      <trkpt lat="46.42175" lon="5.3394">
        <ele>292.6</ele>
        <time>2022-03-29T13:47:58Z</time>
      </trkpt>
      <trkpt lat="46.42196" lon="5.33934">
        <ele>292.6</ele>
        <time>2022-03-29T13:48:00Z</time>
      </trkpt>
      <trkpt lat="46.42213" lon="5.33915">
        <ele>292.2</ele>
        <time>2022-03-29T13:48:02Z</time>
      </trkpt>
      <trkpt lat="46.42241" lon="5.3386">
        <ele>291</ele>
        <time>2022-03-29T13:48:06Z</time>
      </trkpt>
      <trkpt lat="46.42248" lon="5.33846">
        <ele>290.4</ele>
        <time>2022-03-29T13:48:07Z</time>
      </trkpt>
      <trkpt lat="46.42262" lon="5.33818">
        <ele>289.6</ele>
        <time>2022-03-29T13:48:09Z</time>
      </trkpt>
      <trkpt lat="46.42282" lon="5.33778">
        <ele>288.4</ele>
        <time>2022-03-29T13:48:12Z</time>
      </trkpt>
      <trkpt lat="46.42296" lon="5.33753">
        <ele>287.2</ele>
        <time>2022-03-29T13:48:14Z</time>
      </trkpt>
      <trkpt lat="46.42303" lon="5.3374">
        <ele>287</ele>
        <time>2022-03-29T13:48:15Z</time>
      </trkpt>
      <trkpt lat="46.42312" lon="5.33729">
        <ele>286.4</ele>
        <time>2022-03-29T13:48:16Z</time>
      </trkpt>
      <trkpt lat="46.42331" lon="5.3371">
        <ele>285.8</ele>
        <time>2022-03-29T13:48:18Z</time>
      </trkpt>
      <trkpt lat="46.42363" lon="5.33687">
        <ele>283.8</ele>
        <time>2022-03-29T13:48:21Z</time>
      </trkpt>
      <trkpt lat="46.42375" lon="5.33682">
        <ele>283.4</ele>
        <time>2022-03-29T13:48:22Z</time>
      </trkpt>
      <trkpt lat="46.42388" lon="5.33679">
        <ele>282.6</ele>
        <time>2022-03-29T13:48:23Z</time>
      </trkpt>
      <trkpt lat="46.42413" lon="5.33682">
        <ele>281.6</ele>
        <time>2022-03-29T13:48:25Z</time>
      </trkpt>
      <trkpt lat="46.42436" lon="5.33693">
        <ele>279.8</ele>
        <time>2022-03-29T13:48:27Z</time>
      </trkpt>
      <trkpt lat="46.42446" lon="5.337">
        <ele>279.2</ele>
        <time>2022-03-29T13:48:28Z</time>
      </trkpt>
      <trkpt lat="46.42466" lon="5.33716">
        <ele>278.6</ele>
        <time>2022-03-29T13:48:30Z</time>
      </trkpt>
      <trkpt lat="46.42485" lon="5.33733">
        <ele>278</ele>
        <time>2022-03-29T13:48:32Z</time>
      </trkpt>
      <trkpt lat="46.42505" lon="5.33748">
        <ele>277.2</ele>
        <time>2022-03-29T13:48:34Z</time>
      </trkpt>
      <trkpt lat="46.42537" lon="5.3377">
        <ele>276</ele>
        <time>2022-03-29T13:48:37Z</time>
      </trkpt>
      <trkpt lat="46.42548" lon="5.33778">
        <ele>275.8</ele>
        <time>2022-03-29T13:48:38Z</time>
      </trkpt>
      <trkpt lat="46.42582" lon="5.33797">
        <ele>274.4</ele>
        <time>2022-03-29T13:48:41Z</time>
      </trkpt>
      <trkpt lat="46.42594" lon="5.338">
        <ele>274</ele>
        <time>2022-03-29T13:48:42Z</time>
      </trkpt>
      <trkpt lat="46.42606" lon="5.33802">
        <ele>273</ele>
        <time>2022-03-29T13:48:43Z</time>
      </trkpt>
      <trkpt lat="46.42618" lon="5.33802">
        <ele>272.2</ele>
        <time>2022-03-29T13:48:44Z</time>
      </trkpt>
      <trkpt lat="46.42641" lon="5.33799">
        <ele>271</ele>
        <time>2022-03-29T13:48:46Z</time>
      </trkpt>
      <trkpt lat="46.42663" lon="5.33796">
        <ele>270</ele>
        <time>2022-03-29T13:48:48Z</time>
      </trkpt>
      <trkpt lat="46.42696" lon="5.33794">
        <ele>268.6</ele>
        <time>2022-03-29T13:48:51Z</time>
      </trkpt>
      <trkpt lat="46.42719" lon="5.33798">
        <ele>268</ele>
        <time>2022-03-29T13:48:53Z</time>
      </trkpt>
      <trkpt lat="46.4274" lon="5.33807">
        <ele>267.8</ele>
        <time>2022-03-29T13:48:55Z</time>
      </trkpt>
      <trkpt lat="46.42774" lon="5.33826">
        <ele>267.2</ele>
        <time>2022-03-29T13:48:58Z</time>
      </trkpt>
      <trkpt lat="46.42786" lon="5.3383">
        <ele>266.8</ele>
        <time>2022-03-29T13:48:59Z</time>
      </trkpt>
      <trkpt lat="46.42799" lon="5.33833">
        <ele>266.4</ele>
        <time>2022-03-29T13:49:00Z</time>
      </trkpt>
      <trkpt lat="46.42812" lon="5.33834">
        <ele>266</ele>
        <time>2022-03-29T13:49:01Z</time>
      </trkpt>
      <trkpt lat="46.42839" lon="5.33836">
        <ele>265</ele>
        <time>2022-03-29T13:49:03Z</time>
      </trkpt>
      <trkpt lat="46.42852" lon="5.33838">
        <ele>264.2</ele>
        <time>2022-03-29T13:49:04Z</time>
      </trkpt>
      <trkpt lat="46.42864" lon="5.33838">
        <ele>263.2</ele>
        <time>2022-03-29T13:49:05Z</time>
      </trkpt>
      <trkpt lat="46.42901" lon="5.33842">
        <ele>262.4</ele>
        <time>2022-03-29T13:49:08Z</time>
      </trkpt>
      <trkpt lat="46.42912" lon="5.33845">
        <ele>262.2</ele>
        <time>2022-03-29T13:49:09Z</time>
      </trkpt>
      <trkpt lat="46.42934" lon="5.33851">
        <ele>262</ele>
        <time>2022-03-29T13:49:11Z</time>
      </trkpt>
      <trkpt lat="46.42945" lon="5.33856">
        <ele>262</ele>
        <time>2022-03-29T13:49:12Z</time>
      </trkpt>
      <trkpt lat="46.43" lon="5.33893">
        <ele>263</ele>
        <time>2022-03-29T13:49:18Z</time>
      </trkpt>
      <trkpt lat="46.43039" lon="5.33928">
        <ele>263.2</ele>
        <time>2022-03-29T13:49:23Z</time>
      </trkpt>
      <trkpt lat="46.43047" lon="5.33935">
        <ele>263.2</ele>
        <time>2022-03-29T13:49:24Z</time>
      </trkpt>
      <trkpt lat="46.43089" lon="5.33976">
        <ele>263.2</ele>
        <time>2022-03-29T13:49:30Z</time>
      </trkpt>
      <trkpt lat="46.43119" lon="5.34012">
        <ele>263.2</ele>
        <time>2022-03-29T13:49:35Z</time>
      </trkpt>
      <trkpt lat="46.43147" lon="5.34055">
        <ele>263</ele>
        <time>2022-03-29T13:49:41Z</time>
      </trkpt>
      <trkpt lat="46.43161" lon="5.34077">
        <ele>262.8</ele>
        <time>2022-03-29T13:49:45Z</time>
      </trkpt>
      <trkpt lat="46.43177" lon="5.34101">
        <ele>262</ele>
        <time>2022-03-29T13:49:48Z</time>
      </trkpt>
      <trkpt lat="46.43183" lon="5.34108">
        <ele>261.8</ele>
        <time>2022-03-29T13:49:49Z</time>
      </trkpt>
      <trkpt lat="46.43218" lon="5.34149">
        <ele>261</ele>
        <time>2022-03-29T13:49:55Z</time>
      </trkpt>
      <trkpt lat="46.43229" lon="5.3416">
        <ele>260.8</ele>
        <time>2022-03-29T13:49:58Z</time>
      </trkpt>
      <trkpt lat="46.43257" lon="5.34182">
        <ele>260.4</ele>
        <time>2022-03-29T13:50:05Z</time>
      </trkpt>
      <trkpt lat="46.43289" lon="5.3421">
        <ele>260.6</ele>
        <time>2022-03-29T13:50:12Z</time>
      </trkpt>
      <trkpt lat="46.43293" lon="5.34213">
        <ele>260.6</ele>
        <time>2022-03-29T13:50:13Z</time>
      </trkpt>
      <trkpt lat="46.43312" lon="5.34227">
        <ele>261.4</ele>
        <time>2022-03-29T13:50:17Z</time>
      </trkpt>
      <trkpt lat="46.43321" lon="5.34234">
        <ele>262.2</ele>
        <time>2022-03-29T13:50:19Z</time>
      </trkpt>
      <trkpt lat="46.43343" lon="5.34245">
        <ele>263.4</ele>
        <time>2022-03-29T13:50:23Z</time>
      </trkpt>
      <trkpt lat="46.43357" lon="5.3425">
        <ele>263.8</ele>
        <time>2022-03-29T13:50:26Z</time>
      </trkpt>
      <trkpt lat="46.43373" lon="5.34256">
        <ele>264.6</ele>
        <time>2022-03-29T13:50:29Z</time>
      </trkpt>
      <trkpt lat="46.43388" lon="5.34261">
        <ele>265.4</ele>
        <time>2022-03-29T13:50:32Z</time>
      </trkpt>
      <trkpt lat="46.43392" lon="5.34262">
        <ele>265.6</ele>
        <time>2022-03-29T13:50:33Z</time>
      </trkpt>
      <trkpt lat="46.434" lon="5.34264">
        <ele>266.8</ele>
        <time>2022-03-29T13:50:35Z</time>
      </trkpt>
      <trkpt lat="46.43405" lon="5.34265">
        <ele>267</ele>
        <time>2022-03-29T13:50:36Z</time>
      </trkpt>
      <trkpt lat="46.43416" lon="5.34267">
        <ele>268</ele>
        <time>2022-03-29T13:50:39Z</time>
      </trkpt>
      <trkpt lat="46.43423" lon="5.34269">
        <ele>268.6</ele>
        <time>2022-03-29T13:50:41Z</time>
      </trkpt>
      <trkpt lat="46.43429" lon="5.3427">
        <ele>269.2</ele>
        <time>2022-03-29T13:50:43Z</time>
      </trkpt>
      <trkpt lat="46.43439" lon="5.34273">
        <ele>270.2</ele>
        <time>2022-03-29T13:50:46Z</time>
      </trkpt>
      <trkpt lat="46.43445" lon="5.34273">
        <ele>270.8</ele>
        <time>2022-03-29T13:50:48Z</time>
      </trkpt>
      <trkpt lat="46.43447" lon="5.34271">
        <ele>271.4</ele>
        <time>2022-03-29T13:50:49Z</time>
      </trkpt>
      <trkpt lat="46.4345" lon="5.34264">
        <ele>272.2</ele>
        <time>2022-03-29T13:50:51Z</time>
      </trkpt>
      <trkpt lat="46.4345" lon="5.34259">
        <ele>272.4</ele>
        <time>2022-03-29T13:50:52Z</time>
      </trkpt>
      <trkpt lat="46.4345" lon="5.34243">
        <ele>273.6</ele>
        <time>2022-03-29T13:50:55Z</time>
      </trkpt>
      <trkpt lat="46.43451" lon="5.34231">
        <ele>273.8</ele>
        <time>2022-03-29T13:50:57Z</time>
      </trkpt>
      <trkpt lat="46.43454" lon="5.34218">
        <ele>274</ele>
        <time>2022-03-29T13:50:59Z</time>
      </trkpt>
      <trkpt lat="46.43459" lon="5.34201">
        <ele>274.2</ele>
        <time>2022-03-29T13:51:02Z</time>
      </trkpt>
      <trkpt lat="46.43461" lon="5.34195">
        <ele>274.2</ele>
        <time>2022-03-29T13:51:03Z</time>
      </trkpt>
      <trkpt lat="46.43465" lon="5.34172">
        <ele>274</ele>
        <time>2022-03-29T13:51:06Z</time>
      </trkpt>
      <trkpt lat="46.43471" lon="5.34116">
        <ele>273.6</ele>
        <time>2022-03-29T13:51:12Z</time>
      </trkpt>
      <trkpt lat="46.43475" lon="5.34064">
        <ele>273.4</ele>
        <time>2022-03-29T13:51:17Z</time>
      </trkpt>
      <trkpt lat="46.43482" lon="5.33998">
        <ele>273.2</ele>
        <time>2022-03-29T13:51:23Z</time>
      </trkpt>
      <trkpt lat="46.43488" lon="5.33911">
        <ele>272.2</ele>
        <time>2022-03-29T13:51:30Z</time>
      </trkpt>
      <trkpt lat="46.43495" lon="5.33841">
        <ele>270.4</ele>
        <time>2022-03-29T13:51:35Z</time>
      </trkpt>
      <trkpt lat="46.43498" lon="5.33812">
        <ele>269</ele>
        <time>2022-03-29T13:51:37Z</time>
      </trkpt>
      <trkpt lat="46.43503" lon="5.33785">
        <ele>268.2</ele>
        <time>2022-03-29T13:51:39Z</time>
      </trkpt>
      <trkpt lat="46.43505" lon="5.33775">
        <ele>267.8</ele>
        <time>2022-03-29T13:51:40Z</time>
      </trkpt>
      <trkpt lat="46.43508" lon="5.33767">
        <ele>267.2</ele>
        <time>2022-03-29T13:51:41Z</time>
      </trkpt>
      <trkpt lat="46.43508" lon="5.33759">
        <ele>266.4</ele>
        <time>2022-03-29T13:51:42Z</time>
      </trkpt>
      <trkpt lat="46.43507" lon="5.33751">
        <ele>266.2</ele>
        <time>2022-03-29T13:51:43Z</time>
      </trkpt>
      <trkpt lat="46.43504" lon="5.33743">
        <ele>265.2</ele>
        <time>2022-03-29T13:51:44Z</time>
      </trkpt>
      <trkpt lat="46.435" lon="5.33734">
        <ele>264.6</ele>
        <time>2022-03-29T13:51:45Z</time>
      </trkpt>
      <trkpt lat="46.43495" lon="5.33726">
        <ele>264</ele>
        <time>2022-03-29T13:51:46Z</time>
      </trkpt>
      <trkpt lat="46.43486" lon="5.33709">
        <ele>263.2</ele>
        <time>2022-03-29T13:51:48Z</time>
      </trkpt>
      <trkpt lat="46.43481" lon="5.33699">
        <ele>262.6</ele>
        <time>2022-03-29T13:51:49Z</time>
      </trkpt>
      <trkpt lat="46.43468" lon="5.33663">
        <ele>261.8</ele>
        <time>2022-03-29T13:51:52Z</time>
      </trkpt>
      <trkpt lat="46.43465" lon="5.33651">
        <ele>261.6</ele>
        <time>2022-03-29T13:51:53Z</time>
      </trkpt>
      <trkpt lat="46.43459" lon="5.3361">
        <ele>261.2</ele>
        <time>2022-03-29T13:51:56Z</time>
      </trkpt>
      <trkpt lat="46.43461" lon="5.33581">
        <ele>261</ele>
        <time>2022-03-29T13:51:58Z</time>
      </trkpt>
      <trkpt lat="46.43466" lon="5.33553">
        <ele>260.4</ele>
        <time>2022-03-29T13:52:00Z</time>
      </trkpt>
      <trkpt lat="46.43478" lon="5.33529">
        <ele>259.2</ele>
        <time>2022-03-29T13:52:02Z</time>
      </trkpt>
      <trkpt lat="46.43485" lon="5.33518">
        <ele>258.4</ele>
        <time>2022-03-29T13:52:03Z</time>
      </trkpt>
      <trkpt lat="46.43492" lon="5.33508">
        <ele>258</ele>
        <time>2022-03-29T13:52:04Z</time>
      </trkpt>
      <trkpt lat="46.43514" lon="5.33479">
        <ele>256.8</ele>
        <time>2022-03-29T13:52:07Z</time>
      </trkpt>
      <trkpt lat="46.43537" lon="5.33454">
        <ele>256</ele>
        <time>2022-03-29T13:52:10Z</time>
      </trkpt>
      <trkpt lat="46.43554" lon="5.33447">
        <ele>255.8</ele>
        <time>2022-03-29T13:52:12Z</time>
      </trkpt>
      <trkpt lat="46.43562" lon="5.33448">
        <ele>255.6</ele>
        <time>2022-03-29T13:52:13Z</time>
      </trkpt>
      <trkpt lat="46.43613" lon="5.33453">
        <ele>255.6</ele>
        <time>2022-03-29T13:52:19Z</time>
      </trkpt>
      <trkpt lat="46.43675" lon="5.3345">
        <ele>255.4</ele>
        <time>2022-03-29T13:52:26Z</time>
      </trkpt>
      <trkpt lat="46.43702" lon="5.33449">
        <ele>255</ele>
        <time>2022-03-29T13:52:29Z</time>
      </trkpt>
      <trkpt lat="46.43753" lon="5.33444">
        <ele>254.8</ele>
        <time>2022-03-29T13:52:35Z</time>
      </trkpt>
      <trkpt lat="46.43769" lon="5.33441">
        <ele>254.8</ele>
        <time>2022-03-29T13:52:37Z</time>
      </trkpt>
      <trkpt lat="46.43829" lon="5.33435">
        <ele>255</ele>
        <time>2022-03-29T13:52:44Z</time>
      </trkpt>
      <trkpt lat="46.43837" lon="5.33435">
        <ele>255</ele>
        <time>2022-03-29T13:52:45Z</time>
      </trkpt>
      <trkpt lat="46.43888" lon="5.33444">
        <ele>255.2</ele>
        <time>2022-03-29T13:52:51Z</time>
      </trkpt>
      <trkpt lat="46.43934" lon="5.33467">
        <ele>255.6</ele>
        <time>2022-03-29T13:52:57Z</time>
      </trkpt>
      <trkpt lat="46.43972" lon="5.33489">
        <ele>255.8</ele>
        <time>2022-03-29T13:53:02Z</time>
      </trkpt>
      <trkpt lat="46.43987" lon="5.33499">
        <ele>256</ele>
        <time>2022-03-29T13:53:04Z</time>
      </trkpt>
      <trkpt lat="46.44026" lon="5.33516">
        <ele>256</ele>
        <time>2022-03-29T13:53:09Z</time>
      </trkpt>
      <trkpt lat="46.44058" lon="5.33531">
        <ele>256</ele>
        <time>2022-03-29T13:53:13Z</time>
      </trkpt>
      <trkpt lat="46.44064" lon="5.33539">
        <ele>256.2</ele>
        <time>2022-03-29T13:53:14Z</time>
      </trkpt>
      <trkpt lat="46.44069" lon="5.33549">
        <ele>256.2</ele>
        <time>2022-03-29T13:53:15Z</time>
      </trkpt>
      <trkpt lat="46.44073" lon="5.33571">
        <ele>256.4</ele>
        <time>2022-03-29T13:53:17Z</time>
      </trkpt>
      <trkpt lat="46.44076" lon="5.33582">
        <ele>256.4</ele>
        <time>2022-03-29T13:53:18Z</time>
      </trkpt>
      <trkpt lat="46.44085" lon="5.33602">
        <ele>256.6</ele>
        <time>2022-03-29T13:53:20Z</time>
      </trkpt>
      <trkpt lat="46.44095" lon="5.33619">
        <ele>257</ele>
        <time>2022-03-29T13:53:22Z</time>
      </trkpt>
      <trkpt lat="46.44107" lon="5.33634">
        <ele>257.2</ele>
        <time>2022-03-29T13:53:24Z</time>
      </trkpt>
      <trkpt lat="46.44151" lon="5.33684">
        <ele>257.8</ele>
        <time>2022-03-29T13:53:31Z</time>
      </trkpt>
      <trkpt lat="46.44157" lon="5.33691">
        <ele>257.8</ele>
        <time>2022-03-29T13:53:32Z</time>
      </trkpt>
      <trkpt lat="46.44194" lon="5.3373">
        <ele>258.2</ele>
        <time>2022-03-29T13:53:38Z</time>
      </trkpt>
      <trkpt lat="46.44228" lon="5.33755">
        <ele>258.2</ele>
        <time>2022-03-29T13:53:43Z</time>
      </trkpt>
      <trkpt lat="46.4427" lon="5.33785">
        <ele>258.4</ele>
        <time>2022-03-29T13:53:50Z</time>
      </trkpt>
      <trkpt lat="46.44276" lon="5.33791">
        <ele>258.4</ele>
        <time>2022-03-29T13:53:53Z</time>
      </trkpt>
      <trkpt lat="46.44285" lon="5.33797">
        <ele>258.4</ele>
        <time>2022-03-29T13:53:58Z</time>
      </trkpt>
      <trkpt lat="46.44286" lon="5.33795">
        <ele>258.4</ele>
        <time>2022-03-29T13:53:59Z</time>
      </trkpt>
      <trkpt lat="46.44281" lon="5.33787">
        <ele>258.4</ele>
        <time>2022-03-29T13:54:02Z</time>
      </trkpt>
      <trkpt lat="46.44279" lon="5.33782">
        <ele>258.4</ele>
        <time>2022-03-29T13:54:03Z</time>
      </trkpt>
      <trkpt lat="46.44278" lon="5.33768">
        <ele>258.4</ele>
        <time>2022-03-29T13:54:05Z</time>
      </trkpt>
      <trkpt lat="46.44282" lon="5.33752">
        <ele>258.4</ele>
        <time>2022-03-29T13:54:07Z</time>
      </trkpt>
      <trkpt lat="46.44286" lon="5.33744">
        <ele>258.4</ele>
        <time>2022-03-29T13:54:08Z</time>
      </trkpt>
      <trkpt lat="46.44313" lon="5.33693">
        <ele>258.8</ele>
        <time>2022-03-29T13:54:15Z</time>
      </trkpt>
      <trkpt lat="46.44335" lon="5.33646">
        <ele>259.2</ele>
        <time>2022-03-29T13:54:21Z</time>
      </trkpt>
      <trkpt lat="46.44338" lon="5.33638">
        <ele>259.4</ele>
        <time>2022-03-29T13:54:22Z</time>
      </trkpt>
      <trkpt lat="46.44345" lon="5.33596">
        <ele>259.8</ele>
        <time>2022-03-29T13:54:27Z</time>
      </trkpt>
      <trkpt lat="46.44346" lon="5.33562">
        <ele>260.4</ele>
        <time>2022-03-29T13:54:31Z</time>
      </trkpt>
      <trkpt lat="46.44346" lon="5.33554">
        <ele>260.6</ele>
        <time>2022-03-29T13:54:32Z</time>
      </trkpt>
      <trkpt lat="46.44345" lon="5.33546">
        <ele>261</ele>
        <time>2022-03-29T13:54:33Z</time>
      </trkpt>
      <trkpt lat="46.44341" lon="5.33523">
        <ele>261.4</ele>
        <time>2022-03-29T13:54:36Z</time>
      </trkpt>
      <trkpt lat="46.44335" lon="5.33503">
        <ele>262</ele>
        <time>2022-03-29T13:54:39Z</time>
      </trkpt>
      <trkpt lat="46.44328" lon="5.33483">
        <ele>262.6</ele>
        <time>2022-03-29T13:54:42Z</time>
      </trkpt>
      <trkpt lat="46.44321" lon="5.33468">
        <ele>263.4</ele>
        <time>2022-03-29T13:54:45Z</time>
      </trkpt>
      <trkpt lat="46.44314" lon="5.33456">
        <ele>264</ele>
        <time>2022-03-29T13:54:47Z</time>
      </trkpt>
      <trkpt lat="46.44299" lon="5.33438">
        <ele>264.2</ele>
        <time>2022-03-29T13:54:51Z</time>
      </trkpt>
      <trkpt lat="46.44282" lon="5.33416">
        <ele>265</ele>
        <time>2022-03-29T13:54:56Z</time>
      </trkpt>
      <trkpt lat="46.44264" lon="5.33393">
        <ele>265.6</ele>
        <time>2022-03-29T13:55:01Z</time>
      </trkpt>
      <trkpt lat="46.44253" lon="5.33379">
        <ele>266</ele>
        <time>2022-03-29T13:55:04Z</time>
      </trkpt>
      <trkpt lat="46.44219" lon="5.33344">
        <ele>267.2</ele>
        <time>2022-03-29T13:55:13Z</time>
      </trkpt>
      <trkpt lat="46.44191" lon="5.3332">
        <ele>268.2</ele>
        <time>2022-03-29T13:55:20Z</time>
      </trkpt>
      <trkpt lat="46.4418" lon="5.33309">
        <ele>268.6</ele>
        <time>2022-03-29T13:55:23Z</time>
      </trkpt>
      <trkpt lat="46.44161" lon="5.33281">
        <ele>269.6</ele>
        <time>2022-03-29T13:55:29Z</time>
      </trkpt>
      <trkpt lat="46.44151" lon="5.33258">
        <ele>270</ele>
        <time>2022-03-29T13:55:33Z</time>
      </trkpt>
      <trkpt lat="46.44151" lon="5.33253">
        <ele>270.2</ele>
        <time>2022-03-29T13:55:34Z</time>
      </trkpt>
      <trkpt lat="46.44152" lon="5.33246">
        <ele>270.2</ele>
        <time>2022-03-29T13:55:35Z</time>
      </trkpt>
      <trkpt lat="46.4416" lon="5.33233">
        <ele>270.6</ele>
        <time>2022-03-29T13:55:37Z</time>
      </trkpt>
      <trkpt lat="46.44196" lon="5.33204">
        <ele>270.2</ele>
        <time>2022-03-29T13:55:43Z</time>
      </trkpt>
      <trkpt lat="46.44226" lon="5.33187">
        <ele>269.2</ele>
        <time>2022-03-29T13:55:47Z</time>
      </trkpt>
      <trkpt lat="46.44267" lon="5.33183">
        <ele>268.4</ele>
        <time>2022-03-29T13:55:52Z</time>
      </trkpt>
      <trkpt lat="46.44312" lon="5.33189">
        <ele>268.4</ele>
        <time>2022-03-29T13:55:58Z</time>
      </trkpt>
      <trkpt lat="46.44328" lon="5.33197">
        <ele>268.4</ele>
        <time>2022-03-29T13:56:00Z</time>
      </trkpt>
      <trkpt lat="46.44339" lon="5.33207">
        <ele>268.4</ele>
        <time>2022-03-29T13:56:02Z</time>
      </trkpt>
      <trkpt lat="46.44372" lon="5.33242">
        <ele>269.6</ele>
        <time>2022-03-29T13:56:08Z</time>
      </trkpt>
      <trkpt lat="46.44378" lon="5.33248">
        <ele>269.8</ele>
        <time>2022-03-29T13:56:09Z</time>
      </trkpt>
      <trkpt lat="46.44388" lon="5.3326">
        <ele>270.6</ele>
        <time>2022-03-29T13:56:11Z</time>
      </trkpt>
      <trkpt lat="46.4441" lon="5.33284">
        <ele>271.6</ele>
        <time>2022-03-29T13:56:15Z</time>
      </trkpt>
      <trkpt lat="46.44415" lon="5.3329">
        <ele>271.8</ele>
        <time>2022-03-29T13:56:16Z</time>
      </trkpt>
      <trkpt lat="46.44445" lon="5.33323">
        <ele>272.4</ele>
        <time>2022-03-29T13:56:22Z</time>
      </trkpt>
      <trkpt lat="46.44461" lon="5.33339">
        <ele>272.8</ele>
        <time>2022-03-29T13:56:25Z</time>
      </trkpt>
      <trkpt lat="46.44481" lon="5.33368">
        <ele>273</ele>
        <time>2022-03-29T13:56:29Z</time>
      </trkpt>
      <trkpt lat="46.44505" lon="5.33421">
        <ele>273</ele>
        <time>2022-03-29T13:56:35Z</time>
      </trkpt>
      <trkpt lat="46.44529" lon="5.33486">
        <ele>272.8</ele>
        <time>2022-03-29T13:56:42Z</time>
      </trkpt>
      <trkpt lat="46.44549" lon="5.33539">
        <ele>273.4</ele>
        <time>2022-03-29T13:56:48Z</time>
      </trkpt>
      <trkpt lat="46.44576" lon="5.33611">
        <ele>273.8</ele>
        <time>2022-03-29T13:56:56Z</time>
      </trkpt>
      <trkpt lat="46.44595" lon="5.33661">
        <ele>274</ele>
        <time>2022-03-29T13:57:02Z</time>
      </trkpt>
      <trkpt lat="46.44598" lon="5.33668">
        <ele>274</ele>
        <time>2022-03-29T13:57:03Z</time>
      </trkpt>
      <trkpt lat="46.44609" lon="5.33696">
        <ele>275.2</ele>
        <time>2022-03-29T13:57:07Z</time>
      </trkpt>
      <trkpt lat="46.44613" lon="5.33709">
        <ele>275.6</ele>
        <time>2022-03-29T13:57:09Z</time>
      </trkpt>
      <trkpt lat="46.44617" lon="5.33721">
        <ele>276.2</ele>
        <time>2022-03-29T13:57:11Z</time>
      </trkpt>
      <trkpt lat="46.44626" lon="5.33745">
        <ele>277.4</ele>
        <time>2022-03-29T13:57:15Z</time>
      </trkpt>
      <trkpt lat="46.44632" lon="5.33763">
        <ele>278.6</ele>
        <time>2022-03-29T13:57:18Z</time>
      </trkpt>
      <trkpt lat="46.44644" lon="5.33791">
        <ele>280</ele>
        <time>2022-03-29T13:57:23Z</time>
      </trkpt>
      <trkpt lat="46.44653" lon="5.33816">
        <ele>281</ele>
        <time>2022-03-29T13:57:27Z</time>
      </trkpt>
      <trkpt lat="46.4466" lon="5.33832">
        <ele>282</ele>
        <time>2022-03-29T13:57:30Z</time>
      </trkpt>
      <trkpt lat="46.44668" lon="5.33842">
        <ele>282.4</ele>
        <time>2022-03-29T13:57:32Z</time>
      </trkpt>
      <trkpt lat="46.44672" lon="5.33846">
        <ele>282.6</ele>
        <time>2022-03-29T13:57:33Z</time>
      </trkpt>
      <trkpt lat="46.44676" lon="5.33849">
        <ele>282.8</ele>
        <time>2022-03-29T13:57:34Z</time>
      </trkpt>
      <trkpt lat="46.447" lon="5.33863">
        <ele>283.2</ele>
        <time>2022-03-29T13:57:39Z</time>
      </trkpt>
      <trkpt lat="46.44727" lon="5.33874">
        <ele>283.4</ele>
        <time>2022-03-29T13:57:44Z</time>
      </trkpt>
      <trkpt lat="46.44738" lon="5.33879">
        <ele>283.6</ele>
        <time>2022-03-29T13:57:46Z</time>
      </trkpt>
      <trkpt lat="46.44757" lon="5.33888">
        <ele>284</ele>
        <time>2022-03-29T13:57:50Z</time>
      </trkpt>
      <trkpt lat="46.44765" lon="5.33897">
        <ele>284.2</ele>
        <time>2022-03-29T13:57:52Z</time>
      </trkpt>
      <trkpt lat="46.44767" lon="5.3391">
        <ele>284.4</ele>
        <time>2022-03-29T13:57:54Z</time>
      </trkpt>
      <trkpt lat="46.44767" lon="5.33917">
        <ele>284.8</ele>
        <time>2022-03-29T13:57:55Z</time>
      </trkpt>
      <trkpt lat="46.4477" lon="5.33945">
        <ele>285.6</ele>
        <time>2022-03-29T13:57:59Z</time>
      </trkpt>
      <trkpt lat="46.44771" lon="5.3396">
        <ele>285.8</ele>
        <time>2022-03-29T13:58:01Z</time>
      </trkpt>
      <trkpt lat="46.44778" lon="5.34005">
        <ele>286</ele>
        <time>2022-03-29T13:58:06Z</time>
      </trkpt>
      <trkpt lat="46.44787" lon="5.34061">
        <ele>284.8</ele>
        <time>2022-03-29T13:58:11Z</time>
      </trkpt>
      <trkpt lat="46.44789" lon="5.34074">
        <ele>284.4</ele>
        <time>2022-03-29T13:58:12Z</time>
      </trkpt>
      <trkpt lat="46.44793" lon="5.34099">
        <ele>283.8</ele>
        <time>2022-03-29T13:58:14Z</time>
      </trkpt>
      <trkpt lat="46.44795" lon="5.34123">
        <ele>283</ele>
        <time>2022-03-29T13:58:16Z</time>
      </trkpt>
      <trkpt lat="46.44805" lon="5.34135">
        <ele>282</ele>
        <time>2022-03-29T13:58:18Z</time>
      </trkpt>
      <trkpt lat="46.44817" lon="5.34131">
        <ele>281.2</ele>
        <time>2022-03-29T13:58:20Z</time>
      </trkpt>
      <trkpt lat="46.44822" lon="5.34125">
        <ele>280.6</ele>
        <time>2022-03-29T13:58:21Z</time>
      </trkpt>
      <trkpt lat="46.44838" lon="5.34108">
        <ele>279.8</ele>
        <time>2022-03-29T13:58:24Z</time>
      </trkpt>
      <trkpt lat="46.44844" lon="5.34104">
        <ele>279.6</ele>
        <time>2022-03-29T13:58:25Z</time>
      </trkpt>
      <trkpt lat="46.44856" lon="5.34097">
        <ele>279.6</ele>
        <time>2022-03-29T13:58:27Z</time>
      </trkpt>
      <trkpt lat="46.44869" lon="5.34094">
        <ele>279.6</ele>
        <time>2022-03-29T13:58:29Z</time>
      </trkpt>
      <trkpt lat="46.44906" lon="5.34096">
        <ele>281.2</ele>
        <time>2022-03-29T13:58:35Z</time>
      </trkpt>
      <trkpt lat="46.4493" lon="5.34101">
        <ele>282.2</ele>
        <time>2022-03-29T13:58:39Z</time>
      </trkpt>
      <trkpt lat="46.44947" lon="5.34107">
        <ele>283.2</ele>
        <time>2022-03-29T13:58:42Z</time>
      </trkpt>
      <trkpt lat="46.44951" lon="5.34108">
        <ele>283.4</ele>
        <time>2022-03-29T13:58:43Z</time>
      </trkpt>
      <trkpt lat="46.44986" lon="5.34117">
        <ele>284.4</ele>
        <time>2022-03-29T13:58:49Z</time>
      </trkpt>
      <trkpt lat="46.44997" lon="5.34119">
        <ele>285.4</ele>
        <time>2022-03-29T13:58:51Z</time>
      </trkpt>
      <trkpt lat="46.45024" lon="5.34123">
        <ele>286.4</ele>
        <time>2022-03-29T13:58:56Z</time>
      </trkpt>
      <trkpt lat="46.4504" lon="5.34123">
        <ele>287</ele>
        <time>2022-03-29T13:58:59Z</time>
      </trkpt>
      <trkpt lat="46.45055" lon="5.34123">
        <ele>287.8</ele>
        <time>2022-03-29T13:59:02Z</time>
      </trkpt>
      <trkpt lat="46.45077" lon="5.3412">
        <ele>288.8</ele>
        <time>2022-03-29T13:59:06Z</time>
      </trkpt>
      <trkpt lat="46.45094" lon="5.34117">
        <ele>289.4</ele>
        <time>2022-03-29T13:59:09Z</time>
      </trkpt>
      <trkpt lat="46.45106" lon="5.34114">
        <ele>289.8</ele>
        <time>2022-03-29T13:59:11Z</time>
      </trkpt>
      <trkpt lat="46.45144" lon="5.34106">
        <ele>291</ele>
        <time>2022-03-29T13:59:17Z</time>
      </trkpt>
      <trkpt lat="46.45157" lon="5.34103">
        <ele>291</ele>
        <time>2022-03-29T13:59:19Z</time>
      </trkpt>
      <trkpt lat="46.45186" lon="5.34096">
        <ele>291.2</ele>
        <time>2022-03-29T13:59:23Z</time>
      </trkpt>
      <trkpt lat="46.45234" lon="5.34084">
        <ele>291</ele>
        <time>2022-03-29T13:59:29Z</time>
      </trkpt>
      <trkpt lat="46.45293" lon="5.34073">
        <ele>290.2</ele>
        <time>2022-03-29T13:59:36Z</time>
      </trkpt>
      <trkpt lat="46.45309" lon="5.34069">
        <ele>290</ele>
        <time>2022-03-29T13:59:38Z</time>
      </trkpt>
      <trkpt lat="46.45324" lon="5.34065">
        <ele>289.8</ele>
        <time>2022-03-29T13:59:40Z</time>
      </trkpt>
      <trkpt lat="46.45331" lon="5.34064">
        <ele>289.8</ele>
        <time>2022-03-29T13:59:41Z</time>
      </trkpt>
      <trkpt lat="46.4537" lon="5.34056">
        <ele>288.8</ele>
        <time>2022-03-29T13:59:46Z</time>
      </trkpt>
      <trkpt lat="46.45388" lon="5.34052">
        <ele>288.4</ele>
        <time>2022-03-29T13:59:48Z</time>
      </trkpt>
      <trkpt lat="46.45441" lon="5.34041">
        <ele>287.4</ele>
        <time>2022-03-29T13:59:54Z</time>
      </trkpt>
      <trkpt lat="46.45451" lon="5.34038">
        <ele>287.4</ele>
        <time>2022-03-29T13:59:55Z</time>
      </trkpt>
      <trkpt lat="46.45489" lon="5.34016">
        <ele>286.2</ele>
        <time>2022-03-29T13:59:59Z</time>
      </trkpt>
      <trkpt lat="46.45508" lon="5.33999">
        <ele>285</ele>
        <time>2022-03-29T14:00:01Z</time>
      </trkpt>
      <trkpt lat="46.45527" lon="5.3398">
        <ele>284.2</ele>
        <time>2022-03-29T14:00:03Z</time>
      </trkpt>
      <trkpt lat="46.45535" lon="5.33969">
        <ele>283.8</ele>
        <time>2022-03-29T14:00:04Z</time>
      </trkpt>
      <trkpt lat="46.45559" lon="5.33931">
        <ele>282.4</ele>
        <time>2022-03-29T14:00:07Z</time>
      </trkpt>
      <trkpt lat="46.4558" lon="5.33888">
        <ele>281</ele>
        <time>2022-03-29T14:00:10Z</time>
      </trkpt>
      <trkpt lat="46.45598" lon="5.33844">
        <ele>279.6</ele>
        <time>2022-03-29T14:00:13Z</time>
      </trkpt>
      <trkpt lat="46.45615" lon="5.33801">
        <ele>278.4</ele>
        <time>2022-03-29T14:00:16Z</time>
      </trkpt>
      <trkpt lat="46.45632" lon="5.3376">
        <ele>277.2</ele>
        <time>2022-03-29T14:00:19Z</time>
      </trkpt>
      <trkpt lat="46.45643" lon="5.33732">
        <ele>276.6</ele>
        <time>2022-03-29T14:00:21Z</time>
      </trkpt>
      <trkpt lat="46.45655" lon="5.33705">
        <ele>275.8</ele>
        <time>2022-03-29T14:00:23Z</time>
      </trkpt>
      <trkpt lat="46.45683" lon="5.33637">
        <ele>274.2</ele>
        <time>2022-03-29T14:00:28Z</time>
      </trkpt>
      <trkpt lat="46.45715" lon="5.33559">
        <ele>273.2</ele>
        <time>2022-03-29T14:00:34Z</time>
      </trkpt>
      <trkpt lat="46.45733" lon="5.33519">
        <ele>272.8</ele>
        <time>2022-03-29T14:00:37Z</time>
      </trkpt>
      <trkpt lat="46.45744" lon="5.33492">
        <ele>272.2</ele>
        <time>2022-03-29T14:00:39Z</time>
      </trkpt>
      <trkpt lat="46.45761" lon="5.33453">
        <ele>271</ele>
        <time>2022-03-29T14:00:42Z</time>
      </trkpt>
      <trkpt lat="46.45777" lon="5.33416">
        <ele>270</ele>
        <time>2022-03-29T14:00:45Z</time>
      </trkpt>
      <trkpt lat="46.45783" lon="5.33405">
        <ele>270</ele>
        <time>2022-03-29T14:00:46Z</time>
      </trkpt>
      <trkpt lat="46.45818" lon="5.33335">
        <ele>269.2</ele>
        <time>2022-03-29T14:00:52Z</time>
      </trkpt>
      <trkpt lat="46.45824" lon="5.33323">
        <ele>269.2</ele>
        <time>2022-03-29T14:00:53Z</time>
      </trkpt>
      <trkpt lat="46.45836" lon="5.33302">
        <ele>269</ele>
        <time>2022-03-29T14:00:55Z</time>
      </trkpt>
      <trkpt lat="46.45875" lon="5.33238">
        <ele>268.4</ele>
        <time>2022-03-29T14:01:01Z</time>
      </trkpt>
      <trkpt lat="46.45921" lon="5.33188">
        <ele>268</ele>
        <time>2022-03-29T14:01:07Z</time>
      </trkpt>
      <trkpt lat="46.45936" lon="5.33171">
        <ele>267.8</ele>
        <time>2022-03-29T14:01:09Z</time>
      </trkpt>
      <trkpt lat="46.45943" lon="5.33163">
        <ele>268</ele>
        <time>2022-03-29T14:01:10Z</time>
      </trkpt>
      <trkpt lat="46.45988" lon="5.33117">
        <ele>267.8</ele>
        <time>2022-03-29T14:01:16Z</time>
      </trkpt>
      <trkpt lat="46.46027" lon="5.33078">
        <ele>267</ele>
        <time>2022-03-29T14:01:21Z</time>
      </trkpt>
      <trkpt lat="46.46049" lon="5.33058">
        <ele>266.6</ele>
        <time>2022-03-29T14:01:24Z</time>
      </trkpt>
      <trkpt lat="46.46101" lon="5.33015">
        <ele>266.4</ele>
        <time>2022-03-29T14:01:31Z</time>
      </trkpt>
      <trkpt lat="46.46158" lon="5.32981">
        <ele>266.2</ele>
        <time>2022-03-29T14:01:38Z</time>
      </trkpt>
      <trkpt lat="46.46174" lon="5.3297">
        <ele>266.2</ele>
        <time>2022-03-29T14:01:40Z</time>
      </trkpt>
      <trkpt lat="46.46198" lon="5.32952">
        <ele>265.8</ele>
        <time>2022-03-29T14:01:43Z</time>
      </trkpt>
      <trkpt lat="46.46219" lon="5.32928">
        <ele>265.6</ele>
        <time>2022-03-29T14:01:46Z</time>
      </trkpt>
      <trkpt lat="46.46254" lon="5.32874">
        <ele>265.2</ele>
        <time>2022-03-29T14:01:52Z</time>
      </trkpt>
      <trkpt lat="46.46282" lon="5.32835">
        <ele>265.2</ele>
        <time>2022-03-29T14:01:57Z</time>
      </trkpt>
      <trkpt lat="46.46313" lon="5.32785">
        <ele>265.2</ele>
        <time>2022-03-29T14:02:03Z</time>
      </trkpt>
      <trkpt lat="46.46316" lon="5.32776">
        <ele>265.2</ele>
        <time>2022-03-29T14:02:04Z</time>
      </trkpt>
      <trkpt lat="46.4632" lon="5.32754">
        <ele>265.2</ele>
        <time>2022-03-29T14:02:06Z</time>
      </trkpt>
      <trkpt lat="46.46321" lon="5.32743">
        <ele>265.2</ele>
        <time>2022-03-29T14:02:07Z</time>
      </trkpt>
      <trkpt lat="46.46321" lon="5.32667">
        <ele>265</ele>
        <time>2022-03-29T14:02:14Z</time>
      </trkpt>
      <trkpt lat="46.4632" lon="5.32656">
        <ele>264.8</ele>
        <time>2022-03-29T14:02:15Z</time>
      </trkpt>
      <trkpt lat="46.46324" lon="5.32591">
        <ele>264.8</ele>
        <time>2022-03-29T14:02:21Z</time>
      </trkpt>
      <trkpt lat="46.46338" lon="5.32534">
        <ele>265</ele>
        <time>2022-03-29T14:02:27Z</time>
      </trkpt>
      <trkpt lat="46.46367" lon="5.32464">
        <ele>265.2</ele>
        <time>2022-03-29T14:02:35Z</time>
      </trkpt>
      <trkpt lat="46.46394" lon="5.32394">
        <ele>265</ele>
        <time>2022-03-29T14:02:43Z</time>
      </trkpt>
      <trkpt lat="46.46398" lon="5.32385">
        <ele>265</ele>
        <time>2022-03-29T14:02:44Z</time>
      </trkpt>
      <trkpt lat="46.46433" lon="5.3232">
        <ele>264.8</ele>
        <time>2022-03-29T14:02:52Z</time>
      </trkpt>
      <trkpt lat="46.46439" lon="5.32309">
        <ele>264.8</ele>
        <time>2022-03-29T14:02:53Z</time>
      </trkpt>
      <trkpt lat="46.46477" lon="5.32242">
        <ele>265</ele>
        <time>2022-03-29T14:03:01Z</time>
      </trkpt>
      <trkpt lat="46.46481" lon="5.32235">
        <ele>265</ele>
        <time>2022-03-29T14:03:02Z</time>
      </trkpt>
      <trkpt lat="46.46515" lon="5.32172">
        <ele>264.8</ele>
        <time>2022-03-29T14:03:09Z</time>
      </trkpt>
      <trkpt lat="46.4655" lon="5.32111">
        <ele>264.4</ele>
        <time>2022-03-29T14:03:16Z</time>
      </trkpt>
      <trkpt lat="46.46559" lon="5.32093">
        <ele>264.4</ele>
        <time>2022-03-29T14:03:18Z</time>
      </trkpt>
      <trkpt lat="46.46593" lon="5.32032">
        <ele>264.8</ele>
        <time>2022-03-29T14:03:25Z</time>
      </trkpt>
      <trkpt lat="46.46612" lon="5.31998">
        <ele>265</ele>
        <time>2022-03-29T14:03:29Z</time>
      </trkpt>
      <trkpt lat="46.46654" lon="5.31935">
        <ele>265</ele>
        <time>2022-03-29T14:03:37Z</time>
      </trkpt>
      <trkpt lat="46.46694" lon="5.31899">
        <ele>264.4</ele>
        <time>2022-03-29T14:03:43Z</time>
      </trkpt>
      <trkpt lat="46.46709" lon="5.31887">
        <ele>264.2</ele>
        <time>2022-03-29T14:03:45Z</time>
      </trkpt>
      <trkpt lat="46.4675" lon="5.31852">
        <ele>263.4</ele>
        <time>2022-03-29T14:03:51Z</time>
      </trkpt>
      <trkpt lat="46.46756" lon="5.31845">
        <ele>263.2</ele>
        <time>2022-03-29T14:03:52Z</time>
      </trkpt>
      <trkpt lat="46.46797" lon="5.31795">
        <ele>263</ele>
        <time>2022-03-29T14:03:59Z</time>
      </trkpt>
      <trkpt lat="46.46842" lon="5.31739">
        <ele>263</ele>
        <time>2022-03-29T14:04:07Z</time>
      </trkpt>
      <trkpt lat="46.46853" lon="5.31725">
        <ele>263.2</ele>
        <time>2022-03-29T14:04:09Z</time>
      </trkpt>
      <trkpt lat="46.46889" lon="5.31679">
        <ele>263.8</ele>
        <time>2022-03-29T14:04:16Z</time>
      </trkpt>
      <trkpt lat="46.46917" lon="5.31639">
        <ele>264.4</ele>
        <time>2022-03-29T14:04:22Z</time>
      </trkpt>
      <trkpt lat="46.46922" lon="5.31633">
        <ele>264.8</ele>
        <time>2022-03-29T14:04:23Z</time>
      </trkpt>
      <trkpt lat="46.46937" lon="5.31613">
        <ele>265.2</ele>
        <time>2022-03-29T14:04:26Z</time>
      </trkpt>
      <trkpt lat="46.46958" lon="5.31585">
        <ele>265.4</ele>
        <time>2022-03-29T14:04:30Z</time>
      </trkpt>
      <trkpt lat="46.46992" lon="5.31543">
        <ele>265.2</ele>
        <time>2022-03-29T14:04:36Z</time>
      </trkpt>
      <trkpt lat="46.47025" lon="5.31503">
        <ele>264.6</ele>
        <time>2022-03-29T14:04:41Z</time>
      </trkpt>
      <trkpt lat="46.47057" lon="5.31464">
        <ele>263.8</ele>
        <time>2022-03-29T14:04:46Z</time>
      </trkpt>
      <trkpt lat="46.47063" lon="5.31457">
        <ele>263.6</ele>
        <time>2022-03-29T14:04:47Z</time>
      </trkpt>
      <trkpt lat="46.47083" lon="5.31433">
        <ele>263.4</ele>
        <time>2022-03-29T14:04:50Z</time>
      </trkpt>
      <trkpt lat="46.47116" lon="5.3139">
        <ele>263.4</ele>
        <time>2022-03-29T14:04:55Z</time>
      </trkpt>
      <trkpt lat="46.47155" lon="5.31334">
        <ele>263.6</ele>
        <time>2022-03-29T14:05:02Z</time>
      </trkpt>
      <trkpt lat="46.47161" lon="5.31326">
        <ele>263.6</ele>
        <time>2022-03-29T14:05:03Z</time>
      </trkpt>
      <trkpt lat="46.47189" lon="5.31284">
        <ele>263.6</ele>
        <time>2022-03-29T14:05:08Z</time>
      </trkpt>
      <trkpt lat="46.47194" lon="5.31275">
        <ele>263.4</ele>
        <time>2022-03-29T14:05:09Z</time>
      </trkpt>
      <trkpt lat="46.47215" lon="5.31243">
        <ele>263.4</ele>
        <time>2022-03-29T14:05:13Z</time>
      </trkpt>
      <trkpt lat="46.4722" lon="5.31235">
        <ele>263.4</ele>
        <time>2022-03-29T14:05:14Z</time>
      </trkpt>
      <trkpt lat="46.47262" lon="5.31175">
        <ele>262.8</ele>
        <time>2022-03-29T14:05:21Z</time>
      </trkpt>
      <trkpt lat="46.47288" lon="5.31142">
        <ele>262.2</ele>
        <time>2022-03-29T14:05:25Z</time>
      </trkpt>
      <trkpt lat="46.47325" lon="5.31093">
        <ele>261.8</ele>
        <time>2022-03-29T14:05:31Z</time>
      </trkpt>
      <trkpt lat="46.4736" lon="5.31058">
        <ele>261.2</ele>
        <time>2022-03-29T14:05:36Z</time>
      </trkpt>
      <trkpt lat="46.47368" lon="5.31053">
        <ele>261</ele>
        <time>2022-03-29T14:05:37Z</time>
      </trkpt>
      <trkpt lat="46.47394" lon="5.31036">
        <ele>260.6</ele>
        <time>2022-03-29T14:05:40Z</time>
      </trkpt>
      <trkpt lat="46.47402" lon="5.31032">
        <ele>260.4</ele>
        <time>2022-03-29T14:05:41Z</time>
      </trkpt>
      <trkpt lat="46.4742" lon="5.3102">
        <ele>260</ele>
        <time>2022-03-29T14:05:43Z</time>
      </trkpt>
      <trkpt lat="46.47457" lon="5.30996">
        <ele>258.8</ele>
        <time>2022-03-29T14:05:47Z</time>
      </trkpt>
      <trkpt lat="46.47466" lon="5.30989">
        <ele>258</ele>
        <time>2022-03-29T14:05:48Z</time>
      </trkpt>
      <trkpt lat="46.47475" lon="5.30983">
        <ele>257.6</ele>
        <time>2022-03-29T14:05:49Z</time>
      </trkpt>
      <trkpt lat="46.47511" lon="5.3096">
        <ele>256.6</ele>
        <time>2022-03-29T14:05:53Z</time>
      </trkpt>
      <trkpt lat="46.47554" lon="5.30933">
        <ele>256</ele>
        <time>2022-03-29T14:05:58Z</time>
      </trkpt>
      <trkpt lat="46.47587" lon="5.30918">
        <ele>256.4</ele>
        <time>2022-03-29T14:06:02Z</time>
      </trkpt>
      <trkpt lat="46.47643" lon="5.30893">
        <ele>256.8</ele>
        <time>2022-03-29T14:06:09Z</time>
      </trkpt>
      <trkpt lat="46.47659" lon="5.30891">
        <ele>257.2</ele>
        <time>2022-03-29T14:06:11Z</time>
      </trkpt>
      <trkpt lat="46.47676" lon="5.30894">
        <ele>257.6</ele>
        <time>2022-03-29T14:06:13Z</time>
      </trkpt>
      <trkpt lat="46.47723" lon="5.3091">
        <ele>258.6</ele>
        <time>2022-03-29T14:06:19Z</time>
      </trkpt>
      <trkpt lat="46.47731" lon="5.30911">
        <ele>259</ele>
        <time>2022-03-29T14:06:20Z</time>
      </trkpt>
      <trkpt lat="46.47738" lon="5.3091">
        <ele>259.4</ele>
        <time>2022-03-29T14:06:21Z</time>
      </trkpt>
      <trkpt lat="46.47752" lon="5.30906">
        <ele>260</ele>
        <time>2022-03-29T14:06:23Z</time>
      </trkpt>
      <trkpt lat="46.47758" lon="5.30903">
        <ele>260.2</ele>
        <time>2022-03-29T14:06:24Z</time>
      </trkpt>
      <trkpt lat="46.4777" lon="5.30895">
        <ele>261.2</ele>
        <time>2022-03-29T14:06:26Z</time>
      </trkpt>
      <trkpt lat="46.47775" lon="5.30891">
        <ele>262</ele>
        <time>2022-03-29T14:06:27Z</time>
      </trkpt>
      <trkpt lat="46.47788" lon="5.30875">
        <ele>263.6</ele>
        <time>2022-03-29T14:06:30Z</time>
      </trkpt>
      <trkpt lat="46.47799" lon="5.30857">
        <ele>264.2</ele>
        <time>2022-03-29T14:06:33Z</time>
      </trkpt>
      <trkpt lat="46.4781" lon="5.30839">
        <ele>264.6</ele>
        <time>2022-03-29T14:06:36Z</time>
      </trkpt>
      <trkpt lat="46.4782" lon="5.30824">
        <ele>264.8</ele>
        <time>2022-03-29T14:06:38Z</time>
      </trkpt>
      <trkpt lat="46.47832" lon="5.30813">
        <ele>265</ele>
        <time>2022-03-29T14:06:40Z</time>
      </trkpt>
      <trkpt lat="46.47845" lon="5.30805">
        <ele>264.8</ele>
        <time>2022-03-29T14:06:42Z</time>
      </trkpt>
      <trkpt lat="46.47859" lon="5.30802">
        <ele>264.6</ele>
        <time>2022-03-29T14:06:44Z</time>
      </trkpt>
      <trkpt lat="46.47894" lon="5.30808">
        <ele>263</ele>
        <time>2022-03-29T14:06:48Z</time>
      </trkpt>
      <trkpt lat="46.47923" lon="5.30817">
        <ele>261.8</ele>
        <time>2022-03-29T14:06:51Z</time>
      </trkpt>
      <trkpt lat="46.47945" lon="5.30819">
        <ele>260.4</ele>
        <time>2022-03-29T14:06:53Z</time>
      </trkpt>
      <trkpt lat="46.47967" lon="5.30815">
        <ele>259.6</ele>
        <time>2022-03-29T14:06:55Z</time>
      </trkpt>
      <trkpt lat="46.47989" lon="5.30806">
        <ele>258.2</ele>
        <time>2022-03-29T14:06:57Z</time>
      </trkpt>
      <trkpt lat="46.48036" lon="5.30779">
        <ele>257.6</ele>
        <time>2022-03-29T14:07:02Z</time>
      </trkpt>
      <trkpt lat="46.48087" lon="5.30752">
        <ele>258.6</ele>
        <time>2022-03-29T14:07:08Z</time>
      </trkpt>
      <trkpt lat="46.48138" lon="5.30725">
        <ele>258.8</ele>
        <time>2022-03-29T14:07:14Z</time>
      </trkpt>
      <trkpt lat="46.48156" lon="5.30715">
        <ele>258.8</ele>
        <time>2022-03-29T14:07:16Z</time>
      </trkpt>
      <trkpt lat="46.48211" lon="5.30688">
        <ele>258.6</ele>
        <time>2022-03-29T14:07:22Z</time>
      </trkpt>
      <trkpt lat="46.4822" lon="5.30686">
        <ele>258.4</ele>
        <time>2022-03-29T14:07:23Z</time>
      </trkpt>
      <trkpt lat="46.4825" lon="5.30689">
        <ele>257</ele>
        <time>2022-03-29T14:07:26Z</time>
      </trkpt>
      <trkpt lat="46.4826" lon="5.30692">
        <ele>256.8</ele>
        <time>2022-03-29T14:07:27Z</time>
      </trkpt>
      <trkpt lat="46.48292" lon="5.307">
        <ele>256</ele>
        <time>2022-03-29T14:07:30Z</time>
      </trkpt>
      <trkpt lat="46.48301" lon="5.307">
        <ele>255.6</ele>
        <time>2022-03-29T14:07:31Z</time>
      </trkpt>
      <trkpt lat="46.4831" lon="5.307">
        <ele>255.2</ele>
        <time>2022-03-29T14:07:32Z</time>
      </trkpt>
      <trkpt lat="46.48329" lon="5.30693">
        <ele>254.8</ele>
        <time>2022-03-29T14:07:34Z</time>
      </trkpt>
      <trkpt lat="46.48338" lon="5.30687">
        <ele>254.6</ele>
        <time>2022-03-29T14:07:35Z</time>
      </trkpt>
      <trkpt lat="46.48386" lon="5.30644">
        <ele>254.4</ele>
        <time>2022-03-29T14:07:41Z</time>
      </trkpt>
      <trkpt lat="46.48436" lon="5.30595">
        <ele>254.8</ele>
        <time>2022-03-29T14:07:48Z</time>
      </trkpt>
      <trkpt lat="46.48468" lon="5.30563">
        <ele>255.6</ele>
        <time>2022-03-29T14:07:53Z</time>
      </trkpt>
      <trkpt lat="46.48475" lon="5.30557">
        <ele>255.6</ele>
        <time>2022-03-29T14:07:54Z</time>
      </trkpt>
      <trkpt lat="46.48518" lon="5.30514">
        <ele>256</ele>
        <time>2022-03-29T14:08:01Z</time>
      </trkpt>
      <trkpt lat="46.48543" lon="5.30496">
        <ele>256.2</ele>
        <time>2022-03-29T14:08:05Z</time>
      </trkpt>
      <trkpt lat="46.4855" lon="5.30495">
        <ele>256.2</ele>
        <time>2022-03-29T14:08:06Z</time>
      </trkpt>
      <trkpt lat="46.48555" lon="5.30499">
        <ele>256.4</ele>
        <time>2022-03-29T14:08:07Z</time>
      </trkpt>
      <trkpt lat="46.48559" lon="5.30506">
        <ele>256.4</ele>
        <time>2022-03-29T14:08:08Z</time>
      </trkpt>
      <trkpt lat="46.48561" lon="5.30515">
        <ele>256.4</ele>
        <time>2022-03-29T14:08:09Z</time>
      </trkpt>
      <trkpt lat="46.4856" lon="5.30533">
        <ele>256.2</ele>
        <time>2022-03-29T14:08:11Z</time>
      </trkpt>
      <trkpt lat="46.48551" lon="5.30595">
        <ele>255.6</ele>
        <time>2022-03-29T14:08:17Z</time>
      </trkpt>
      <trkpt lat="46.48543" lon="5.30654">
        <ele>254.8</ele>
        <time>2022-03-29T14:08:22Z</time>
      </trkpt>
      <trkpt lat="46.48544" lon="5.30679">
        <ele>254.4</ele>
        <time>2022-03-29T14:08:24Z</time>
      </trkpt>
      <trkpt lat="46.48545" lon="5.30692">
        <ele>254.4</ele>
        <time>2022-03-29T14:08:25Z</time>
      </trkpt>
      <trkpt lat="46.48551" lon="5.30717">
        <ele>254</ele>
        <time>2022-03-29T14:08:27Z</time>
      </trkpt>
      <trkpt lat="46.48561" lon="5.30738">
        <ele>253.6</ele>
        <time>2022-03-29T14:08:29Z</time>
      </trkpt>
      <trkpt lat="46.48568" lon="5.30747">
        <ele>252.8</ele>
        <time>2022-03-29T14:08:30Z</time>
      </trkpt>
      <trkpt lat="46.48574" lon="5.30756">
        <ele>252.4</ele>
        <time>2022-03-29T14:08:31Z</time>
      </trkpt>
      <trkpt lat="46.48582" lon="5.30763">
        <ele>251.6</ele>
        <time>2022-03-29T14:08:32Z</time>
      </trkpt>
      <trkpt lat="46.4859" lon="5.30771">
        <ele>251.2</ele>
        <time>2022-03-29T14:08:33Z</time>
      </trkpt>
      <trkpt lat="46.48605" lon="5.30784">
        <ele>250.4</ele>
        <time>2022-03-29T14:08:35Z</time>
      </trkpt>
      <trkpt lat="46.48637" lon="5.3081">
        <ele>249.4</ele>
        <time>2022-03-29T14:08:39Z</time>
      </trkpt>
      <trkpt lat="46.48653" lon="5.3082">
        <ele>249</ele>
        <time>2022-03-29T14:08:41Z</time>
      </trkpt>
      <trkpt lat="46.48689" lon="5.30842">
        <ele>248.6</ele>
        <time>2022-03-29T14:08:46Z</time>
      </trkpt>
      <trkpt lat="46.48708" lon="5.30859">
        <ele>248.8</ele>
        <time>2022-03-29T14:08:49Z</time>
      </trkpt>
      <trkpt lat="46.48713" lon="5.30868">
        <ele>249</ele>
        <time>2022-03-29T14:08:50Z</time>
      </trkpt>
      <trkpt lat="46.48716" lon="5.30877">
        <ele>249</ele>
        <time>2022-03-29T14:08:51Z</time>
      </trkpt>
      <trkpt lat="46.48718" lon="5.30897">
        <ele>249.4</ele>
        <time>2022-03-29T14:08:53Z</time>
      </trkpt>
      <trkpt lat="46.48712" lon="5.30916">
        <ele>249.6</ele>
        <time>2022-03-29T14:08:55Z</time>
      </trkpt>
      <trkpt lat="46.48707" lon="5.30922">
        <ele>249.8</ele>
        <time>2022-03-29T14:08:56Z</time>
      </trkpt>
      <trkpt lat="46.48702" lon="5.30929">
        <ele>250</ele>
        <time>2022-03-29T14:08:57Z</time>
      </trkpt>
      <trkpt lat="46.4869" lon="5.30951">
        <ele>250.6</ele>
        <time>2022-03-29T14:09:00Z</time>
      </trkpt>
      <trkpt lat="46.4868" lon="5.30971">
        <ele>252</ele>
        <time>2022-03-29T14:09:03Z</time>
      </trkpt>
      <trkpt lat="46.48671" lon="5.30991">
        <ele>252.8</ele>
        <time>2022-03-29T14:09:06Z</time>
      </trkpt>
      <trkpt lat="46.48668" lon="5.30997">
        <ele>253</ele>
        <time>2022-03-29T14:09:07Z</time>
      </trkpt>
      <trkpt lat="46.48643" lon="5.31045">
        <ele>253.4</ele>
        <time>2022-03-29T14:09:15Z</time>
      </trkpt>
      <trkpt lat="46.48635" lon="5.3106">
        <ele>253</ele>
        <time>2022-03-29T14:09:19Z</time>
      </trkpt>
      <trkpt lat="46.48635" lon="5.31061">
        <ele>253</ele>
        <time>2022-03-29T14:09:20Z</time>
      </trkpt>
      <trkpt lat="46.48635" lon="5.31061">
        <ele>252.6</ele>
        <time>2022-03-29T14:09:23Z</time>
      </trkpt>
      <trkpt lat="46.48635" lon="5.31061">
        <ele>252.4</ele>
        <time>2022-03-29T14:09:24Z</time>
      </trkpt>
      <trkpt lat="46.48634" lon="5.31063">
        <ele>252.2</ele>
        <time>2022-03-29T14:10:12Z</time>
      </trkpt>
      <trkpt lat="46.48629" lon="5.31073">
        <ele>252</ele>
        <time>2022-03-29T14:10:15Z</time>
      </trkpt>
      <trkpt lat="46.48617" lon="5.31097">
        <ele>251.8</ele>
        <time>2022-03-29T14:10:19Z</time>
      </trkpt>
      <trkpt lat="46.48594" lon="5.31146">
        <ele>251.4</ele>
        <time>2022-03-29T14:10:25Z</time>
      </trkpt>
      <trkpt lat="46.48585" lon="5.31163">
        <ele>251.2</ele>
        <time>2022-03-29T14:10:27Z</time>
      </trkpt>
      <trkpt lat="46.48563" lon="5.31209">
        <ele>250.6</ele>
        <time>2022-03-29T14:10:32Z</time>
      </trkpt>
      <trkpt lat="46.48556" lon="5.31229">
        <ele>250.4</ele>
        <time>2022-03-29T14:10:34Z</time>
      </trkpt>
      <trkpt lat="46.48552" lon="5.31251">
        <ele>250</ele>
        <time>2022-03-29T14:10:36Z</time>
      </trkpt>
      <trkpt lat="46.48554" lon="5.31296">
        <ele>249.2</ele>
        <time>2022-03-29T14:10:40Z</time>
      </trkpt>
      <trkpt lat="46.48555" lon="5.31307">
        <ele>249</ele>
        <time>2022-03-29T14:10:41Z</time>
      </trkpt>
      <trkpt lat="46.48561" lon="5.31353">
        <ele>247.8</ele>
        <time>2022-03-29T14:10:45Z</time>
      </trkpt>
      <trkpt lat="46.48565" lon="5.31365">
        <ele>247.6</ele>
        <time>2022-03-29T14:10:46Z</time>
      </trkpt>
      <trkpt lat="46.4857" lon="5.31376">
        <ele>247.4</ele>
        <time>2022-03-29T14:10:47Z</time>
      </trkpt>
      <trkpt lat="46.48584" lon="5.31394">
        <ele>246.6</ele>
        <time>2022-03-29T14:10:49Z</time>
      </trkpt>
      <trkpt lat="46.48599" lon="5.31414">
        <ele>246</ele>
        <time>2022-03-29T14:10:51Z</time>
      </trkpt>
      <trkpt lat="46.48604" lon="5.31426">
        <ele>245.4</ele>
        <time>2022-03-29T14:10:52Z</time>
      </trkpt>
      <trkpt lat="46.48607" lon="5.31441">
        <ele>245.2</ele>
        <time>2022-03-29T14:10:53Z</time>
      </trkpt>
      <trkpt lat="46.48608" lon="5.31456">
        <ele>244.8</ele>
        <time>2022-03-29T14:10:54Z</time>
      </trkpt>
      <trkpt lat="46.48609" lon="5.31485">
        <ele>243.8</ele>
        <time>2022-03-29T14:10:56Z</time>
      </trkpt>
      <trkpt lat="46.48615" lon="5.31509">
        <ele>243.2</ele>
        <time>2022-03-29T14:10:58Z</time>
      </trkpt>
      <trkpt lat="46.48625" lon="5.31526">
        <ele>242.8</ele>
        <time>2022-03-29T14:11:00Z</time>
      </trkpt>
      <trkpt lat="46.4863" lon="5.31535">
        <ele>242.8</ele>
        <time>2022-03-29T14:11:01Z</time>
      </trkpt>
      <trkpt lat="46.48636" lon="5.31544">
        <ele>242.6</ele>
        <time>2022-03-29T14:11:02Z</time>
      </trkpt>
      <trkpt lat="46.48651" lon="5.31563">
        <ele>242.4</ele>
        <time>2022-03-29T14:11:04Z</time>
      </trkpt>
      <trkpt lat="46.48656" lon="5.31572">
        <ele>242.2</ele>
        <time>2022-03-29T14:11:05Z</time>
      </trkpt>
      <trkpt lat="46.48691" lon="5.31623">
        <ele>241.8</ele>
        <time>2022-03-29T14:11:11Z</time>
      </trkpt>
      <trkpt lat="46.48707" lon="5.3164">
        <ele>241.8</ele>
        <time>2022-03-29T14:11:13Z</time>
      </trkpt>
      <trkpt lat="46.48723" lon="5.31663">
        <ele>241.8</ele>
        <time>2022-03-29T14:11:16Z</time>
      </trkpt>
      <trkpt lat="46.48755" lon="5.31707">
        <ele>242</ele>
        <time>2022-03-29T14:11:22Z</time>
      </trkpt>
      <trkpt lat="46.48773" lon="5.31742">
        <ele>241.8</ele>
        <time>2022-03-29T14:11:25Z</time>
      </trkpt>
      <trkpt lat="46.48775" lon="5.31753">
        <ele>241.6</ele>
        <time>2022-03-29T14:11:26Z</time>
      </trkpt>
      <trkpt lat="46.4878" lon="5.31824">
        <ele>240.8</ele>
        <time>2022-03-29T14:11:32Z</time>
      </trkpt>
      <trkpt lat="46.48788" lon="5.31841">
        <ele>240.8</ele>
        <time>2022-03-29T14:11:34Z</time>
      </trkpt>
      <trkpt lat="46.48795" lon="5.31849">
        <ele>240.6</ele>
        <time>2022-03-29T14:11:35Z</time>
      </trkpt>
      <trkpt lat="46.48803" lon="5.31853">
        <ele>240.6</ele>
        <time>2022-03-29T14:11:36Z</time>
      </trkpt>
      <trkpt lat="46.48819" lon="5.3186">
        <ele>240.4</ele>
        <time>2022-03-29T14:11:38Z</time>
      </trkpt>
      <trkpt lat="46.48826" lon="5.31866">
        <ele>240.4</ele>
        <time>2022-03-29T14:11:39Z</time>
      </trkpt>
      <trkpt lat="46.48831" lon="5.31873">
        <ele>240.4</ele>
        <time>2022-03-29T14:11:40Z</time>
      </trkpt>
      <trkpt lat="46.48839" lon="5.31895">
        <ele>240.2</ele>
        <time>2022-03-29T14:11:42Z</time>
      </trkpt>
      <trkpt lat="46.48844" lon="5.31937">
        <ele>240.2</ele>
        <time>2022-03-29T14:11:46Z</time>
      </trkpt>
      <trkpt lat="46.48845" lon="5.32006">
        <ele>240.8</ele>
        <time>2022-03-29T14:11:53Z</time>
      </trkpt>
      <trkpt lat="46.4884" lon="5.32044">
        <ele>241.8</ele>
        <time>2022-03-29T14:11:57Z</time>
      </trkpt>
      <trkpt lat="46.48835" lon="5.32071">
        <ele>242.4</ele>
        <time>2022-03-29T14:12:00Z</time>
      </trkpt>
      <trkpt lat="46.48828" lon="5.32106">
        <ele>242.8</ele>
        <time>2022-03-29T14:12:04Z</time>
      </trkpt>
      <trkpt lat="46.48823" lon="5.3214">
        <ele>243.6</ele>
        <time>2022-03-29T14:12:08Z</time>
      </trkpt>
      <trkpt lat="46.48824" lon="5.32182">
        <ele>244</ele>
        <time>2022-03-29T14:12:13Z</time>
      </trkpt>
      <trkpt lat="46.48832" lon="5.32229">
        <ele>245</ele>
        <time>2022-03-29T14:12:19Z</time>
      </trkpt>
      <trkpt lat="46.48834" lon="5.32236">
        <ele>245.2</ele>
        <time>2022-03-29T14:12:20Z</time>
      </trkpt>
      <trkpt lat="46.48837" lon="5.32243">
        <ele>245.2</ele>
        <time>2022-03-29T14:12:21Z</time>
      </trkpt>
      <trkpt lat="46.48844" lon="5.32258">
        <ele>245.6</ele>
        <time>2022-03-29T14:12:23Z</time>
      </trkpt>
      <trkpt lat="46.48853" lon="5.32272">
        <ele>245.8</ele>
        <time>2022-03-29T14:12:25Z</time>
      </trkpt>
      <trkpt lat="46.48878" lon="5.32307">
        <ele>245.8</ele>
        <time>2022-03-29T14:12:29Z</time>
      </trkpt>
      <trkpt lat="46.48905" lon="5.32354">
        <ele>244</ele>
        <time>2022-03-29T14:12:33Z</time>
      </trkpt>
      <trkpt lat="46.48914" lon="5.32381">
        <ele>243</ele>
        <time>2022-03-29T14:12:35Z</time>
      </trkpt>
      <trkpt lat="46.48921" lon="5.32407">
        <ele>241.8</ele>
        <time>2022-03-29T14:12:37Z</time>
      </trkpt>
      <trkpt lat="46.48933" lon="5.32443">
        <ele>240.6</ele>
        <time>2022-03-29T14:12:40Z</time>
      </trkpt>
      <trkpt lat="46.48948" lon="5.32492">
        <ele>240</ele>
        <time>2022-03-29T14:12:44Z</time>
      </trkpt>
      <trkpt lat="46.48957" lon="5.3253">
        <ele>239.6</ele>
        <time>2022-03-29T14:12:47Z</time>
      </trkpt>
      <trkpt lat="46.48958" lon="5.32542">
        <ele>239.6</ele>
        <time>2022-03-29T14:12:48Z</time>
      </trkpt>
      <trkpt lat="46.48957" lon="5.32554">
        <ele>239.6</ele>
        <time>2022-03-29T14:12:49Z</time>
      </trkpt>
      <trkpt lat="46.48949" lon="5.32575">
        <ele>239.4</ele>
        <time>2022-03-29T14:12:51Z</time>
      </trkpt>
      <trkpt lat="46.48927" lon="5.32606">
        <ele>239.6</ele>
        <time>2022-03-29T14:12:55Z</time>
      </trkpt>
      <trkpt lat="46.4892" lon="5.32622">
        <ele>239.8</ele>
        <time>2022-03-29T14:12:57Z</time>
      </trkpt>
      <trkpt lat="46.48919" lon="5.3263">
        <ele>239.8</ele>
        <time>2022-03-29T14:12:58Z</time>
      </trkpt>
      <trkpt lat="46.48918" lon="5.32638">
        <ele>240.2</ele>
        <time>2022-03-29T14:12:59Z</time>
      </trkpt>
      <trkpt lat="46.48921" lon="5.32651">
        <ele>240.6</ele>
        <time>2022-03-29T14:13:01Z</time>
      </trkpt>
      <trkpt lat="46.48933" lon="5.32673">
        <ele>241.6</ele>
        <time>2022-03-29T14:13:05Z</time>
      </trkpt>
      <trkpt lat="46.48936" lon="5.32677">
        <ele>242</ele>
        <time>2022-03-29T14:13:06Z</time>
      </trkpt>
      <trkpt lat="46.48944" lon="5.3269">
        <ele>243.2</ele>
        <time>2022-03-29T14:13:09Z</time>
      </trkpt>
      <trkpt lat="46.48952" lon="5.327">
        <ele>244.2</ele>
        <time>2022-03-29T14:13:12Z</time>
      </trkpt>
      <trkpt lat="46.48966" lon="5.32709">
        <ele>245.2</ele>
        <time>2022-03-29T14:13:16Z</time>
      </trkpt>
      <trkpt lat="46.48977" lon="5.32713">
        <ele>246</ele>
        <time>2022-03-29T14:13:19Z</time>
      </trkpt>
      <trkpt lat="46.4898" lon="5.32714">
        <ele>246.4</ele>
        <time>2022-03-29T14:13:20Z</time>
      </trkpt>
      <trkpt lat="46.48997" lon="5.32713">
        <ele>247.8</ele>
        <time>2022-03-29T14:13:25Z</time>
      </trkpt>
      <trkpt lat="46.49001" lon="5.32713">
        <ele>248</ele>
        <time>2022-03-29T14:13:26Z</time>
      </trkpt>
      <trkpt lat="46.49011" lon="5.32711">
        <ele>249</ele>
        <time>2022-03-29T14:13:29Z</time>
      </trkpt>
      <trkpt lat="46.49036" lon="5.32707">
        <ele>250</ele>
        <time>2022-03-29T14:13:36Z</time>
      </trkpt>
      <trkpt lat="46.49054" lon="5.32704">
        <ele>251</ele>
        <time>2022-03-29T14:13:41Z</time>
      </trkpt>
      <trkpt lat="46.49065" lon="5.32702">
        <ele>251.4</ele>
        <time>2022-03-29T14:13:44Z</time>
      </trkpt>
      <trkpt lat="46.49078" lon="5.327">
        <ele>252.2</ele>
        <time>2022-03-29T14:13:48Z</time>
      </trkpt>
      <trkpt lat="46.49084" lon="5.32699">
        <ele>252.6</ele>
        <time>2022-03-29T14:13:50Z</time>
      </trkpt>
      <trkpt lat="46.49098" lon="5.32697">
        <ele>253.4</ele>
        <time>2022-03-29T14:13:54Z</time>
      </trkpt>
      <trkpt lat="46.49109" lon="5.32699">
        <ele>253.8</ele>
        <time>2022-03-29T14:13:57Z</time>
      </trkpt>
      <trkpt lat="46.49122" lon="5.32713">
        <ele>254.6</ele>
        <time>2022-03-29T14:14:01Z</time>
      </trkpt>
      <trkpt lat="46.49125" lon="5.32718">
        <ele>255</ele>
        <time>2022-03-29T14:14:02Z</time>
      </trkpt>
      <trkpt lat="46.49135" lon="5.32754">
        <ele>255.8</ele>
        <time>2022-03-29T14:14:08Z</time>
      </trkpt>
      <trkpt lat="46.49137" lon="5.32761">
        <ele>255.8</ele>
        <time>2022-03-29T14:14:09Z</time>
      </trkpt>
      <trkpt lat="46.49143" lon="5.32801">
        <ele>256.2</ele>
        <time>2022-03-29T14:14:14Z</time>
      </trkpt>
      <trkpt lat="46.49141" lon="5.3283">
        <ele>256</ele>
        <time>2022-03-29T14:14:17Z</time>
      </trkpt>
      <trkpt lat="46.49139" lon="5.3284">
        <ele>256</ele>
        <time>2022-03-29T14:14:18Z</time>
      </trkpt>
      <trkpt lat="46.49137" lon="5.3285">
        <ele>255.8</ele>
        <time>2022-03-29T14:14:19Z</time>
      </trkpt>
      <trkpt lat="46.49127" lon="5.32887">
        <ele>255.4</ele>
        <time>2022-03-29T14:14:23Z</time>
      </trkpt>
      <trkpt lat="46.49125" lon="5.32897">
        <ele>255.4</ele>
        <time>2022-03-29T14:14:24Z</time>
      </trkpt>
      <trkpt lat="46.49122" lon="5.32924">
        <ele>255.4</ele>
        <time>2022-03-29T14:14:27Z</time>
      </trkpt>
      <trkpt lat="46.49124" lon="5.32981">
        <ele>255.6</ele>
        <time>2022-03-29T14:14:33Z</time>
      </trkpt>
      <trkpt lat="46.49126" lon="5.3299">
        <ele>255.6</ele>
        <time>2022-03-29T14:14:34Z</time>
      </trkpt>
      <trkpt lat="46.4913" lon="5.33015">
        <ele>256</ele>
        <time>2022-03-29T14:14:37Z</time>
      </trkpt>
      <trkpt lat="46.49134" lon="5.3304">
        <ele>256.2</ele>
        <time>2022-03-29T14:14:40Z</time>
      </trkpt>
      <trkpt lat="46.49142" lon="5.33074">
        <ele>256.4</ele>
        <time>2022-03-29T14:14:44Z</time>
      </trkpt>
      <trkpt lat="46.49145" lon="5.33083">
        <ele>256.6</ele>
        <time>2022-03-29T14:14:45Z</time>
      </trkpt>
      <trkpt lat="46.49147" lon="5.33091">
        <ele>256.6</ele>
        <time>2022-03-29T14:14:46Z</time>
      </trkpt>
      <trkpt lat="46.49154" lon="5.33109">
        <ele>256.8</ele>
        <time>2022-03-29T14:14:48Z</time>
      </trkpt>
      <trkpt lat="46.49163" lon="5.33125">
        <ele>257</ele>
        <time>2022-03-29T14:14:50Z</time>
      </trkpt>
      <trkpt lat="46.49198" lon="5.33158">
        <ele>257.2</ele>
        <time>2022-03-29T14:14:56Z</time>
      </trkpt>
      <trkpt lat="46.49226" lon="5.33181">
        <ele>257.2</ele>
        <time>2022-03-29T14:15:01Z</time>
      </trkpt>
      <trkpt lat="46.49236" lon="5.33191">
        <ele>257.4</ele>
        <time>2022-03-29T14:15:03Z</time>
      </trkpt>
      <trkpt lat="46.4925" lon="5.33208">
        <ele>257.6</ele>
        <time>2022-03-29T14:15:06Z</time>
      </trkpt>
      <trkpt lat="46.49258" lon="5.33223">
        <ele>258</ele>
        <time>2022-03-29T14:15:08Z</time>
      </trkpt>
      <trkpt lat="46.49261" lon="5.33231">
        <ele>258.2</ele>
        <time>2022-03-29T14:15:09Z</time>
      </trkpt>
      <trkpt lat="46.49269" lon="5.33264">
        <ele>258.8</ele>
        <time>2022-03-29T14:15:13Z</time>
      </trkpt>
      <trkpt lat="46.49273" lon="5.3328">
        <ele>259.2</ele>
        <time>2022-03-29T14:15:15Z</time>
      </trkpt>
      <trkpt lat="46.49281" lon="5.33324">
        <ele>260.2</ele>
        <time>2022-03-29T14:15:20Z</time>
      </trkpt>
      <trkpt lat="46.49283" lon="5.33332">
        <ele>260.4</ele>
        <time>2022-03-29T14:15:21Z</time>
      </trkpt>
      <trkpt lat="46.49297" lon="5.33399">
        <ele>261.4</ele>
        <time>2022-03-29T14:15:29Z</time>
      </trkpt>
      <trkpt lat="46.493" lon="5.33415">
        <ele>261.4</ele>
        <time>2022-03-29T14:15:31Z</time>
      </trkpt>
      <trkpt lat="46.49308" lon="5.33466">
        <ele>262.4</ele>
        <time>2022-03-29T14:15:37Z</time>
      </trkpt>
      <trkpt lat="46.49309" lon="5.33474">
        <ele>262.6</ele>
        <time>2022-03-29T14:15:38Z</time>
      </trkpt>
      <trkpt lat="46.49316" lon="5.33547">
        <ele>262.8</ele>
        <time>2022-03-29T14:15:46Z</time>
      </trkpt>
      <trkpt lat="46.49314" lon="5.33566">
        <ele>262.6</ele>
        <time>2022-03-29T14:15:48Z</time>
      </trkpt>
      <trkpt lat="46.49308" lon="5.33602">
        <ele>262.4</ele>
        <time>2022-03-29T14:15:51Z</time>
      </trkpt>
      <trkpt lat="46.49302" lon="5.33657">
        <ele>262.4</ele>
        <time>2022-03-29T14:15:58Z</time>
      </trkpt>
      <trkpt lat="46.49299" lon="5.33739">
        <ele>262.8</ele>
        <time>2022-03-29T14:16:06Z</time>
      </trkpt>
      <trkpt lat="46.49289" lon="5.33797">
        <ele>263.4</ele>
        <time>2022-03-29T14:16:13Z</time>
      </trkpt>
      <trkpt lat="46.49286" lon="5.33814">
        <ele>263.4</ele>
        <time>2022-03-29T14:16:16Z</time>
      </trkpt>
      <trkpt lat="46.49274" lon="5.33873">
        <ele>263.8</ele>
        <time>2022-03-29T14:16:22Z</time>
      </trkpt>
      <trkpt lat="46.49268" lon="5.33901">
        <ele>264.2</ele>
        <time>2022-03-29T14:16:25Z</time>
      </trkpt>
      <trkpt lat="46.49262" lon="5.33928">
        <ele>264.2</ele>
        <time>2022-03-29T14:16:29Z</time>
      </trkpt>
      <trkpt lat="46.49248" lon="5.34004">
        <ele>264.4</ele>
        <time>2022-03-29T14:16:36Z</time>
      </trkpt>
      <trkpt lat="46.49246" lon="5.34014">
        <ele>264.4</ele>
        <time>2022-03-29T14:16:38Z</time>
      </trkpt>
      <trkpt lat="46.49229" lon="5.34107">
        <ele>264.2</ele>
        <time>2022-03-29T14:16:46Z</time>
      </trkpt>
      <trkpt lat="46.49227" lon="5.34118">
        <ele>264.2</ele>
        <time>2022-03-29T14:16:47Z</time>
      </trkpt>
      <trkpt lat="46.49212" lon="5.34193">
        <ele>262.4</ele>
        <time>2022-03-29T14:16:53Z</time>
      </trkpt>
      <trkpt lat="46.49201" lon="5.34252">
        <ele>261.4</ele>
        <time>2022-03-29T14:16:58Z</time>
      </trkpt>
      <trkpt lat="46.49192" lon="5.34296">
        <ele>261.4</ele>
        <time>2022-03-29T14:17:02Z</time>
      </trkpt>
      <trkpt lat="46.49183" lon="5.34345">
        <ele>262</ele>
        <time>2022-03-29T14:17:08Z</time>
      </trkpt>
      <trkpt lat="46.49166" lon="5.34429">
        <ele>262.4</ele>
        <time>2022-03-29T14:17:15Z</time>
      </trkpt>
      <trkpt lat="46.49149" lon="5.3452">
        <ele>261.6</ele>
        <time>2022-03-29T14:17:23Z</time>
      </trkpt>
      <trkpt lat="46.49137" lon="5.34578">
        <ele>261.4</ele>
        <time>2022-03-29T14:17:29Z</time>
      </trkpt>
      <trkpt lat="46.49125" lon="5.34636">
        <ele>262</ele>
        <time>2022-03-29T14:17:35Z</time>
      </trkpt>
      <trkpt lat="46.4911" lon="5.34715">
        <ele>262</ele>
        <time>2022-03-29T14:17:42Z</time>
      </trkpt>
      <trkpt lat="46.49108" lon="5.34725">
        <ele>262</ele>
        <time>2022-03-29T14:17:43Z</time>
      </trkpt>
      <trkpt lat="46.49104" lon="5.34746">
        <ele>261.6</ele>
        <time>2022-03-29T14:17:45Z</time>
      </trkpt>
      <trkpt lat="46.49102" lon="5.34756">
        <ele>261.6</ele>
        <time>2022-03-29T14:17:46Z</time>
      </trkpt>
      <trkpt lat="46.49089" lon="5.34829">
        <ele>262.2</ele>
        <time>2022-03-29T14:17:54Z</time>
      </trkpt>
      <trkpt lat="46.49083" lon="5.34863">
        <ele>262.6</ele>
        <time>2022-03-29T14:17:58Z</time>
      </trkpt>
      <trkpt lat="46.49079" lon="5.34878">
        <ele>262.6</ele>
        <time>2022-03-29T14:18:00Z</time>
      </trkpt>
      <trkpt lat="46.49066" lon="5.34945">
        <ele>263.6</ele>
        <time>2022-03-29T14:18:08Z</time>
      </trkpt>
      <trkpt lat="46.49057" lon="5.34994">
        <ele>264.8</ele>
        <time>2022-03-29T14:18:14Z</time>
      </trkpt>
      <trkpt lat="46.49053" lon="5.35018">
        <ele>265.2</ele>
        <time>2022-03-29T14:18:17Z</time>
      </trkpt>
      <trkpt lat="46.49052" lon="5.35026">
        <ele>265.4</ele>
        <time>2022-03-29T14:18:18Z</time>
      </trkpt>
      <trkpt lat="46.49046" lon="5.35059">
        <ele>266</ele>
        <time>2022-03-29T14:18:22Z</time>
      </trkpt>
      <trkpt lat="46.49043" lon="5.35077">
        <ele>266.4</ele>
        <time>2022-03-29T14:18:24Z</time>
      </trkpt>
      <trkpt lat="46.49035" lon="5.35112">
        <ele>267</ele>
        <time>2022-03-29T14:18:28Z</time>
      </trkpt>
      <trkpt lat="46.49028" lon="5.35129">
        <ele>267.4</ele>
        <time>2022-03-29T14:18:30Z</time>
      </trkpt>
      <trkpt lat="46.49006" lon="5.35181">
        <ele>268</ele>
        <time>2022-03-29T14:18:37Z</time>
      </trkpt>
      <trkpt lat="46.48987" lon="5.35223">
        <ele>267.6</ele>
        <time>2022-03-29T14:18:43Z</time>
      </trkpt>
      <trkpt lat="46.48961" lon="5.35279">
        <ele>266.8</ele>
        <time>2022-03-29T14:18:49Z</time>
      </trkpt>
      <trkpt lat="46.48933" lon="5.35346">
        <ele>266</ele>
        <time>2022-03-29T14:18:55Z</time>
      </trkpt>
      <trkpt lat="46.48928" lon="5.35355">
        <ele>266</ele>
        <time>2022-03-29T14:18:56Z</time>
      </trkpt>
      <trkpt lat="46.48924" lon="5.35365">
        <ele>265.8</ele>
        <time>2022-03-29T14:18:57Z</time>
      </trkpt>
      <trkpt lat="46.48894" lon="5.35435">
        <ele>265.8</ele>
        <time>2022-03-29T14:19:05Z</time>
      </trkpt>
      <trkpt lat="46.48863" lon="5.35502">
        <ele>266.4</ele>
        <time>2022-03-29T14:19:13Z</time>
      </trkpt>
      <trkpt lat="46.48848" lon="5.35536">
        <ele>267</ele>
        <time>2022-03-29T14:19:17Z</time>
      </trkpt>
      <trkpt lat="46.48833" lon="5.35569">
        <ele>267.2</ele>
        <time>2022-03-29T14:19:21Z</time>
      </trkpt>
      <trkpt lat="46.48802" lon="5.35638">
        <ele>267.2</ele>
        <time>2022-03-29T14:19:29Z</time>
      </trkpt>
      <trkpt lat="46.48795" lon="5.35655">
        <ele>267.2</ele>
        <time>2022-03-29T14:19:31Z</time>
      </trkpt>
      <trkpt lat="46.48777" lon="5.35699">
        <ele>267</ele>
        <time>2022-03-29T14:19:36Z</time>
      </trkpt>
      <trkpt lat="46.48747" lon="5.35769">
        <ele>266.8</ele>
        <time>2022-03-29T14:19:44Z</time>
      </trkpt>
      <trkpt lat="46.48735" lon="5.35792">
        <ele>266.6</ele>
        <time>2022-03-29T14:19:47Z</time>
      </trkpt>
      <trkpt lat="46.48732" lon="5.358">
        <ele>266.6</ele>
        <time>2022-03-29T14:19:49Z</time>
      </trkpt>
      <trkpt lat="46.487" lon="5.35873">
        <ele>267.2</ele>
        <time>2022-03-29T14:19:57Z</time>
      </trkpt>
      <trkpt lat="46.48694" lon="5.35888">
        <ele>267.4</ele>
        <time>2022-03-29T14:19:59Z</time>
      </trkpt>
      <trkpt lat="46.48689" lon="5.35901">
        <ele>267.6</ele>
        <time>2022-03-29T14:20:01Z</time>
      </trkpt>
      <trkpt lat="46.48687" lon="5.35909">
        <ele>267.8</ele>
        <time>2022-03-29T14:20:02Z</time>
      </trkpt>
      <trkpt lat="46.48687" lon="5.35909">
        <ele>268.2</ele>
        <time>2022-03-29T14:20:03Z</time>
      </trkpt>
      <trkpt lat="46.4868" lon="5.35952">
        <ele>269.2</ele>
        <time>2022-03-29T14:20:07Z</time>
      </trkpt>
      <trkpt lat="46.48677" lon="5.35985">
        <ele>269.8</ele>
        <time>2022-03-29T14:20:11Z</time>
      </trkpt>
      <trkpt lat="46.48666" lon="5.36047">
        <ele>270</ele>
        <time>2022-03-29T14:20:18Z</time>
      </trkpt>
      <trkpt lat="46.48649" lon="5.36122">
        <ele>268.8</ele>
        <time>2022-03-29T14:20:25Z</time>
      </trkpt>
      <trkpt lat="46.48642" lon="5.36173">
        <ele>268.2</ele>
        <time>2022-03-29T14:20:30Z</time>
      </trkpt>
      <trkpt lat="46.48641" lon="5.36183">
        <ele>268.2</ele>
        <time>2022-03-29T14:20:31Z</time>
      </trkpt>
      <trkpt lat="46.48632" lon="5.36269">
        <ele>268.6</ele>
        <time>2022-03-29T14:20:40Z</time>
      </trkpt>
      <trkpt lat="46.48622" lon="5.36307">
        <ele>269.2</ele>
        <time>2022-03-29T14:20:45Z</time>
      </trkpt>
      <trkpt lat="46.48619" lon="5.36312">
        <ele>269.2</ele>
        <time>2022-03-29T14:20:46Z</time>
      </trkpt>
      <trkpt lat="46.48615" lon="5.36315">
        <ele>269.4</ele>
        <time>2022-03-29T14:20:47Z</time>
      </trkpt>
      <trkpt lat="46.4861" lon="5.36318">
        <ele>270</ele>
        <time>2022-03-29T14:20:49Z</time>
      </trkpt>
      <trkpt lat="46.48601" lon="5.36321">
        <ele>270.2</ele>
        <time>2022-03-29T14:20:50Z</time>
      </trkpt>
      <trkpt lat="46.48597" lon="5.36322">
        <ele>270.4</ele>
        <time>2022-03-29T14:20:52Z</time>
      </trkpt>
      <trkpt lat="46.48583" lon="5.36323">
        <ele>270.8</ele>
        <time>2022-03-29T14:20:54Z</time>
      </trkpt>
      <trkpt lat="46.4857" lon="5.36325">
        <ele>271.8</ele>
        <time>2022-03-29T14:20:58Z</time>
      </trkpt>
      <trkpt lat="46.4856" lon="5.36327">
        <ele>272</ele>
        <time>2022-03-29T14:20:59Z</time>
      </trkpt>
      <trkpt lat="46.48537" lon="5.36331">
        <ele>272.8</ele>
        <time>2022-03-29T14:21:04Z</time>
      </trkpt>
      <trkpt lat="46.48518" lon="5.36334">
        <ele>274</ele>
        <time>2022-03-29T14:21:08Z</time>
      </trkpt>
      <trkpt lat="46.48473" lon="5.36342">
        <ele>274.6</ele>
        <time>2022-03-29T14:21:17Z</time>
      </trkpt>
      <trkpt lat="46.48421" lon="5.36353">
        <ele>275</ele>
        <time>2022-03-29T14:21:27Z</time>
      </trkpt>
      <trkpt lat="46.48415" lon="5.36356">
        <ele>275</ele>
        <time>2022-03-29T14:21:28Z</time>
      </trkpt>
      <trkpt lat="46.4841" lon="5.36359">
        <ele>275</ele>
        <time>2022-03-29T14:21:29Z</time>
      </trkpt>
      <trkpt lat="46.48391" lon="5.36375">
        <ele>275.2</ele>
        <time>2022-03-29T14:21:33Z</time>
      </trkpt>
      <trkpt lat="46.48361" lon="5.36407">
        <ele>275.6</ele>
        <time>2022-03-29T14:21:40Z</time>
      </trkpt>
      <trkpt lat="46.48325" lon="5.36446">
        <ele>276.2</ele>
        <time>2022-03-29T14:21:49Z</time>
      </trkpt>
      <trkpt lat="46.48321" lon="5.36451">
        <ele>276.4</ele>
        <time>2022-03-29T14:21:50Z</time>
      </trkpt>
      <trkpt lat="46.48298" lon="5.36476">
        <ele>277.4</ele>
        <time>2022-03-29T14:21:56Z</time>
      </trkpt>
      <trkpt lat="46.48276" lon="5.365">
        <ele>278.4</ele>
        <time>2022-03-29T14:22:02Z</time>
      </trkpt>
      <trkpt lat="46.48273" lon="5.36505">
        <ele>278.6</ele>
        <time>2022-03-29T14:22:03Z</time>
      </trkpt>
      <trkpt lat="46.48242" lon="5.36538">
        <ele>279.6</ele>
        <time>2022-03-29T14:22:11Z</time>
      </trkpt>
      <trkpt lat="46.48235" lon="5.36545">
        <ele>280</ele>
        <time>2022-03-29T14:22:13Z</time>
      </trkpt>
      <trkpt lat="46.48227" lon="5.36553">
        <ele>280</ele>
        <time>2022-03-29T14:22:15Z</time>
      </trkpt>
      <trkpt lat="46.48219" lon="5.36557">
        <ele>280.4</ele>
        <time>2022-03-29T14:22:17Z</time>
      </trkpt>
      <trkpt lat="46.48214" lon="5.36557">
        <ele>280.6</ele>
        <time>2022-03-29T14:22:18Z</time>
      </trkpt>
      <trkpt lat="46.48205" lon="5.36559">
        <ele>280.8</ele>
        <time>2022-03-29T14:22:20Z</time>
      </trkpt>
      <trkpt lat="46.48196" lon="5.36565">
        <ele>281.2</ele>
        <time>2022-03-29T14:22:22Z</time>
      </trkpt>
      <trkpt lat="46.4819" lon="5.36576">
        <ele>281.4</ele>
        <time>2022-03-29T14:22:24Z</time>
      </trkpt>
      <trkpt lat="46.48186" lon="5.3659">
        <ele>281.6</ele>
        <time>2022-03-29T14:22:26Z</time>
      </trkpt>
      <trkpt lat="46.48183" lon="5.36596">
        <ele>281.6</ele>
        <time>2022-03-29T14:22:27Z</time>
      </trkpt>
      <trkpt lat="46.48177" lon="5.36608">
        <ele>281.8</ele>
        <time>2022-03-29T14:22:29Z</time>
      </trkpt>
      <trkpt lat="46.48177" lon="5.36608">
        <ele>281.8</ele>
        <time>2022-03-29T14:22:30Z</time>
      </trkpt>
      <trkpt lat="46.48158" lon="5.3663">
        <ele>282.4</ele>
        <time>2022-03-29T14:22:34Z</time>
      </trkpt>
      <trkpt lat="46.48153" lon="5.36638">
        <ele>282.6</ele>
        <time>2022-03-29T14:22:36Z</time>
      </trkpt>
      <trkpt lat="46.4814" lon="5.36648">
        <ele>282.8</ele>
        <time>2022-03-29T14:22:40Z</time>
      </trkpt>
      <trkpt lat="46.48135" lon="5.36654">
        <ele>282.8</ele>
        <time>2022-03-29T14:22:41Z</time>
      </trkpt>
      <trkpt lat="46.4813" lon="5.36658">
        <ele>282.8</ele>
        <time>2022-03-29T14:22:42Z</time>
      </trkpt>
      <trkpt lat="46.48126" lon="5.36663">
        <ele>282.8</ele>
        <time>2022-03-29T14:22:43Z</time>
      </trkpt>
      <trkpt lat="46.48111" lon="5.3668">
        <ele>283.2</ele>
        <time>2022-03-29T14:22:47Z</time>
      </trkpt>
      <trkpt lat="46.48108" lon="5.36693">
        <ele>283.4</ele>
        <time>2022-03-29T14:22:49Z</time>
      </trkpt>
      <trkpt lat="46.48113" lon="5.36704">
        <ele>283.6</ele>
        <time>2022-03-29T14:22:51Z</time>
      </trkpt>
      <trkpt lat="46.48117" lon="5.36707">
        <ele>283.8</ele>
        <time>2022-03-29T14:22:52Z</time>
      </trkpt>
      <trkpt lat="46.4812" lon="5.36711">
        <ele>283.8</ele>
        <time>2022-03-29T14:22:53Z</time>
      </trkpt>
      <trkpt lat="46.48151" lon="5.36739">
        <ele>284.8</ele>
        <time>2022-03-29T14:23:01Z</time>
      </trkpt>
      <trkpt lat="46.48153" lon="5.36742">
        <ele>285</ele>
        <time>2022-03-29T14:23:02Z</time>
      </trkpt>
      <trkpt lat="46.48167" lon="5.36755">
        <ele>286</ele>
        <time>2022-03-29T14:23:06Z</time>
      </trkpt>
      <trkpt lat="46.48181" lon="5.36767">
        <ele>287.2</ele>
        <time>2022-03-29T14:23:10Z</time>
      </trkpt>
      <trkpt lat="46.48198" lon="5.36781">
        <ele>288.4</ele>
        <time>2022-03-29T14:23:15Z</time>
      </trkpt>
      <trkpt lat="46.48218" lon="5.36798">
        <ele>289.4</ele>
        <time>2022-03-29T14:23:21Z</time>
      </trkpt>
      <trkpt lat="46.48221" lon="5.368">
        <ele>289.6</ele>
        <time>2022-03-29T14:23:22Z</time>
      </trkpt>
      <trkpt lat="46.48237" lon="5.36814">
        <ele>290.8</ele>
        <time>2022-03-29T14:23:27Z</time>
      </trkpt>
      <trkpt lat="46.48246" lon="5.36822">
        <ele>291.4</ele>
        <time>2022-03-29T14:23:30Z</time>
      </trkpt>
      <trkpt lat="46.48255" lon="5.3683">
        <ele>292</ele>
        <time>2022-03-29T14:23:33Z</time>
      </trkpt>
    </trkseg>
  </trk>
</gpx>